<?xml version="1.0" encoding="UTF-8" standalone="no" ?>
<gpx xmlns="http://www.topografix.com/GPX/1/1" xmlns:xsi="http://www.w3.org/2001/XMLSchema-instance" xsi:schemaLocation="http://www.topografix.com/GPX/1/1 http://www.topografix.com/GPX/1/1/gpx.xsd" version="1.1" creator="VisuGPX - https://www.visugpx.com">
  <metadata>
    <name>Montée au Lac Besson</name>
  </metadata>
  <trk>
    <name><![CDATA[Montée au Lac Besson_1]]></name>
    <trkseg>
      <trkpt lat="45.0946" lon="6.0688">
        <ele>1843.7</ele>
        <time>2024-07-10T09:17:18Z</time>
      </trkpt>
      <trkpt lat="45.09459" lon="6.06883">
        <ele>1843.9</ele>
        <time>2024-07-10T09:17:19Z</time>
      </trkpt>
      <trkpt lat="45.09459" lon="6.06884">
        <ele>1843.9</ele>
        <time>2024-07-10T09:17:20Z</time>
      </trkpt>
      <trkpt lat="45.09459" lon="6.06884">
        <ele>1844</ele>
        <time>2024-07-10T09:17:21Z</time>
      </trkpt>
      <trkpt lat="45.09459" lon="6.06886">
        <ele>1844.1</ele>
        <time>2024-07-10T09:17:22Z</time>
      </trkpt>
      <trkpt lat="45.0946" lon="6.06887">
        <ele>1844.1</ele>
        <time>2024-07-10T09:17:23Z</time>
      </trkpt>
      <trkpt lat="45.09461" lon="6.0689">
        <ele>1844.4</ele>
        <time>2024-07-10T09:17:24Z</time>
      </trkpt>
      <trkpt lat="45.09462" lon="6.0689">
        <ele>1844.4</ele>
        <time>2024-07-10T09:17:25Z</time>
      </trkpt>
      <trkpt lat="45.09463" lon="6.06891">
        <ele>1844.5</ele>
        <time>2024-07-10T09:17:26Z</time>
      </trkpt>
      <trkpt lat="45.09464" lon="6.06893">
        <ele>1844.7</ele>
        <time>2024-07-10T09:17:27Z</time>
      </trkpt>
      <trkpt lat="45.09464" lon="6.06894">
        <ele>1844.8</ele>
        <time>2024-07-10T09:17:28Z</time>
      </trkpt>
      <trkpt lat="45.09464" lon="6.06895">
        <ele>1844.9</ele>
        <time>2024-07-10T09:17:29Z</time>
      </trkpt>
      <trkpt lat="45.09465" lon="6.06897">
        <ele>1844.9</ele>
        <time>2024-07-10T09:17:30Z</time>
      </trkpt>
      <trkpt lat="45.09465" lon="6.06898">
        <ele>1845</ele>
        <time>2024-07-10T09:17:31Z</time>
      </trkpt>
      <trkpt lat="45.09466" lon="6.069">
        <ele>1845.2</ele>
        <time>2024-07-10T09:17:32Z</time>
      </trkpt>
      <trkpt lat="45.09466" lon="6.06901">
        <ele>1845.3</ele>
        <time>2024-07-10T09:17:33Z</time>
      </trkpt>
      <trkpt lat="45.09467" lon="6.06903">
        <ele>1845.4</ele>
        <time>2024-07-10T09:17:34Z</time>
      </trkpt>
      <trkpt lat="45.09468" lon="6.06903">
        <ele>1845.4</ele>
        <time>2024-07-10T09:17:35Z</time>
      </trkpt>
      <trkpt lat="45.09468" lon="6.06904">
        <ele>1845.5</ele>
        <time>2024-07-10T09:17:36Z</time>
      </trkpt>
      <trkpt lat="45.09469" lon="6.06906">
        <ele>1845.6</ele>
        <time>2024-07-10T09:17:37Z</time>
      </trkpt>
      <trkpt lat="45.0947" lon="6.06907">
        <ele>1845.7</ele>
        <time>2024-07-10T09:17:38Z</time>
      </trkpt>
      <trkpt lat="45.09471" lon="6.06907">
        <ele>1845.8</ele>
        <time>2024-07-10T09:17:39Z</time>
      </trkpt>
      <trkpt lat="45.09472" lon="6.06908">
        <ele>1845.9</ele>
        <time>2024-07-10T09:17:40Z</time>
      </trkpt>
      <trkpt lat="45.09472" lon="6.06908">
        <ele>1846</ele>
        <time>2024-07-10T09:17:41Z</time>
      </trkpt>
      <trkpt lat="45.09473" lon="6.0691">
        <ele>1846.1</ele>
        <time>2024-07-10T09:17:42Z</time>
      </trkpt>
      <trkpt lat="45.09474" lon="6.06911">
        <ele>1846.2</ele>
        <time>2024-07-10T09:17:43Z</time>
      </trkpt>
      <trkpt lat="45.09474" lon="6.06911">
        <ele>1846.2</ele>
        <time>2024-07-10T09:17:44Z</time>
      </trkpt>
      <trkpt lat="45.09475" lon="6.06912">
        <ele>1846.3</ele>
        <time>2024-07-10T09:17:45Z</time>
      </trkpt>
      <trkpt lat="45.09475" lon="6.06913">
        <ele>1846.4</ele>
        <time>2024-07-10T09:17:46Z</time>
      </trkpt>
      <trkpt lat="45.09476" lon="6.06914">
        <ele>1846.5</ele>
        <time>2024-07-10T09:17:47Z</time>
      </trkpt>
      <trkpt lat="45.09476" lon="6.06915">
        <ele>1846.5</ele>
        <time>2024-07-10T09:17:48Z</time>
      </trkpt>
      <trkpt lat="45.09477" lon="6.06916">
        <ele>1846.6</ele>
        <time>2024-07-10T09:17:49Z</time>
      </trkpt>
      <trkpt lat="45.09478" lon="6.06917">
        <ele>1846.7</ele>
        <time>2024-07-10T09:17:50Z</time>
      </trkpt>
      <trkpt lat="45.09479" lon="6.06918">
        <ele>1846.8</ele>
        <time>2024-07-10T09:17:51Z</time>
      </trkpt>
      <trkpt lat="45.09479" lon="6.06919">
        <ele>1846.9</ele>
        <time>2024-07-10T09:17:52Z</time>
      </trkpt>
      <trkpt lat="45.0948" lon="6.0692">
        <ele>1847</ele>
        <time>2024-07-10T09:17:53Z</time>
      </trkpt>
      <trkpt lat="45.09482" lon="6.0692">
        <ele>1847.1</ele>
        <time>2024-07-10T09:17:54Z</time>
      </trkpt>
      <trkpt lat="45.09483" lon="6.06922">
        <ele>1847.3</ele>
        <time>2024-07-10T09:17:55Z</time>
      </trkpt>
      <trkpt lat="45.09484" lon="6.06923">
        <ele>1847.3</ele>
        <time>2024-07-10T09:17:56Z</time>
      </trkpt>
      <trkpt lat="45.09485" lon="6.06923">
        <ele>1847.4</ele>
        <time>2024-07-10T09:17:57Z</time>
      </trkpt>
      <trkpt lat="45.09486" lon="6.06924">
        <ele>1847.5</ele>
        <time>2024-07-10T09:17:58Z</time>
      </trkpt>
      <trkpt lat="45.09488" lon="6.06924">
        <ele>1847.6</ele>
        <time>2024-07-10T09:17:59Z</time>
      </trkpt>
      <trkpt lat="45.09489" lon="6.06924">
        <ele>1847.7</ele>
        <time>2024-07-10T09:18:00Z</time>
      </trkpt>
      <trkpt lat="45.0949" lon="6.06925">
        <ele>1847.8</ele>
        <time>2024-07-10T09:18:01Z</time>
      </trkpt>
      <trkpt lat="45.09491" lon="6.06925">
        <ele>1847.9</ele>
        <time>2024-07-10T09:18:02Z</time>
      </trkpt>
      <trkpt lat="45.09493" lon="6.06925">
        <ele>1848.1</ele>
        <time>2024-07-10T09:18:03Z</time>
      </trkpt>
      <trkpt lat="45.09495" lon="6.06925">
        <ele>1848.1</ele>
        <time>2024-07-10T09:18:04Z</time>
      </trkpt>
      <trkpt lat="45.09496" lon="6.06925">
        <ele>1848.2</ele>
        <time>2024-07-10T09:18:05Z</time>
      </trkpt>
      <trkpt lat="45.09496" lon="6.06925">
        <ele>1848.3</ele>
        <time>2024-07-10T09:18:06Z</time>
      </trkpt>
      <trkpt lat="45.09497" lon="6.06926">
        <ele>1848.4</ele>
        <time>2024-07-10T09:18:07Z</time>
      </trkpt>
      <trkpt lat="45.09498" lon="6.06927">
        <ele>1848.4</ele>
        <time>2024-07-10T09:18:08Z</time>
      </trkpt>
      <trkpt lat="45.09499" lon="6.06928">
        <ele>1848.5</ele>
        <time>2024-07-10T09:18:09Z</time>
      </trkpt>
      <trkpt lat="45.095" lon="6.06929">
        <ele>1848.6</ele>
        <time>2024-07-10T09:18:10Z</time>
      </trkpt>
      <trkpt lat="45.09501" lon="6.0693">
        <ele>1848.6</ele>
        <time>2024-07-10T09:18:11Z</time>
      </trkpt>
      <trkpt lat="45.09502" lon="6.0693">
        <ele>1848.7</ele>
        <time>2024-07-10T09:18:12Z</time>
      </trkpt>
      <trkpt lat="45.09503" lon="6.06931">
        <ele>1848.8</ele>
        <time>2024-07-10T09:18:13Z</time>
      </trkpt>
      <trkpt lat="45.09505" lon="6.06931">
        <ele>1848.9</ele>
        <time>2024-07-10T09:18:14Z</time>
      </trkpt>
      <trkpt lat="45.09505" lon="6.06931">
        <ele>1848.9</ele>
        <time>2024-07-10T09:18:15Z</time>
      </trkpt>
      <trkpt lat="45.09506" lon="6.06932">
        <ele>1849</ele>
        <time>2024-07-10T09:18:16Z</time>
      </trkpt>
      <trkpt lat="45.09507" lon="6.06932">
        <ele>1849.1</ele>
        <time>2024-07-10T09:18:17Z</time>
      </trkpt>
      <trkpt lat="45.09508" lon="6.06932">
        <ele>1849.1</ele>
        <time>2024-07-10T09:18:18Z</time>
      </trkpt>
      <trkpt lat="45.0951" lon="6.06932">
        <ele>1849.2</ele>
        <time>2024-07-10T09:18:19Z</time>
      </trkpt>
      <trkpt lat="45.09511" lon="6.06932">
        <ele>1849.3</ele>
        <time>2024-07-10T09:18:20Z</time>
      </trkpt>
      <trkpt lat="45.09512" lon="6.06932">
        <ele>1849.3</ele>
        <time>2024-07-10T09:18:21Z</time>
      </trkpt>
      <trkpt lat="45.09513" lon="6.06933">
        <ele>1849.4</ele>
        <time>2024-07-10T09:18:22Z</time>
      </trkpt>
      <trkpt lat="45.09514" lon="6.06933">
        <ele>1849.5</ele>
        <time>2024-07-10T09:18:23Z</time>
      </trkpt>
      <trkpt lat="45.09516" lon="6.06933">
        <ele>1849.6</ele>
        <time>2024-07-10T09:18:24Z</time>
      </trkpt>
      <trkpt lat="45.09517" lon="6.06934">
        <ele>1849.6</ele>
        <time>2024-07-10T09:18:25Z</time>
      </trkpt>
      <trkpt lat="45.09518" lon="6.06934">
        <ele>1849.7</ele>
        <time>2024-07-10T09:18:26Z</time>
      </trkpt>
      <trkpt lat="45.09519" lon="6.06935">
        <ele>1849.7</ele>
        <time>2024-07-10T09:18:27Z</time>
      </trkpt>
      <trkpt lat="45.0952" lon="6.06936">
        <ele>1849.8</ele>
        <time>2024-07-10T09:18:28Z</time>
      </trkpt>
      <trkpt lat="45.09522" lon="6.06934">
        <ele>1849.9</ele>
        <time>2024-07-10T09:18:29Z</time>
      </trkpt>
      <trkpt lat="45.09523" lon="6.06934">
        <ele>1850</ele>
        <time>2024-07-10T09:18:30Z</time>
      </trkpt>
      <trkpt lat="45.09524" lon="6.06934">
        <ele>1850</ele>
        <time>2024-07-10T09:18:31Z</time>
      </trkpt>
      <trkpt lat="45.09525" lon="6.06935">
        <ele>1850.1</ele>
        <time>2024-07-10T09:18:32Z</time>
      </trkpt>
      <trkpt lat="45.09527" lon="6.06933">
        <ele>1850.3</ele>
        <time>2024-07-10T09:18:33Z</time>
      </trkpt>
      <trkpt lat="45.09528" lon="6.06931">
        <ele>1850.4</ele>
        <time>2024-07-10T09:18:34Z</time>
      </trkpt>
      <trkpt lat="45.09529" lon="6.0693">
        <ele>1850.4</ele>
        <time>2024-07-10T09:18:35Z</time>
      </trkpt>
      <trkpt lat="45.0953" lon="6.06931">
        <ele>1850.5</ele>
        <time>2024-07-10T09:18:36Z</time>
      </trkpt>
      <trkpt lat="45.09531" lon="6.06933">
        <ele>1850.6</ele>
        <time>2024-07-10T09:18:37Z</time>
      </trkpt>
      <trkpt lat="45.09532" lon="6.06934">
        <ele>1850.7</ele>
        <time>2024-07-10T09:18:38Z</time>
      </trkpt>
      <trkpt lat="45.09534" lon="6.06934">
        <ele>1850.7</ele>
        <time>2024-07-10T09:18:39Z</time>
      </trkpt>
      <trkpt lat="45.09534" lon="6.06934">
        <ele>1850.8</ele>
        <time>2024-07-10T09:18:40Z</time>
      </trkpt>
      <trkpt lat="45.09535" lon="6.06936">
        <ele>1850.9</ele>
        <time>2024-07-10T09:18:41Z</time>
      </trkpt>
      <trkpt lat="45.09536" lon="6.06937">
        <ele>1850.9</ele>
        <time>2024-07-10T09:18:42Z</time>
      </trkpt>
      <trkpt lat="45.09537" lon="6.06939">
        <ele>1851</ele>
        <time>2024-07-10T09:18:43Z</time>
      </trkpt>
      <trkpt lat="45.09537" lon="6.06941">
        <ele>1851.1</ele>
        <time>2024-07-10T09:18:44Z</time>
      </trkpt>
      <trkpt lat="45.09538" lon="6.06942">
        <ele>1851.1</ele>
        <time>2024-07-10T09:18:45Z</time>
      </trkpt>
      <trkpt lat="45.09539" lon="6.06942">
        <ele>1851.2</ele>
        <time>2024-07-10T09:18:46Z</time>
      </trkpt>
      <trkpt lat="45.0954" lon="6.06943">
        <ele>1851.3</ele>
        <time>2024-07-10T09:18:47Z</time>
      </trkpt>
      <trkpt lat="45.0954" lon="6.06945">
        <ele>1851.3</ele>
        <time>2024-07-10T09:18:48Z</time>
      </trkpt>
      <trkpt lat="45.09542" lon="6.06944">
        <ele>1851.4</ele>
        <time>2024-07-10T09:18:49Z</time>
      </trkpt>
      <trkpt lat="45.09543" lon="6.06945">
        <ele>1851.5</ele>
        <time>2024-07-10T09:18:50Z</time>
      </trkpt>
      <trkpt lat="45.09543" lon="6.06946">
        <ele>1851.5</ele>
        <time>2024-07-10T09:18:51Z</time>
      </trkpt>
      <trkpt lat="45.09543" lon="6.06948">
        <ele>1851.6</ele>
        <time>2024-07-10T09:18:52Z</time>
      </trkpt>
      <trkpt lat="45.09543" lon="6.0695">
        <ele>1851.6</ele>
        <time>2024-07-10T09:18:53Z</time>
      </trkpt>
      <trkpt lat="45.09544" lon="6.06952">
        <ele>1851.7</ele>
        <time>2024-07-10T09:18:54Z</time>
      </trkpt>
      <trkpt lat="45.09544" lon="6.06953">
        <ele>1851.8</ele>
        <time>2024-07-10T09:18:55Z</time>
      </trkpt>
      <trkpt lat="45.09545" lon="6.06954">
        <ele>1851.8</ele>
        <time>2024-07-10T09:18:56Z</time>
      </trkpt>
      <trkpt lat="45.09547" lon="6.06956">
        <ele>1852</ele>
        <time>2024-07-10T09:18:57Z</time>
      </trkpt>
      <trkpt lat="45.09549" lon="6.06956">
        <ele>1852</ele>
        <time>2024-07-10T09:18:58Z</time>
      </trkpt>
      <trkpt lat="45.0955" lon="6.06957">
        <ele>1852.1</ele>
        <time>2024-07-10T09:18:59Z</time>
      </trkpt>
      <trkpt lat="45.09551" lon="6.06958">
        <ele>1852.2</ele>
        <time>2024-07-10T09:19:00Z</time>
      </trkpt>
      <trkpt lat="45.09552" lon="6.06959">
        <ele>1852.3</ele>
        <time>2024-07-10T09:19:01Z</time>
      </trkpt>
      <trkpt lat="45.09553" lon="6.0696">
        <ele>1852.3</ele>
        <time>2024-07-10T09:19:02Z</time>
      </trkpt>
      <trkpt lat="45.09555" lon="6.06962">
        <ele>1852.4</ele>
        <time>2024-07-10T09:19:03Z</time>
      </trkpt>
      <trkpt lat="45.09556" lon="6.06962">
        <ele>1852.5</ele>
        <time>2024-07-10T09:19:04Z</time>
      </trkpt>
      <trkpt lat="45.09557" lon="6.06963">
        <ele>1852.6</ele>
        <time>2024-07-10T09:19:05Z</time>
      </trkpt>
      <trkpt lat="45.09557" lon="6.06966">
        <ele>1852.5</ele>
        <time>2024-07-10T09:19:06Z</time>
      </trkpt>
      <trkpt lat="45.09557" lon="6.06967">
        <ele>1852.5</ele>
        <time>2024-07-10T09:19:07Z</time>
      </trkpt>
      <trkpt lat="45.09557" lon="6.06969">
        <ele>1852.5</ele>
        <time>2024-07-10T09:19:08Z</time>
      </trkpt>
      <trkpt lat="45.09557" lon="6.06971">
        <ele>1852.4</ele>
        <time>2024-07-10T09:19:09Z</time>
      </trkpt>
      <trkpt lat="45.09559" lon="6.06972">
        <ele>1852.4</ele>
        <time>2024-07-10T09:19:10Z</time>
      </trkpt>
      <trkpt lat="45.09559" lon="6.06975">
        <ele>1852.3</ele>
        <time>2024-07-10T09:19:11Z</time>
      </trkpt>
      <trkpt lat="45.09559" lon="6.06977">
        <ele>1852.3</ele>
        <time>2024-07-10T09:19:12Z</time>
      </trkpt>
      <trkpt lat="45.09559" lon="6.06978">
        <ele>1852.3</ele>
        <time>2024-07-10T09:19:13Z</time>
      </trkpt>
      <trkpt lat="45.09561" lon="6.06981">
        <ele>1852.3</ele>
        <time>2024-07-10T09:19:14Z</time>
      </trkpt>
      <trkpt lat="45.09562" lon="6.06981">
        <ele>1852.2</ele>
        <time>2024-07-10T09:19:15Z</time>
      </trkpt>
      <trkpt lat="45.09563" lon="6.06983">
        <ele>1852.2</ele>
        <time>2024-07-10T09:19:16Z</time>
      </trkpt>
      <trkpt lat="45.09564" lon="6.06985">
        <ele>1852.2</ele>
        <time>2024-07-10T09:19:17Z</time>
      </trkpt>
      <trkpt lat="45.09566" lon="6.06987">
        <ele>1852.2</ele>
        <time>2024-07-10T09:19:18Z</time>
      </trkpt>
      <trkpt lat="45.09567" lon="6.06988">
        <ele>1852.2</ele>
        <time>2024-07-10T09:19:19Z</time>
      </trkpt>
      <trkpt lat="45.09569" lon="6.06989">
        <ele>1852.1</ele>
        <time>2024-07-10T09:19:20Z</time>
      </trkpt>
      <trkpt lat="45.0957" lon="6.0699">
        <ele>1852.1</ele>
        <time>2024-07-10T09:19:21Z</time>
      </trkpt>
      <trkpt lat="45.09571" lon="6.06991">
        <ele>1852.1</ele>
        <time>2024-07-10T09:19:22Z</time>
      </trkpt>
      <trkpt lat="45.09572" lon="6.06992">
        <ele>1852.1</ele>
        <time>2024-07-10T09:19:23Z</time>
      </trkpt>
      <trkpt lat="45.09574" lon="6.06994">
        <ele>1852</ele>
        <time>2024-07-10T09:19:24Z</time>
      </trkpt>
      <trkpt lat="45.09575" lon="6.06995">
        <ele>1852</ele>
        <time>2024-07-10T09:19:25Z</time>
      </trkpt>
      <trkpt lat="45.09576" lon="6.06997">
        <ele>1852</ele>
        <time>2024-07-10T09:19:26Z</time>
      </trkpt>
      <trkpt lat="45.09577" lon="6.06998">
        <ele>1852</ele>
        <time>2024-07-10T09:19:27Z</time>
      </trkpt>
      <trkpt lat="45.09577" lon="6.06999">
        <ele>1852</ele>
        <time>2024-07-10T09:19:28Z</time>
      </trkpt>
      <trkpt lat="45.09579" lon="6.07001">
        <ele>1851.9</ele>
        <time>2024-07-10T09:19:29Z</time>
      </trkpt>
      <trkpt lat="45.09579" lon="6.07002">
        <ele>1851.9</ele>
        <time>2024-07-10T09:19:30Z</time>
      </trkpt>
      <trkpt lat="45.0958" lon="6.07003">
        <ele>1851.8</ele>
        <time>2024-07-10T09:19:31Z</time>
      </trkpt>
      <trkpt lat="45.09581" lon="6.07004">
        <ele>1851.8</ele>
        <time>2024-07-10T09:19:32Z</time>
      </trkpt>
      <trkpt lat="45.09582" lon="6.07005">
        <ele>1851.7</ele>
        <time>2024-07-10T09:19:33Z</time>
      </trkpt>
      <trkpt lat="45.09583" lon="6.07007">
        <ele>1851.6</ele>
        <time>2024-07-10T09:19:34Z</time>
      </trkpt>
      <trkpt lat="45.09584" lon="6.07007">
        <ele>1851.6</ele>
        <time>2024-07-10T09:19:35Z</time>
      </trkpt>
      <trkpt lat="45.09585" lon="6.07008">
        <ele>1851.5</ele>
        <time>2024-07-10T09:19:36Z</time>
      </trkpt>
      <trkpt lat="45.09586" lon="6.07009">
        <ele>1851.4</ele>
        <time>2024-07-10T09:19:37Z</time>
      </trkpt>
      <trkpt lat="45.09588" lon="6.07011">
        <ele>1851.2</ele>
        <time>2024-07-10T09:19:38Z</time>
      </trkpt>
      <trkpt lat="45.09588" lon="6.07012">
        <ele>1851.2</ele>
        <time>2024-07-10T09:19:39Z</time>
      </trkpt>
      <trkpt lat="45.09589" lon="6.07012">
        <ele>1851.1</ele>
        <time>2024-07-10T09:19:40Z</time>
      </trkpt>
      <trkpt lat="45.09591" lon="6.07014">
        <ele>1851</ele>
        <time>2024-07-10T09:19:41Z</time>
      </trkpt>
      <trkpt lat="45.09591" lon="6.07014">
        <ele>1850.9</ele>
        <time>2024-07-10T09:19:42Z</time>
      </trkpt>
      <trkpt lat="45.09592" lon="6.07015">
        <ele>1850.9</ele>
        <time>2024-07-10T09:19:43Z</time>
      </trkpt>
      <trkpt lat="45.09593" lon="6.07016">
        <ele>1850.9</ele>
        <time>2024-07-10T09:19:44Z</time>
      </trkpt>
      <trkpt lat="45.09593" lon="6.07017">
        <ele>1850.9</ele>
        <time>2024-07-10T09:19:45Z</time>
      </trkpt>
      <trkpt lat="45.09594" lon="6.07018">
        <ele>1850.9</ele>
        <time>2024-07-10T09:19:46Z</time>
      </trkpt>
      <trkpt lat="45.09595" lon="6.07019">
        <ele>1851</ele>
        <time>2024-07-10T09:19:47Z</time>
      </trkpt>
      <trkpt lat="45.09596" lon="6.0702">
        <ele>1851</ele>
        <time>2024-07-10T09:19:48Z</time>
      </trkpt>
      <trkpt lat="45.09597" lon="6.0702">
        <ele>1851</ele>
        <time>2024-07-10T09:19:49Z</time>
      </trkpt>
      <trkpt lat="45.09599" lon="6.07021">
        <ele>1851</ele>
        <time>2024-07-10T09:19:50Z</time>
      </trkpt>
      <trkpt lat="45.09599" lon="6.07021">
        <ele>1851</ele>
        <time>2024-07-10T09:19:51Z</time>
      </trkpt>
      <trkpt lat="45.096" lon="6.07021">
        <ele>1851</ele>
        <time>2024-07-10T09:19:52Z</time>
      </trkpt>
      <trkpt lat="45.09602" lon="6.07021">
        <ele>1851.1</ele>
        <time>2024-07-10T09:19:53Z</time>
      </trkpt>
      <trkpt lat="45.09604" lon="6.0702">
        <ele>1851.3</ele>
        <time>2024-07-10T09:19:54Z</time>
      </trkpt>
      <trkpt lat="45.09605" lon="6.0702">
        <ele>1851.3</ele>
        <time>2024-07-10T09:19:55Z</time>
      </trkpt>
      <trkpt lat="45.09606" lon="6.0702">
        <ele>1851.4</ele>
        <time>2024-07-10T09:19:56Z</time>
      </trkpt>
      <trkpt lat="45.09607" lon="6.0702">
        <ele>1851.5</ele>
        <time>2024-07-10T09:19:57Z</time>
      </trkpt>
      <trkpt lat="45.09608" lon="6.07021">
        <ele>1851.6</ele>
        <time>2024-07-10T09:19:58Z</time>
      </trkpt>
      <trkpt lat="45.0961" lon="6.07021">
        <ele>1851.7</ele>
        <time>2024-07-10T09:19:59Z</time>
      </trkpt>
      <trkpt lat="45.09611" lon="6.07021">
        <ele>1851.8</ele>
        <time>2024-07-10T09:20:00Z</time>
      </trkpt>
      <trkpt lat="45.09613" lon="6.0702">
        <ele>1851.9</ele>
        <time>2024-07-10T09:20:01Z</time>
      </trkpt>
      <trkpt lat="45.09615" lon="6.07019">
        <ele>1852.1</ele>
        <time>2024-07-10T09:20:02Z</time>
      </trkpt>
      <trkpt lat="45.09617" lon="6.07018">
        <ele>1852.2</ele>
        <time>2024-07-10T09:20:03Z</time>
      </trkpt>
      <trkpt lat="45.09618" lon="6.07017">
        <ele>1852.3</ele>
        <time>2024-07-10T09:20:04Z</time>
      </trkpt>
      <trkpt lat="45.09619" lon="6.07016">
        <ele>1852.4</ele>
        <time>2024-07-10T09:20:05Z</time>
      </trkpt>
      <trkpt lat="45.0962" lon="6.07014">
        <ele>1852.5</ele>
        <time>2024-07-10T09:20:06Z</time>
      </trkpt>
      <trkpt lat="45.09621" lon="6.07012">
        <ele>1852.7</ele>
        <time>2024-07-10T09:20:07Z</time>
      </trkpt>
      <trkpt lat="45.09623" lon="6.07011">
        <ele>1852.8</ele>
        <time>2024-07-10T09:20:08Z</time>
      </trkpt>
      <trkpt lat="45.09624" lon="6.07011">
        <ele>1852.9</ele>
        <time>2024-07-10T09:20:09Z</time>
      </trkpt>
      <trkpt lat="45.09625" lon="6.07009">
        <ele>1853</ele>
        <time>2024-07-10T09:20:10Z</time>
      </trkpt>
      <trkpt lat="45.09627" lon="6.07008">
        <ele>1853.1</ele>
        <time>2024-07-10T09:20:11Z</time>
      </trkpt>
      <trkpt lat="45.09628" lon="6.07007">
        <ele>1853.3</ele>
        <time>2024-07-10T09:20:12Z</time>
      </trkpt>
      <trkpt lat="45.0963" lon="6.07007">
        <ele>1853.4</ele>
        <time>2024-07-10T09:20:13Z</time>
      </trkpt>
      <trkpt lat="45.09631" lon="6.07007">
        <ele>1853.5</ele>
        <time>2024-07-10T09:20:14Z</time>
      </trkpt>
      <trkpt lat="45.09632" lon="6.07006">
        <ele>1853.6</ele>
        <time>2024-07-10T09:20:15Z</time>
      </trkpt>
      <trkpt lat="45.09634" lon="6.07005">
        <ele>1853.8</ele>
        <time>2024-07-10T09:20:16Z</time>
      </trkpt>
      <trkpt lat="45.09635" lon="6.07005">
        <ele>1853.8</ele>
        <time>2024-07-10T09:20:17Z</time>
      </trkpt>
      <trkpt lat="45.09636" lon="6.07005">
        <ele>1853.9</ele>
        <time>2024-07-10T09:20:18Z</time>
      </trkpt>
      <trkpt lat="45.09637" lon="6.07004">
        <ele>1854</ele>
        <time>2024-07-10T09:20:19Z</time>
      </trkpt>
      <trkpt lat="45.09639" lon="6.07004">
        <ele>1854.1</ele>
        <time>2024-07-10T09:20:20Z</time>
      </trkpt>
      <trkpt lat="45.09641" lon="6.07003">
        <ele>1854.3</ele>
        <time>2024-07-10T09:20:21Z</time>
      </trkpt>
      <trkpt lat="45.09642" lon="6.07003">
        <ele>1854.3</ele>
        <time>2024-07-10T09:20:22Z</time>
      </trkpt>
      <trkpt lat="45.09642" lon="6.07003">
        <ele>1854.4</ele>
        <time>2024-07-10T09:20:23Z</time>
      </trkpt>
      <trkpt lat="45.09643" lon="6.07002">
        <ele>1854.5</ele>
        <time>2024-07-10T09:20:24Z</time>
      </trkpt>
      <trkpt lat="45.09644" lon="6.07002">
        <ele>1854.6</ele>
        <time>2024-07-10T09:20:25Z</time>
      </trkpt>
      <trkpt lat="45.09646" lon="6.07002">
        <ele>1854.7</ele>
        <time>2024-07-10T09:20:26Z</time>
      </trkpt>
      <trkpt lat="45.09647" lon="6.07002">
        <ele>1854.8</ele>
        <time>2024-07-10T09:20:27Z</time>
      </trkpt>
      <trkpt lat="45.09649" lon="6.07002">
        <ele>1854.9</ele>
        <time>2024-07-10T09:20:28Z</time>
      </trkpt>
      <trkpt lat="45.09651" lon="6.07001">
        <ele>1855.1</ele>
        <time>2024-07-10T09:20:29Z</time>
      </trkpt>
      <trkpt lat="45.09652" lon="6.07001">
        <ele>1855.2</ele>
        <time>2024-07-10T09:20:30Z</time>
      </trkpt>
      <trkpt lat="45.09653" lon="6.07">
        <ele>1855.3</ele>
        <time>2024-07-10T09:20:31Z</time>
      </trkpt>
      <trkpt lat="45.09654" lon="6.07">
        <ele>1855.3</ele>
        <time>2024-07-10T09:20:32Z</time>
      </trkpt>
      <trkpt lat="45.09655" lon="6.06999">
        <ele>1855.5</ele>
        <time>2024-07-10T09:20:33Z</time>
      </trkpt>
      <trkpt lat="45.09656" lon="6.06999">
        <ele>1855.6</ele>
        <time>2024-07-10T09:20:34Z</time>
      </trkpt>
      <trkpt lat="45.09657" lon="6.06999">
        <ele>1855.6</ele>
        <time>2024-07-10T09:20:35Z</time>
      </trkpt>
      <trkpt lat="45.09659" lon="6.06998">
        <ele>1855.7</ele>
        <time>2024-07-10T09:20:36Z</time>
      </trkpt>
      <trkpt lat="45.0966" lon="6.06999">
        <ele>1855.8</ele>
        <time>2024-07-10T09:20:37Z</time>
      </trkpt>
      <trkpt lat="45.09662" lon="6.06998">
        <ele>1856</ele>
        <time>2024-07-10T09:20:38Z</time>
      </trkpt>
      <trkpt lat="45.09663" lon="6.06998">
        <ele>1856.1</ele>
        <time>2024-07-10T09:20:39Z</time>
      </trkpt>
      <trkpt lat="45.09664" lon="6.06998">
        <ele>1856.2</ele>
        <time>2024-07-10T09:20:40Z</time>
      </trkpt>
      <trkpt lat="45.09665" lon="6.06997">
        <ele>1856.3</ele>
        <time>2024-07-10T09:20:41Z</time>
      </trkpt>
      <trkpt lat="45.09666" lon="6.06996">
        <ele>1856.4</ele>
        <time>2024-07-10T09:20:42Z</time>
      </trkpt>
      <trkpt lat="45.09668" lon="6.06995">
        <ele>1856.5</ele>
        <time>2024-07-10T09:20:43Z</time>
      </trkpt>
      <trkpt lat="45.09669" lon="6.06993">
        <ele>1856.7</ele>
        <time>2024-07-10T09:20:44Z</time>
      </trkpt>
      <trkpt lat="45.0967" lon="6.06992">
        <ele>1856.8</ele>
        <time>2024-07-10T09:20:45Z</time>
      </trkpt>
      <trkpt lat="45.09672" lon="6.06991">
        <ele>1856.9</ele>
        <time>2024-07-10T09:20:46Z</time>
      </trkpt>
      <trkpt lat="45.09673" lon="6.0699">
        <ele>1857</ele>
        <time>2024-07-10T09:20:47Z</time>
      </trkpt>
      <trkpt lat="45.09674" lon="6.06988">
        <ele>1857.2</ele>
        <time>2024-07-10T09:20:48Z</time>
      </trkpt>
      <trkpt lat="45.09676" lon="6.06986">
        <ele>1857.4</ele>
        <time>2024-07-10T09:20:49Z</time>
      </trkpt>
      <trkpt lat="45.09676" lon="6.06986">
        <ele>1857.4</ele>
        <time>2024-07-10T09:20:50Z</time>
      </trkpt>
      <trkpt lat="45.09677" lon="6.06986">
        <ele>1857.5</ele>
        <time>2024-07-10T09:20:51Z</time>
      </trkpt>
      <trkpt lat="45.09678" lon="6.06985">
        <ele>1857.6</ele>
        <time>2024-07-10T09:20:52Z</time>
      </trkpt>
      <trkpt lat="45.09679" lon="6.06985">
        <ele>1857.7</ele>
        <time>2024-07-10T09:20:53Z</time>
      </trkpt>
      <trkpt lat="45.09681" lon="6.06984">
        <ele>1857.8</ele>
        <time>2024-07-10T09:20:54Z</time>
      </trkpt>
      <trkpt lat="45.09682" lon="6.06984">
        <ele>1857.9</ele>
        <time>2024-07-10T09:20:55Z</time>
      </trkpt>
      <trkpt lat="45.09683" lon="6.06983">
        <ele>1857.9</ele>
        <time>2024-07-10T09:20:56Z</time>
      </trkpt>
      <trkpt lat="45.09684" lon="6.06983">
        <ele>1858</ele>
        <time>2024-07-10T09:20:57Z</time>
      </trkpt>
      <trkpt lat="45.09685" lon="6.06982">
        <ele>1858</ele>
        <time>2024-07-10T09:20:58Z</time>
      </trkpt>
      <trkpt lat="45.09686" lon="6.06982">
        <ele>1858.1</ele>
        <time>2024-07-10T09:20:59Z</time>
      </trkpt>
      <trkpt lat="45.09687" lon="6.06982">
        <ele>1858.1</ele>
        <time>2024-07-10T09:21:00Z</time>
      </trkpt>
      <trkpt lat="45.09688" lon="6.06982">
        <ele>1858.1</ele>
        <time>2024-07-10T09:21:01Z</time>
      </trkpt>
      <trkpt lat="45.0969" lon="6.06982">
        <ele>1858.2</ele>
        <time>2024-07-10T09:21:02Z</time>
      </trkpt>
      <trkpt lat="45.09691" lon="6.06983">
        <ele>1858.2</ele>
        <time>2024-07-10T09:21:03Z</time>
      </trkpt>
      <trkpt lat="45.09691" lon="6.06983">
        <ele>1858.3</ele>
        <time>2024-07-10T09:21:04Z</time>
      </trkpt>
      <trkpt lat="45.09694" lon="6.06984">
        <ele>1858.4</ele>
        <time>2024-07-10T09:21:05Z</time>
      </trkpt>
      <trkpt lat="45.09695" lon="6.06985">
        <ele>1858.4</ele>
        <time>2024-07-10T09:21:06Z</time>
      </trkpt>
      <trkpt lat="45.09696" lon="6.06985">
        <ele>1858.4</ele>
        <time>2024-07-10T09:21:07Z</time>
      </trkpt>
      <trkpt lat="45.09697" lon="6.06985">
        <ele>1858.5</ele>
        <time>2024-07-10T09:21:08Z</time>
      </trkpt>
      <trkpt lat="45.09698" lon="6.06986">
        <ele>1858.5</ele>
        <time>2024-07-10T09:21:09Z</time>
      </trkpt>
      <trkpt lat="45.09699" lon="6.06986">
        <ele>1858.5</ele>
        <time>2024-07-10T09:21:10Z</time>
      </trkpt>
      <trkpt lat="45.097" lon="6.06985">
        <ele>1858.6</ele>
        <time>2024-07-10T09:21:11Z</time>
      </trkpt>
      <trkpt lat="45.09702" lon="6.06986">
        <ele>1858.6</ele>
        <time>2024-07-10T09:21:12Z</time>
      </trkpt>
      <trkpt lat="45.09702" lon="6.06985">
        <ele>1858.6</ele>
        <time>2024-07-10T09:21:13Z</time>
      </trkpt>
      <trkpt lat="45.09704" lon="6.06982">
        <ele>1858.7</ele>
        <time>2024-07-10T09:21:14Z</time>
      </trkpt>
      <trkpt lat="45.09704" lon="6.0698">
        <ele>1858.8</ele>
        <time>2024-07-10T09:21:15Z</time>
      </trkpt>
      <trkpt lat="45.09705" lon="6.06977">
        <ele>1858.8</ele>
        <time>2024-07-10T09:21:16Z</time>
      </trkpt>
      <trkpt lat="45.09705" lon="6.06973">
        <ele>1858.9</ele>
        <time>2024-07-10T09:21:17Z</time>
      </trkpt>
      <trkpt lat="45.09706" lon="6.06968">
        <ele>1859</ele>
        <time>2024-07-10T09:21:18Z</time>
      </trkpt>
      <trkpt lat="45.09706" lon="6.06967">
        <ele>1859.1</ele>
        <time>2024-07-10T09:21:19Z</time>
      </trkpt>
      <trkpt lat="45.09707" lon="6.06965">
        <ele>1859.1</ele>
        <time>2024-07-10T09:21:20Z</time>
      </trkpt>
      <trkpt lat="45.09709" lon="6.06963">
        <ele>1859.2</ele>
        <time>2024-07-10T09:21:21Z</time>
      </trkpt>
      <trkpt lat="45.0971" lon="6.06962">
        <ele>1859.3</ele>
        <time>2024-07-10T09:21:22Z</time>
      </trkpt>
      <trkpt lat="45.09711" lon="6.06961">
        <ele>1859.4</ele>
        <time>2024-07-10T09:21:23Z</time>
      </trkpt>
      <trkpt lat="45.09713" lon="6.0696">
        <ele>1859.5</ele>
        <time>2024-07-10T09:21:24Z</time>
      </trkpt>
      <trkpt lat="45.09715" lon="6.0696">
        <ele>1859.6</ele>
        <time>2024-07-10T09:21:25Z</time>
      </trkpt>
      <trkpt lat="45.09716" lon="6.06959">
        <ele>1859.6</ele>
        <time>2024-07-10T09:21:26Z</time>
      </trkpt>
      <trkpt lat="45.09717" lon="6.06959">
        <ele>1859.7</ele>
        <time>2024-07-10T09:21:27Z</time>
      </trkpt>
      <trkpt lat="45.09719" lon="6.06958">
        <ele>1859.8</ele>
        <time>2024-07-10T09:21:28Z</time>
      </trkpt>
      <trkpt lat="45.0972" lon="6.06957">
        <ele>1859.9</ele>
        <time>2024-07-10T09:21:29Z</time>
      </trkpt>
      <trkpt lat="45.09721" lon="6.06956">
        <ele>1860</ele>
        <time>2024-07-10T09:21:30Z</time>
      </trkpt>
      <trkpt lat="45.09723" lon="6.06956">
        <ele>1860</ele>
        <time>2024-07-10T09:21:31Z</time>
      </trkpt>
      <trkpt lat="45.09724" lon="6.06956">
        <ele>1860.1</ele>
        <time>2024-07-10T09:21:32Z</time>
      </trkpt>
      <trkpt lat="45.09726" lon="6.06956">
        <ele>1860.2</ele>
        <time>2024-07-10T09:21:33Z</time>
      </trkpt>
      <trkpt lat="45.09728" lon="6.06956">
        <ele>1860.3</ele>
        <time>2024-07-10T09:21:34Z</time>
      </trkpt>
      <trkpt lat="45.09729" lon="6.06955">
        <ele>1860.4</ele>
        <time>2024-07-10T09:21:35Z</time>
      </trkpt>
      <trkpt lat="45.09731" lon="6.06956">
        <ele>1860.5</ele>
        <time>2024-07-10T09:21:36Z</time>
      </trkpt>
      <trkpt lat="45.09732" lon="6.06956">
        <ele>1860.5</ele>
        <time>2024-07-10T09:21:37Z</time>
      </trkpt>
      <trkpt lat="45.09734" lon="6.06955">
        <ele>1860.6</ele>
        <time>2024-07-10T09:21:38Z</time>
      </trkpt>
      <trkpt lat="45.09736" lon="6.06956">
        <ele>1860.7</ele>
        <time>2024-07-10T09:21:39Z</time>
      </trkpt>
      <trkpt lat="45.09737" lon="6.06956">
        <ele>1860.8</ele>
        <time>2024-07-10T09:21:40Z</time>
      </trkpt>
      <trkpt lat="45.09738" lon="6.06956">
        <ele>1860.8</ele>
        <time>2024-07-10T09:21:41Z</time>
      </trkpt>
      <trkpt lat="45.0974" lon="6.06957">
        <ele>1860.9</ele>
        <time>2024-07-10T09:21:42Z</time>
      </trkpt>
      <trkpt lat="45.09741" lon="6.06957">
        <ele>1861</ele>
        <time>2024-07-10T09:21:43Z</time>
      </trkpt>
      <trkpt lat="45.09742" lon="6.06958">
        <ele>1861</ele>
        <time>2024-07-10T09:21:44Z</time>
      </trkpt>
      <trkpt lat="45.09744" lon="6.06958">
        <ele>1861.1</ele>
        <time>2024-07-10T09:21:45Z</time>
      </trkpt>
      <trkpt lat="45.09746" lon="6.06958">
        <ele>1861.2</ele>
        <time>2024-07-10T09:21:46Z</time>
      </trkpt>
      <trkpt lat="45.09747" lon="6.06958">
        <ele>1861.3</ele>
        <time>2024-07-10T09:21:47Z</time>
      </trkpt>
      <trkpt lat="45.09747" lon="6.06958">
        <ele>1861.3</ele>
        <time>2024-07-10T09:21:48Z</time>
      </trkpt>
      <trkpt lat="45.09748" lon="6.06958">
        <ele>1861.4</ele>
        <time>2024-07-10T09:21:49Z</time>
      </trkpt>
      <trkpt lat="45.0975" lon="6.06958">
        <ele>1861.4</ele>
        <time>2024-07-10T09:21:50Z</time>
      </trkpt>
      <trkpt lat="45.09751" lon="6.06958">
        <ele>1861.5</ele>
        <time>2024-07-10T09:21:51Z</time>
      </trkpt>
      <trkpt lat="45.09752" lon="6.06959">
        <ele>1861.5</ele>
        <time>2024-07-10T09:21:52Z</time>
      </trkpt>
      <trkpt lat="45.09753" lon="6.06958">
        <ele>1861.6</ele>
        <time>2024-07-10T09:21:53Z</time>
      </trkpt>
      <trkpt lat="45.09754" lon="6.06958">
        <ele>1861.6</ele>
        <time>2024-07-10T09:21:54Z</time>
      </trkpt>
      <trkpt lat="45.09755" lon="6.06958">
        <ele>1861.7</ele>
        <time>2024-07-10T09:21:55Z</time>
      </trkpt>
      <trkpt lat="45.09756" lon="6.06957">
        <ele>1861.8</ele>
        <time>2024-07-10T09:21:56Z</time>
      </trkpt>
      <trkpt lat="45.09758" lon="6.06957">
        <ele>1861.8</ele>
        <time>2024-07-10T09:21:57Z</time>
      </trkpt>
      <trkpt lat="45.09759" lon="6.06957">
        <ele>1861.9</ele>
        <time>2024-07-10T09:21:58Z</time>
      </trkpt>
      <trkpt lat="45.09759" lon="6.06956">
        <ele>1861.9</ele>
        <time>2024-07-10T09:21:59Z</time>
      </trkpt>
      <trkpt lat="45.0976" lon="6.06956">
        <ele>1862</ele>
        <time>2024-07-10T09:22:00Z</time>
      </trkpt>
      <trkpt lat="45.09762" lon="6.06956">
        <ele>1862</ele>
        <time>2024-07-10T09:22:01Z</time>
      </trkpt>
      <trkpt lat="45.09763" lon="6.06956">
        <ele>1862.1</ele>
        <time>2024-07-10T09:22:02Z</time>
      </trkpt>
      <trkpt lat="45.09764" lon="6.06956">
        <ele>1862.2</ele>
        <time>2024-07-10T09:22:03Z</time>
      </trkpt>
      <trkpt lat="45.09765" lon="6.06956">
        <ele>1862.2</ele>
        <time>2024-07-10T09:22:04Z</time>
      </trkpt>
      <trkpt lat="45.09766" lon="6.06955">
        <ele>1862.3</ele>
        <time>2024-07-10T09:22:05Z</time>
      </trkpt>
      <trkpt lat="45.09767" lon="6.06955">
        <ele>1862.3</ele>
        <time>2024-07-10T09:22:06Z</time>
      </trkpt>
      <trkpt lat="45.09768" lon="6.06954">
        <ele>1862.4</ele>
        <time>2024-07-10T09:22:07Z</time>
      </trkpt>
      <trkpt lat="45.09769" lon="6.06954">
        <ele>1862.4</ele>
        <time>2024-07-10T09:22:08Z</time>
      </trkpt>
      <trkpt lat="45.0977" lon="6.06953">
        <ele>1862.5</ele>
        <time>2024-07-10T09:22:09Z</time>
      </trkpt>
      <trkpt lat="45.09771" lon="6.06952">
        <ele>1862.6</ele>
        <time>2024-07-10T09:22:10Z</time>
      </trkpt>
      <trkpt lat="45.09772" lon="6.06952">
        <ele>1862.6</ele>
        <time>2024-07-10T09:22:11Z</time>
      </trkpt>
      <trkpt lat="45.09773" lon="6.0695">
        <ele>1862.7</ele>
        <time>2024-07-10T09:22:12Z</time>
      </trkpt>
      <trkpt lat="45.09774" lon="6.0695">
        <ele>1862.8</ele>
        <time>2024-07-10T09:22:13Z</time>
      </trkpt>
      <trkpt lat="45.09775" lon="6.06949">
        <ele>1862.8</ele>
        <time>2024-07-10T09:22:14Z</time>
      </trkpt>
      <trkpt lat="45.09776" lon="6.06949">
        <ele>1862.9</ele>
        <time>2024-07-10T09:22:15Z</time>
      </trkpt>
      <trkpt lat="45.09778" lon="6.06949">
        <ele>1863</ele>
        <time>2024-07-10T09:22:16Z</time>
      </trkpt>
      <trkpt lat="45.09779" lon="6.06948">
        <ele>1863</ele>
        <time>2024-07-10T09:22:17Z</time>
      </trkpt>
      <trkpt lat="45.0978" lon="6.06948">
        <ele>1863.1</ele>
        <time>2024-07-10T09:22:18Z</time>
      </trkpt>
      <trkpt lat="45.0978" lon="6.06946">
        <ele>1863.1</ele>
        <time>2024-07-10T09:22:19Z</time>
      </trkpt>
      <trkpt lat="45.09779" lon="6.06945">
        <ele>1863.2</ele>
        <time>2024-07-10T09:22:20Z</time>
      </trkpt>
      <trkpt lat="45.09778" lon="6.06944">
        <ele>1863.2</ele>
        <time>2024-07-10T09:22:21Z</time>
      </trkpt>
      <trkpt lat="45.09779" lon="6.06944">
        <ele>1863.3</ele>
        <time>2024-07-10T09:22:22Z</time>
      </trkpt>
      <trkpt lat="45.0978" lon="6.06943">
        <ele>1863.3</ele>
        <time>2024-07-10T09:22:23Z</time>
      </trkpt>
      <trkpt lat="45.09781" lon="6.06943">
        <ele>1863.3</ele>
        <time>2024-07-10T09:22:24Z</time>
      </trkpt>
      <trkpt lat="45.09783" lon="6.06943">
        <ele>1863.3</ele>
        <time>2024-07-10T09:22:25Z</time>
      </trkpt>
      <trkpt lat="45.09784" lon="6.06943">
        <ele>1863.3</ele>
        <time>2024-07-10T09:22:26Z</time>
      </trkpt>
      <trkpt lat="45.09785" lon="6.06943">
        <ele>1863.3</ele>
        <time>2024-07-10T09:22:27Z</time>
      </trkpt>
      <trkpt lat="45.09787" lon="6.06942">
        <ele>1863.3</ele>
        <time>2024-07-10T09:22:28Z</time>
      </trkpt>
      <trkpt lat="45.09788" lon="6.06942">
        <ele>1863.3</ele>
        <time>2024-07-10T09:22:29Z</time>
      </trkpt>
      <trkpt lat="45.09789" lon="6.06942">
        <ele>1863.4</ele>
        <time>2024-07-10T09:22:30Z</time>
      </trkpt>
      <trkpt lat="45.09791" lon="6.06942">
        <ele>1863.4</ele>
        <time>2024-07-10T09:22:31Z</time>
      </trkpt>
      <trkpt lat="45.09792" lon="6.06942">
        <ele>1863.4</ele>
        <time>2024-07-10T09:22:32Z</time>
      </trkpt>
      <trkpt lat="45.09793" lon="6.06942">
        <ele>1863.4</ele>
        <time>2024-07-10T09:22:33Z</time>
      </trkpt>
      <trkpt lat="45.09795" lon="6.06942">
        <ele>1863.4</ele>
        <time>2024-07-10T09:22:34Z</time>
      </trkpt>
      <trkpt lat="45.09796" lon="6.06943">
        <ele>1863.4</ele>
        <time>2024-07-10T09:22:35Z</time>
      </trkpt>
      <trkpt lat="45.09796" lon="6.06943">
        <ele>1863.4</ele>
        <time>2024-07-10T09:22:36Z</time>
      </trkpt>
      <trkpt lat="45.09797" lon="6.06942">
        <ele>1863.5</ele>
        <time>2024-07-10T09:22:37Z</time>
      </trkpt>
      <trkpt lat="45.09798" lon="6.0694">
        <ele>1863.5</ele>
        <time>2024-07-10T09:22:38Z</time>
      </trkpt>
      <trkpt lat="45.09799" lon="6.06939">
        <ele>1863.5</ele>
        <time>2024-07-10T09:22:39Z</time>
      </trkpt>
      <trkpt lat="45.098" lon="6.06938">
        <ele>1863.5</ele>
        <time>2024-07-10T09:22:40Z</time>
      </trkpt>
      <trkpt lat="45.09801" lon="6.06937">
        <ele>1863.5</ele>
        <time>2024-07-10T09:22:41Z</time>
      </trkpt>
      <trkpt lat="45.09802" lon="6.06937">
        <ele>1863.5</ele>
        <time>2024-07-10T09:22:42Z</time>
      </trkpt>
      <trkpt lat="45.09803" lon="6.06936">
        <ele>1863.6</ele>
        <time>2024-07-10T09:22:43Z</time>
      </trkpt>
      <trkpt lat="45.09804" lon="6.06935">
        <ele>1863.6</ele>
        <time>2024-07-10T09:22:44Z</time>
      </trkpt>
      <trkpt lat="45.09806" lon="6.06933">
        <ele>1863.6</ele>
        <time>2024-07-10T09:22:45Z</time>
      </trkpt>
      <trkpt lat="45.09806" lon="6.06933">
        <ele>1863.6</ele>
        <time>2024-07-10T09:22:46Z</time>
      </trkpt>
      <trkpt lat="45.09807" lon="6.06932">
        <ele>1863.6</ele>
        <time>2024-07-10T09:22:47Z</time>
      </trkpt>
      <trkpt lat="45.09808" lon="6.0693">
        <ele>1863.6</ele>
        <time>2024-07-10T09:22:48Z</time>
      </trkpt>
      <trkpt lat="45.09809" lon="6.06928">
        <ele>1863.7</ele>
        <time>2024-07-10T09:22:49Z</time>
      </trkpt>
      <trkpt lat="45.09811" lon="6.06927">
        <ele>1863.8</ele>
        <time>2024-07-10T09:22:50Z</time>
      </trkpt>
      <trkpt lat="45.09812" lon="6.06927">
        <ele>1863.8</ele>
        <time>2024-07-10T09:22:51Z</time>
      </trkpt>
      <trkpt lat="45.09813" lon="6.06927">
        <ele>1863.9</ele>
        <time>2024-07-10T09:22:52Z</time>
      </trkpt>
      <trkpt lat="45.09814" lon="6.06926">
        <ele>1863.9</ele>
        <time>2024-07-10T09:22:53Z</time>
      </trkpt>
      <trkpt lat="45.09815" lon="6.06926">
        <ele>1864</ele>
        <time>2024-07-10T09:22:54Z</time>
      </trkpt>
      <trkpt lat="45.09817" lon="6.06925">
        <ele>1864.1</ele>
        <time>2024-07-10T09:22:55Z</time>
      </trkpt>
      <trkpt lat="45.09818" lon="6.06924">
        <ele>1864.1</ele>
        <time>2024-07-10T09:22:56Z</time>
      </trkpt>
      <trkpt lat="45.09819" lon="6.06924">
        <ele>1864.2</ele>
        <time>2024-07-10T09:22:57Z</time>
      </trkpt>
      <trkpt lat="45.0982" lon="6.06923">
        <ele>1864.3</ele>
        <time>2024-07-10T09:22:58Z</time>
      </trkpt>
      <trkpt lat="45.0982" lon="6.06921">
        <ele>1864.3</ele>
        <time>2024-07-10T09:22:59Z</time>
      </trkpt>
      <trkpt lat="45.0982" lon="6.0692">
        <ele>1864.4</ele>
        <time>2024-07-10T09:23:00Z</time>
      </trkpt>
      <trkpt lat="45.09821" lon="6.0692">
        <ele>1864.4</ele>
        <time>2024-07-10T09:23:01Z</time>
      </trkpt>
      <trkpt lat="45.09821" lon="6.0692">
        <ele>1864.4</ele>
        <time>2024-07-10T09:23:02Z</time>
      </trkpt>
      <trkpt lat="45.09822" lon="6.0692">
        <ele>1864.5</ele>
        <time>2024-07-10T09:23:03Z</time>
      </trkpt>
      <trkpt lat="45.09823" lon="6.0692">
        <ele>1864.5</ele>
        <time>2024-07-10T09:23:04Z</time>
      </trkpt>
      <trkpt lat="45.09824" lon="6.0692">
        <ele>1864.6</ele>
        <time>2024-07-10T09:23:05Z</time>
      </trkpt>
      <trkpt lat="45.09823" lon="6.0692">
        <ele>1864.6</ele>
        <time>2024-07-10T09:23:06Z</time>
      </trkpt>
      <trkpt lat="45.09823" lon="6.0692">
        <ele>1864.6</ele>
        <time>2024-07-10T09:23:07Z</time>
      </trkpt>
      <trkpt lat="45.09823" lon="6.06919">
        <ele>1864.6</ele>
        <time>2024-07-10T09:23:08Z</time>
      </trkpt>
      <trkpt lat="45.09823" lon="6.06919">
        <ele>1864.6</ele>
        <time>2024-07-10T09:23:09Z</time>
      </trkpt>
      <trkpt lat="45.09823" lon="6.06919">
        <ele>1864.6</ele>
        <time>2024-07-10T09:23:10Z</time>
      </trkpt>
      <trkpt lat="45.09823" lon="6.06919">
        <ele>1864.7</ele>
        <time>2024-07-10T09:23:11Z</time>
      </trkpt>
      <trkpt lat="45.09823" lon="6.06919">
        <ele>1864.7</ele>
        <time>2024-07-10T09:23:12Z</time>
      </trkpt>
      <trkpt lat="45.09823" lon="6.06918">
        <ele>1864.7</ele>
        <time>2024-07-10T09:23:13Z</time>
      </trkpt>
      <trkpt lat="45.09823" lon="6.06918">
        <ele>1864.7</ele>
        <time>2024-07-10T09:23:14Z</time>
      </trkpt>
      <trkpt lat="45.09823" lon="6.06918">
        <ele>1864.7</ele>
        <time>2024-07-10T09:23:15Z</time>
      </trkpt>
      <trkpt lat="45.09824" lon="6.06918">
        <ele>1864.7</ele>
        <time>2024-07-10T09:23:16Z</time>
      </trkpt>
      <trkpt lat="45.09824" lon="6.06917">
        <ele>1864.7</ele>
        <time>2024-07-10T09:23:17Z</time>
      </trkpt>
      <trkpt lat="45.09824" lon="6.06917">
        <ele>1864.7</ele>
        <time>2024-07-10T09:23:18Z</time>
      </trkpt>
      <trkpt lat="45.09824" lon="6.06917">
        <ele>1864.7</ele>
        <time>2024-07-10T09:23:19Z</time>
      </trkpt>
      <trkpt lat="45.09824" lon="6.06917">
        <ele>1864.7</ele>
        <time>2024-07-10T09:23:20Z</time>
      </trkpt>
      <trkpt lat="45.09824" lon="6.06917">
        <ele>1864.8</ele>
        <time>2024-07-10T09:23:21Z</time>
      </trkpt>
      <trkpt lat="45.09824" lon="6.06916">
        <ele>1864.8</ele>
        <time>2024-07-10T09:23:22Z</time>
      </trkpt>
      <trkpt lat="45.09824" lon="6.06916">
        <ele>1864.8</ele>
        <time>2024-07-10T09:23:23Z</time>
      </trkpt>
      <trkpt lat="45.09824" lon="6.06916">
        <ele>1864.8</ele>
        <time>2024-07-10T09:23:24Z</time>
      </trkpt>
      <trkpt lat="45.09824" lon="6.06916">
        <ele>1864.8</ele>
        <time>2024-07-10T09:23:25Z</time>
      </trkpt>
      <trkpt lat="45.09824" lon="6.06916">
        <ele>1864.8</ele>
        <time>2024-07-10T09:23:26Z</time>
      </trkpt>
      <trkpt lat="45.09825" lon="6.06916">
        <ele>1864.8</ele>
        <time>2024-07-10T09:23:27Z</time>
      </trkpt>
      <trkpt lat="45.09825" lon="6.06915">
        <ele>1864.8</ele>
        <time>2024-07-10T09:23:28Z</time>
      </trkpt>
      <trkpt lat="45.09825" lon="6.06915">
        <ele>1864.9</ele>
        <time>2024-07-10T09:23:29Z</time>
      </trkpt>
      <trkpt lat="45.09825" lon="6.06915">
        <ele>1864.9</ele>
        <time>2024-07-10T09:23:30Z</time>
      </trkpt>
      <trkpt lat="45.09825" lon="6.06916">
        <ele>1864.9</ele>
        <time>2024-07-10T09:23:31Z</time>
      </trkpt>
      <trkpt lat="45.09825" lon="6.06916">
        <ele>1864.9</ele>
        <time>2024-07-10T09:23:32Z</time>
      </trkpt>
      <trkpt lat="45.09825" lon="6.06916">
        <ele>1864.9</ele>
        <time>2024-07-10T09:23:33Z</time>
      </trkpt>
      <trkpt lat="45.09825" lon="6.06916">
        <ele>1864.9</ele>
        <time>2024-07-10T09:23:34Z</time>
      </trkpt>
      <trkpt lat="45.09825" lon="6.06916">
        <ele>1864.9</ele>
        <time>2024-07-10T09:23:35Z</time>
      </trkpt>
      <trkpt lat="45.09826" lon="6.06916">
        <ele>1864.9</ele>
        <time>2024-07-10T09:23:36Z</time>
      </trkpt>
      <trkpt lat="45.09826" lon="6.06916">
        <ele>1864.9</ele>
        <time>2024-07-10T09:23:37Z</time>
      </trkpt>
      <trkpt lat="45.09826" lon="6.06916">
        <ele>1864.9</ele>
        <time>2024-07-10T09:23:38Z</time>
      </trkpt>
      <trkpt lat="45.09826" lon="6.06916">
        <ele>1864.9</ele>
        <time>2024-07-10T09:23:39Z</time>
      </trkpt>
      <trkpt lat="45.09826" lon="6.06916">
        <ele>1864.9</ele>
        <time>2024-07-10T09:23:40Z</time>
      </trkpt>
      <trkpt lat="45.09826" lon="6.06915">
        <ele>1865</ele>
        <time>2024-07-10T09:23:41Z</time>
      </trkpt>
      <trkpt lat="45.09828" lon="6.06915">
        <ele>1865.1</ele>
        <time>2024-07-10T09:23:42Z</time>
      </trkpt>
      <trkpt lat="45.09827" lon="6.06915">
        <ele>1865.1</ele>
        <time>2024-07-10T09:23:43Z</time>
      </trkpt>
      <trkpt lat="45.09828" lon="6.06915">
        <ele>1865.2</ele>
        <time>2024-07-10T09:23:44Z</time>
      </trkpt>
      <trkpt lat="45.09829" lon="6.06914">
        <ele>1865.2</ele>
        <time>2024-07-10T09:23:45Z</time>
      </trkpt>
      <trkpt lat="45.0983" lon="6.06914">
        <ele>1865.3</ele>
        <time>2024-07-10T09:23:46Z</time>
      </trkpt>
      <trkpt lat="45.09831" lon="6.06913">
        <ele>1865.3</ele>
        <time>2024-07-10T09:23:47Z</time>
      </trkpt>
      <trkpt lat="45.09834" lon="6.06912">
        <ele>1865.5</ele>
        <time>2024-07-10T09:23:48Z</time>
      </trkpt>
      <trkpt lat="45.09834" lon="6.06912">
        <ele>1865.6</ele>
        <time>2024-07-10T09:23:49Z</time>
      </trkpt>
      <trkpt lat="45.09836" lon="6.06911">
        <ele>1865.7</ele>
        <time>2024-07-10T09:23:50Z</time>
      </trkpt>
      <trkpt lat="45.09837" lon="6.0691">
        <ele>1865.8</ele>
        <time>2024-07-10T09:23:51Z</time>
      </trkpt>
      <trkpt lat="45.09838" lon="6.06909">
        <ele>1865.8</ele>
        <time>2024-07-10T09:23:52Z</time>
      </trkpt>
      <trkpt lat="45.0984" lon="6.06908">
        <ele>1865.9</ele>
        <time>2024-07-10T09:23:53Z</time>
      </trkpt>
      <trkpt lat="45.09841" lon="6.06908">
        <ele>1866</ele>
        <time>2024-07-10T09:23:54Z</time>
      </trkpt>
      <trkpt lat="45.09842" lon="6.06907">
        <ele>1866.1</ele>
        <time>2024-07-10T09:23:55Z</time>
      </trkpt>
      <trkpt lat="45.09843" lon="6.06907">
        <ele>1866.2</ele>
        <time>2024-07-10T09:23:56Z</time>
      </trkpt>
      <trkpt lat="45.09844" lon="6.06905">
        <ele>1866.2</ele>
        <time>2024-07-10T09:23:57Z</time>
      </trkpt>
      <trkpt lat="45.09845" lon="6.06903">
        <ele>1866.4</ele>
        <time>2024-07-10T09:23:58Z</time>
      </trkpt>
      <trkpt lat="45.09846" lon="6.06903">
        <ele>1866.4</ele>
        <time>2024-07-10T09:23:59Z</time>
      </trkpt>
      <trkpt lat="45.09847" lon="6.06902">
        <ele>1866.5</ele>
        <time>2024-07-10T09:24:00Z</time>
      </trkpt>
      <trkpt lat="45.09848" lon="6.06901">
        <ele>1866.6</ele>
        <time>2024-07-10T09:24:01Z</time>
      </trkpt>
      <trkpt lat="45.09849" lon="6.069">
        <ele>1866.7</ele>
        <time>2024-07-10T09:24:02Z</time>
      </trkpt>
      <trkpt lat="45.09851" lon="6.06899">
        <ele>1866.8</ele>
        <time>2024-07-10T09:24:03Z</time>
      </trkpt>
      <trkpt lat="45.09852" lon="6.06899">
        <ele>1866.9</ele>
        <time>2024-07-10T09:24:04Z</time>
      </trkpt>
      <trkpt lat="45.09853" lon="6.06898">
        <ele>1866.9</ele>
        <time>2024-07-10T09:24:05Z</time>
      </trkpt>
      <trkpt lat="45.09854" lon="6.06897">
        <ele>1867</ele>
        <time>2024-07-10T09:24:06Z</time>
      </trkpt>
      <trkpt lat="45.09855" lon="6.06896">
        <ele>1867.1</ele>
        <time>2024-07-10T09:24:07Z</time>
      </trkpt>
      <trkpt lat="45.09857" lon="6.06896">
        <ele>1867.2</ele>
        <time>2024-07-10T09:24:08Z</time>
      </trkpt>
      <trkpt lat="45.09858" lon="6.06895">
        <ele>1867.3</ele>
        <time>2024-07-10T09:24:09Z</time>
      </trkpt>
      <trkpt lat="45.09859" lon="6.06896">
        <ele>1867.4</ele>
        <time>2024-07-10T09:24:10Z</time>
      </trkpt>
      <trkpt lat="45.0986" lon="6.06896">
        <ele>1867.5</ele>
        <time>2024-07-10T09:24:11Z</time>
      </trkpt>
      <trkpt lat="45.09861" lon="6.06895">
        <ele>1867.6</ele>
        <time>2024-07-10T09:24:12Z</time>
      </trkpt>
      <trkpt lat="45.09863" lon="6.06895">
        <ele>1867.7</ele>
        <time>2024-07-10T09:24:13Z</time>
      </trkpt>
      <trkpt lat="45.09865" lon="6.06893">
        <ele>1867.8</ele>
        <time>2024-07-10T09:24:14Z</time>
      </trkpt>
      <trkpt lat="45.09866" lon="6.06892">
        <ele>1867.9</ele>
        <time>2024-07-10T09:24:15Z</time>
      </trkpt>
      <trkpt lat="45.09866" lon="6.06891">
        <ele>1868</ele>
        <time>2024-07-10T09:24:16Z</time>
      </trkpt>
      <trkpt lat="45.09868" lon="6.0689">
        <ele>1868.1</ele>
        <time>2024-07-10T09:24:17Z</time>
      </trkpt>
      <trkpt lat="45.09869" lon="6.06889">
        <ele>1868.2</ele>
        <time>2024-07-10T09:24:18Z</time>
      </trkpt>
      <trkpt lat="45.0987" lon="6.06889">
        <ele>1868.3</ele>
        <time>2024-07-10T09:24:19Z</time>
      </trkpt>
      <trkpt lat="45.09872" lon="6.06887">
        <ele>1868.4</ele>
        <time>2024-07-10T09:24:20Z</time>
      </trkpt>
      <trkpt lat="45.09873" lon="6.06886">
        <ele>1868.5</ele>
        <time>2024-07-10T09:24:21Z</time>
      </trkpt>
      <trkpt lat="45.09874" lon="6.06885">
        <ele>1868.6</ele>
        <time>2024-07-10T09:24:22Z</time>
      </trkpt>
      <trkpt lat="45.09876" lon="6.06884">
        <ele>1868.8</ele>
        <time>2024-07-10T09:24:23Z</time>
      </trkpt>
      <trkpt lat="45.09877" lon="6.06883">
        <ele>1868.8</ele>
        <time>2024-07-10T09:24:24Z</time>
      </trkpt>
      <trkpt lat="45.09879" lon="6.06882">
        <ele>1869</ele>
        <time>2024-07-10T09:24:25Z</time>
      </trkpt>
      <trkpt lat="45.0988" lon="6.06881">
        <ele>1869.1</ele>
        <time>2024-07-10T09:24:26Z</time>
      </trkpt>
      <trkpt lat="45.0988" lon="6.06881">
        <ele>1869.1</ele>
        <time>2024-07-10T09:24:27Z</time>
      </trkpt>
      <trkpt lat="45.09883" lon="6.0688">
        <ele>1869.3</ele>
        <time>2024-07-10T09:24:28Z</time>
      </trkpt>
      <trkpt lat="45.09883" lon="6.06879">
        <ele>1869.3</ele>
        <time>2024-07-10T09:24:29Z</time>
      </trkpt>
      <trkpt lat="45.09884" lon="6.06879">
        <ele>1869.4</ele>
        <time>2024-07-10T09:24:30Z</time>
      </trkpt>
      <trkpt lat="45.09885" lon="6.06878">
        <ele>1869.5</ele>
        <time>2024-07-10T09:24:31Z</time>
      </trkpt>
      <trkpt lat="45.09887" lon="6.06878">
        <ele>1869.6</ele>
        <time>2024-07-10T09:24:32Z</time>
      </trkpt>
      <trkpt lat="45.09889" lon="6.06877">
        <ele>1869.8</ele>
        <time>2024-07-10T09:24:33Z</time>
      </trkpt>
      <trkpt lat="45.09889" lon="6.06876">
        <ele>1869.8</ele>
        <time>2024-07-10T09:24:34Z</time>
      </trkpt>
      <trkpt lat="45.09891" lon="6.06875">
        <ele>1870</ele>
        <time>2024-07-10T09:24:35Z</time>
      </trkpt>
      <trkpt lat="45.09892" lon="6.06875">
        <ele>1870</ele>
        <time>2024-07-10T09:24:36Z</time>
      </trkpt>
      <trkpt lat="45.09893" lon="6.06874">
        <ele>1870.1</ele>
        <time>2024-07-10T09:24:37Z</time>
      </trkpt>
      <trkpt lat="45.09895" lon="6.06873">
        <ele>1870.2</ele>
        <time>2024-07-10T09:24:38Z</time>
      </trkpt>
      <trkpt lat="45.09896" lon="6.06873">
        <ele>1870.3</ele>
        <time>2024-07-10T09:24:39Z</time>
      </trkpt>
      <trkpt lat="45.09896" lon="6.06873">
        <ele>1870.4</ele>
        <time>2024-07-10T09:24:40Z</time>
      </trkpt>
      <trkpt lat="45.09898" lon="6.06872">
        <ele>1870.5</ele>
        <time>2024-07-10T09:24:41Z</time>
      </trkpt>
      <trkpt lat="45.09899" lon="6.06872">
        <ele>1870.6</ele>
        <time>2024-07-10T09:24:42Z</time>
      </trkpt>
      <trkpt lat="45.099" lon="6.06872">
        <ele>1870.6</ele>
        <time>2024-07-10T09:24:43Z</time>
      </trkpt>
      <trkpt lat="45.09901" lon="6.06871">
        <ele>1870.7</ele>
        <time>2024-07-10T09:24:44Z</time>
      </trkpt>
      <trkpt lat="45.09902" lon="6.06871">
        <ele>1870.8</ele>
        <time>2024-07-10T09:24:45Z</time>
      </trkpt>
      <trkpt lat="45.09903" lon="6.0687">
        <ele>1870.9</ele>
        <time>2024-07-10T09:24:46Z</time>
      </trkpt>
      <trkpt lat="45.09905" lon="6.06869">
        <ele>1871</ele>
        <time>2024-07-10T09:24:47Z</time>
      </trkpt>
      <trkpt lat="45.09906" lon="6.06869">
        <ele>1871.1</ele>
        <time>2024-07-10T09:24:48Z</time>
      </trkpt>
      <trkpt lat="45.09907" lon="6.06869">
        <ele>1871.2</ele>
        <time>2024-07-10T09:24:49Z</time>
      </trkpt>
      <trkpt lat="45.09909" lon="6.06868">
        <ele>1871.3</ele>
        <time>2024-07-10T09:24:50Z</time>
      </trkpt>
      <trkpt lat="45.0991" lon="6.06868">
        <ele>1871.4</ele>
        <time>2024-07-10T09:24:51Z</time>
      </trkpt>
      <trkpt lat="45.09911" lon="6.06867">
        <ele>1871.4</ele>
        <time>2024-07-10T09:24:52Z</time>
      </trkpt>
      <trkpt lat="45.09913" lon="6.06866">
        <ele>1871.6</ele>
        <time>2024-07-10T09:24:53Z</time>
      </trkpt>
      <trkpt lat="45.09913" lon="6.06866">
        <ele>1871.6</ele>
        <time>2024-07-10T09:24:54Z</time>
      </trkpt>
      <trkpt lat="45.09914" lon="6.06865">
        <ele>1871.7</ele>
        <time>2024-07-10T09:24:55Z</time>
      </trkpt>
      <trkpt lat="45.09916" lon="6.06864">
        <ele>1871.9</ele>
        <time>2024-07-10T09:24:56Z</time>
      </trkpt>
      <trkpt lat="45.09917" lon="6.06864">
        <ele>1871.9</ele>
        <time>2024-07-10T09:24:57Z</time>
      </trkpt>
      <trkpt lat="45.09918" lon="6.06863">
        <ele>1872</ele>
        <time>2024-07-10T09:24:58Z</time>
      </trkpt>
      <trkpt lat="45.09919" lon="6.06863">
        <ele>1872</ele>
        <time>2024-07-10T09:24:59Z</time>
      </trkpt>
      <trkpt lat="45.0992" lon="6.06862">
        <ele>1872.1</ele>
        <time>2024-07-10T09:25:00Z</time>
      </trkpt>
      <trkpt lat="45.09921" lon="6.06862">
        <ele>1872.2</ele>
        <time>2024-07-10T09:25:01Z</time>
      </trkpt>
      <trkpt lat="45.09923" lon="6.06861">
        <ele>1872.4</ele>
        <time>2024-07-10T09:25:02Z</time>
      </trkpt>
      <trkpt lat="45.09924" lon="6.06861">
        <ele>1872.4</ele>
        <time>2024-07-10T09:25:03Z</time>
      </trkpt>
      <trkpt lat="45.09925" lon="6.06861">
        <ele>1872.5</ele>
        <time>2024-07-10T09:25:04Z</time>
      </trkpt>
      <trkpt lat="45.09926" lon="6.0686">
        <ele>1872.6</ele>
        <time>2024-07-10T09:25:05Z</time>
      </trkpt>
      <trkpt lat="45.09927" lon="6.0686">
        <ele>1872.7</ele>
        <time>2024-07-10T09:25:06Z</time>
      </trkpt>
      <trkpt lat="45.09928" lon="6.06859">
        <ele>1872.8</ele>
        <time>2024-07-10T09:25:07Z</time>
      </trkpt>
      <trkpt lat="45.0993" lon="6.06858">
        <ele>1872.9</ele>
        <time>2024-07-10T09:25:08Z</time>
      </trkpt>
      <trkpt lat="45.09931" lon="6.06858">
        <ele>1873</ele>
        <time>2024-07-10T09:25:09Z</time>
      </trkpt>
      <trkpt lat="45.09932" lon="6.06857">
        <ele>1873</ele>
        <time>2024-07-10T09:25:10Z</time>
      </trkpt>
      <trkpt lat="45.09934" lon="6.06857">
        <ele>1873.2</ele>
        <time>2024-07-10T09:25:11Z</time>
      </trkpt>
      <trkpt lat="45.09935" lon="6.06856">
        <ele>1873.3</ele>
        <time>2024-07-10T09:25:12Z</time>
      </trkpt>
      <trkpt lat="45.09936" lon="6.06856">
        <ele>1873.3</ele>
        <time>2024-07-10T09:25:13Z</time>
      </trkpt>
      <trkpt lat="45.09937" lon="6.06856">
        <ele>1873.4</ele>
        <time>2024-07-10T09:25:14Z</time>
      </trkpt>
      <trkpt lat="45.09938" lon="6.06855">
        <ele>1873.5</ele>
        <time>2024-07-10T09:25:15Z</time>
      </trkpt>
      <trkpt lat="45.09939" lon="6.06854">
        <ele>1873.6</ele>
        <time>2024-07-10T09:25:16Z</time>
      </trkpt>
      <trkpt lat="45.09941" lon="6.06854">
        <ele>1873.7</ele>
        <time>2024-07-10T09:25:17Z</time>
      </trkpt>
      <trkpt lat="45.09941" lon="6.06853">
        <ele>1873.8</ele>
        <time>2024-07-10T09:25:18Z</time>
      </trkpt>
      <trkpt lat="45.09942" lon="6.06853">
        <ele>1873.8</ele>
        <time>2024-07-10T09:25:19Z</time>
      </trkpt>
      <trkpt lat="45.09943" lon="6.06852">
        <ele>1873.9</ele>
        <time>2024-07-10T09:25:20Z</time>
      </trkpt>
      <trkpt lat="45.09944" lon="6.06852">
        <ele>1874</ele>
        <time>2024-07-10T09:25:21Z</time>
      </trkpt>
      <trkpt lat="45.09945" lon="6.06851">
        <ele>1874.1</ele>
        <time>2024-07-10T09:25:22Z</time>
      </trkpt>
      <trkpt lat="45.09946" lon="6.06851">
        <ele>1874.2</ele>
        <time>2024-07-10T09:25:23Z</time>
      </trkpt>
      <trkpt lat="45.09947" lon="6.0685">
        <ele>1874.2</ele>
        <time>2024-07-10T09:25:24Z</time>
      </trkpt>
      <trkpt lat="45.09948" lon="6.0685">
        <ele>1874.3</ele>
        <time>2024-07-10T09:25:25Z</time>
      </trkpt>
      <trkpt lat="45.09949" lon="6.0685">
        <ele>1874.4</ele>
        <time>2024-07-10T09:25:26Z</time>
      </trkpt>
      <trkpt lat="45.0995" lon="6.06849">
        <ele>1874.5</ele>
        <time>2024-07-10T09:25:27Z</time>
      </trkpt>
      <trkpt lat="45.09951" lon="6.06849">
        <ele>1874.6</ele>
        <time>2024-07-10T09:25:28Z</time>
      </trkpt>
      <trkpt lat="45.09952" lon="6.06849">
        <ele>1874.6</ele>
        <time>2024-07-10T09:25:29Z</time>
      </trkpt>
      <trkpt lat="45.09953" lon="6.06849">
        <ele>1874.7</ele>
        <time>2024-07-10T09:25:30Z</time>
      </trkpt>
      <trkpt lat="45.09955" lon="6.06849">
        <ele>1874.8</ele>
        <time>2024-07-10T09:25:31Z</time>
      </trkpt>
      <trkpt lat="45.09957" lon="6.06848">
        <ele>1875</ele>
        <time>2024-07-10T09:25:32Z</time>
      </trkpt>
      <trkpt lat="45.09958" lon="6.06848">
        <ele>1875</ele>
        <time>2024-07-10T09:25:33Z</time>
      </trkpt>
      <trkpt lat="45.09959" lon="6.06848">
        <ele>1875.1</ele>
        <time>2024-07-10T09:25:34Z</time>
      </trkpt>
      <trkpt lat="45.0996" lon="6.06847">
        <ele>1875.3</ele>
        <time>2024-07-10T09:25:35Z</time>
      </trkpt>
      <trkpt lat="45.09961" lon="6.06847">
        <ele>1875.3</ele>
        <time>2024-07-10T09:25:36Z</time>
      </trkpt>
      <trkpt lat="45.09962" lon="6.06847">
        <ele>1875.4</ele>
        <time>2024-07-10T09:25:37Z</time>
      </trkpt>
      <trkpt lat="45.09964" lon="6.06847">
        <ele>1875.5</ele>
        <time>2024-07-10T09:25:38Z</time>
      </trkpt>
      <trkpt lat="45.09965" lon="6.06847">
        <ele>1875.6</ele>
        <time>2024-07-10T09:25:39Z</time>
      </trkpt>
      <trkpt lat="45.09967" lon="6.06847">
        <ele>1875.8</ele>
        <time>2024-07-10T09:25:40Z</time>
      </trkpt>
      <trkpt lat="45.09968" lon="6.06846">
        <ele>1875.8</ele>
        <time>2024-07-10T09:25:41Z</time>
      </trkpt>
      <trkpt lat="45.09969" lon="6.06846">
        <ele>1875.9</ele>
        <time>2024-07-10T09:25:42Z</time>
      </trkpt>
      <trkpt lat="45.0997" lon="6.06846">
        <ele>1876</ele>
        <time>2024-07-10T09:25:43Z</time>
      </trkpt>
      <trkpt lat="45.09972" lon="6.06845">
        <ele>1876.1</ele>
        <time>2024-07-10T09:25:44Z</time>
      </trkpt>
      <trkpt lat="45.09973" lon="6.06845">
        <ele>1876.3</ele>
        <time>2024-07-10T09:25:45Z</time>
      </trkpt>
      <trkpt lat="45.09975" lon="6.06844">
        <ele>1876.4</ele>
        <time>2024-07-10T09:25:46Z</time>
      </trkpt>
      <trkpt lat="45.09975" lon="6.06843">
        <ele>1876.5</ele>
        <time>2024-07-10T09:25:47Z</time>
      </trkpt>
      <trkpt lat="45.09976" lon="6.06843">
        <ele>1876.5</ele>
        <time>2024-07-10T09:25:48Z</time>
      </trkpt>
      <trkpt lat="45.09977" lon="6.06844">
        <ele>1876.6</ele>
        <time>2024-07-10T09:25:49Z</time>
      </trkpt>
      <trkpt lat="45.09979" lon="6.06844">
        <ele>1876.7</ele>
        <time>2024-07-10T09:25:50Z</time>
      </trkpt>
      <trkpt lat="45.0998" lon="6.06845">
        <ele>1876.9</ele>
        <time>2024-07-10T09:25:51Z</time>
      </trkpt>
      <trkpt lat="45.09981" lon="6.06845">
        <ele>1877</ele>
        <time>2024-07-10T09:25:52Z</time>
      </trkpt>
      <trkpt lat="45.09982" lon="6.06845">
        <ele>1877.1</ele>
        <time>2024-07-10T09:25:53Z</time>
      </trkpt>
      <trkpt lat="45.09983" lon="6.06844">
        <ele>1877.1</ele>
        <time>2024-07-10T09:25:54Z</time>
      </trkpt>
      <trkpt lat="45.09984" lon="6.06843">
        <ele>1877.2</ele>
        <time>2024-07-10T09:25:55Z</time>
      </trkpt>
      <trkpt lat="45.09985" lon="6.06842">
        <ele>1877.3</ele>
        <time>2024-07-10T09:25:56Z</time>
      </trkpt>
      <trkpt lat="45.09986" lon="6.06841">
        <ele>1877.4</ele>
        <time>2024-07-10T09:25:57Z</time>
      </trkpt>
      <trkpt lat="45.09987" lon="6.06841">
        <ele>1877.5</ele>
        <time>2024-07-10T09:25:58Z</time>
      </trkpt>
      <trkpt lat="45.09988" lon="6.0684">
        <ele>1877.6</ele>
        <time>2024-07-10T09:25:59Z</time>
      </trkpt>
      <trkpt lat="45.09989" lon="6.0684">
        <ele>1877.7</ele>
        <time>2024-07-10T09:26:00Z</time>
      </trkpt>
      <trkpt lat="45.0999" lon="6.0684">
        <ele>1877.8</ele>
        <time>2024-07-10T09:26:01Z</time>
      </trkpt>
      <trkpt lat="45.09992" lon="6.0684">
        <ele>1877.9</ele>
        <time>2024-07-10T09:26:02Z</time>
      </trkpt>
      <trkpt lat="45.09992" lon="6.06839">
        <ele>1878</ele>
        <time>2024-07-10T09:26:03Z</time>
      </trkpt>
      <trkpt lat="45.09994" lon="6.0684">
        <ele>1878.1</ele>
        <time>2024-07-10T09:26:04Z</time>
      </trkpt>
      <trkpt lat="45.09995" lon="6.06839">
        <ele>1878.2</ele>
        <time>2024-07-10T09:26:05Z</time>
      </trkpt>
      <trkpt lat="45.09996" lon="6.06839">
        <ele>1878.3</ele>
        <time>2024-07-10T09:26:06Z</time>
      </trkpt>
      <trkpt lat="45.09997" lon="6.06839">
        <ele>1878.4</ele>
        <time>2024-07-10T09:26:07Z</time>
      </trkpt>
      <trkpt lat="45.09998" lon="6.06838">
        <ele>1878.5</ele>
        <time>2024-07-10T09:26:08Z</time>
      </trkpt>
      <trkpt lat="45.09999" lon="6.06838">
        <ele>1878.6</ele>
        <time>2024-07-10T09:26:09Z</time>
      </trkpt>
      <trkpt lat="45.09999" lon="6.06837">
        <ele>1878.6</ele>
        <time>2024-07-10T09:26:10Z</time>
      </trkpt>
      <trkpt lat="45.10001" lon="6.06837">
        <ele>1878.8</ele>
        <time>2024-07-10T09:26:11Z</time>
      </trkpt>
      <trkpt lat="45.10002" lon="6.06836">
        <ele>1878.8</ele>
        <time>2024-07-10T09:26:12Z</time>
      </trkpt>
      <trkpt lat="45.10003" lon="6.06835">
        <ele>1878.9</ele>
        <time>2024-07-10T09:26:13Z</time>
      </trkpt>
      <trkpt lat="45.10004" lon="6.06834">
        <ele>1879</ele>
        <time>2024-07-10T09:26:14Z</time>
      </trkpt>
      <trkpt lat="45.10005" lon="6.06834">
        <ele>1879.1</ele>
        <time>2024-07-10T09:26:15Z</time>
      </trkpt>
      <trkpt lat="45.10006" lon="6.06833">
        <ele>1879.2</ele>
        <time>2024-07-10T09:26:16Z</time>
      </trkpt>
      <trkpt lat="45.10007" lon="6.06833">
        <ele>1879.3</ele>
        <time>2024-07-10T09:26:17Z</time>
      </trkpt>
      <trkpt lat="45.10008" lon="6.06832">
        <ele>1879.4</ele>
        <time>2024-07-10T09:26:18Z</time>
      </trkpt>
      <trkpt lat="45.10009" lon="6.06832">
        <ele>1879.5</ele>
        <time>2024-07-10T09:26:19Z</time>
      </trkpt>
      <trkpt lat="45.1001" lon="6.06832">
        <ele>1879.6</ele>
        <time>2024-07-10T09:26:20Z</time>
      </trkpt>
      <trkpt lat="45.10011" lon="6.06832">
        <ele>1879.7</ele>
        <time>2024-07-10T09:26:21Z</time>
      </trkpt>
      <trkpt lat="45.10013" lon="6.06832">
        <ele>1879.8</ele>
        <time>2024-07-10T09:26:22Z</time>
      </trkpt>
      <trkpt lat="45.10014" lon="6.06832">
        <ele>1879.8</ele>
        <time>2024-07-10T09:26:23Z</time>
      </trkpt>
      <trkpt lat="45.10015" lon="6.06832">
        <ele>1879.9</ele>
        <time>2024-07-10T09:26:24Z</time>
      </trkpt>
      <trkpt lat="45.10017" lon="6.06831">
        <ele>1880.1</ele>
        <time>2024-07-10T09:26:25Z</time>
      </trkpt>
      <trkpt lat="45.10018" lon="6.06831">
        <ele>1880.2</ele>
        <time>2024-07-10T09:26:26Z</time>
      </trkpt>
      <trkpt lat="45.10018" lon="6.0683">
        <ele>1880.2</ele>
        <time>2024-07-10T09:26:27Z</time>
      </trkpt>
      <trkpt lat="45.10019" lon="6.0683">
        <ele>1880.3</ele>
        <time>2024-07-10T09:26:28Z</time>
      </trkpt>
      <trkpt lat="45.1002" lon="6.06829">
        <ele>1880.4</ele>
        <time>2024-07-10T09:26:29Z</time>
      </trkpt>
      <trkpt lat="45.10021" lon="6.06828">
        <ele>1880.5</ele>
        <time>2024-07-10T09:26:30Z</time>
      </trkpt>
      <trkpt lat="45.10022" lon="6.06827">
        <ele>1880.6</ele>
        <time>2024-07-10T09:26:31Z</time>
      </trkpt>
      <trkpt lat="45.10023" lon="6.06826">
        <ele>1880.7</ele>
        <time>2024-07-10T09:26:32Z</time>
      </trkpt>
      <trkpt lat="45.10024" lon="6.06825">
        <ele>1880.8</ele>
        <time>2024-07-10T09:26:33Z</time>
      </trkpt>
      <trkpt lat="45.10025" lon="6.06824">
        <ele>1880.9</ele>
        <time>2024-07-10T09:26:34Z</time>
      </trkpt>
      <trkpt lat="45.10026" lon="6.06823">
        <ele>1880.9</ele>
        <time>2024-07-10T09:26:35Z</time>
      </trkpt>
      <trkpt lat="45.10027" lon="6.06822">
        <ele>1881</ele>
        <time>2024-07-10T09:26:36Z</time>
      </trkpt>
      <trkpt lat="45.10028" lon="6.06822">
        <ele>1881.1</ele>
        <time>2024-07-10T09:26:37Z</time>
      </trkpt>
      <trkpt lat="45.10029" lon="6.06822">
        <ele>1881.2</ele>
        <time>2024-07-10T09:26:38Z</time>
      </trkpt>
      <trkpt lat="45.1003" lon="6.06821">
        <ele>1881.3</ele>
        <time>2024-07-10T09:26:39Z</time>
      </trkpt>
      <trkpt lat="45.10031" lon="6.06821">
        <ele>1881.3</ele>
        <time>2024-07-10T09:26:40Z</time>
      </trkpt>
      <trkpt lat="45.10032" lon="6.06821">
        <ele>1881.4</ele>
        <time>2024-07-10T09:26:41Z</time>
      </trkpt>
      <trkpt lat="45.10033" lon="6.0682">
        <ele>1881.5</ele>
        <time>2024-07-10T09:26:42Z</time>
      </trkpt>
      <trkpt lat="45.10034" lon="6.0682">
        <ele>1881.6</ele>
        <time>2024-07-10T09:26:43Z</time>
      </trkpt>
      <trkpt lat="45.10035" lon="6.0682">
        <ele>1881.6</ele>
        <time>2024-07-10T09:26:44Z</time>
      </trkpt>
      <trkpt lat="45.10036" lon="6.0682">
        <ele>1881.7</ele>
        <time>2024-07-10T09:26:45Z</time>
      </trkpt>
      <trkpt lat="45.10036" lon="6.0682">
        <ele>1881.8</ele>
        <time>2024-07-10T09:26:46Z</time>
      </trkpt>
      <trkpt lat="45.10037" lon="6.06819">
        <ele>1881.8</ele>
        <time>2024-07-10T09:26:47Z</time>
      </trkpt>
      <trkpt lat="45.10038" lon="6.06819">
        <ele>1881.9</ele>
        <time>2024-07-10T09:26:48Z</time>
      </trkpt>
      <trkpt lat="45.10039" lon="6.06818">
        <ele>1882</ele>
        <time>2024-07-10T09:26:49Z</time>
      </trkpt>
      <trkpt lat="45.1004" lon="6.06818">
        <ele>1882.1</ele>
        <time>2024-07-10T09:26:50Z</time>
      </trkpt>
      <trkpt lat="45.10041" lon="6.06818">
        <ele>1882.2</ele>
        <time>2024-07-10T09:26:51Z</time>
      </trkpt>
      <trkpt lat="45.10042" lon="6.06817">
        <ele>1882.2</ele>
        <time>2024-07-10T09:26:52Z</time>
      </trkpt>
      <trkpt lat="45.10043" lon="6.06817">
        <ele>1882.3</ele>
        <time>2024-07-10T09:26:53Z</time>
      </trkpt>
      <trkpt lat="45.10044" lon="6.06817">
        <ele>1882.4</ele>
        <time>2024-07-10T09:26:54Z</time>
      </trkpt>
      <trkpt lat="45.10045" lon="6.06816">
        <ele>1882.5</ele>
        <time>2024-07-10T09:26:55Z</time>
      </trkpt>
      <trkpt lat="45.10046" lon="6.06816">
        <ele>1882.6</ele>
        <time>2024-07-10T09:26:56Z</time>
      </trkpt>
      <trkpt lat="45.10047" lon="6.06816">
        <ele>1882.7</ele>
        <time>2024-07-10T09:26:57Z</time>
      </trkpt>
      <trkpt lat="45.10048" lon="6.06816">
        <ele>1882.8</ele>
        <time>2024-07-10T09:26:58Z</time>
      </trkpt>
      <trkpt lat="45.1005" lon="6.06815">
        <ele>1882.9</ele>
        <time>2024-07-10T09:26:59Z</time>
      </trkpt>
      <trkpt lat="45.10051" lon="6.06814">
        <ele>1883</ele>
        <time>2024-07-10T09:27:00Z</time>
      </trkpt>
      <trkpt lat="45.10052" lon="6.06814">
        <ele>1883.1</ele>
        <time>2024-07-10T09:27:01Z</time>
      </trkpt>
      <trkpt lat="45.10053" lon="6.06813">
        <ele>1883.2</ele>
        <time>2024-07-10T09:27:02Z</time>
      </trkpt>
      <trkpt lat="45.10054" lon="6.06813">
        <ele>1883.3</ele>
        <time>2024-07-10T09:27:03Z</time>
      </trkpt>
      <trkpt lat="45.10055" lon="6.06812">
        <ele>1883.4</ele>
        <time>2024-07-10T09:27:04Z</time>
      </trkpt>
      <trkpt lat="45.10056" lon="6.06812">
        <ele>1883.5</ele>
        <time>2024-07-10T09:27:05Z</time>
      </trkpt>
      <trkpt lat="45.10058" lon="6.06812">
        <ele>1883.6</ele>
        <time>2024-07-10T09:27:06Z</time>
      </trkpt>
      <trkpt lat="45.10059" lon="6.06812">
        <ele>1883.7</ele>
        <time>2024-07-10T09:27:07Z</time>
      </trkpt>
      <trkpt lat="45.1006" lon="6.06812">
        <ele>1883.8</ele>
        <time>2024-07-10T09:27:08Z</time>
      </trkpt>
      <trkpt lat="45.10061" lon="6.06812">
        <ele>1883.9</ele>
        <time>2024-07-10T09:27:09Z</time>
      </trkpt>
      <trkpt lat="45.10062" lon="6.06812">
        <ele>1884</ele>
        <time>2024-07-10T09:27:10Z</time>
      </trkpt>
      <trkpt lat="45.10064" lon="6.06811">
        <ele>1884.1</ele>
        <time>2024-07-10T09:27:11Z</time>
      </trkpt>
      <trkpt lat="45.10065" lon="6.06811">
        <ele>1884.2</ele>
        <time>2024-07-10T09:27:12Z</time>
      </trkpt>
      <trkpt lat="45.10066" lon="6.0681">
        <ele>1884.3</ele>
        <time>2024-07-10T09:27:13Z</time>
      </trkpt>
      <trkpt lat="45.10067" lon="6.0681">
        <ele>1884.4</ele>
        <time>2024-07-10T09:27:14Z</time>
      </trkpt>
      <trkpt lat="45.10068" lon="6.06809">
        <ele>1884.5</ele>
        <time>2024-07-10T09:27:15Z</time>
      </trkpt>
      <trkpt lat="45.1007" lon="6.06808">
        <ele>1884.6</ele>
        <time>2024-07-10T09:27:16Z</time>
      </trkpt>
      <trkpt lat="45.1007" lon="6.06808">
        <ele>1884.7</ele>
        <time>2024-07-10T09:27:17Z</time>
      </trkpt>
      <trkpt lat="45.10072" lon="6.06808">
        <ele>1884.8</ele>
        <time>2024-07-10T09:27:18Z</time>
      </trkpt>
      <trkpt lat="45.10073" lon="6.06807">
        <ele>1884.9</ele>
        <time>2024-07-10T09:27:19Z</time>
      </trkpt>
      <trkpt lat="45.10074" lon="6.06807">
        <ele>1885</ele>
        <time>2024-07-10T09:27:20Z</time>
      </trkpt>
      <trkpt lat="45.10076" lon="6.06806">
        <ele>1885.1</ele>
        <time>2024-07-10T09:27:21Z</time>
      </trkpt>
      <trkpt lat="45.10076" lon="6.06805">
        <ele>1885.2</ele>
        <time>2024-07-10T09:27:22Z</time>
      </trkpt>
      <trkpt lat="45.10078" lon="6.06804">
        <ele>1885.3</ele>
        <time>2024-07-10T09:27:23Z</time>
      </trkpt>
      <trkpt lat="45.10079" lon="6.06804">
        <ele>1885.4</ele>
        <time>2024-07-10T09:27:24Z</time>
      </trkpt>
      <trkpt lat="45.1008" lon="6.06803">
        <ele>1885.5</ele>
        <time>2024-07-10T09:27:25Z</time>
      </trkpt>
      <trkpt lat="45.10082" lon="6.06803">
        <ele>1885.6</ele>
        <time>2024-07-10T09:27:26Z</time>
      </trkpt>
      <trkpt lat="45.10082" lon="6.06802">
        <ele>1885.7</ele>
        <time>2024-07-10T09:27:27Z</time>
      </trkpt>
      <trkpt lat="45.10083" lon="6.06802">
        <ele>1885.8</ele>
        <time>2024-07-10T09:27:28Z</time>
      </trkpt>
      <trkpt lat="45.10084" lon="6.06801">
        <ele>1885.8</ele>
        <time>2024-07-10T09:27:29Z</time>
      </trkpt>
      <trkpt lat="45.10085" lon="6.06801">
        <ele>1885.9</ele>
        <time>2024-07-10T09:27:30Z</time>
      </trkpt>
      <trkpt lat="45.10086" lon="6.068">
        <ele>1886</ele>
        <time>2024-07-10T09:27:31Z</time>
      </trkpt>
      <trkpt lat="45.10087" lon="6.068">
        <ele>1886.1</ele>
        <time>2024-07-10T09:27:32Z</time>
      </trkpt>
      <trkpt lat="45.10089" lon="6.068">
        <ele>1886.2</ele>
        <time>2024-07-10T09:27:33Z</time>
      </trkpt>
      <trkpt lat="45.1009" lon="6.06799">
        <ele>1886.3</ele>
        <time>2024-07-10T09:27:34Z</time>
      </trkpt>
      <trkpt lat="45.10091" lon="6.06799">
        <ele>1886.4</ele>
        <time>2024-07-10T09:27:35Z</time>
      </trkpt>
      <trkpt lat="45.10092" lon="6.06799">
        <ele>1886.5</ele>
        <time>2024-07-10T09:27:36Z</time>
      </trkpt>
      <trkpt lat="45.10093" lon="6.06799">
        <ele>1886.6</ele>
        <time>2024-07-10T09:27:37Z</time>
      </trkpt>
      <trkpt lat="45.10094" lon="6.06799">
        <ele>1886.7</ele>
        <time>2024-07-10T09:27:38Z</time>
      </trkpt>
      <trkpt lat="45.10095" lon="6.06799">
        <ele>1886.7</ele>
        <time>2024-07-10T09:27:39Z</time>
      </trkpt>
      <trkpt lat="45.10096" lon="6.06799">
        <ele>1886.8</ele>
        <time>2024-07-10T09:27:40Z</time>
      </trkpt>
      <trkpt lat="45.10098" lon="6.06799">
        <ele>1886.9</ele>
        <time>2024-07-10T09:27:41Z</time>
      </trkpt>
      <trkpt lat="45.10099" lon="6.06799">
        <ele>1887</ele>
        <time>2024-07-10T09:27:42Z</time>
      </trkpt>
      <trkpt lat="45.101" lon="6.06799">
        <ele>1887.1</ele>
        <time>2024-07-10T09:27:43Z</time>
      </trkpt>
      <trkpt lat="45.10101" lon="6.06799">
        <ele>1887.2</ele>
        <time>2024-07-10T09:27:44Z</time>
      </trkpt>
      <trkpt lat="45.10102" lon="6.06799">
        <ele>1887.3</ele>
        <time>2024-07-10T09:27:45Z</time>
      </trkpt>
      <trkpt lat="45.10103" lon="6.06798">
        <ele>1887.4</ele>
        <time>2024-07-10T09:27:46Z</time>
      </trkpt>
      <trkpt lat="45.10104" lon="6.06798">
        <ele>1887.4</ele>
        <time>2024-07-10T09:27:47Z</time>
      </trkpt>
      <trkpt lat="45.10105" lon="6.06798">
        <ele>1887.5</ele>
        <time>2024-07-10T09:27:48Z</time>
      </trkpt>
      <trkpt lat="45.10106" lon="6.06798">
        <ele>1887.6</ele>
        <time>2024-07-10T09:27:49Z</time>
      </trkpt>
      <trkpt lat="45.10107" lon="6.06797">
        <ele>1887.7</ele>
        <time>2024-07-10T09:27:50Z</time>
      </trkpt>
      <trkpt lat="45.10108" lon="6.06798">
        <ele>1887.8</ele>
        <time>2024-07-10T09:27:51Z</time>
      </trkpt>
      <trkpt lat="45.10109" lon="6.06797">
        <ele>1887.9</ele>
        <time>2024-07-10T09:27:52Z</time>
      </trkpt>
      <trkpt lat="45.1011" lon="6.06797">
        <ele>1888</ele>
        <time>2024-07-10T09:27:53Z</time>
      </trkpt>
      <trkpt lat="45.10112" lon="6.06796">
        <ele>1888.1</ele>
        <time>2024-07-10T09:27:54Z</time>
      </trkpt>
      <trkpt lat="45.10113" lon="6.06796">
        <ele>1888.2</ele>
        <time>2024-07-10T09:27:55Z</time>
      </trkpt>
      <trkpt lat="45.10114" lon="6.06795">
        <ele>1888.3</ele>
        <time>2024-07-10T09:27:56Z</time>
      </trkpt>
      <trkpt lat="45.10115" lon="6.06795">
        <ele>1888.4</ele>
        <time>2024-07-10T09:27:57Z</time>
      </trkpt>
      <trkpt lat="45.10116" lon="6.06794">
        <ele>1888.5</ele>
        <time>2024-07-10T09:27:58Z</time>
      </trkpt>
      <trkpt lat="45.10117" lon="6.06793">
        <ele>1888.5</ele>
        <time>2024-07-10T09:27:59Z</time>
      </trkpt>
      <trkpt lat="45.10118" lon="6.06792">
        <ele>1888.6</ele>
        <time>2024-07-10T09:28:00Z</time>
      </trkpt>
      <trkpt lat="45.10119" lon="6.06792">
        <ele>1888.7</ele>
        <time>2024-07-10T09:28:01Z</time>
      </trkpt>
      <trkpt lat="45.1012" lon="6.06791">
        <ele>1888.8</ele>
        <time>2024-07-10T09:28:02Z</time>
      </trkpt>
      <trkpt lat="45.10121" lon="6.0679">
        <ele>1888.9</ele>
        <time>2024-07-10T09:28:03Z</time>
      </trkpt>
      <trkpt lat="45.10122" lon="6.0679">
        <ele>1889</ele>
        <time>2024-07-10T09:28:04Z</time>
      </trkpt>
      <trkpt lat="45.10123" lon="6.06789">
        <ele>1889.1</ele>
        <time>2024-07-10T09:28:05Z</time>
      </trkpt>
      <trkpt lat="45.10125" lon="6.06789">
        <ele>1889.2</ele>
        <time>2024-07-10T09:28:06Z</time>
      </trkpt>
      <trkpt lat="45.10126" lon="6.06788">
        <ele>1889.3</ele>
        <time>2024-07-10T09:28:07Z</time>
      </trkpt>
      <trkpt lat="45.10127" lon="6.06788">
        <ele>1889.4</ele>
        <time>2024-07-10T09:28:08Z</time>
      </trkpt>
      <trkpt lat="45.10129" lon="6.06787">
        <ele>1889.5</ele>
        <time>2024-07-10T09:28:09Z</time>
      </trkpt>
      <trkpt lat="45.1013" lon="6.06787">
        <ele>1889.6</ele>
        <time>2024-07-10T09:28:10Z</time>
      </trkpt>
      <trkpt lat="45.10131" lon="6.06787">
        <ele>1889.7</ele>
        <time>2024-07-10T09:28:11Z</time>
      </trkpt>
      <trkpt lat="45.10133" lon="6.06786">
        <ele>1889.8</ele>
        <time>2024-07-10T09:28:12Z</time>
      </trkpt>
      <trkpt lat="45.10134" lon="6.06785">
        <ele>1889.9</ele>
        <time>2024-07-10T09:28:13Z</time>
      </trkpt>
      <trkpt lat="45.10134" lon="6.06785">
        <ele>1890</ele>
        <time>2024-07-10T09:28:14Z</time>
      </trkpt>
      <trkpt lat="45.10137" lon="6.06784">
        <ele>1890.1</ele>
        <time>2024-07-10T09:28:15Z</time>
      </trkpt>
      <trkpt lat="45.10137" lon="6.06783">
        <ele>1890.2</ele>
        <time>2024-07-10T09:28:16Z</time>
      </trkpt>
      <trkpt lat="45.10138" lon="6.06783">
        <ele>1890.3</ele>
        <time>2024-07-10T09:28:17Z</time>
      </trkpt>
      <trkpt lat="45.1014" lon="6.06782">
        <ele>1890.4</ele>
        <time>2024-07-10T09:28:18Z</time>
      </trkpt>
      <trkpt lat="45.10141" lon="6.06781">
        <ele>1890.5</ele>
        <time>2024-07-10T09:28:19Z</time>
      </trkpt>
      <trkpt lat="45.10142" lon="6.06781">
        <ele>1890.5</ele>
        <time>2024-07-10T09:28:20Z</time>
      </trkpt>
      <trkpt lat="45.10144" lon="6.0678">
        <ele>1890.7</ele>
        <time>2024-07-10T09:28:21Z</time>
      </trkpt>
      <trkpt lat="45.10144" lon="6.0678">
        <ele>1890.8</ele>
        <time>2024-07-10T09:28:22Z</time>
      </trkpt>
      <trkpt lat="45.10145" lon="6.0678">
        <ele>1890.8</ele>
        <time>2024-07-10T09:28:23Z</time>
      </trkpt>
      <trkpt lat="45.10147" lon="6.06779">
        <ele>1891</ele>
        <time>2024-07-10T09:28:24Z</time>
      </trkpt>
      <trkpt lat="45.10148" lon="6.06779">
        <ele>1891.1</ele>
        <time>2024-07-10T09:28:25Z</time>
      </trkpt>
      <trkpt lat="45.10149" lon="6.06779">
        <ele>1891.1</ele>
        <time>2024-07-10T09:28:26Z</time>
      </trkpt>
      <trkpt lat="45.10151" lon="6.06779">
        <ele>1891.3</ele>
        <time>2024-07-10T09:28:27Z</time>
      </trkpt>
      <trkpt lat="45.10152" lon="6.06778">
        <ele>1891.4</ele>
        <time>2024-07-10T09:28:28Z</time>
      </trkpt>
      <trkpt lat="45.10153" lon="6.06778">
        <ele>1891.5</ele>
        <time>2024-07-10T09:28:29Z</time>
      </trkpt>
      <trkpt lat="45.10155" lon="6.06777">
        <ele>1891.6</ele>
        <time>2024-07-10T09:28:30Z</time>
      </trkpt>
      <trkpt lat="45.10156" lon="6.06777">
        <ele>1891.7</ele>
        <time>2024-07-10T09:28:31Z</time>
      </trkpt>
      <trkpt lat="45.10157" lon="6.06777">
        <ele>1891.8</ele>
        <time>2024-07-10T09:28:32Z</time>
      </trkpt>
      <trkpt lat="45.10158" lon="6.06777">
        <ele>1891.9</ele>
        <time>2024-07-10T09:28:33Z</time>
      </trkpt>
      <trkpt lat="45.10159" lon="6.06776">
        <ele>1892</ele>
        <time>2024-07-10T09:28:34Z</time>
      </trkpt>
      <trkpt lat="45.10161" lon="6.06776">
        <ele>1892.1</ele>
        <time>2024-07-10T09:28:35Z</time>
      </trkpt>
      <trkpt lat="45.10162" lon="6.06775">
        <ele>1892.2</ele>
        <time>2024-07-10T09:28:36Z</time>
      </trkpt>
      <trkpt lat="45.10164" lon="6.06774">
        <ele>1892.4</ele>
        <time>2024-07-10T09:28:37Z</time>
      </trkpt>
      <trkpt lat="45.10165" lon="6.06774">
        <ele>1892.5</ele>
        <time>2024-07-10T09:28:38Z</time>
      </trkpt>
      <trkpt lat="45.10166" lon="6.06774">
        <ele>1892.6</ele>
        <time>2024-07-10T09:28:39Z</time>
      </trkpt>
      <trkpt lat="45.10167" lon="6.06774">
        <ele>1892.7</ele>
        <time>2024-07-10T09:28:40Z</time>
      </trkpt>
      <trkpt lat="45.10168" lon="6.06773">
        <ele>1892.8</ele>
        <time>2024-07-10T09:28:41Z</time>
      </trkpt>
      <trkpt lat="45.10171" lon="6.06772">
        <ele>1893</ele>
        <time>2024-07-10T09:28:42Z</time>
      </trkpt>
      <trkpt lat="45.10171" lon="6.06772">
        <ele>1893</ele>
        <time>2024-07-10T09:28:43Z</time>
      </trkpt>
      <trkpt lat="45.10172" lon="6.06772">
        <ele>1893.1</ele>
        <time>2024-07-10T09:28:44Z</time>
      </trkpt>
      <trkpt lat="45.10174" lon="6.06771">
        <ele>1893.3</ele>
        <time>2024-07-10T09:28:45Z</time>
      </trkpt>
      <trkpt lat="45.10175" lon="6.06771">
        <ele>1893.4</ele>
        <time>2024-07-10T09:28:46Z</time>
      </trkpt>
      <trkpt lat="45.10176" lon="6.06771">
        <ele>1893.5</ele>
        <time>2024-07-10T09:28:47Z</time>
      </trkpt>
      <trkpt lat="45.10178" lon="6.0677">
        <ele>1893.6</ele>
        <time>2024-07-10T09:28:48Z</time>
      </trkpt>
      <trkpt lat="45.10179" lon="6.0677">
        <ele>1893.7</ele>
        <time>2024-07-10T09:28:49Z</time>
      </trkpt>
      <trkpt lat="45.10179" lon="6.06769">
        <ele>1893.8</ele>
        <time>2024-07-10T09:28:50Z</time>
      </trkpt>
      <trkpt lat="45.10181" lon="6.06769">
        <ele>1893.9</ele>
        <time>2024-07-10T09:28:51Z</time>
      </trkpt>
      <trkpt lat="45.10182" lon="6.06768">
        <ele>1894</ele>
        <time>2024-07-10T09:28:52Z</time>
      </trkpt>
      <trkpt lat="45.10183" lon="6.06768">
        <ele>1894.1</ele>
        <time>2024-07-10T09:28:53Z</time>
      </trkpt>
      <trkpt lat="45.10185" lon="6.06767">
        <ele>1894.3</ele>
        <time>2024-07-10T09:28:54Z</time>
      </trkpt>
      <trkpt lat="45.10186" lon="6.06767">
        <ele>1894.3</ele>
        <time>2024-07-10T09:28:55Z</time>
      </trkpt>
      <trkpt lat="45.10186" lon="6.06767">
        <ele>1894.4</ele>
        <time>2024-07-10T09:28:56Z</time>
      </trkpt>
      <trkpt lat="45.10189" lon="6.06766">
        <ele>1894.6</ele>
        <time>2024-07-10T09:28:57Z</time>
      </trkpt>
      <trkpt lat="45.10189" lon="6.06766">
        <ele>1894.7</ele>
        <time>2024-07-10T09:28:58Z</time>
      </trkpt>
      <trkpt lat="45.1019" lon="6.06765">
        <ele>1894.7</ele>
        <time>2024-07-10T09:28:59Z</time>
      </trkpt>
      <trkpt lat="45.10192" lon="6.06764">
        <ele>1894.9</ele>
        <time>2024-07-10T09:29:00Z</time>
      </trkpt>
      <trkpt lat="45.10193" lon="6.06764">
        <ele>1895</ele>
        <time>2024-07-10T09:29:01Z</time>
      </trkpt>
      <trkpt lat="45.10194" lon="6.06764">
        <ele>1895.1</ele>
        <time>2024-07-10T09:29:02Z</time>
      </trkpt>
      <trkpt lat="45.10195" lon="6.06764">
        <ele>1895.1</ele>
        <time>2024-07-10T09:29:03Z</time>
      </trkpt>
      <trkpt lat="45.10196" lon="6.06763">
        <ele>1895.2</ele>
        <time>2024-07-10T09:29:04Z</time>
      </trkpt>
      <trkpt lat="45.10197" lon="6.06763">
        <ele>1895.3</ele>
        <time>2024-07-10T09:29:05Z</time>
      </trkpt>
      <trkpt lat="45.10198" lon="6.06763">
        <ele>1895.4</ele>
        <time>2024-07-10T09:29:06Z</time>
      </trkpt>
      <trkpt lat="45.10199" lon="6.06762">
        <ele>1895.5</ele>
        <time>2024-07-10T09:29:07Z</time>
      </trkpt>
      <trkpt lat="45.102" lon="6.06761">
        <ele>1895.6</ele>
        <time>2024-07-10T09:29:08Z</time>
      </trkpt>
      <trkpt lat="45.10201" lon="6.0676">
        <ele>1895.7</ele>
        <time>2024-07-10T09:29:09Z</time>
      </trkpt>
      <trkpt lat="45.10202" lon="6.0676">
        <ele>1895.8</ele>
        <time>2024-07-10T09:29:10Z</time>
      </trkpt>
      <trkpt lat="45.10202" lon="6.06759">
        <ele>1895.9</ele>
        <time>2024-07-10T09:29:11Z</time>
      </trkpt>
      <trkpt lat="45.10203" lon="6.06758">
        <ele>1895.9</ele>
        <time>2024-07-10T09:29:12Z</time>
      </trkpt>
      <trkpt lat="45.10204" lon="6.06758">
        <ele>1896</ele>
        <time>2024-07-10T09:29:13Z</time>
      </trkpt>
      <trkpt lat="45.10205" lon="6.06758">
        <ele>1896.1</ele>
        <time>2024-07-10T09:29:14Z</time>
      </trkpt>
      <trkpt lat="45.10206" lon="6.06758">
        <ele>1896.1</ele>
        <time>2024-07-10T09:29:15Z</time>
      </trkpt>
      <trkpt lat="45.10207" lon="6.06757">
        <ele>1896.2</ele>
        <time>2024-07-10T09:29:16Z</time>
      </trkpt>
      <trkpt lat="45.10208" lon="6.06757">
        <ele>1896.3</ele>
        <time>2024-07-10T09:29:17Z</time>
      </trkpt>
      <trkpt lat="45.10209" lon="6.06757">
        <ele>1896.4</ele>
        <time>2024-07-10T09:29:18Z</time>
      </trkpt>
      <trkpt lat="45.1021" lon="6.06756">
        <ele>1896.5</ele>
        <time>2024-07-10T09:29:19Z</time>
      </trkpt>
      <trkpt lat="45.1021" lon="6.06755">
        <ele>1896.5</ele>
        <time>2024-07-10T09:29:20Z</time>
      </trkpt>
      <trkpt lat="45.10211" lon="6.06755">
        <ele>1896.6</ele>
        <time>2024-07-10T09:29:21Z</time>
      </trkpt>
      <trkpt lat="45.10212" lon="6.06754">
        <ele>1896.7</ele>
        <time>2024-07-10T09:29:22Z</time>
      </trkpt>
      <trkpt lat="45.10213" lon="6.06754">
        <ele>1896.8</ele>
        <time>2024-07-10T09:29:23Z</time>
      </trkpt>
      <trkpt lat="45.10215" lon="6.06753">
        <ele>1896.9</ele>
        <time>2024-07-10T09:29:24Z</time>
      </trkpt>
      <trkpt lat="45.10216" lon="6.06753">
        <ele>1897</ele>
        <time>2024-07-10T09:29:25Z</time>
      </trkpt>
      <trkpt lat="45.10217" lon="6.06752">
        <ele>1897.1</ele>
        <time>2024-07-10T09:29:26Z</time>
      </trkpt>
      <trkpt lat="45.10218" lon="6.06752">
        <ele>1897.2</ele>
        <time>2024-07-10T09:29:27Z</time>
      </trkpt>
      <trkpt lat="45.10219" lon="6.06751">
        <ele>1897.3</ele>
        <time>2024-07-10T09:29:28Z</time>
      </trkpt>
      <trkpt lat="45.1022" lon="6.0675">
        <ele>1897.3</ele>
        <time>2024-07-10T09:29:29Z</time>
      </trkpt>
      <trkpt lat="45.1022" lon="6.0675">
        <ele>1897.4</ele>
        <time>2024-07-10T09:29:30Z</time>
      </trkpt>
      <trkpt lat="45.10221" lon="6.06749">
        <ele>1897.5</ele>
        <time>2024-07-10T09:29:31Z</time>
      </trkpt>
      <trkpt lat="45.10222" lon="6.06748">
        <ele>1897.6</ele>
        <time>2024-07-10T09:29:32Z</time>
      </trkpt>
      <trkpt lat="45.10224" lon="6.06747">
        <ele>1897.7</ele>
        <time>2024-07-10T09:29:33Z</time>
      </trkpt>
      <trkpt lat="45.10224" lon="6.06747">
        <ele>1897.8</ele>
        <time>2024-07-10T09:29:34Z</time>
      </trkpt>
      <trkpt lat="45.10225" lon="6.06746">
        <ele>1897.9</ele>
        <time>2024-07-10T09:29:35Z</time>
      </trkpt>
      <trkpt lat="45.10226" lon="6.06746">
        <ele>1897.9</ele>
        <time>2024-07-10T09:29:36Z</time>
      </trkpt>
      <trkpt lat="45.10227" lon="6.06745">
        <ele>1898</ele>
        <time>2024-07-10T09:29:37Z</time>
      </trkpt>
      <trkpt lat="45.10227" lon="6.06745">
        <ele>1898.1</ele>
        <time>2024-07-10T09:29:38Z</time>
      </trkpt>
      <trkpt lat="45.10228" lon="6.06745">
        <ele>1898.1</ele>
        <time>2024-07-10T09:29:39Z</time>
      </trkpt>
      <trkpt lat="45.1023" lon="6.06744">
        <ele>1898.3</ele>
        <time>2024-07-10T09:29:40Z</time>
      </trkpt>
      <trkpt lat="45.10231" lon="6.06743">
        <ele>1898.4</ele>
        <time>2024-07-10T09:29:41Z</time>
      </trkpt>
      <trkpt lat="45.10232" lon="6.06743">
        <ele>1898.4</ele>
        <time>2024-07-10T09:29:42Z</time>
      </trkpt>
      <trkpt lat="45.10233" lon="6.06742">
        <ele>1898.5</ele>
        <time>2024-07-10T09:29:43Z</time>
      </trkpt>
      <trkpt lat="45.10233" lon="6.06741">
        <ele>1898.6</ele>
        <time>2024-07-10T09:29:44Z</time>
      </trkpt>
      <trkpt lat="45.10234" lon="6.06741">
        <ele>1898.7</ele>
        <time>2024-07-10T09:29:45Z</time>
      </trkpt>
      <trkpt lat="45.10235" lon="6.0674">
        <ele>1898.8</ele>
        <time>2024-07-10T09:29:46Z</time>
      </trkpt>
      <trkpt lat="45.10237" lon="6.06738">
        <ele>1898.9</ele>
        <time>2024-07-10T09:29:47Z</time>
      </trkpt>
      <trkpt lat="45.10237" lon="6.06738">
        <ele>1899</ele>
        <time>2024-07-10T09:29:48Z</time>
      </trkpt>
      <trkpt lat="45.10238" lon="6.06737">
        <ele>1899.1</ele>
        <time>2024-07-10T09:29:49Z</time>
      </trkpt>
      <trkpt lat="45.10239" lon="6.06737">
        <ele>1899.2</ele>
        <time>2024-07-10T09:29:50Z</time>
      </trkpt>
      <trkpt lat="45.1024" lon="6.06736">
        <ele>1899.3</ele>
        <time>2024-07-10T09:29:51Z</time>
      </trkpt>
      <trkpt lat="45.10241" lon="6.06735">
        <ele>1899.4</ele>
        <time>2024-07-10T09:29:52Z</time>
      </trkpt>
      <trkpt lat="45.10242" lon="6.06734">
        <ele>1899.4</ele>
        <time>2024-07-10T09:29:53Z</time>
      </trkpt>
      <trkpt lat="45.10243" lon="6.06733">
        <ele>1899.5</ele>
        <time>2024-07-10T09:29:54Z</time>
      </trkpt>
      <trkpt lat="45.10244" lon="6.06732">
        <ele>1899.7</ele>
        <time>2024-07-10T09:29:55Z</time>
      </trkpt>
      <trkpt lat="45.10244" lon="6.06732">
        <ele>1899.7</ele>
        <time>2024-07-10T09:29:56Z</time>
      </trkpt>
      <trkpt lat="45.10245" lon="6.06731">
        <ele>1899.8</ele>
        <time>2024-07-10T09:29:57Z</time>
      </trkpt>
      <trkpt lat="45.10245" lon="6.06729">
        <ele>1899.9</ele>
        <time>2024-07-10T09:29:58Z</time>
      </trkpt>
      <trkpt lat="45.10246" lon="6.06728">
        <ele>1900</ele>
        <time>2024-07-10T09:29:59Z</time>
      </trkpt>
      <trkpt lat="45.10247" lon="6.06728">
        <ele>1900.1</ele>
        <time>2024-07-10T09:30:00Z</time>
      </trkpt>
      <trkpt lat="45.10248" lon="6.06728">
        <ele>1900.2</ele>
        <time>2024-07-10T09:30:01Z</time>
      </trkpt>
      <trkpt lat="45.10249" lon="6.06728">
        <ele>1900.3</ele>
        <time>2024-07-10T09:30:02Z</time>
      </trkpt>
      <trkpt lat="45.1025" lon="6.06727">
        <ele>1900.4</ele>
        <time>2024-07-10T09:30:03Z</time>
      </trkpt>
      <trkpt lat="45.10251" lon="6.06727">
        <ele>1900.4</ele>
        <time>2024-07-10T09:30:04Z</time>
      </trkpt>
      <trkpt lat="45.10253" lon="6.06726">
        <ele>1900.6</ele>
        <time>2024-07-10T09:30:05Z</time>
      </trkpt>
      <trkpt lat="45.10254" lon="6.06726">
        <ele>1900.7</ele>
        <time>2024-07-10T09:30:06Z</time>
      </trkpt>
      <trkpt lat="45.10255" lon="6.06725">
        <ele>1900.8</ele>
        <time>2024-07-10T09:30:07Z</time>
      </trkpt>
      <trkpt lat="45.10256" lon="6.06725">
        <ele>1900.9</ele>
        <time>2024-07-10T09:30:08Z</time>
      </trkpt>
      <trkpt lat="45.10257" lon="6.06724">
        <ele>1901</ele>
        <time>2024-07-10T09:30:09Z</time>
      </trkpt>
      <trkpt lat="45.10258" lon="6.06724">
        <ele>1901.1</ele>
        <time>2024-07-10T09:30:10Z</time>
      </trkpt>
      <trkpt lat="45.10259" lon="6.06723">
        <ele>1901.2</ele>
        <time>2024-07-10T09:30:11Z</time>
      </trkpt>
      <trkpt lat="45.1026" lon="6.06722">
        <ele>1901.3</ele>
        <time>2024-07-10T09:30:12Z</time>
      </trkpt>
      <trkpt lat="45.10262" lon="6.06721">
        <ele>1901.5</ele>
        <time>2024-07-10T09:30:13Z</time>
      </trkpt>
      <trkpt lat="45.10263" lon="6.0672">
        <ele>1901.6</ele>
        <time>2024-07-10T09:30:14Z</time>
      </trkpt>
      <trkpt lat="45.10263" lon="6.06719">
        <ele>1901.7</ele>
        <time>2024-07-10T09:30:15Z</time>
      </trkpt>
      <trkpt lat="45.10264" lon="6.06718">
        <ele>1901.8</ele>
        <time>2024-07-10T09:30:16Z</time>
      </trkpt>
      <trkpt lat="45.10265" lon="6.06717">
        <ele>1901.9</ele>
        <time>2024-07-10T09:30:17Z</time>
      </trkpt>
      <trkpt lat="45.10266" lon="6.06716">
        <ele>1902</ele>
        <time>2024-07-10T09:30:18Z</time>
      </trkpt>
      <trkpt lat="45.10268" lon="6.06715">
        <ele>1902.2</ele>
        <time>2024-07-10T09:30:19Z</time>
      </trkpt>
      <trkpt lat="45.10269" lon="6.06714">
        <ele>1902.3</ele>
        <time>2024-07-10T09:30:20Z</time>
      </trkpt>
      <trkpt lat="45.1027" lon="6.06713">
        <ele>1902.4</ele>
        <time>2024-07-10T09:30:21Z</time>
      </trkpt>
      <trkpt lat="45.10271" lon="6.06712">
        <ele>1902.5</ele>
        <time>2024-07-10T09:30:22Z</time>
      </trkpt>
      <trkpt lat="45.10272" lon="6.06712">
        <ele>1902.6</ele>
        <time>2024-07-10T09:30:23Z</time>
      </trkpt>
      <trkpt lat="45.10273" lon="6.06711">
        <ele>1902.7</ele>
        <time>2024-07-10T09:30:24Z</time>
      </trkpt>
      <trkpt lat="45.10275" lon="6.06709">
        <ele>1902.9</ele>
        <time>2024-07-10T09:30:25Z</time>
      </trkpt>
      <trkpt lat="45.10275" lon="6.06709">
        <ele>1903</ele>
        <time>2024-07-10T09:30:26Z</time>
      </trkpt>
      <trkpt lat="45.10276" lon="6.06708">
        <ele>1903.1</ele>
        <time>2024-07-10T09:30:27Z</time>
      </trkpt>
      <trkpt lat="45.10277" lon="6.06708">
        <ele>1903.2</ele>
        <time>2024-07-10T09:30:28Z</time>
      </trkpt>
      <trkpt lat="45.10278" lon="6.06707">
        <ele>1903.3</ele>
        <time>2024-07-10T09:30:29Z</time>
      </trkpt>
      <trkpt lat="45.10279" lon="6.06706">
        <ele>1903.4</ele>
        <time>2024-07-10T09:30:30Z</time>
      </trkpt>
      <trkpt lat="45.1028" lon="6.06705">
        <ele>1903.5</ele>
        <time>2024-07-10T09:30:31Z</time>
      </trkpt>
      <trkpt lat="45.10281" lon="6.06704">
        <ele>1903.6</ele>
        <time>2024-07-10T09:30:32Z</time>
      </trkpt>
      <trkpt lat="45.10282" lon="6.06704">
        <ele>1903.7</ele>
        <time>2024-07-10T09:30:33Z</time>
      </trkpt>
      <trkpt lat="45.10283" lon="6.06703">
        <ele>1903.8</ele>
        <time>2024-07-10T09:30:34Z</time>
      </trkpt>
      <trkpt lat="45.10285" lon="6.06702">
        <ele>1904</ele>
        <time>2024-07-10T09:30:35Z</time>
      </trkpt>
      <trkpt lat="45.10285" lon="6.06702">
        <ele>1904.1</ele>
        <time>2024-07-10T09:30:36Z</time>
      </trkpt>
      <trkpt lat="45.10286" lon="6.06701">
        <ele>1904.2</ele>
        <time>2024-07-10T09:30:37Z</time>
      </trkpt>
      <trkpt lat="45.10287" lon="6.067">
        <ele>1904.3</ele>
        <time>2024-07-10T09:30:38Z</time>
      </trkpt>
      <trkpt lat="45.10288" lon="6.06699">
        <ele>1904.4</ele>
        <time>2024-07-10T09:30:39Z</time>
      </trkpt>
      <trkpt lat="45.10289" lon="6.06698">
        <ele>1904.5</ele>
        <time>2024-07-10T09:30:40Z</time>
      </trkpt>
      <trkpt lat="45.1029" lon="6.06698">
        <ele>1904.6</ele>
        <time>2024-07-10T09:30:41Z</time>
      </trkpt>
      <trkpt lat="45.10291" lon="6.06697">
        <ele>1904.7</ele>
        <time>2024-07-10T09:30:42Z</time>
      </trkpt>
      <trkpt lat="45.10292" lon="6.06697">
        <ele>1904.8</ele>
        <time>2024-07-10T09:30:43Z</time>
      </trkpt>
      <trkpt lat="45.10292" lon="6.06697">
        <ele>1904.8</ele>
        <time>2024-07-10T09:30:44Z</time>
      </trkpt>
      <trkpt lat="45.10292" lon="6.06696">
        <ele>1904.8</ele>
        <time>2024-07-10T09:30:45Z</time>
      </trkpt>
      <trkpt lat="45.10293" lon="6.06695">
        <ele>1904.9</ele>
        <time>2024-07-10T09:30:46Z</time>
      </trkpt>
      <trkpt lat="45.10295" lon="6.06694">
        <ele>1905.1</ele>
        <time>2024-07-10T09:30:47Z</time>
      </trkpt>
      <trkpt lat="45.10296" lon="6.06694">
        <ele>1905.2</ele>
        <time>2024-07-10T09:30:48Z</time>
      </trkpt>
      <trkpt lat="45.10297" lon="6.06693">
        <ele>1905.3</ele>
        <time>2024-07-10T09:30:49Z</time>
      </trkpt>
      <trkpt lat="45.10298" lon="6.06693">
        <ele>1905.4</ele>
        <time>2024-07-10T09:30:50Z</time>
      </trkpt>
      <trkpt lat="45.10299" lon="6.06693">
        <ele>1905.5</ele>
        <time>2024-07-10T09:30:51Z</time>
      </trkpt>
      <trkpt lat="45.103" lon="6.06693">
        <ele>1905.6</ele>
        <time>2024-07-10T09:30:52Z</time>
      </trkpt>
      <trkpt lat="45.10302" lon="6.06693">
        <ele>1905.7</ele>
        <time>2024-07-10T09:30:53Z</time>
      </trkpt>
      <trkpt lat="45.10303" lon="6.06692">
        <ele>1905.9</ele>
        <time>2024-07-10T09:30:54Z</time>
      </trkpt>
      <trkpt lat="45.10305" lon="6.06691">
        <ele>1906.1</ele>
        <time>2024-07-10T09:30:55Z</time>
      </trkpt>
      <trkpt lat="45.10306" lon="6.0669">
        <ele>1906.2</ele>
        <time>2024-07-10T09:30:56Z</time>
      </trkpt>
      <trkpt lat="45.10307" lon="6.06689">
        <ele>1906.3</ele>
        <time>2024-07-10T09:30:57Z</time>
      </trkpt>
      <trkpt lat="45.10308" lon="6.06688">
        <ele>1906.4</ele>
        <time>2024-07-10T09:30:58Z</time>
      </trkpt>
      <trkpt lat="45.1031" lon="6.06688">
        <ele>1906.6</ele>
        <time>2024-07-10T09:30:59Z</time>
      </trkpt>
      <trkpt lat="45.10311" lon="6.06687">
        <ele>1906.8</ele>
        <time>2024-07-10T09:31:00Z</time>
      </trkpt>
      <trkpt lat="45.10312" lon="6.06687">
        <ele>1906.9</ele>
        <time>2024-07-10T09:31:01Z</time>
      </trkpt>
      <trkpt lat="45.10313" lon="6.06686">
        <ele>1906.9</ele>
        <time>2024-07-10T09:31:02Z</time>
      </trkpt>
      <trkpt lat="45.10314" lon="6.06686">
        <ele>1907.1</ele>
        <time>2024-07-10T09:31:03Z</time>
      </trkpt>
      <trkpt lat="45.10316" lon="6.06686">
        <ele>1907.3</ele>
        <time>2024-07-10T09:31:04Z</time>
      </trkpt>
      <trkpt lat="45.10318" lon="6.06685">
        <ele>1907.5</ele>
        <time>2024-07-10T09:31:05Z</time>
      </trkpt>
      <trkpt lat="45.10319" lon="6.06685">
        <ele>1907.6</ele>
        <time>2024-07-10T09:31:06Z</time>
      </trkpt>
      <trkpt lat="45.1032" lon="6.06685">
        <ele>1907.7</ele>
        <time>2024-07-10T09:31:07Z</time>
      </trkpt>
      <trkpt lat="45.10321" lon="6.06685">
        <ele>1907.8</ele>
        <time>2024-07-10T09:31:08Z</time>
      </trkpt>
      <trkpt lat="45.10323" lon="6.06684">
        <ele>1908</ele>
        <time>2024-07-10T09:31:09Z</time>
      </trkpt>
      <trkpt lat="45.10324" lon="6.06684">
        <ele>1908.1</ele>
        <time>2024-07-10T09:31:10Z</time>
      </trkpt>
      <trkpt lat="45.10325" lon="6.06683">
        <ele>1908.2</ele>
        <time>2024-07-10T09:31:11Z</time>
      </trkpt>
      <trkpt lat="45.10326" lon="6.06683">
        <ele>1908.3</ele>
        <time>2024-07-10T09:31:12Z</time>
      </trkpt>
      <trkpt lat="45.10327" lon="6.06683">
        <ele>1908.4</ele>
        <time>2024-07-10T09:31:13Z</time>
      </trkpt>
      <trkpt lat="45.10329" lon="6.06683">
        <ele>1908.6</ele>
        <time>2024-07-10T09:31:14Z</time>
      </trkpt>
      <trkpt lat="45.10329" lon="6.06683">
        <ele>1908.7</ele>
        <time>2024-07-10T09:31:15Z</time>
      </trkpt>
      <trkpt lat="45.10331" lon="6.06683">
        <ele>1908.8</ele>
        <time>2024-07-10T09:31:16Z</time>
      </trkpt>
      <trkpt lat="45.10332" lon="6.06683">
        <ele>1908.9</ele>
        <time>2024-07-10T09:31:17Z</time>
      </trkpt>
      <trkpt lat="45.10333" lon="6.06683">
        <ele>1909</ele>
        <time>2024-07-10T09:31:18Z</time>
      </trkpt>
      <trkpt lat="45.10334" lon="6.06683">
        <ele>1909.1</ele>
        <time>2024-07-10T09:31:19Z</time>
      </trkpt>
      <trkpt lat="45.10335" lon="6.06683">
        <ele>1909.2</ele>
        <time>2024-07-10T09:31:20Z</time>
      </trkpt>
      <trkpt lat="45.10336" lon="6.06683">
        <ele>1909.3</ele>
        <time>2024-07-10T09:31:21Z</time>
      </trkpt>
      <trkpt lat="45.10337" lon="6.06683">
        <ele>1909.5</ele>
        <time>2024-07-10T09:31:22Z</time>
      </trkpt>
      <trkpt lat="45.10338" lon="6.06682">
        <ele>1909.6</ele>
        <time>2024-07-10T09:31:23Z</time>
      </trkpt>
      <trkpt lat="45.10341" lon="6.06682">
        <ele>1909.8</ele>
        <time>2024-07-10T09:31:25Z</time>
      </trkpt>
      <trkpt lat="45.10342" lon="6.06681">
        <ele>1909.9</ele>
        <time>2024-07-10T09:31:26Z</time>
      </trkpt>
      <trkpt lat="45.10343" lon="6.06681">
        <ele>1910.1</ele>
        <time>2024-07-10T09:31:27Z</time>
      </trkpt>
      <trkpt lat="45.10344" lon="6.06681">
        <ele>1910.2</ele>
        <time>2024-07-10T09:31:28Z</time>
      </trkpt>
      <trkpt lat="45.10346" lon="6.06681">
        <ele>1910.3</ele>
        <time>2024-07-10T09:31:29Z</time>
      </trkpt>
      <trkpt lat="45.10346" lon="6.06681">
        <ele>1910.4</ele>
        <time>2024-07-10T09:31:30Z</time>
      </trkpt>
      <trkpt lat="45.10348" lon="6.06681">
        <ele>1910.5</ele>
        <time>2024-07-10T09:31:31Z</time>
      </trkpt>
      <trkpt lat="45.10349" lon="6.06681">
        <ele>1910.7</ele>
        <time>2024-07-10T09:31:32Z</time>
      </trkpt>
      <trkpt lat="45.1035" lon="6.06681">
        <ele>1910.8</ele>
        <time>2024-07-10T09:31:33Z</time>
      </trkpt>
      <trkpt lat="45.10352" lon="6.06682">
        <ele>1911</ele>
        <time>2024-07-10T09:31:35Z</time>
      </trkpt>
      <trkpt lat="45.10353" lon="6.06682">
        <ele>1911.1</ele>
        <time>2024-07-10T09:31:36Z</time>
      </trkpt>
      <trkpt lat="45.10354" lon="6.06683">
        <ele>1911.2</ele>
        <time>2024-07-10T09:31:37Z</time>
      </trkpt>
      <trkpt lat="45.10355" lon="6.06683">
        <ele>1911.3</ele>
        <time>2024-07-10T09:31:38Z</time>
      </trkpt>
      <trkpt lat="45.10356" lon="6.06684">
        <ele>1911.4</ele>
        <time>2024-07-10T09:31:39Z</time>
      </trkpt>
      <trkpt lat="45.10357" lon="6.06684">
        <ele>1911.5</ele>
        <time>2024-07-10T09:31:40Z</time>
      </trkpt>
      <trkpt lat="45.10358" lon="6.06685">
        <ele>1911.6</ele>
        <time>2024-07-10T09:31:41Z</time>
      </trkpt>
      <trkpt lat="45.10359" lon="6.06685">
        <ele>1911.8</ele>
        <time>2024-07-10T09:31:42Z</time>
      </trkpt>
      <trkpt lat="45.1036" lon="6.06685">
        <ele>1911.9</ele>
        <time>2024-07-10T09:31:43Z</time>
      </trkpt>
      <trkpt lat="45.10362" lon="6.06686">
        <ele>1912</ele>
        <time>2024-07-10T09:31:44Z</time>
      </trkpt>
      <trkpt lat="45.10363" lon="6.06686">
        <ele>1912.1</ele>
        <time>2024-07-10T09:31:45Z</time>
      </trkpt>
      <trkpt lat="45.10364" lon="6.06686">
        <ele>1912.2</ele>
        <time>2024-07-10T09:31:46Z</time>
      </trkpt>
      <trkpt lat="45.10365" lon="6.06686">
        <ele>1912.3</ele>
        <time>2024-07-10T09:31:47Z</time>
      </trkpt>
      <trkpt lat="45.10366" lon="6.06687">
        <ele>1912.5</ele>
        <time>2024-07-10T09:31:48Z</time>
      </trkpt>
      <trkpt lat="45.10369" lon="6.06687">
        <ele>1912.7</ele>
        <time>2024-07-10T09:31:50Z</time>
      </trkpt>
      <trkpt lat="45.1037" lon="6.06687">
        <ele>1912.8</ele>
        <time>2024-07-10T09:31:51Z</time>
      </trkpt>
      <trkpt lat="45.10371" lon="6.06687">
        <ele>1912.9</ele>
        <time>2024-07-10T09:31:52Z</time>
      </trkpt>
      <trkpt lat="45.10372" lon="6.06688">
        <ele>1913</ele>
        <time>2024-07-10T09:31:53Z</time>
      </trkpt>
      <trkpt lat="45.10373" lon="6.06688">
        <ele>1913.1</ele>
        <time>2024-07-10T09:31:54Z</time>
      </trkpt>
      <trkpt lat="45.10374" lon="6.06688">
        <ele>1913.2</ele>
        <time>2024-07-10T09:31:55Z</time>
      </trkpt>
      <trkpt lat="45.10375" lon="6.06689">
        <ele>1913.3</ele>
        <time>2024-07-10T09:31:56Z</time>
      </trkpt>
      <trkpt lat="45.10376" lon="6.06689">
        <ele>1913.4</ele>
        <time>2024-07-10T09:31:57Z</time>
      </trkpt>
      <trkpt lat="45.10377" lon="6.06689">
        <ele>1913.5</ele>
        <time>2024-07-10T09:31:58Z</time>
      </trkpt>
      <trkpt lat="45.10379" lon="6.06689">
        <ele>1913.6</ele>
        <time>2024-07-10T09:31:59Z</time>
      </trkpt>
      <trkpt lat="45.1038" lon="6.06689">
        <ele>1913.7</ele>
        <time>2024-07-10T09:32:00Z</time>
      </trkpt>
      <trkpt lat="45.10381" lon="6.0669">
        <ele>1913.8</ele>
        <time>2024-07-10T09:32:01Z</time>
      </trkpt>
      <trkpt lat="45.10382" lon="6.0669">
        <ele>1913.9</ele>
        <time>2024-07-10T09:32:02Z</time>
      </trkpt>
      <trkpt lat="45.10383" lon="6.0669">
        <ele>1914</ele>
        <time>2024-07-10T09:32:03Z</time>
      </trkpt>
      <trkpt lat="45.10385" lon="6.0669">
        <ele>1914.1</ele>
        <time>2024-07-10T09:32:04Z</time>
      </trkpt>
      <trkpt lat="45.10385" lon="6.06691">
        <ele>1914.2</ele>
        <time>2024-07-10T09:32:05Z</time>
      </trkpt>
      <trkpt lat="45.10387" lon="6.06691">
        <ele>1914.3</ele>
        <time>2024-07-10T09:32:06Z</time>
      </trkpt>
      <trkpt lat="45.10388" lon="6.06691">
        <ele>1914.4</ele>
        <time>2024-07-10T09:32:07Z</time>
      </trkpt>
      <trkpt lat="45.10389" lon="6.06691">
        <ele>1914.5</ele>
        <time>2024-07-10T09:32:08Z</time>
      </trkpt>
      <trkpt lat="45.1039" lon="6.0669">
        <ele>1914.6</ele>
        <time>2024-07-10T09:32:09Z</time>
      </trkpt>
      <trkpt lat="45.10391" lon="6.0669">
        <ele>1914.7</ele>
        <time>2024-07-10T09:32:10Z</time>
      </trkpt>
      <trkpt lat="45.10392" lon="6.0669">
        <ele>1914.8</ele>
        <time>2024-07-10T09:32:11Z</time>
      </trkpt>
      <trkpt lat="45.10394" lon="6.06688">
        <ele>1915</ele>
        <time>2024-07-10T09:32:12Z</time>
      </trkpt>
      <trkpt lat="45.10395" lon="6.06688">
        <ele>1915</ele>
        <time>2024-07-10T09:32:13Z</time>
      </trkpt>
      <trkpt lat="45.10395" lon="6.06687">
        <ele>1915.1</ele>
        <time>2024-07-10T09:32:14Z</time>
      </trkpt>
      <trkpt lat="45.10396" lon="6.06686">
        <ele>1915.2</ele>
        <time>2024-07-10T09:32:15Z</time>
      </trkpt>
      <trkpt lat="45.10397" lon="6.06685">
        <ele>1915.3</ele>
        <time>2024-07-10T09:32:16Z</time>
      </trkpt>
      <trkpt lat="45.10398" lon="6.06685">
        <ele>1915.4</ele>
        <time>2024-07-10T09:32:17Z</time>
      </trkpt>
      <trkpt lat="45.10399" lon="6.06684">
        <ele>1915.5</ele>
        <time>2024-07-10T09:32:18Z</time>
      </trkpt>
      <trkpt lat="45.10401" lon="6.06684">
        <ele>1915.6</ele>
        <time>2024-07-10T09:32:19Z</time>
      </trkpt>
      <trkpt lat="45.10402" lon="6.06684">
        <ele>1915.7</ele>
        <time>2024-07-10T09:32:20Z</time>
      </trkpt>
      <trkpt lat="45.10403" lon="6.06685">
        <ele>1915.8</ele>
        <time>2024-07-10T09:32:21Z</time>
      </trkpt>
      <trkpt lat="45.10403" lon="6.06686">
        <ele>1915.8</ele>
        <time>2024-07-10T09:32:22Z</time>
      </trkpt>
      <trkpt lat="45.10404" lon="6.06687">
        <ele>1915.9</ele>
        <time>2024-07-10T09:32:23Z</time>
      </trkpt>
      <trkpt lat="45.10405" lon="6.06689">
        <ele>1916.1</ele>
        <time>2024-07-10T09:32:24Z</time>
      </trkpt>
      <trkpt lat="45.10406" lon="6.0669">
        <ele>1916.1</ele>
        <time>2024-07-10T09:32:25Z</time>
      </trkpt>
      <trkpt lat="45.10407" lon="6.06691">
        <ele>1916.2</ele>
        <time>2024-07-10T09:32:26Z</time>
      </trkpt>
      <trkpt lat="45.10408" lon="6.06692">
        <ele>1916.3</ele>
        <time>2024-07-10T09:32:27Z</time>
      </trkpt>
      <trkpt lat="45.10409" lon="6.06692">
        <ele>1916.4</ele>
        <time>2024-07-10T09:32:28Z</time>
      </trkpt>
      <trkpt lat="45.10409" lon="6.06693">
        <ele>1916.4</ele>
        <time>2024-07-10T09:32:29Z</time>
      </trkpt>
      <trkpt lat="45.10411" lon="6.06693">
        <ele>1916.5</ele>
        <time>2024-07-10T09:32:30Z</time>
      </trkpt>
      <trkpt lat="45.10413" lon="6.06695">
        <ele>1916.7</ele>
        <time>2024-07-10T09:32:31Z</time>
      </trkpt>
      <trkpt lat="45.10414" lon="6.06695">
        <ele>1916.8</ele>
        <time>2024-07-10T09:32:32Z</time>
      </trkpt>
      <trkpt lat="45.10414" lon="6.06696">
        <ele>1916.9</ele>
        <time>2024-07-10T09:32:33Z</time>
      </trkpt>
      <trkpt lat="45.10417" lon="6.06696">
        <ele>1917</ele>
        <time>2024-07-10T09:32:34Z</time>
      </trkpt>
      <trkpt lat="45.10418" lon="6.06697">
        <ele>1917.1</ele>
        <time>2024-07-10T09:32:35Z</time>
      </trkpt>
      <trkpt lat="45.10418" lon="6.06697">
        <ele>1917.2</ele>
        <time>2024-07-10T09:32:36Z</time>
      </trkpt>
      <trkpt lat="45.1042" lon="6.06698">
        <ele>1917.4</ele>
        <time>2024-07-10T09:32:37Z</time>
      </trkpt>
      <trkpt lat="45.10421" lon="6.06698">
        <ele>1917.4</ele>
        <time>2024-07-10T09:32:38Z</time>
      </trkpt>
      <trkpt lat="45.10422" lon="6.06699">
        <ele>1917.5</ele>
        <time>2024-07-10T09:32:39Z</time>
      </trkpt>
      <trkpt lat="45.10424" lon="6.06699">
        <ele>1917.7</ele>
        <time>2024-07-10T09:32:40Z</time>
      </trkpt>
      <trkpt lat="45.10425" lon="6.06699">
        <ele>1917.8</ele>
        <time>2024-07-10T09:32:41Z</time>
      </trkpt>
      <trkpt lat="45.10426" lon="6.067">
        <ele>1917.9</ele>
        <time>2024-07-10T09:32:42Z</time>
      </trkpt>
      <trkpt lat="45.10427" lon="6.067">
        <ele>1918</ele>
        <time>2024-07-10T09:32:43Z</time>
      </trkpt>
      <trkpt lat="45.10429" lon="6.067">
        <ele>1918.2</ele>
        <time>2024-07-10T09:32:44Z</time>
      </trkpt>
      <trkpt lat="45.1043" lon="6.067">
        <ele>1918.3</ele>
        <time>2024-07-10T09:32:45Z</time>
      </trkpt>
      <trkpt lat="45.10431" lon="6.06701">
        <ele>1918.4</ele>
        <time>2024-07-10T09:32:46Z</time>
      </trkpt>
      <trkpt lat="45.10432" lon="6.06702">
        <ele>1918.6</ele>
        <time>2024-07-10T09:32:47Z</time>
      </trkpt>
      <trkpt lat="45.10434" lon="6.06703">
        <ele>1918.8</ele>
        <time>2024-07-10T09:32:48Z</time>
      </trkpt>
      <trkpt lat="45.10435" lon="6.06703">
        <ele>1918.9</ele>
        <time>2024-07-10T09:32:49Z</time>
      </trkpt>
      <trkpt lat="45.10435" lon="6.06704">
        <ele>1919</ele>
        <time>2024-07-10T09:32:50Z</time>
      </trkpt>
      <trkpt lat="45.10436" lon="6.06704">
        <ele>1919.1</ele>
        <time>2024-07-10T09:32:51Z</time>
      </trkpt>
      <trkpt lat="45.10438" lon="6.06705">
        <ele>1919.2</ele>
        <time>2024-07-10T09:32:52Z</time>
      </trkpt>
      <trkpt lat="45.10438" lon="6.06705">
        <ele>1919.3</ele>
        <time>2024-07-10T09:32:53Z</time>
      </trkpt>
      <trkpt lat="45.1044" lon="6.06706">
        <ele>1919.5</ele>
        <time>2024-07-10T09:32:54Z</time>
      </trkpt>
      <trkpt lat="45.10441" lon="6.06707">
        <ele>1919.6</ele>
        <time>2024-07-10T09:32:55Z</time>
      </trkpt>
      <trkpt lat="45.10441" lon="6.06707">
        <ele>1919.7</ele>
        <time>2024-07-10T09:32:56Z</time>
      </trkpt>
      <trkpt lat="45.10443" lon="6.06709">
        <ele>1920</ele>
        <time>2024-07-10T09:32:57Z</time>
      </trkpt>
      <trkpt lat="45.10444" lon="6.06709">
        <ele>1920.1</ele>
        <time>2024-07-10T09:32:58Z</time>
      </trkpt>
      <trkpt lat="45.10445" lon="6.06709">
        <ele>1920.2</ele>
        <time>2024-07-10T09:32:59Z</time>
      </trkpt>
      <trkpt lat="45.10446" lon="6.0671">
        <ele>1920.3</ele>
        <time>2024-07-10T09:33:00Z</time>
      </trkpt>
      <trkpt lat="45.10447" lon="6.0671">
        <ele>1920.4</ele>
        <time>2024-07-10T09:33:01Z</time>
      </trkpt>
      <trkpt lat="45.10448" lon="6.06711">
        <ele>1920.6</ele>
        <time>2024-07-10T09:33:02Z</time>
      </trkpt>
      <trkpt lat="45.10449" lon="6.06712">
        <ele>1920.7</ele>
        <time>2024-07-10T09:33:03Z</time>
      </trkpt>
      <trkpt lat="45.1045" lon="6.06712">
        <ele>1920.9</ele>
        <time>2024-07-10T09:33:04Z</time>
      </trkpt>
      <trkpt lat="45.1045" lon="6.06713">
        <ele>1921</ele>
        <time>2024-07-10T09:33:05Z</time>
      </trkpt>
      <trkpt lat="45.10451" lon="6.06713">
        <ele>1921.1</ele>
        <time>2024-07-10T09:33:06Z</time>
      </trkpt>
      <trkpt lat="45.10452" lon="6.06714">
        <ele>1921.2</ele>
        <time>2024-07-10T09:33:07Z</time>
      </trkpt>
      <trkpt lat="45.10453" lon="6.06715">
        <ele>1921.4</ele>
        <time>2024-07-10T09:33:08Z</time>
      </trkpt>
      <trkpt lat="45.10454" lon="6.06716">
        <ele>1921.5</ele>
        <time>2024-07-10T09:33:09Z</time>
      </trkpt>
      <trkpt lat="45.10455" lon="6.06717">
        <ele>1921.6</ele>
        <time>2024-07-10T09:33:10Z</time>
      </trkpt>
      <trkpt lat="45.10456" lon="6.06717">
        <ele>1921.8</ele>
        <time>2024-07-10T09:33:11Z</time>
      </trkpt>
      <trkpt lat="45.10457" lon="6.06718">
        <ele>1921.9</ele>
        <time>2024-07-10T09:33:12Z</time>
      </trkpt>
      <trkpt lat="45.10458" lon="6.06718">
        <ele>1922</ele>
        <time>2024-07-10T09:33:13Z</time>
      </trkpt>
      <trkpt lat="45.10459" lon="6.06719">
        <ele>1922.2</ele>
        <time>2024-07-10T09:33:14Z</time>
      </trkpt>
      <trkpt lat="45.1046" lon="6.06719">
        <ele>1922.3</ele>
        <time>2024-07-10T09:33:15Z</time>
      </trkpt>
      <trkpt lat="45.10461" lon="6.06719">
        <ele>1922.5</ele>
        <time>2024-07-10T09:33:16Z</time>
      </trkpt>
      <trkpt lat="45.10462" lon="6.06719">
        <ele>1922.6</ele>
        <time>2024-07-10T09:33:17Z</time>
      </trkpt>
      <trkpt lat="45.10464" lon="6.0672">
        <ele>1922.8</ele>
        <time>2024-07-10T09:33:18Z</time>
      </trkpt>
      <trkpt lat="45.10465" lon="6.0672">
        <ele>1922.9</ele>
        <time>2024-07-10T09:33:19Z</time>
      </trkpt>
      <trkpt lat="45.10466" lon="6.0672">
        <ele>1923</ele>
        <time>2024-07-10T09:33:20Z</time>
      </trkpt>
      <trkpt lat="45.10467" lon="6.06721">
        <ele>1923.1</ele>
        <time>2024-07-10T09:33:21Z</time>
      </trkpt>
      <trkpt lat="45.10468" lon="6.06721">
        <ele>1923.3</ele>
        <time>2024-07-10T09:33:22Z</time>
      </trkpt>
      <trkpt lat="45.10469" lon="6.06721">
        <ele>1923.4</ele>
        <time>2024-07-10T09:33:23Z</time>
      </trkpt>
      <trkpt lat="45.10471" lon="6.06722">
        <ele>1923.6</ele>
        <time>2024-07-10T09:33:24Z</time>
      </trkpt>
      <trkpt lat="45.10472" lon="6.06722">
        <ele>1923.7</ele>
        <time>2024-07-10T09:33:25Z</time>
      </trkpt>
      <trkpt lat="45.10473" lon="6.06723">
        <ele>1923.8</ele>
        <time>2024-07-10T09:33:26Z</time>
      </trkpt>
      <trkpt lat="45.10475" lon="6.06723">
        <ele>1924</ele>
        <time>2024-07-10T09:33:27Z</time>
      </trkpt>
      <trkpt lat="45.10476" lon="6.06723">
        <ele>1924.1</ele>
        <time>2024-07-10T09:33:28Z</time>
      </trkpt>
      <trkpt lat="45.10477" lon="6.06723">
        <ele>1924.2</ele>
        <time>2024-07-10T09:33:29Z</time>
      </trkpt>
      <trkpt lat="45.10479" lon="6.06723">
        <ele>1924.4</ele>
        <time>2024-07-10T09:33:30Z</time>
      </trkpt>
      <trkpt lat="45.1048" lon="6.06723">
        <ele>1924.5</ele>
        <time>2024-07-10T09:33:31Z</time>
      </trkpt>
      <trkpt lat="45.10481" lon="6.06723">
        <ele>1924.5</ele>
        <time>2024-07-10T09:33:32Z</time>
      </trkpt>
      <trkpt lat="45.10482" lon="6.06724">
        <ele>1924.7</ele>
        <time>2024-07-10T09:33:33Z</time>
      </trkpt>
      <trkpt lat="45.10484" lon="6.06724">
        <ele>1924.8</ele>
        <time>2024-07-10T09:33:34Z</time>
      </trkpt>
      <trkpt lat="45.10485" lon="6.06724">
        <ele>1924.9</ele>
        <time>2024-07-10T09:33:35Z</time>
      </trkpt>
      <trkpt lat="45.10486" lon="6.06725">
        <ele>1925</ele>
        <time>2024-07-10T09:33:36Z</time>
      </trkpt>
      <trkpt lat="45.10487" lon="6.06725">
        <ele>1925.1</ele>
        <time>2024-07-10T09:33:37Z</time>
      </trkpt>
      <trkpt lat="45.10489" lon="6.06726">
        <ele>1925.3</ele>
        <time>2024-07-10T09:33:38Z</time>
      </trkpt>
      <trkpt lat="45.1049" lon="6.06726">
        <ele>1925.4</ele>
        <time>2024-07-10T09:33:39Z</time>
      </trkpt>
      <trkpt lat="45.1049" lon="6.06726">
        <ele>1925.5</ele>
        <time>2024-07-10T09:33:40Z</time>
      </trkpt>
      <trkpt lat="45.10491" lon="6.06727">
        <ele>1925.6</ele>
        <time>2024-07-10T09:33:41Z</time>
      </trkpt>
      <trkpt lat="45.10492" lon="6.06727">
        <ele>1925.7</ele>
        <time>2024-07-10T09:33:42Z</time>
      </trkpt>
      <trkpt lat="45.10494" lon="6.06727">
        <ele>1925.8</ele>
        <time>2024-07-10T09:33:43Z</time>
      </trkpt>
      <trkpt lat="45.10495" lon="6.06728">
        <ele>1925.9</ele>
        <time>2024-07-10T09:33:44Z</time>
      </trkpt>
      <trkpt lat="45.10496" lon="6.06728">
        <ele>1926</ele>
        <time>2024-07-10T09:33:45Z</time>
      </trkpt>
      <trkpt lat="45.10497" lon="6.06728">
        <ele>1926.1</ele>
        <time>2024-07-10T09:33:46Z</time>
      </trkpt>
      <trkpt lat="45.10498" lon="6.06728">
        <ele>1926.2</ele>
        <time>2024-07-10T09:33:47Z</time>
      </trkpt>
      <trkpt lat="45.10499" lon="6.06728">
        <ele>1926.3</ele>
        <time>2024-07-10T09:33:48Z</time>
      </trkpt>
      <trkpt lat="45.10501" lon="6.06729">
        <ele>1926.4</ele>
        <time>2024-07-10T09:33:49Z</time>
      </trkpt>
      <trkpt lat="45.10503" lon="6.06729">
        <ele>1926.6</ele>
        <time>2024-07-10T09:33:50Z</time>
      </trkpt>
      <trkpt lat="45.10503" lon="6.06729">
        <ele>1926.7</ele>
        <time>2024-07-10T09:33:51Z</time>
      </trkpt>
      <trkpt lat="45.10504" lon="6.0673">
        <ele>1926.8</ele>
        <time>2024-07-10T09:33:52Z</time>
      </trkpt>
      <trkpt lat="45.10505" lon="6.0673">
        <ele>1926.9</ele>
        <time>2024-07-10T09:33:53Z</time>
      </trkpt>
      <trkpt lat="45.10507" lon="6.0673">
        <ele>1927</ele>
        <time>2024-07-10T09:33:54Z</time>
      </trkpt>
      <trkpt lat="45.10508" lon="6.0673">
        <ele>1927.1</ele>
        <time>2024-07-10T09:33:55Z</time>
      </trkpt>
      <trkpt lat="45.10509" lon="6.06731">
        <ele>1927.2</ele>
        <time>2024-07-10T09:33:56Z</time>
      </trkpt>
      <trkpt lat="45.1051" lon="6.06731">
        <ele>1927.4</ele>
        <time>2024-07-10T09:33:57Z</time>
      </trkpt>
      <trkpt lat="45.10512" lon="6.06732">
        <ele>1927.6</ele>
        <time>2024-07-10T09:33:58Z</time>
      </trkpt>
      <trkpt lat="45.10513" lon="6.06732">
        <ele>1927.6</ele>
        <time>2024-07-10T09:33:59Z</time>
      </trkpt>
      <trkpt lat="45.10514" lon="6.06733">
        <ele>1927.7</ele>
        <time>2024-07-10T09:34:00Z</time>
      </trkpt>
      <trkpt lat="45.10515" lon="6.06734">
        <ele>1927.9</ele>
        <time>2024-07-10T09:34:01Z</time>
      </trkpt>
      <trkpt lat="45.10516" lon="6.06734">
        <ele>1928</ele>
        <time>2024-07-10T09:34:02Z</time>
      </trkpt>
      <trkpt lat="45.10517" lon="6.06735">
        <ele>1928.1</ele>
        <time>2024-07-10T09:34:03Z</time>
      </trkpt>
      <trkpt lat="45.10518" lon="6.06736">
        <ele>1928.2</ele>
        <time>2024-07-10T09:34:04Z</time>
      </trkpt>
      <trkpt lat="45.10519" lon="6.06736">
        <ele>1928.3</ele>
        <time>2024-07-10T09:34:05Z</time>
      </trkpt>
      <trkpt lat="45.1052" lon="6.06737">
        <ele>1928.4</ele>
        <time>2024-07-10T09:34:06Z</time>
      </trkpt>
      <trkpt lat="45.10521" lon="6.06738">
        <ele>1928.5</ele>
        <time>2024-07-10T09:34:07Z</time>
      </trkpt>
      <trkpt lat="45.10522" lon="6.06739">
        <ele>1928.6</ele>
        <time>2024-07-10T09:34:08Z</time>
      </trkpt>
      <trkpt lat="45.10523" lon="6.0674">
        <ele>1928.8</ele>
        <time>2024-07-10T09:34:09Z</time>
      </trkpt>
      <trkpt lat="45.10524" lon="6.0674">
        <ele>1928.9</ele>
        <time>2024-07-10T09:34:10Z</time>
      </trkpt>
      <trkpt lat="45.10525" lon="6.06741">
        <ele>1929</ele>
        <time>2024-07-10T09:34:11Z</time>
      </trkpt>
      <trkpt lat="45.10526" lon="6.06741">
        <ele>1929.1</ele>
        <time>2024-07-10T09:34:12Z</time>
      </trkpt>
      <trkpt lat="45.10527" lon="6.06742">
        <ele>1929.2</ele>
        <time>2024-07-10T09:34:13Z</time>
      </trkpt>
      <trkpt lat="45.10529" lon="6.06743">
        <ele>1929.4</ele>
        <time>2024-07-10T09:34:14Z</time>
      </trkpt>
      <trkpt lat="45.1053" lon="6.06743">
        <ele>1929.5</ele>
        <time>2024-07-10T09:34:15Z</time>
      </trkpt>
      <trkpt lat="45.10531" lon="6.06744">
        <ele>1929.6</ele>
        <time>2024-07-10T09:34:16Z</time>
      </trkpt>
      <trkpt lat="45.10532" lon="6.06744">
        <ele>1929.7</ele>
        <time>2024-07-10T09:34:17Z</time>
      </trkpt>
      <trkpt lat="45.10533" lon="6.06745">
        <ele>1929.8</ele>
        <time>2024-07-10T09:34:18Z</time>
      </trkpt>
      <trkpt lat="45.10534" lon="6.06746">
        <ele>1929.9</ele>
        <time>2024-07-10T09:34:19Z</time>
      </trkpt>
      <trkpt lat="45.10535" lon="6.06746">
        <ele>1930</ele>
        <time>2024-07-10T09:34:20Z</time>
      </trkpt>
      <trkpt lat="45.10536" lon="6.06747">
        <ele>1930.1</ele>
        <time>2024-07-10T09:34:21Z</time>
      </trkpt>
      <trkpt lat="45.10537" lon="6.06748">
        <ele>1930.2</ele>
        <time>2024-07-10T09:34:22Z</time>
      </trkpt>
      <trkpt lat="45.10538" lon="6.06748">
        <ele>1930.3</ele>
        <time>2024-07-10T09:34:23Z</time>
      </trkpt>
      <trkpt lat="45.10539" lon="6.06749">
        <ele>1930.4</ele>
        <time>2024-07-10T09:34:24Z</time>
      </trkpt>
      <trkpt lat="45.1054" lon="6.06749">
        <ele>1930.5</ele>
        <time>2024-07-10T09:34:25Z</time>
      </trkpt>
      <trkpt lat="45.10541" lon="6.0675">
        <ele>1930.6</ele>
        <time>2024-07-10T09:34:26Z</time>
      </trkpt>
      <trkpt lat="45.10541" lon="6.06751">
        <ele>1930.7</ele>
        <time>2024-07-10T09:34:27Z</time>
      </trkpt>
      <trkpt lat="45.10543" lon="6.06751">
        <ele>1930.8</ele>
        <time>2024-07-10T09:34:28Z</time>
      </trkpt>
      <trkpt lat="45.10544" lon="6.06753">
        <ele>1930.9</ele>
        <time>2024-07-10T09:34:29Z</time>
      </trkpt>
      <trkpt lat="45.10544" lon="6.06753">
        <ele>1931</ele>
        <time>2024-07-10T09:34:30Z</time>
      </trkpt>
      <trkpt lat="45.10545" lon="6.06753">
        <ele>1931.1</ele>
        <time>2024-07-10T09:34:31Z</time>
      </trkpt>
      <trkpt lat="45.10547" lon="6.06755">
        <ele>1931.2</ele>
        <time>2024-07-10T09:34:32Z</time>
      </trkpt>
      <trkpt lat="45.10548" lon="6.06756">
        <ele>1931.3</ele>
        <time>2024-07-10T09:34:33Z</time>
      </trkpt>
      <trkpt lat="45.10548" lon="6.06756">
        <ele>1931.4</ele>
        <time>2024-07-10T09:34:34Z</time>
      </trkpt>
      <trkpt lat="45.10549" lon="6.06757">
        <ele>1931.5</ele>
        <time>2024-07-10T09:34:35Z</time>
      </trkpt>
      <trkpt lat="45.1055" lon="6.06758">
        <ele>1931.6</ele>
        <time>2024-07-10T09:34:36Z</time>
      </trkpt>
      <trkpt lat="45.10551" lon="6.06759">
        <ele>1931.7</ele>
        <time>2024-07-10T09:34:37Z</time>
      </trkpt>
      <trkpt lat="45.10552" lon="6.0676">
        <ele>1931.8</ele>
        <time>2024-07-10T09:34:38Z</time>
      </trkpt>
      <trkpt lat="45.10553" lon="6.0676">
        <ele>1931.9</ele>
        <time>2024-07-10T09:34:39Z</time>
      </trkpt>
      <trkpt lat="45.10554" lon="6.06761">
        <ele>1932</ele>
        <time>2024-07-10T09:34:40Z</time>
      </trkpt>
      <trkpt lat="45.10555" lon="6.06762">
        <ele>1932.1</ele>
        <time>2024-07-10T09:34:41Z</time>
      </trkpt>
      <trkpt lat="45.10556" lon="6.06763">
        <ele>1932.2</ele>
        <time>2024-07-10T09:34:42Z</time>
      </trkpt>
      <trkpt lat="45.10557" lon="6.06763">
        <ele>1932.3</ele>
        <time>2024-07-10T09:34:43Z</time>
      </trkpt>
      <trkpt lat="45.10558" lon="6.06764">
        <ele>1932.4</ele>
        <time>2024-07-10T09:34:44Z</time>
      </trkpt>
      <trkpt lat="45.10559" lon="6.06765">
        <ele>1932.5</ele>
        <time>2024-07-10T09:34:45Z</time>
      </trkpt>
      <trkpt lat="45.1056" lon="6.06766">
        <ele>1932.6</ele>
        <time>2024-07-10T09:34:46Z</time>
      </trkpt>
      <trkpt lat="45.10561" lon="6.06767">
        <ele>1932.7</ele>
        <time>2024-07-10T09:34:47Z</time>
      </trkpt>
      <trkpt lat="45.10562" lon="6.06768">
        <ele>1932.8</ele>
        <time>2024-07-10T09:34:48Z</time>
      </trkpt>
      <trkpt lat="45.10563" lon="6.06769">
        <ele>1932.9</ele>
        <time>2024-07-10T09:34:49Z</time>
      </trkpt>
      <trkpt lat="45.10564" lon="6.06771">
        <ele>1933.1</ele>
        <time>2024-07-10T09:34:50Z</time>
      </trkpt>
      <trkpt lat="45.10565" lon="6.06771">
        <ele>1933.1</ele>
        <time>2024-07-10T09:34:51Z</time>
      </trkpt>
      <trkpt lat="45.10566" lon="6.06772">
        <ele>1933.2</ele>
        <time>2024-07-10T09:34:52Z</time>
      </trkpt>
      <trkpt lat="45.10567" lon="6.06774">
        <ele>1933.4</ele>
        <time>2024-07-10T09:34:53Z</time>
      </trkpt>
      <trkpt lat="45.10568" lon="6.06774">
        <ele>1933.5</ele>
        <time>2024-07-10T09:34:54Z</time>
      </trkpt>
      <trkpt lat="45.10569" lon="6.06775">
        <ele>1933.5</ele>
        <time>2024-07-10T09:34:55Z</time>
      </trkpt>
      <trkpt lat="45.1057" lon="6.06776">
        <ele>1933.6</ele>
        <time>2024-07-10T09:34:56Z</time>
      </trkpt>
      <trkpt lat="45.10571" lon="6.06777">
        <ele>1933.8</ele>
        <time>2024-07-10T09:34:57Z</time>
      </trkpt>
      <trkpt lat="45.10572" lon="6.06778">
        <ele>1933.9</ele>
        <time>2024-07-10T09:34:58Z</time>
      </trkpt>
      <trkpt lat="45.10574" lon="6.0678">
        <ele>1934.1</ele>
        <time>2024-07-10T09:34:59Z</time>
      </trkpt>
      <trkpt lat="45.10574" lon="6.06781">
        <ele>1934.2</ele>
        <time>2024-07-10T09:35:00Z</time>
      </trkpt>
      <trkpt lat="45.10575" lon="6.06782">
        <ele>1934.2</ele>
        <time>2024-07-10T09:35:01Z</time>
      </trkpt>
      <trkpt lat="45.10576" lon="6.06783">
        <ele>1934.3</ele>
        <time>2024-07-10T09:35:02Z</time>
      </trkpt>
      <trkpt lat="45.10576" lon="6.06784">
        <ele>1934.4</ele>
        <time>2024-07-10T09:35:03Z</time>
      </trkpt>
      <trkpt lat="45.10577" lon="6.06785">
        <ele>1934.5</ele>
        <time>2024-07-10T09:35:04Z</time>
      </trkpt>
      <trkpt lat="45.10578" lon="6.06786">
        <ele>1934.6</ele>
        <time>2024-07-10T09:35:05Z</time>
      </trkpt>
      <trkpt lat="45.10579" lon="6.06787">
        <ele>1934.8</ele>
        <time>2024-07-10T09:35:06Z</time>
      </trkpt>
      <trkpt lat="45.1058" lon="6.06787">
        <ele>1934.9</ele>
        <time>2024-07-10T09:35:07Z</time>
      </trkpt>
      <trkpt lat="45.10582" lon="6.06789">
        <ele>1935.1</ele>
        <time>2024-07-10T09:35:08Z</time>
      </trkpt>
      <trkpt lat="45.10583" lon="6.0679">
        <ele>1935.2</ele>
        <time>2024-07-10T09:35:09Z</time>
      </trkpt>
      <trkpt lat="45.10583" lon="6.0679">
        <ele>1935.3</ele>
        <time>2024-07-10T09:35:10Z</time>
      </trkpt>
      <trkpt lat="45.10584" lon="6.06792">
        <ele>1935.4</ele>
        <time>2024-07-10T09:35:11Z</time>
      </trkpt>
      <trkpt lat="45.10585" lon="6.06792">
        <ele>1935.5</ele>
        <time>2024-07-10T09:35:12Z</time>
      </trkpt>
      <trkpt lat="45.10586" lon="6.06793">
        <ele>1935.7</ele>
        <time>2024-07-10T09:35:13Z</time>
      </trkpt>
      <trkpt lat="45.10588" lon="6.06795">
        <ele>1935.9</ele>
        <time>2024-07-10T09:35:14Z</time>
      </trkpt>
      <trkpt lat="45.10589" lon="6.06795">
        <ele>1936</ele>
        <time>2024-07-10T09:35:15Z</time>
      </trkpt>
      <trkpt lat="45.1059" lon="6.06795">
        <ele>1936.1</ele>
        <time>2024-07-10T09:35:16Z</time>
      </trkpt>
      <trkpt lat="45.10591" lon="6.06796">
        <ele>1936.2</ele>
        <time>2024-07-10T09:35:17Z</time>
      </trkpt>
      <trkpt lat="45.10591" lon="6.06797">
        <ele>1936.4</ele>
        <time>2024-07-10T09:35:18Z</time>
      </trkpt>
      <trkpt lat="45.10592" lon="6.06798">
        <ele>1936.5</ele>
        <time>2024-07-10T09:35:19Z</time>
      </trkpt>
      <trkpt lat="45.10593" lon="6.06799">
        <ele>1936.7</ele>
        <time>2024-07-10T09:35:20Z</time>
      </trkpt>
      <trkpt lat="45.10594" lon="6.068">
        <ele>1936.8</ele>
        <time>2024-07-10T09:35:21Z</time>
      </trkpt>
      <trkpt lat="45.10595" lon="6.068">
        <ele>1936.9</ele>
        <time>2024-07-10T09:35:22Z</time>
      </trkpt>
      <trkpt lat="45.10596" lon="6.06801">
        <ele>1937</ele>
        <time>2024-07-10T09:35:23Z</time>
      </trkpt>
      <trkpt lat="45.10597" lon="6.06802">
        <ele>1937.2</ele>
        <time>2024-07-10T09:35:24Z</time>
      </trkpt>
      <trkpt lat="45.10598" lon="6.06803">
        <ele>1937.3</ele>
        <time>2024-07-10T09:35:25Z</time>
      </trkpt>
      <trkpt lat="45.10599" lon="6.06804">
        <ele>1937.5</ele>
        <time>2024-07-10T09:35:26Z</time>
      </trkpt>
      <trkpt lat="45.106" lon="6.06804">
        <ele>1937.6</ele>
        <time>2024-07-10T09:35:27Z</time>
      </trkpt>
      <trkpt lat="45.10601" lon="6.06805">
        <ele>1937.7</ele>
        <time>2024-07-10T09:35:28Z</time>
      </trkpt>
      <trkpt lat="45.10602" lon="6.06806">
        <ele>1937.8</ele>
        <time>2024-07-10T09:35:29Z</time>
      </trkpt>
      <trkpt lat="45.10602" lon="6.06807">
        <ele>1937.9</ele>
        <time>2024-07-10T09:35:30Z</time>
      </trkpt>
      <trkpt lat="45.10603" lon="6.06808">
        <ele>1938.1</ele>
        <time>2024-07-10T09:35:31Z</time>
      </trkpt>
      <trkpt lat="45.10604" lon="6.06809">
        <ele>1938.2</ele>
        <time>2024-07-10T09:35:32Z</time>
      </trkpt>
      <trkpt lat="45.10605" lon="6.0681">
        <ele>1938.4</ele>
        <time>2024-07-10T09:35:33Z</time>
      </trkpt>
      <trkpt lat="45.10606" lon="6.06811">
        <ele>1938.5</ele>
        <time>2024-07-10T09:35:34Z</time>
      </trkpt>
      <trkpt lat="45.10606" lon="6.06813">
        <ele>1938.6</ele>
        <time>2024-07-10T09:35:35Z</time>
      </trkpt>
      <trkpt lat="45.10607" lon="6.06814">
        <ele>1938.8</ele>
        <time>2024-07-10T09:35:36Z</time>
      </trkpt>
      <trkpt lat="45.10608" lon="6.06815">
        <ele>1938.9</ele>
        <time>2024-07-10T09:35:37Z</time>
      </trkpt>
      <trkpt lat="45.10609" lon="6.06817">
        <ele>1939.1</ele>
        <time>2024-07-10T09:35:38Z</time>
      </trkpt>
      <trkpt lat="45.10609" lon="6.06818">
        <ele>1939.2</ele>
        <time>2024-07-10T09:35:39Z</time>
      </trkpt>
      <trkpt lat="45.1061" lon="6.06819">
        <ele>1939.3</ele>
        <time>2024-07-10T09:35:40Z</time>
      </trkpt>
      <trkpt lat="45.1061" lon="6.0682">
        <ele>1939.4</ele>
        <time>2024-07-10T09:35:41Z</time>
      </trkpt>
      <trkpt lat="45.10611" lon="6.06821">
        <ele>1939.5</ele>
        <time>2024-07-10T09:35:42Z</time>
      </trkpt>
      <trkpt lat="45.10612" lon="6.06822">
        <ele>1939.7</ele>
        <time>2024-07-10T09:35:43Z</time>
      </trkpt>
      <trkpt lat="45.10612" lon="6.06823">
        <ele>1939.8</ele>
        <time>2024-07-10T09:35:44Z</time>
      </trkpt>
      <trkpt lat="45.10613" lon="6.06824">
        <ele>1939.9</ele>
        <time>2024-07-10T09:35:45Z</time>
      </trkpt>
      <trkpt lat="45.10613" lon="6.06825">
        <ele>1940</ele>
        <time>2024-07-10T09:35:46Z</time>
      </trkpt>
      <trkpt lat="45.10614" lon="6.06826">
        <ele>1940.1</ele>
        <time>2024-07-10T09:35:47Z</time>
      </trkpt>
      <trkpt lat="45.10615" lon="6.06827">
        <ele>1940.3</ele>
        <time>2024-07-10T09:35:48Z</time>
      </trkpt>
      <trkpt lat="45.10616" lon="6.06829">
        <ele>1940.4</ele>
        <time>2024-07-10T09:35:49Z</time>
      </trkpt>
      <trkpt lat="45.10616" lon="6.0683">
        <ele>1940.5</ele>
        <time>2024-07-10T09:35:50Z</time>
      </trkpt>
      <trkpt lat="45.10617" lon="6.06831">
        <ele>1940.6</ele>
        <time>2024-07-10T09:35:51Z</time>
      </trkpt>
      <trkpt lat="45.10617" lon="6.06832">
        <ele>1940.7</ele>
        <time>2024-07-10T09:35:52Z</time>
      </trkpt>
      <trkpt lat="45.10618" lon="6.06833">
        <ele>1940.9</ele>
        <time>2024-07-10T09:35:53Z</time>
      </trkpt>
      <trkpt lat="45.10619" lon="6.06834">
        <ele>1941</ele>
        <time>2024-07-10T09:35:54Z</time>
      </trkpt>
      <trkpt lat="45.10619" lon="6.06835">
        <ele>1941.1</ele>
        <time>2024-07-10T09:35:55Z</time>
      </trkpt>
      <trkpt lat="45.1062" lon="6.06836">
        <ele>1941.2</ele>
        <time>2024-07-10T09:35:56Z</time>
      </trkpt>
      <trkpt lat="45.10621" lon="6.06837">
        <ele>1941.3</ele>
        <time>2024-07-10T09:35:57Z</time>
      </trkpt>
      <trkpt lat="45.10621" lon="6.06838">
        <ele>1941.4</ele>
        <time>2024-07-10T09:35:58Z</time>
      </trkpt>
      <trkpt lat="45.10622" lon="6.06839">
        <ele>1941.6</ele>
        <time>2024-07-10T09:35:59Z</time>
      </trkpt>
      <trkpt lat="45.10622" lon="6.06841">
        <ele>1941.7</ele>
        <time>2024-07-10T09:36:00Z</time>
      </trkpt>
      <trkpt lat="45.10623" lon="6.06842">
        <ele>1941.8</ele>
        <time>2024-07-10T09:36:01Z</time>
      </trkpt>
      <trkpt lat="45.10623" lon="6.06843">
        <ele>1941.9</ele>
        <time>2024-07-10T09:36:02Z</time>
      </trkpt>
      <trkpt lat="45.10624" lon="6.06844">
        <ele>1942.1</ele>
        <time>2024-07-10T09:36:03Z</time>
      </trkpt>
      <trkpt lat="45.10625" lon="6.06845">
        <ele>1942.2</ele>
        <time>2024-07-10T09:36:04Z</time>
      </trkpt>
      <trkpt lat="45.10626" lon="6.06846">
        <ele>1942.3</ele>
        <time>2024-07-10T09:36:05Z</time>
      </trkpt>
      <trkpt lat="45.10627" lon="6.06847">
        <ele>1942.5</ele>
        <time>2024-07-10T09:36:06Z</time>
      </trkpt>
      <trkpt lat="45.10628" lon="6.06848">
        <ele>1942.6</ele>
        <time>2024-07-10T09:36:07Z</time>
      </trkpt>
      <trkpt lat="45.10629" lon="6.06849">
        <ele>1942.7</ele>
        <time>2024-07-10T09:36:08Z</time>
      </trkpt>
      <trkpt lat="45.10629" lon="6.0685">
        <ele>1942.8</ele>
        <time>2024-07-10T09:36:09Z</time>
      </trkpt>
      <trkpt lat="45.1063" lon="6.0685">
        <ele>1943</ele>
        <time>2024-07-10T09:36:10Z</time>
      </trkpt>
      <trkpt lat="45.10631" lon="6.06851">
        <ele>1943.1</ele>
        <time>2024-07-10T09:36:11Z</time>
      </trkpt>
      <trkpt lat="45.10632" lon="6.06853">
        <ele>1943.2</ele>
        <time>2024-07-10T09:36:12Z</time>
      </trkpt>
      <trkpt lat="45.10632" lon="6.06853">
        <ele>1943.3</ele>
        <time>2024-07-10T09:36:13Z</time>
      </trkpt>
      <trkpt lat="45.10633" lon="6.06855">
        <ele>1943.4</ele>
        <time>2024-07-10T09:36:14Z</time>
      </trkpt>
      <trkpt lat="45.10634" lon="6.06856">
        <ele>1943.6</ele>
        <time>2024-07-10T09:36:15Z</time>
      </trkpt>
      <trkpt lat="45.10635" lon="6.06857">
        <ele>1943.7</ele>
        <time>2024-07-10T09:36:16Z</time>
      </trkpt>
      <trkpt lat="45.10635" lon="6.06858">
        <ele>1943.8</ele>
        <time>2024-07-10T09:36:17Z</time>
      </trkpt>
      <trkpt lat="45.10636" lon="6.06859">
        <ele>1943.9</ele>
        <time>2024-07-10T09:36:18Z</time>
      </trkpt>
      <trkpt lat="45.10638" lon="6.0686">
        <ele>1944.1</ele>
        <time>2024-07-10T09:36:19Z</time>
      </trkpt>
      <trkpt lat="45.10638" lon="6.0686">
        <ele>1944.2</ele>
        <time>2024-07-10T09:36:20Z</time>
      </trkpt>
      <trkpt lat="45.10639" lon="6.0686">
        <ele>1944.3</ele>
        <time>2024-07-10T09:36:21Z</time>
      </trkpt>
      <trkpt lat="45.1064" lon="6.0686">
        <ele>1944.4</ele>
        <time>2024-07-10T09:36:22Z</time>
      </trkpt>
      <trkpt lat="45.10642" lon="6.06862">
        <ele>1944.6</ele>
        <time>2024-07-10T09:36:23Z</time>
      </trkpt>
      <trkpt lat="45.10642" lon="6.06863">
        <ele>1944.7</ele>
        <time>2024-07-10T09:36:24Z</time>
      </trkpt>
      <trkpt lat="45.10643" lon="6.06864">
        <ele>1944.7</ele>
        <time>2024-07-10T09:36:25Z</time>
      </trkpt>
      <trkpt lat="45.10644" lon="6.06865">
        <ele>1944.8</ele>
        <time>2024-07-10T09:36:26Z</time>
      </trkpt>
      <trkpt lat="45.10645" lon="6.06866">
        <ele>1945</ele>
        <time>2024-07-10T09:36:27Z</time>
      </trkpt>
      <trkpt lat="45.10645" lon="6.06867">
        <ele>1945.1</ele>
        <time>2024-07-10T09:36:28Z</time>
      </trkpt>
      <trkpt lat="45.10646" lon="6.06868">
        <ele>1945.2</ele>
        <time>2024-07-10T09:36:29Z</time>
      </trkpt>
      <trkpt lat="45.10648" lon="6.06869">
        <ele>1945.3</ele>
        <time>2024-07-10T09:36:30Z</time>
      </trkpt>
      <trkpt lat="45.10649" lon="6.0687">
        <ele>1945.4</ele>
        <time>2024-07-10T09:36:31Z</time>
      </trkpt>
      <trkpt lat="45.10649" lon="6.06871">
        <ele>1945.6</ele>
        <time>2024-07-10T09:36:32Z</time>
      </trkpt>
      <trkpt lat="45.1065" lon="6.06872">
        <ele>1945.7</ele>
        <time>2024-07-10T09:36:33Z</time>
      </trkpt>
      <trkpt lat="45.10651" lon="6.06873">
        <ele>1945.8</ele>
        <time>2024-07-10T09:36:34Z</time>
      </trkpt>
      <trkpt lat="45.10652" lon="6.06875">
        <ele>1945.9</ele>
        <time>2024-07-10T09:36:35Z</time>
      </trkpt>
      <trkpt lat="45.10652" lon="6.06876">
        <ele>1946</ele>
        <time>2024-07-10T09:36:36Z</time>
      </trkpt>
      <trkpt lat="45.10653" lon="6.06877">
        <ele>1946.1</ele>
        <time>2024-07-10T09:36:37Z</time>
      </trkpt>
      <trkpt lat="45.10653" lon="6.06878">
        <ele>1946.2</ele>
        <time>2024-07-10T09:36:38Z</time>
      </trkpt>
      <trkpt lat="45.10654" lon="6.06879">
        <ele>1946.3</ele>
        <time>2024-07-10T09:36:39Z</time>
      </trkpt>
      <trkpt lat="45.10655" lon="6.06881">
        <ele>1946.4</ele>
        <time>2024-07-10T09:36:40Z</time>
      </trkpt>
      <trkpt lat="45.10655" lon="6.06882">
        <ele>1946.5</ele>
        <time>2024-07-10T09:36:41Z</time>
      </trkpt>
      <trkpt lat="45.10656" lon="6.06883">
        <ele>1946.6</ele>
        <time>2024-07-10T09:36:42Z</time>
      </trkpt>
      <trkpt lat="45.10657" lon="6.06884">
        <ele>1946.6</ele>
        <time>2024-07-10T09:36:43Z</time>
      </trkpt>
      <trkpt lat="45.10657" lon="6.06885">
        <ele>1946.7</ele>
        <time>2024-07-10T09:36:44Z</time>
      </trkpt>
      <trkpt lat="45.10658" lon="6.06886">
        <ele>1946.9</ele>
        <time>2024-07-10T09:36:45Z</time>
      </trkpt>
      <trkpt lat="45.10659" lon="6.06887">
        <ele>1946.9</ele>
        <time>2024-07-10T09:36:46Z</time>
      </trkpt>
      <trkpt lat="45.1066" lon="6.06887">
        <ele>1947</ele>
        <time>2024-07-10T09:36:47Z</time>
      </trkpt>
      <trkpt lat="45.1066" lon="6.06888">
        <ele>1947.1</ele>
        <time>2024-07-10T09:36:48Z</time>
      </trkpt>
      <trkpt lat="45.10661" lon="6.06889">
        <ele>1947.2</ele>
        <time>2024-07-10T09:36:49Z</time>
      </trkpt>
      <trkpt lat="45.10662" lon="6.0689">
        <ele>1947.3</ele>
        <time>2024-07-10T09:36:50Z</time>
      </trkpt>
      <trkpt lat="45.10663" lon="6.0689">
        <ele>1947.4</ele>
        <time>2024-07-10T09:36:51Z</time>
      </trkpt>
      <trkpt lat="45.10664" lon="6.06891">
        <ele>1947.4</ele>
        <time>2024-07-10T09:36:52Z</time>
      </trkpt>
      <trkpt lat="45.10665" lon="6.06893">
        <ele>1947.6</ele>
        <time>2024-07-10T09:36:53Z</time>
      </trkpt>
      <trkpt lat="45.10666" lon="6.06894">
        <ele>1947.7</ele>
        <time>2024-07-10T09:36:54Z</time>
      </trkpt>
      <trkpt lat="45.10667" lon="6.06895">
        <ele>1947.7</ele>
        <time>2024-07-10T09:36:55Z</time>
      </trkpt>
      <trkpt lat="45.10667" lon="6.06896">
        <ele>1947.8</ele>
        <time>2024-07-10T09:36:56Z</time>
      </trkpt>
      <trkpt lat="45.10668" lon="6.06897">
        <ele>1947.9</ele>
        <time>2024-07-10T09:36:57Z</time>
      </trkpt>
      <trkpt lat="45.10669" lon="6.06898">
        <ele>1948</ele>
        <time>2024-07-10T09:36:58Z</time>
      </trkpt>
      <trkpt lat="45.1067" lon="6.06898">
        <ele>1948.1</ele>
        <time>2024-07-10T09:36:59Z</time>
      </trkpt>
      <trkpt lat="45.10671" lon="6.06899">
        <ele>1948.2</ele>
        <time>2024-07-10T09:37:00Z</time>
      </trkpt>
      <trkpt lat="45.10672" lon="6.069">
        <ele>1948.2</ele>
        <time>2024-07-10T09:37:01Z</time>
      </trkpt>
      <trkpt lat="45.10673" lon="6.069">
        <ele>1948.3</ele>
        <time>2024-07-10T09:37:02Z</time>
      </trkpt>
      <trkpt lat="45.10674" lon="6.06901">
        <ele>1948.4</ele>
        <time>2024-07-10T09:37:03Z</time>
      </trkpt>
      <trkpt lat="45.10675" lon="6.06901">
        <ele>1948.5</ele>
        <time>2024-07-10T09:37:04Z</time>
      </trkpt>
      <trkpt lat="45.10676" lon="6.06902">
        <ele>1948.5</ele>
        <time>2024-07-10T09:37:05Z</time>
      </trkpt>
      <trkpt lat="45.10677" lon="6.06903">
        <ele>1948.6</ele>
        <time>2024-07-10T09:37:06Z</time>
      </trkpt>
      <trkpt lat="45.10678" lon="6.06904">
        <ele>1948.7</ele>
        <time>2024-07-10T09:37:07Z</time>
      </trkpt>
      <trkpt lat="45.10679" lon="6.06906">
        <ele>1948.9</ele>
        <time>2024-07-10T09:37:08Z</time>
      </trkpt>
      <trkpt lat="45.1068" lon="6.06907">
        <ele>1948.9</ele>
        <time>2024-07-10T09:37:09Z</time>
      </trkpt>
      <trkpt lat="45.10681" lon="6.06908">
        <ele>1949</ele>
        <time>2024-07-10T09:37:10Z</time>
      </trkpt>
      <trkpt lat="45.10681" lon="6.06908">
        <ele>1949</ele>
        <time>2024-07-10T09:37:11Z</time>
      </trkpt>
      <trkpt lat="45.10682" lon="6.06909">
        <ele>1949.1</ele>
        <time>2024-07-10T09:37:12Z</time>
      </trkpt>
      <trkpt lat="45.10683" lon="6.06909">
        <ele>1949.2</ele>
        <time>2024-07-10T09:37:13Z</time>
      </trkpt>
      <trkpt lat="45.10684" lon="6.06909">
        <ele>1949.3</ele>
        <time>2024-07-10T09:37:14Z</time>
      </trkpt>
      <trkpt lat="45.10686" lon="6.0691">
        <ele>1949.4</ele>
        <time>2024-07-10T09:37:15Z</time>
      </trkpt>
      <trkpt lat="45.10687" lon="6.06911">
        <ele>1949.5</ele>
        <time>2024-07-10T09:37:16Z</time>
      </trkpt>
      <trkpt lat="45.10687" lon="6.06911">
        <ele>1949.5</ele>
        <time>2024-07-10T09:37:17Z</time>
      </trkpt>
      <trkpt lat="45.10688" lon="6.06912">
        <ele>1949.6</ele>
        <time>2024-07-10T09:37:18Z</time>
      </trkpt>
      <trkpt lat="45.10689" lon="6.06913">
        <ele>1949.7</ele>
        <time>2024-07-10T09:37:19Z</time>
      </trkpt>
      <trkpt lat="45.1069" lon="6.06915">
        <ele>1949.8</ele>
        <time>2024-07-10T09:37:20Z</time>
      </trkpt>
      <trkpt lat="45.10691" lon="6.06916">
        <ele>1949.9</ele>
        <time>2024-07-10T09:37:21Z</time>
      </trkpt>
      <trkpt lat="45.10691" lon="6.06916">
        <ele>1950</ele>
        <time>2024-07-10T09:37:22Z</time>
      </trkpt>
      <trkpt lat="45.10692" lon="6.06915">
        <ele>1950</ele>
        <time>2024-07-10T09:37:23Z</time>
      </trkpt>
      <trkpt lat="45.10691" lon="6.06914">
        <ele>1950.1</ele>
        <time>2024-07-10T09:37:24Z</time>
      </trkpt>
      <trkpt lat="45.10691" lon="6.06914">
        <ele>1950.1</ele>
        <time>2024-07-10T09:37:25Z</time>
      </trkpt>
      <trkpt lat="45.10691" lon="6.06915">
        <ele>1950.1</ele>
        <time>2024-07-10T09:37:26Z</time>
      </trkpt>
      <trkpt lat="45.10691" lon="6.06915">
        <ele>1950.2</ele>
        <time>2024-07-10T09:37:27Z</time>
      </trkpt>
      <trkpt lat="45.10692" lon="6.06916">
        <ele>1950.2</ele>
        <time>2024-07-10T09:37:28Z</time>
      </trkpt>
      <trkpt lat="45.10692" lon="6.06917">
        <ele>1950.3</ele>
        <time>2024-07-10T09:37:29Z</time>
      </trkpt>
      <trkpt lat="45.10693" lon="6.06918">
        <ele>1950.4</ele>
        <time>2024-07-10T09:37:30Z</time>
      </trkpt>
      <trkpt lat="45.10693" lon="6.06918">
        <ele>1950.4</ele>
        <time>2024-07-10T09:37:31Z</time>
      </trkpt>
      <trkpt lat="45.10694" lon="6.06919">
        <ele>1950.5</ele>
        <time>2024-07-10T09:37:32Z</time>
      </trkpt>
      <trkpt lat="45.10695" lon="6.06919">
        <ele>1950.5</ele>
        <time>2024-07-10T09:37:33Z</time>
      </trkpt>
      <trkpt lat="45.10695" lon="6.0692">
        <ele>1950.6</ele>
        <time>2024-07-10T09:37:34Z</time>
      </trkpt>
      <trkpt lat="45.10696" lon="6.06921">
        <ele>1950.7</ele>
        <time>2024-07-10T09:37:35Z</time>
      </trkpt>
      <trkpt lat="45.10697" lon="6.06921">
        <ele>1950.8</ele>
        <time>2024-07-10T09:37:36Z</time>
      </trkpt>
      <trkpt lat="45.10698" lon="6.06922">
        <ele>1950.9</ele>
        <time>2024-07-10T09:37:37Z</time>
      </trkpt>
      <trkpt lat="45.10698" lon="6.06923">
        <ele>1950.9</ele>
        <time>2024-07-10T09:37:38Z</time>
      </trkpt>
      <trkpt lat="45.10698" lon="6.06923">
        <ele>1951</ele>
        <time>2024-07-10T09:37:39Z</time>
      </trkpt>
      <trkpt lat="45.10699" lon="6.06924">
        <ele>1951.1</ele>
        <time>2024-07-10T09:37:40Z</time>
      </trkpt>
      <trkpt lat="45.10699" lon="6.06925">
        <ele>1951.1</ele>
        <time>2024-07-10T09:37:41Z</time>
      </trkpt>
      <trkpt lat="45.107" lon="6.06925">
        <ele>1951.2</ele>
        <time>2024-07-10T09:37:42Z</time>
      </trkpt>
      <trkpt lat="45.107" lon="6.06926">
        <ele>1951.2</ele>
        <time>2024-07-10T09:37:43Z</time>
      </trkpt>
      <trkpt lat="45.10701" lon="6.06927">
        <ele>1951.3</ele>
        <time>2024-07-10T09:37:44Z</time>
      </trkpt>
      <trkpt lat="45.10702" lon="6.06928">
        <ele>1951.4</ele>
        <time>2024-07-10T09:37:45Z</time>
      </trkpt>
      <trkpt lat="45.10702" lon="6.06929">
        <ele>1951.5</ele>
        <time>2024-07-10T09:37:46Z</time>
      </trkpt>
      <trkpt lat="45.10702" lon="6.0693">
        <ele>1951.6</ele>
        <time>2024-07-10T09:37:47Z</time>
      </trkpt>
      <trkpt lat="45.10703" lon="6.06931">
        <ele>1951.7</ele>
        <time>2024-07-10T09:37:48Z</time>
      </trkpt>
      <trkpt lat="45.10703" lon="6.06933">
        <ele>1951.8</ele>
        <time>2024-07-10T09:37:49Z</time>
      </trkpt>
      <trkpt lat="45.10704" lon="6.06934">
        <ele>1951.9</ele>
        <time>2024-07-10T09:37:50Z</time>
      </trkpt>
      <trkpt lat="45.10704" lon="6.06936">
        <ele>1952</ele>
        <time>2024-07-10T09:37:51Z</time>
      </trkpt>
      <trkpt lat="45.10704" lon="6.06937">
        <ele>1952.1</ele>
        <time>2024-07-10T09:37:52Z</time>
      </trkpt>
      <trkpt lat="45.10705" lon="6.06938">
        <ele>1952.2</ele>
        <time>2024-07-10T09:37:53Z</time>
      </trkpt>
      <trkpt lat="45.10705" lon="6.06939">
        <ele>1952.3</ele>
        <time>2024-07-10T09:37:54Z</time>
      </trkpt>
      <trkpt lat="45.10706" lon="6.06941">
        <ele>1952.4</ele>
        <time>2024-07-10T09:37:55Z</time>
      </trkpt>
      <trkpt lat="45.10706" lon="6.06942">
        <ele>1952.4</ele>
        <time>2024-07-10T09:37:56Z</time>
      </trkpt>
      <trkpt lat="45.10706" lon="6.06943">
        <ele>1952.5</ele>
        <time>2024-07-10T09:37:57Z</time>
      </trkpt>
      <trkpt lat="45.10706" lon="6.06944">
        <ele>1952.6</ele>
        <time>2024-07-10T09:37:58Z</time>
      </trkpt>
      <trkpt lat="45.10707" lon="6.06945">
        <ele>1952.7</ele>
        <time>2024-07-10T09:37:59Z</time>
      </trkpt>
      <trkpt lat="45.10707" lon="6.06947">
        <ele>1952.8</ele>
        <time>2024-07-10T09:38:00Z</time>
      </trkpt>
      <trkpt lat="45.10707" lon="6.06948">
        <ele>1952.9</ele>
        <time>2024-07-10T09:38:01Z</time>
      </trkpt>
      <trkpt lat="45.10708" lon="6.06949">
        <ele>1953</ele>
        <time>2024-07-10T09:38:02Z</time>
      </trkpt>
      <trkpt lat="45.10708" lon="6.06951">
        <ele>1953.1</ele>
        <time>2024-07-10T09:38:03Z</time>
      </trkpt>
      <trkpt lat="45.10708" lon="6.06952">
        <ele>1953.3</ele>
        <time>2024-07-10T09:38:04Z</time>
      </trkpt>
      <trkpt lat="45.10709" lon="6.06953">
        <ele>1953.4</ele>
        <time>2024-07-10T09:38:05Z</time>
      </trkpt>
      <trkpt lat="45.10709" lon="6.06954">
        <ele>1953.5</ele>
        <time>2024-07-10T09:38:06Z</time>
      </trkpt>
      <trkpt lat="45.1071" lon="6.06955">
        <ele>1953.6</ele>
        <time>2024-07-10T09:38:07Z</time>
      </trkpt>
      <trkpt lat="45.1071" lon="6.06956">
        <ele>1953.7</ele>
        <time>2024-07-10T09:38:08Z</time>
      </trkpt>
      <trkpt lat="45.10711" lon="6.06958">
        <ele>1953.8</ele>
        <time>2024-07-10T09:38:09Z</time>
      </trkpt>
      <trkpt lat="45.10711" lon="6.06959">
        <ele>1953.9</ele>
        <time>2024-07-10T09:38:10Z</time>
      </trkpt>
      <trkpt lat="45.10712" lon="6.06959">
        <ele>1954</ele>
        <time>2024-07-10T09:38:11Z</time>
      </trkpt>
      <trkpt lat="45.10712" lon="6.06961">
        <ele>1954.1</ele>
        <time>2024-07-10T09:38:12Z</time>
      </trkpt>
      <trkpt lat="45.10713" lon="6.06962">
        <ele>1954.2</ele>
        <time>2024-07-10T09:38:13Z</time>
      </trkpt>
      <trkpt lat="45.10713" lon="6.06963">
        <ele>1954.3</ele>
        <time>2024-07-10T09:38:14Z</time>
      </trkpt>
      <trkpt lat="45.10713" lon="6.06964">
        <ele>1954.4</ele>
        <time>2024-07-10T09:38:15Z</time>
      </trkpt>
      <trkpt lat="45.10714" lon="6.06965">
        <ele>1954.6</ele>
        <time>2024-07-10T09:38:16Z</time>
      </trkpt>
      <trkpt lat="45.10714" lon="6.06966">
        <ele>1954.7</ele>
        <time>2024-07-10T09:38:17Z</time>
      </trkpt>
      <trkpt lat="45.10715" lon="6.06968">
        <ele>1954.9</ele>
        <time>2024-07-10T09:38:19Z</time>
      </trkpt>
      <trkpt lat="45.10715" lon="6.06969">
        <ele>1955</ele>
        <time>2024-07-10T09:38:20Z</time>
      </trkpt>
      <trkpt lat="45.10716" lon="6.0697">
        <ele>1955.1</ele>
        <time>2024-07-10T09:38:21Z</time>
      </trkpt>
      <trkpt lat="45.10716" lon="6.06972">
        <ele>1955.3</ele>
        <time>2024-07-10T09:38:22Z</time>
      </trkpt>
      <trkpt lat="45.10717" lon="6.06973">
        <ele>1955.4</ele>
        <time>2024-07-10T09:38:23Z</time>
      </trkpt>
      <trkpt lat="45.10717" lon="6.06974">
        <ele>1955.5</ele>
        <time>2024-07-10T09:38:24Z</time>
      </trkpt>
      <trkpt lat="45.10718" lon="6.06974">
        <ele>1955.6</ele>
        <time>2024-07-10T09:38:25Z</time>
      </trkpt>
      <trkpt lat="45.10718" lon="6.06975">
        <ele>1955.6</ele>
        <time>2024-07-10T09:38:26Z</time>
      </trkpt>
      <trkpt lat="45.10718" lon="6.06976">
        <ele>1955.7</ele>
        <time>2024-07-10T09:38:27Z</time>
      </trkpt>
      <trkpt lat="45.10719" lon="6.06976">
        <ele>1955.8</ele>
        <time>2024-07-10T09:38:28Z</time>
      </trkpt>
      <trkpt lat="45.10719" lon="6.06977">
        <ele>1955.9</ele>
        <time>2024-07-10T09:38:29Z</time>
      </trkpt>
      <trkpt lat="45.1072" lon="6.06977">
        <ele>1956</ele>
        <time>2024-07-10T09:38:30Z</time>
      </trkpt>
      <trkpt lat="45.1072" lon="6.06978">
        <ele>1956</ele>
        <time>2024-07-10T09:38:31Z</time>
      </trkpt>
      <trkpt lat="45.10721" lon="6.06979">
        <ele>1956.2</ele>
        <time>2024-07-10T09:38:32Z</time>
      </trkpt>
      <trkpt lat="45.10721" lon="6.0698">
        <ele>1956.3</ele>
        <time>2024-07-10T09:38:33Z</time>
      </trkpt>
      <trkpt lat="45.10722" lon="6.06981">
        <ele>1956.4</ele>
        <time>2024-07-10T09:38:34Z</time>
      </trkpt>
      <trkpt lat="45.10723" lon="6.06982">
        <ele>1956.5</ele>
        <time>2024-07-10T09:38:35Z</time>
      </trkpt>
      <trkpt lat="45.10724" lon="6.06982">
        <ele>1956.6</ele>
        <time>2024-07-10T09:38:36Z</time>
      </trkpt>
      <trkpt lat="45.10725" lon="6.06982">
        <ele>1956.7</ele>
        <time>2024-07-10T09:38:37Z</time>
      </trkpt>
      <trkpt lat="45.10725" lon="6.06983">
        <ele>1956.9</ele>
        <time>2024-07-10T09:38:38Z</time>
      </trkpt>
      <trkpt lat="45.10726" lon="6.06984">
        <ele>1957</ele>
        <time>2024-07-10T09:38:39Z</time>
      </trkpt>
      <trkpt lat="45.10727" lon="6.06985">
        <ele>1957.1</ele>
        <time>2024-07-10T09:38:40Z</time>
      </trkpt>
      <trkpt lat="45.10728" lon="6.06986">
        <ele>1957.2</ele>
        <time>2024-07-10T09:38:41Z</time>
      </trkpt>
      <trkpt lat="45.10729" lon="6.06986">
        <ele>1957.3</ele>
        <time>2024-07-10T09:38:42Z</time>
      </trkpt>
      <trkpt lat="45.10729" lon="6.06987">
        <ele>1957.4</ele>
        <time>2024-07-10T09:38:43Z</time>
      </trkpt>
      <trkpt lat="45.1073" lon="6.06988">
        <ele>1957.6</ele>
        <time>2024-07-10T09:38:44Z</time>
      </trkpt>
      <trkpt lat="45.10731" lon="6.06989">
        <ele>1957.7</ele>
        <time>2024-07-10T09:38:45Z</time>
      </trkpt>
      <trkpt lat="45.10731" lon="6.0699">
        <ele>1957.8</ele>
        <time>2024-07-10T09:38:46Z</time>
      </trkpt>
      <trkpt lat="45.10732" lon="6.06991">
        <ele>1957.9</ele>
        <time>2024-07-10T09:38:47Z</time>
      </trkpt>
      <trkpt lat="45.10733" lon="6.06992">
        <ele>1958</ele>
        <time>2024-07-10T09:38:48Z</time>
      </trkpt>
      <trkpt lat="45.10734" lon="6.06992">
        <ele>1958.2</ele>
        <time>2024-07-10T09:38:49Z</time>
      </trkpt>
      <trkpt lat="45.10735" lon="6.06993">
        <ele>1958.3</ele>
        <time>2024-07-10T09:38:50Z</time>
      </trkpt>
      <trkpt lat="45.10735" lon="6.06994">
        <ele>1958.4</ele>
        <time>2024-07-10T09:38:51Z</time>
      </trkpt>
      <trkpt lat="45.10736" lon="6.06995">
        <ele>1958.5</ele>
        <time>2024-07-10T09:38:52Z</time>
      </trkpt>
      <trkpt lat="45.10737" lon="6.06996">
        <ele>1958.6</ele>
        <time>2024-07-10T09:38:53Z</time>
      </trkpt>
      <trkpt lat="45.10738" lon="6.06996">
        <ele>1958.7</ele>
        <time>2024-07-10T09:38:54Z</time>
      </trkpt>
      <trkpt lat="45.10739" lon="6.06997">
        <ele>1958.9</ele>
        <time>2024-07-10T09:38:55Z</time>
      </trkpt>
      <trkpt lat="45.1074" lon="6.06998">
        <ele>1959</ele>
        <time>2024-07-10T09:38:56Z</time>
      </trkpt>
      <trkpt lat="45.10741" lon="6.06999">
        <ele>1959.1</ele>
        <time>2024-07-10T09:38:57Z</time>
      </trkpt>
      <trkpt lat="45.10742" lon="6.07">
        <ele>1959.3</ele>
        <time>2024-07-10T09:38:58Z</time>
      </trkpt>
      <trkpt lat="45.10742" lon="6.07">
        <ele>1959.4</ele>
        <time>2024-07-10T09:38:59Z</time>
      </trkpt>
      <trkpt lat="45.10743" lon="6.07001">
        <ele>1959.5</ele>
        <time>2024-07-10T09:39:00Z</time>
      </trkpt>
      <trkpt lat="45.10744" lon="6.07002">
        <ele>1959.7</ele>
        <time>2024-07-10T09:39:01Z</time>
      </trkpt>
      <trkpt lat="45.10745" lon="6.07003">
        <ele>1959.8</ele>
        <time>2024-07-10T09:39:02Z</time>
      </trkpt>
      <trkpt lat="45.10746" lon="6.07003">
        <ele>1959.9</ele>
        <time>2024-07-10T09:39:03Z</time>
      </trkpt>
      <trkpt lat="45.10747" lon="6.07004">
        <ele>1960</ele>
        <time>2024-07-10T09:39:04Z</time>
      </trkpt>
      <trkpt lat="45.10748" lon="6.07004">
        <ele>1960.2</ele>
        <time>2024-07-10T09:39:05Z</time>
      </trkpt>
      <trkpt lat="45.10749" lon="6.07005">
        <ele>1960.3</ele>
        <time>2024-07-10T09:39:06Z</time>
      </trkpt>
      <trkpt lat="45.1075" lon="6.07005">
        <ele>1960.4</ele>
        <time>2024-07-10T09:39:07Z</time>
      </trkpt>
      <trkpt lat="45.10751" lon="6.07005">
        <ele>1960.5</ele>
        <time>2024-07-10T09:39:08Z</time>
      </trkpt>
      <trkpt lat="45.10752" lon="6.07005">
        <ele>1960.6</ele>
        <time>2024-07-10T09:39:09Z</time>
      </trkpt>
      <trkpt lat="45.10753" lon="6.07006">
        <ele>1960.7</ele>
        <time>2024-07-10T09:39:10Z</time>
      </trkpt>
      <trkpt lat="45.10754" lon="6.07006">
        <ele>1960.8</ele>
        <time>2024-07-10T09:39:11Z</time>
      </trkpt>
      <trkpt lat="45.10754" lon="6.07007">
        <ele>1960.9</ele>
        <time>2024-07-10T09:39:12Z</time>
      </trkpt>
      <trkpt lat="45.10755" lon="6.07007">
        <ele>1961</ele>
        <time>2024-07-10T09:39:13Z</time>
      </trkpt>
      <trkpt lat="45.10756" lon="6.07008">
        <ele>1961.1</ele>
        <time>2024-07-10T09:39:14Z</time>
      </trkpt>
      <trkpt lat="45.10757" lon="6.07009">
        <ele>1961.2</ele>
        <time>2024-07-10T09:39:15Z</time>
      </trkpt>
      <trkpt lat="45.10757" lon="6.0701">
        <ele>1961.4</ele>
        <time>2024-07-10T09:39:16Z</time>
      </trkpt>
      <trkpt lat="45.10758" lon="6.07011">
        <ele>1961.4</ele>
        <time>2024-07-10T09:39:17Z</time>
      </trkpt>
      <trkpt lat="45.10758" lon="6.07011">
        <ele>1961.4</ele>
        <time>2024-07-10T09:39:18Z</time>
      </trkpt>
      <trkpt lat="45.10759" lon="6.07012">
        <ele>1961.5</ele>
        <time>2024-07-10T09:39:19Z</time>
      </trkpt>
      <trkpt lat="45.1076" lon="6.07012">
        <ele>1961.5</ele>
        <time>2024-07-10T09:39:20Z</time>
      </trkpt>
      <trkpt lat="45.10761" lon="6.07013">
        <ele>1961.5</ele>
        <time>2024-07-10T09:39:21Z</time>
      </trkpt>
      <trkpt lat="45.10762" lon="6.07013">
        <ele>1961.6</ele>
        <time>2024-07-10T09:39:22Z</time>
      </trkpt>
      <trkpt lat="45.10762" lon="6.07014">
        <ele>1961.6</ele>
        <time>2024-07-10T09:39:23Z</time>
      </trkpt>
      <trkpt lat="45.10763" lon="6.07015">
        <ele>1961.6</ele>
        <time>2024-07-10T09:39:24Z</time>
      </trkpt>
      <trkpt lat="45.10764" lon="6.07016">
        <ele>1961.7</ele>
        <time>2024-07-10T09:39:25Z</time>
      </trkpt>
      <trkpt lat="45.10765" lon="6.07016">
        <ele>1961.7</ele>
        <time>2024-07-10T09:39:26Z</time>
      </trkpt>
      <trkpt lat="45.10766" lon="6.07017">
        <ele>1961.8</ele>
        <time>2024-07-10T09:39:27Z</time>
      </trkpt>
      <trkpt lat="45.10767" lon="6.07018">
        <ele>1961.8</ele>
        <time>2024-07-10T09:39:28Z</time>
      </trkpt>
      <trkpt lat="45.10768" lon="6.07018">
        <ele>1961.8</ele>
        <time>2024-07-10T09:39:29Z</time>
      </trkpt>
      <trkpt lat="45.10768" lon="6.07019">
        <ele>1961.9</ele>
        <time>2024-07-10T09:39:30Z</time>
      </trkpt>
      <trkpt lat="45.10769" lon="6.07019">
        <ele>1961.9</ele>
        <time>2024-07-10T09:39:31Z</time>
      </trkpt>
      <trkpt lat="45.1077" lon="6.07018">
        <ele>1961.9</ele>
        <time>2024-07-10T09:39:32Z</time>
      </trkpt>
      <trkpt lat="45.1077" lon="6.07018">
        <ele>1962</ele>
        <time>2024-07-10T09:39:33Z</time>
      </trkpt>
      <trkpt lat="45.10771" lon="6.07019">
        <ele>1962</ele>
        <time>2024-07-10T09:39:34Z</time>
      </trkpt>
      <trkpt lat="45.10772" lon="6.07021">
        <ele>1962</ele>
        <time>2024-07-10T09:39:35Z</time>
      </trkpt>
      <trkpt lat="45.10772" lon="6.07022">
        <ele>1962.1</ele>
        <time>2024-07-10T09:39:36Z</time>
      </trkpt>
      <trkpt lat="45.10773" lon="6.07023">
        <ele>1962.1</ele>
        <time>2024-07-10T09:39:37Z</time>
      </trkpt>
      <trkpt lat="45.10774" lon="6.07024">
        <ele>1962.1</ele>
        <time>2024-07-10T09:39:38Z</time>
      </trkpt>
      <trkpt lat="45.10775" lon="6.07025">
        <ele>1962.2</ele>
        <time>2024-07-10T09:39:39Z</time>
      </trkpt>
      <trkpt lat="45.10776" lon="6.07026">
        <ele>1962.2</ele>
        <time>2024-07-10T09:39:40Z</time>
      </trkpt>
      <trkpt lat="45.10777" lon="6.07027">
        <ele>1962.2</ele>
        <time>2024-07-10T09:39:41Z</time>
      </trkpt>
      <trkpt lat="45.10777" lon="6.07028">
        <ele>1962.2</ele>
        <time>2024-07-10T09:39:42Z</time>
      </trkpt>
      <trkpt lat="45.10778" lon="6.07029">
        <ele>1962.3</ele>
        <time>2024-07-10T09:39:43Z</time>
      </trkpt>
      <trkpt lat="45.10779" lon="6.0703">
        <ele>1962.3</ele>
        <time>2024-07-10T09:39:44Z</time>
      </trkpt>
      <trkpt lat="45.1078" lon="6.07031">
        <ele>1962.3</ele>
        <time>2024-07-10T09:39:45Z</time>
      </trkpt>
      <trkpt lat="45.10782" lon="6.07031">
        <ele>1962.4</ele>
        <time>2024-07-10T09:39:46Z</time>
      </trkpt>
      <trkpt lat="45.10782" lon="6.07032">
        <ele>1962.4</ele>
        <time>2024-07-10T09:39:47Z</time>
      </trkpt>
      <trkpt lat="45.10784" lon="6.07032">
        <ele>1962.4</ele>
        <time>2024-07-10T09:39:48Z</time>
      </trkpt>
      <trkpt lat="45.10786" lon="6.07034">
        <ele>1962.5</ele>
        <time>2024-07-10T09:39:49Z</time>
      </trkpt>
      <trkpt lat="45.10786" lon="6.07034">
        <ele>1962.5</ele>
        <time>2024-07-10T09:39:50Z</time>
      </trkpt>
      <trkpt lat="45.10787" lon="6.07034">
        <ele>1962.5</ele>
        <time>2024-07-10T09:39:51Z</time>
      </trkpt>
      <trkpt lat="45.10788" lon="6.07035">
        <ele>1962.6</ele>
        <time>2024-07-10T09:39:52Z</time>
      </trkpt>
      <trkpt lat="45.10789" lon="6.07035">
        <ele>1962.6</ele>
        <time>2024-07-10T09:39:53Z</time>
      </trkpt>
      <trkpt lat="45.1079" lon="6.07036">
        <ele>1962.7</ele>
        <time>2024-07-10T09:39:54Z</time>
      </trkpt>
      <trkpt lat="45.10791" lon="6.07037">
        <ele>1962.8</ele>
        <time>2024-07-10T09:39:55Z</time>
      </trkpt>
      <trkpt lat="45.10792" lon="6.07038">
        <ele>1962.8</ele>
        <time>2024-07-10T09:39:56Z</time>
      </trkpt>
      <trkpt lat="45.10793" lon="6.07039">
        <ele>1962.9</ele>
        <time>2024-07-10T09:39:57Z</time>
      </trkpt>
      <trkpt lat="45.10794" lon="6.07039">
        <ele>1962.9</ele>
        <time>2024-07-10T09:39:58Z</time>
      </trkpt>
      <trkpt lat="45.10795" lon="6.0704">
        <ele>1963</ele>
        <time>2024-07-10T09:39:59Z</time>
      </trkpt>
      <trkpt lat="45.10796" lon="6.07041">
        <ele>1963</ele>
        <time>2024-07-10T09:40:00Z</time>
      </trkpt>
      <trkpt lat="45.10797" lon="6.07042">
        <ele>1963.1</ele>
        <time>2024-07-10T09:40:01Z</time>
      </trkpt>
      <trkpt lat="45.10797" lon="6.07043">
        <ele>1963.1</ele>
        <time>2024-07-10T09:40:02Z</time>
      </trkpt>
      <trkpt lat="45.10798" lon="6.07044">
        <ele>1963.2</ele>
        <time>2024-07-10T09:40:03Z</time>
      </trkpt>
      <trkpt lat="45.10799" lon="6.07045">
        <ele>1963.2</ele>
        <time>2024-07-10T09:40:04Z</time>
      </trkpt>
      <trkpt lat="45.108" lon="6.07046">
        <ele>1963.3</ele>
        <time>2024-07-10T09:40:05Z</time>
      </trkpt>
      <trkpt lat="45.10801" lon="6.07047">
        <ele>1963.3</ele>
        <time>2024-07-10T09:40:06Z</time>
      </trkpt>
      <trkpt lat="45.10802" lon="6.07048">
        <ele>1963.4</ele>
        <time>2024-07-10T09:40:07Z</time>
      </trkpt>
      <trkpt lat="45.10802" lon="6.07049">
        <ele>1963.4</ele>
        <time>2024-07-10T09:40:08Z</time>
      </trkpt>
      <trkpt lat="45.10803" lon="6.0705">
        <ele>1963.5</ele>
        <time>2024-07-10T09:40:09Z</time>
      </trkpt>
      <trkpt lat="45.10804" lon="6.07051">
        <ele>1963.5</ele>
        <time>2024-07-10T09:40:10Z</time>
      </trkpt>
      <trkpt lat="45.10805" lon="6.07052">
        <ele>1963.6</ele>
        <time>2024-07-10T09:40:11Z</time>
      </trkpt>
      <trkpt lat="45.10806" lon="6.07052">
        <ele>1963.6</ele>
        <time>2024-07-10T09:40:12Z</time>
      </trkpt>
      <trkpt lat="45.10806" lon="6.07054">
        <ele>1963.7</ele>
        <time>2024-07-10T09:40:13Z</time>
      </trkpt>
      <trkpt lat="45.10807" lon="6.07055">
        <ele>1963.7</ele>
        <time>2024-07-10T09:40:14Z</time>
      </trkpt>
      <trkpt lat="45.10807" lon="6.07056">
        <ele>1963.8</ele>
        <time>2024-07-10T09:40:15Z</time>
      </trkpt>
      <trkpt lat="45.10808" lon="6.07057">
        <ele>1963.8</ele>
        <time>2024-07-10T09:40:16Z</time>
      </trkpt>
      <trkpt lat="45.10809" lon="6.07058">
        <ele>1963.8</ele>
        <time>2024-07-10T09:40:17Z</time>
      </trkpt>
      <trkpt lat="45.10809" lon="6.07059">
        <ele>1963.9</ele>
        <time>2024-07-10T09:40:18Z</time>
      </trkpt>
      <trkpt lat="45.10809" lon="6.07059">
        <ele>1963.9</ele>
        <time>2024-07-10T09:40:19Z</time>
      </trkpt>
      <trkpt lat="45.10808" lon="6.07059">
        <ele>1964</ele>
        <time>2024-07-10T09:40:20Z</time>
      </trkpt>
      <trkpt lat="45.10807" lon="6.07057">
        <ele>1964</ele>
        <time>2024-07-10T09:40:21Z</time>
      </trkpt>
      <trkpt lat="45.10807" lon="6.07057">
        <ele>1964</ele>
        <time>2024-07-10T09:40:22Z</time>
      </trkpt>
      <trkpt lat="45.10807" lon="6.07057">
        <ele>1964</ele>
        <time>2024-07-10T09:40:23Z</time>
      </trkpt>
      <trkpt lat="45.10807" lon="6.07056">
        <ele>1964.1</ele>
        <time>2024-07-10T09:40:24Z</time>
      </trkpt>
      <trkpt lat="45.10807" lon="6.07056">
        <ele>1964.1</ele>
        <time>2024-07-10T09:40:25Z</time>
      </trkpt>
      <trkpt lat="45.10807" lon="6.07056">
        <ele>1964.1</ele>
        <time>2024-07-10T09:40:26Z</time>
      </trkpt>
      <trkpt lat="45.10807" lon="6.07056">
        <ele>1964.1</ele>
        <time>2024-07-10T09:40:27Z</time>
      </trkpt>
      <trkpt lat="45.10807" lon="6.07056">
        <ele>1964.1</ele>
        <time>2024-07-10T09:40:28Z</time>
      </trkpt>
      <trkpt lat="45.10808" lon="6.07056">
        <ele>1964.1</ele>
        <time>2024-07-10T09:40:29Z</time>
      </trkpt>
      <trkpt lat="45.10808" lon="6.07057">
        <ele>1964.2</ele>
        <time>2024-07-10T09:40:30Z</time>
      </trkpt>
      <trkpt lat="45.10809" lon="6.07059">
        <ele>1964.2</ele>
        <time>2024-07-10T09:40:31Z</time>
      </trkpt>
      <trkpt lat="45.10809" lon="6.0706">
        <ele>1964.3</ele>
        <time>2024-07-10T09:40:32Z</time>
      </trkpt>
      <trkpt lat="45.1081" lon="6.07061">
        <ele>1964.3</ele>
        <time>2024-07-10T09:40:33Z</time>
      </trkpt>
      <trkpt lat="45.1081" lon="6.07062">
        <ele>1964.3</ele>
        <time>2024-07-10T09:40:34Z</time>
      </trkpt>
      <trkpt lat="45.10811" lon="6.07063">
        <ele>1964.4</ele>
        <time>2024-07-10T09:40:35Z</time>
      </trkpt>
      <trkpt lat="45.10811" lon="6.07065">
        <ele>1964.5</ele>
        <time>2024-07-10T09:40:36Z</time>
      </trkpt>
      <trkpt lat="45.10812" lon="6.07066">
        <ele>1964.5</ele>
        <time>2024-07-10T09:40:37Z</time>
      </trkpt>
      <trkpt lat="45.10813" lon="6.07067">
        <ele>1964.6</ele>
        <time>2024-07-10T09:40:38Z</time>
      </trkpt>
      <trkpt lat="45.10813" lon="6.07069">
        <ele>1964.6</ele>
        <time>2024-07-10T09:40:39Z</time>
      </trkpt>
      <trkpt lat="45.10814" lon="6.0707">
        <ele>1964.7</ele>
        <time>2024-07-10T09:40:40Z</time>
      </trkpt>
      <trkpt lat="45.10815" lon="6.07071">
        <ele>1964.7</ele>
        <time>2024-07-10T09:40:41Z</time>
      </trkpt>
      <trkpt lat="45.10815" lon="6.07072">
        <ele>1964.8</ele>
        <time>2024-07-10T09:40:42Z</time>
      </trkpt>
      <trkpt lat="45.10816" lon="6.07073">
        <ele>1964.8</ele>
        <time>2024-07-10T09:40:43Z</time>
      </trkpt>
      <trkpt lat="45.10816" lon="6.07074">
        <ele>1964.9</ele>
        <time>2024-07-10T09:40:44Z</time>
      </trkpt>
      <trkpt lat="45.10817" lon="6.07075">
        <ele>1964.9</ele>
        <time>2024-07-10T09:40:45Z</time>
      </trkpt>
      <trkpt lat="45.10817" lon="6.07077">
        <ele>1964.9</ele>
        <time>2024-07-10T09:40:46Z</time>
      </trkpt>
      <trkpt lat="45.10817" lon="6.07078">
        <ele>1965</ele>
        <time>2024-07-10T09:40:47Z</time>
      </trkpt>
      <trkpt lat="45.10818" lon="6.07079">
        <ele>1965</ele>
        <time>2024-07-10T09:40:48Z</time>
      </trkpt>
      <trkpt lat="45.10818" lon="6.0708">
        <ele>1965</ele>
        <time>2024-07-10T09:40:49Z</time>
      </trkpt>
      <trkpt lat="45.10819" lon="6.07081">
        <ele>1965.1</ele>
        <time>2024-07-10T09:40:50Z</time>
      </trkpt>
      <trkpt lat="45.10819" lon="6.07082">
        <ele>1965.1</ele>
        <time>2024-07-10T09:40:51Z</time>
      </trkpt>
      <trkpt lat="45.1082" lon="6.07082">
        <ele>1965.2</ele>
        <time>2024-07-10T09:40:52Z</time>
      </trkpt>
      <trkpt lat="45.1082" lon="6.07084">
        <ele>1965.2</ele>
        <time>2024-07-10T09:40:53Z</time>
      </trkpt>
      <trkpt lat="45.1082" lon="6.07085">
        <ele>1965.2</ele>
        <time>2024-07-10T09:40:54Z</time>
      </trkpt>
      <trkpt lat="45.1082" lon="6.07086">
        <ele>1965.3</ele>
        <time>2024-07-10T09:40:55Z</time>
      </trkpt>
      <trkpt lat="45.10821" lon="6.07088">
        <ele>1965.3</ele>
        <time>2024-07-10T09:40:56Z</time>
      </trkpt>
      <trkpt lat="45.10821" lon="6.0709">
        <ele>1965.4</ele>
        <time>2024-07-10T09:40:57Z</time>
      </trkpt>
      <trkpt lat="45.10821" lon="6.07091">
        <ele>1965.4</ele>
        <time>2024-07-10T09:40:58Z</time>
      </trkpt>
      <trkpt lat="45.10821" lon="6.07094">
        <ele>1965.5</ele>
        <time>2024-07-10T09:40:59Z</time>
      </trkpt>
      <trkpt lat="45.10822" lon="6.07095">
        <ele>1965.5</ele>
        <time>2024-07-10T09:41:00Z</time>
      </trkpt>
      <trkpt lat="45.10822" lon="6.07096">
        <ele>1965.6</ele>
        <time>2024-07-10T09:41:01Z</time>
      </trkpt>
      <trkpt lat="45.10823" lon="6.07097">
        <ele>1965.6</ele>
        <time>2024-07-10T09:41:02Z</time>
      </trkpt>
      <trkpt lat="45.10823" lon="6.07098">
        <ele>1965.6</ele>
        <time>2024-07-10T09:41:03Z</time>
      </trkpt>
      <trkpt lat="45.10824" lon="6.071">
        <ele>1965.7</ele>
        <time>2024-07-10T09:41:04Z</time>
      </trkpt>
      <trkpt lat="45.10825" lon="6.07102">
        <ele>1965.7</ele>
        <time>2024-07-10T09:41:05Z</time>
      </trkpt>
      <trkpt lat="45.10826" lon="6.07103">
        <ele>1965.7</ele>
        <time>2024-07-10T09:41:06Z</time>
      </trkpt>
      <trkpt lat="45.10826" lon="6.07104">
        <ele>1965.8</ele>
        <time>2024-07-10T09:41:07Z</time>
      </trkpt>
      <trkpt lat="45.10827" lon="6.07105">
        <ele>1965.8</ele>
        <time>2024-07-10T09:41:08Z</time>
      </trkpt>
      <trkpt lat="45.10828" lon="6.07107">
        <ele>1965.8</ele>
        <time>2024-07-10T09:41:09Z</time>
      </trkpt>
      <trkpt lat="45.10829" lon="6.07108">
        <ele>1965.9</ele>
        <time>2024-07-10T09:41:10Z</time>
      </trkpt>
      <trkpt lat="45.1083" lon="6.0711">
        <ele>1965.9</ele>
        <time>2024-07-10T09:41:11Z</time>
      </trkpt>
      <trkpt lat="45.10831" lon="6.07111">
        <ele>1965.9</ele>
        <time>2024-07-10T09:41:12Z</time>
      </trkpt>
      <trkpt lat="45.10831" lon="6.07112">
        <ele>1966</ele>
        <time>2024-07-10T09:41:13Z</time>
      </trkpt>
      <trkpt lat="45.10833" lon="6.07114">
        <ele>1966</ele>
        <time>2024-07-10T09:41:14Z</time>
      </trkpt>
      <trkpt lat="45.10833" lon="6.07115">
        <ele>1966.1</ele>
        <time>2024-07-10T09:41:15Z</time>
      </trkpt>
      <trkpt lat="45.10834" lon="6.07116">
        <ele>1966.1</ele>
        <time>2024-07-10T09:41:16Z</time>
      </trkpt>
      <trkpt lat="45.10834" lon="6.07117">
        <ele>1966.1</ele>
        <time>2024-07-10T09:41:17Z</time>
      </trkpt>
      <trkpt lat="45.10835" lon="6.07119">
        <ele>1966.1</ele>
        <time>2024-07-10T09:41:18Z</time>
      </trkpt>
      <trkpt lat="45.10835" lon="6.0712">
        <ele>1966.2</ele>
        <time>2024-07-10T09:41:19Z</time>
      </trkpt>
      <trkpt lat="45.10836" lon="6.07121">
        <ele>1966.2</ele>
        <time>2024-07-10T09:41:20Z</time>
      </trkpt>
      <trkpt lat="45.10837" lon="6.07123">
        <ele>1966.2</ele>
        <time>2024-07-10T09:41:21Z</time>
      </trkpt>
      <trkpt lat="45.10838" lon="6.07124">
        <ele>1966.3</ele>
        <time>2024-07-10T09:41:22Z</time>
      </trkpt>
      <trkpt lat="45.10839" lon="6.07126">
        <ele>1966.3</ele>
        <time>2024-07-10T09:41:23Z</time>
      </trkpt>
      <trkpt lat="45.10839" lon="6.07127">
        <ele>1966.3</ele>
        <time>2024-07-10T09:41:24Z</time>
      </trkpt>
      <trkpt lat="45.1084" lon="6.07128">
        <ele>1966.3</ele>
        <time>2024-07-10T09:41:25Z</time>
      </trkpt>
      <trkpt lat="45.10841" lon="6.07131">
        <ele>1966.4</ele>
        <time>2024-07-10T09:41:26Z</time>
      </trkpt>
      <trkpt lat="45.10841" lon="6.07132">
        <ele>1966.4</ele>
        <time>2024-07-10T09:41:27Z</time>
      </trkpt>
      <trkpt lat="45.10842" lon="6.07133">
        <ele>1966.4</ele>
        <time>2024-07-10T09:41:28Z</time>
      </trkpt>
      <trkpt lat="45.10843" lon="6.07135">
        <ele>1966.5</ele>
        <time>2024-07-10T09:41:29Z</time>
      </trkpt>
      <trkpt lat="45.10843" lon="6.07136">
        <ele>1966.5</ele>
        <time>2024-07-10T09:41:30Z</time>
      </trkpt>
      <trkpt lat="45.10844" lon="6.07137">
        <ele>1966.5</ele>
        <time>2024-07-10T09:41:31Z</time>
      </trkpt>
      <trkpt lat="45.10845" lon="6.0714">
        <ele>1966.6</ele>
        <time>2024-07-10T09:41:32Z</time>
      </trkpt>
      <trkpt lat="45.10846" lon="6.0714">
        <ele>1966.6</ele>
        <time>2024-07-10T09:41:33Z</time>
      </trkpt>
      <trkpt lat="45.10846" lon="6.07141">
        <ele>1966.6</ele>
        <time>2024-07-10T09:41:34Z</time>
      </trkpt>
      <trkpt lat="45.10847" lon="6.07143">
        <ele>1966.6</ele>
        <time>2024-07-10T09:41:35Z</time>
      </trkpt>
      <trkpt lat="45.10848" lon="6.07144">
        <ele>1966.7</ele>
        <time>2024-07-10T09:41:36Z</time>
      </trkpt>
      <trkpt lat="45.10849" lon="6.07145">
        <ele>1966.7</ele>
        <time>2024-07-10T09:41:37Z</time>
      </trkpt>
      <trkpt lat="45.10849" lon="6.07146">
        <ele>1966.7</ele>
        <time>2024-07-10T09:41:38Z</time>
      </trkpt>
      <trkpt lat="45.1085" lon="6.07148">
        <ele>1966.7</ele>
        <time>2024-07-10T09:41:39Z</time>
      </trkpt>
      <trkpt lat="45.10851" lon="6.0715">
        <ele>1966.8</ele>
        <time>2024-07-10T09:41:40Z</time>
      </trkpt>
      <trkpt lat="45.10852" lon="6.07151">
        <ele>1966.8</ele>
        <time>2024-07-10T09:41:41Z</time>
      </trkpt>
      <trkpt lat="45.10852" lon="6.07152">
        <ele>1966.8</ele>
        <time>2024-07-10T09:41:42Z</time>
      </trkpt>
      <trkpt lat="45.10854" lon="6.07154">
        <ele>1966.9</ele>
        <time>2024-07-10T09:41:43Z</time>
      </trkpt>
      <trkpt lat="45.10854" lon="6.07155">
        <ele>1966.9</ele>
        <time>2024-07-10T09:41:44Z</time>
      </trkpt>
      <trkpt lat="45.10855" lon="6.07156">
        <ele>1966.9</ele>
        <time>2024-07-10T09:41:45Z</time>
      </trkpt>
      <trkpt lat="45.10855" lon="6.07158">
        <ele>1967</ele>
        <time>2024-07-10T09:41:46Z</time>
      </trkpt>
      <trkpt lat="45.10856" lon="6.07159">
        <ele>1967</ele>
        <time>2024-07-10T09:41:47Z</time>
      </trkpt>
      <trkpt lat="45.10856" lon="6.0716">
        <ele>1967</ele>
        <time>2024-07-10T09:41:48Z</time>
      </trkpt>
      <trkpt lat="45.10857" lon="6.07163">
        <ele>1967.1</ele>
        <time>2024-07-10T09:41:49Z</time>
      </trkpt>
      <trkpt lat="45.10857" lon="6.07164">
        <ele>1967.1</ele>
        <time>2024-07-10T09:41:50Z</time>
      </trkpt>
      <trkpt lat="45.10858" lon="6.07165">
        <ele>1967.1</ele>
        <time>2024-07-10T09:41:51Z</time>
      </trkpt>
      <trkpt lat="45.10859" lon="6.07168">
        <ele>1967.2</ele>
        <time>2024-07-10T09:41:52Z</time>
      </trkpt>
      <trkpt lat="45.10859" lon="6.07169">
        <ele>1967.2</ele>
        <time>2024-07-10T09:41:53Z</time>
      </trkpt>
      <trkpt lat="45.1086" lon="6.0717">
        <ele>1967.2</ele>
        <time>2024-07-10T09:41:54Z</time>
      </trkpt>
      <trkpt lat="45.1086" lon="6.07171">
        <ele>1967.3</ele>
        <time>2024-07-10T09:41:55Z</time>
      </trkpt>
      <trkpt lat="45.10861" lon="6.07173">
        <ele>1967.3</ele>
        <time>2024-07-10T09:41:56Z</time>
      </trkpt>
      <trkpt lat="45.10861" lon="6.07174">
        <ele>1967.3</ele>
        <time>2024-07-10T09:41:57Z</time>
      </trkpt>
      <trkpt lat="45.10861" lon="6.07176">
        <ele>1967.4</ele>
        <time>2024-07-10T09:41:58Z</time>
      </trkpt>
      <trkpt lat="45.10862" lon="6.07178">
        <ele>1967.4</ele>
        <time>2024-07-10T09:41:59Z</time>
      </trkpt>
      <trkpt lat="45.10862" lon="6.0718">
        <ele>1967.4</ele>
        <time>2024-07-10T09:42:00Z</time>
      </trkpt>
      <trkpt lat="45.10862" lon="6.07182">
        <ele>1967.5</ele>
        <time>2024-07-10T09:42:01Z</time>
      </trkpt>
      <trkpt lat="45.10863" lon="6.07183">
        <ele>1967.5</ele>
        <time>2024-07-10T09:42:02Z</time>
      </trkpt>
      <trkpt lat="45.10863" lon="6.07185">
        <ele>1967.5</ele>
        <time>2024-07-10T09:42:03Z</time>
      </trkpt>
      <trkpt lat="45.10864" lon="6.07186">
        <ele>1967.6</ele>
        <time>2024-07-10T09:42:04Z</time>
      </trkpt>
      <trkpt lat="45.10864" lon="6.07188">
        <ele>1967.6</ele>
        <time>2024-07-10T09:42:05Z</time>
      </trkpt>
      <trkpt lat="45.10865" lon="6.0719">
        <ele>1967.7</ele>
        <time>2024-07-10T09:42:06Z</time>
      </trkpt>
      <trkpt lat="45.10866" lon="6.07191">
        <ele>1967.7</ele>
        <time>2024-07-10T09:42:08Z</time>
      </trkpt>
      <trkpt lat="45.10866" lon="6.07192">
        <ele>1967.7</ele>
        <time>2024-07-10T09:42:09Z</time>
      </trkpt>
      <trkpt lat="45.10867" lon="6.07194">
        <ele>1967.8</ele>
        <time>2024-07-10T09:42:10Z</time>
      </trkpt>
      <trkpt lat="45.10867" lon="6.07195">
        <ele>1967.8</ele>
        <time>2024-07-10T09:42:11Z</time>
      </trkpt>
      <trkpt lat="45.10868" lon="6.07196">
        <ele>1967.8</ele>
        <time>2024-07-10T09:42:12Z</time>
      </trkpt>
      <trkpt lat="45.10868" lon="6.07198">
        <ele>1967.8</ele>
        <time>2024-07-10T09:42:13Z</time>
      </trkpt>
      <trkpt lat="45.10869" lon="6.07199">
        <ele>1967.9</ele>
        <time>2024-07-10T09:42:14Z</time>
      </trkpt>
      <trkpt lat="45.10869" lon="6.072">
        <ele>1967.9</ele>
        <time>2024-07-10T09:42:15Z</time>
      </trkpt>
      <trkpt lat="45.1087" lon="6.07202">
        <ele>1968</ele>
        <time>2024-07-10T09:42:16Z</time>
      </trkpt>
      <trkpt lat="45.1087" lon="6.07203">
        <ele>1968</ele>
        <time>2024-07-10T09:42:17Z</time>
      </trkpt>
      <trkpt lat="45.1087" lon="6.07204">
        <ele>1968</ele>
        <time>2024-07-10T09:42:18Z</time>
      </trkpt>
      <trkpt lat="45.10871" lon="6.07205">
        <ele>1968</ele>
        <time>2024-07-10T09:42:19Z</time>
      </trkpt>
      <trkpt lat="45.10871" lon="6.07206">
        <ele>1968.1</ele>
        <time>2024-07-10T09:42:20Z</time>
      </trkpt>
      <trkpt lat="45.10872" lon="6.07208">
        <ele>1968.1</ele>
        <time>2024-07-10T09:42:21Z</time>
      </trkpt>
      <trkpt lat="45.10872" lon="6.07208">
        <ele>1968.1</ele>
        <time>2024-07-10T09:42:22Z</time>
      </trkpt>
      <trkpt lat="45.10873" lon="6.07209">
        <ele>1968.2</ele>
        <time>2024-07-10T09:42:23Z</time>
      </trkpt>
      <trkpt lat="45.10875" lon="6.07211">
        <ele>1968.2</ele>
        <time>2024-07-10T09:42:24Z</time>
      </trkpt>
      <trkpt lat="45.10875" lon="6.07212">
        <ele>1968.3</ele>
        <time>2024-07-10T09:42:25Z</time>
      </trkpt>
      <trkpt lat="45.10876" lon="6.07212">
        <ele>1968.3</ele>
        <time>2024-07-10T09:42:26Z</time>
      </trkpt>
      <trkpt lat="45.10877" lon="6.07213">
        <ele>1968.3</ele>
        <time>2024-07-10T09:42:27Z</time>
      </trkpt>
      <trkpt lat="45.10877" lon="6.07214">
        <ele>1968.3</ele>
        <time>2024-07-10T09:42:28Z</time>
      </trkpt>
      <trkpt lat="45.10878" lon="6.07215">
        <ele>1968.4</ele>
        <time>2024-07-10T09:42:29Z</time>
      </trkpt>
      <trkpt lat="45.10878" lon="6.07216">
        <ele>1968.4</ele>
        <time>2024-07-10T09:42:30Z</time>
      </trkpt>
      <trkpt lat="45.10879" lon="6.07218">
        <ele>1968.5</ele>
        <time>2024-07-10T09:42:31Z</time>
      </trkpt>
      <trkpt lat="45.10879" lon="6.07219">
        <ele>1968.5</ele>
        <time>2024-07-10T09:42:32Z</time>
      </trkpt>
      <trkpt lat="45.10879" lon="6.07221">
        <ele>1968.5</ele>
        <time>2024-07-10T09:42:33Z</time>
      </trkpt>
      <trkpt lat="45.1088" lon="6.07224">
        <ele>1968.6</ele>
        <time>2024-07-10T09:42:34Z</time>
      </trkpt>
      <trkpt lat="45.10881" lon="6.07225">
        <ele>1968.6</ele>
        <time>2024-07-10T09:42:35Z</time>
      </trkpt>
      <trkpt lat="45.10881" lon="6.07226">
        <ele>1968.7</ele>
        <time>2024-07-10T09:42:36Z</time>
      </trkpt>
      <trkpt lat="45.10882" lon="6.07227">
        <ele>1968.7</ele>
        <time>2024-07-10T09:42:37Z</time>
      </trkpt>
      <trkpt lat="45.10882" lon="6.07228">
        <ele>1968.7</ele>
        <time>2024-07-10T09:42:38Z</time>
      </trkpt>
      <trkpt lat="45.10883" lon="6.0723">
        <ele>1968.8</ele>
        <time>2024-07-10T09:42:39Z</time>
      </trkpt>
      <trkpt lat="45.10884" lon="6.07231">
        <ele>1968.8</ele>
        <time>2024-07-10T09:42:40Z</time>
      </trkpt>
      <trkpt lat="45.10885" lon="6.07233">
        <ele>1968.8</ele>
        <time>2024-07-10T09:42:41Z</time>
      </trkpt>
      <trkpt lat="45.10885" lon="6.07233">
        <ele>1968.9</ele>
        <time>2024-07-10T09:42:42Z</time>
      </trkpt>
      <trkpt lat="45.10886" lon="6.07234">
        <ele>1968.9</ele>
        <time>2024-07-10T09:42:43Z</time>
      </trkpt>
      <trkpt lat="45.10887" lon="6.07236">
        <ele>1969</ele>
        <time>2024-07-10T09:42:44Z</time>
      </trkpt>
      <trkpt lat="45.10889" lon="6.07238">
        <ele>1969</ele>
        <time>2024-07-10T09:42:45Z</time>
      </trkpt>
      <trkpt lat="45.10889" lon="6.07239">
        <ele>1969</ele>
        <time>2024-07-10T09:42:46Z</time>
      </trkpt>
      <trkpt lat="45.10889" lon="6.0724">
        <ele>1969.1</ele>
        <time>2024-07-10T09:42:47Z</time>
      </trkpt>
      <trkpt lat="45.1089" lon="6.07242">
        <ele>1969.1</ele>
        <time>2024-07-10T09:42:48Z</time>
      </trkpt>
      <trkpt lat="45.1089" lon="6.07243">
        <ele>1969.1</ele>
        <time>2024-07-10T09:42:49Z</time>
      </trkpt>
      <trkpt lat="45.1089" lon="6.07245">
        <ele>1969.2</ele>
        <time>2024-07-10T09:42:50Z</time>
      </trkpt>
      <trkpt lat="45.10891" lon="6.07248">
        <ele>1969.2</ele>
        <time>2024-07-10T09:42:51Z</time>
      </trkpt>
      <trkpt lat="45.10891" lon="6.07249">
        <ele>1969.3</ele>
        <time>2024-07-10T09:42:52Z</time>
      </trkpt>
      <trkpt lat="45.10891" lon="6.0725">
        <ele>1969.3</ele>
        <time>2024-07-10T09:42:53Z</time>
      </trkpt>
      <trkpt lat="45.1089" lon="6.07253">
        <ele>1969.3</ele>
        <time>2024-07-10T09:42:54Z</time>
      </trkpt>
      <trkpt lat="45.1089" lon="6.07254">
        <ele>1969.4</ele>
        <time>2024-07-10T09:42:55Z</time>
      </trkpt>
      <trkpt lat="45.1089" lon="6.07255">
        <ele>1969.4</ele>
        <time>2024-07-10T09:42:56Z</time>
      </trkpt>
      <trkpt lat="45.10888" lon="6.07258">
        <ele>1969.4</ele>
        <time>2024-07-10T09:42:57Z</time>
      </trkpt>
      <trkpt lat="45.10888" lon="6.07258">
        <ele>1969.5</ele>
        <time>2024-07-10T09:42:58Z</time>
      </trkpt>
      <trkpt lat="45.10887" lon="6.07259">
        <ele>1969.5</ele>
        <time>2024-07-10T09:42:59Z</time>
      </trkpt>
      <trkpt lat="45.10886" lon="6.07261">
        <ele>1969.5</ele>
        <time>2024-07-10T09:43:00Z</time>
      </trkpt>
      <trkpt lat="45.10885" lon="6.07261">
        <ele>1969.6</ele>
        <time>2024-07-10T09:43:01Z</time>
      </trkpt>
      <trkpt lat="45.10884" lon="6.07262">
        <ele>1969.6</ele>
        <time>2024-07-10T09:43:02Z</time>
      </trkpt>
      <trkpt lat="45.10882" lon="6.07263">
        <ele>1969.6</ele>
        <time>2024-07-10T09:43:03Z</time>
      </trkpt>
      <trkpt lat="45.10882" lon="6.07264">
        <ele>1969.7</ele>
        <time>2024-07-10T09:43:04Z</time>
      </trkpt>
      <trkpt lat="45.10881" lon="6.07264">
        <ele>1969.7</ele>
        <time>2024-07-10T09:43:05Z</time>
      </trkpt>
      <trkpt lat="45.10879" lon="6.07265">
        <ele>1969.7</ele>
        <time>2024-07-10T09:43:06Z</time>
      </trkpt>
      <trkpt lat="45.10878" lon="6.07265">
        <ele>1969.8</ele>
        <time>2024-07-10T09:43:07Z</time>
      </trkpt>
      <trkpt lat="45.10874" lon="6.07267">
        <ele>1969.9</ele>
        <time>2024-07-10T09:43:09Z</time>
      </trkpt>
      <trkpt lat="45.10874" lon="6.07268">
        <ele>1969.9</ele>
        <time>2024-07-10T09:43:10Z</time>
      </trkpt>
      <trkpt lat="45.10873" lon="6.07268">
        <ele>1969.9</ele>
        <time>2024-07-10T09:43:11Z</time>
      </trkpt>
      <trkpt lat="45.10872" lon="6.07269">
        <ele>1970</ele>
        <time>2024-07-10T09:43:12Z</time>
      </trkpt>
      <trkpt lat="45.10871" lon="6.07269">
        <ele>1970</ele>
        <time>2024-07-10T09:43:13Z</time>
      </trkpt>
      <trkpt lat="45.10869" lon="6.07269">
        <ele>1970</ele>
        <time>2024-07-10T09:43:14Z</time>
      </trkpt>
      <trkpt lat="45.10868" lon="6.0727">
        <ele>1970.1</ele>
        <time>2024-07-10T09:43:15Z</time>
      </trkpt>
      <trkpt lat="45.10866" lon="6.07271">
        <ele>1970.2</ele>
        <time>2024-07-10T09:43:16Z</time>
      </trkpt>
      <trkpt lat="45.10866" lon="6.07271">
        <ele>1970.2</ele>
        <time>2024-07-10T09:43:17Z</time>
      </trkpt>
      <trkpt lat="45.10865" lon="6.07271">
        <ele>1970.2</ele>
        <time>2024-07-10T09:43:18Z</time>
      </trkpt>
      <trkpt lat="45.10864" lon="6.07271">
        <ele>1970.2</ele>
        <time>2024-07-10T09:43:19Z</time>
      </trkpt>
      <trkpt lat="45.10862" lon="6.07272">
        <ele>1970.3</ele>
        <time>2024-07-10T09:43:20Z</time>
      </trkpt>
      <trkpt lat="45.10861" lon="6.07272">
        <ele>1970.3</ele>
        <time>2024-07-10T09:43:21Z</time>
      </trkpt>
      <trkpt lat="45.1086" lon="6.07273">
        <ele>1970.4</ele>
        <time>2024-07-10T09:43:22Z</time>
      </trkpt>
      <trkpt lat="45.10859" lon="6.07273">
        <ele>1970.4</ele>
        <time>2024-07-10T09:43:23Z</time>
      </trkpt>
      <trkpt lat="45.10859" lon="6.07274">
        <ele>1970.4</ele>
        <time>2024-07-10T09:43:24Z</time>
      </trkpt>
      <trkpt lat="45.10858" lon="6.07274">
        <ele>1970.5</ele>
        <time>2024-07-10T09:43:25Z</time>
      </trkpt>
      <trkpt lat="45.10857" lon="6.07274">
        <ele>1970.5</ele>
        <time>2024-07-10T09:43:26Z</time>
      </trkpt>
      <trkpt lat="45.10856" lon="6.07275">
        <ele>1970.6</ele>
        <time>2024-07-10T09:43:27Z</time>
      </trkpt>
      <trkpt lat="45.10854" lon="6.07276">
        <ele>1970.7</ele>
        <time>2024-07-10T09:43:28Z</time>
      </trkpt>
      <trkpt lat="45.10853" lon="6.07276">
        <ele>1970.7</ele>
        <time>2024-07-10T09:43:29Z</time>
      </trkpt>
      <trkpt lat="45.10852" lon="6.07276">
        <ele>1970.7</ele>
        <time>2024-07-10T09:43:30Z</time>
      </trkpt>
      <trkpt lat="45.10851" lon="6.07277">
        <ele>1970.8</ele>
        <time>2024-07-10T09:43:31Z</time>
      </trkpt>
      <trkpt lat="45.1085" lon="6.07277">
        <ele>1970.8</ele>
        <time>2024-07-10T09:43:32Z</time>
      </trkpt>
      <trkpt lat="45.10848" lon="6.07277">
        <ele>1970.9</ele>
        <time>2024-07-10T09:43:33Z</time>
      </trkpt>
      <trkpt lat="45.10846" lon="6.07278">
        <ele>1971</ele>
        <time>2024-07-10T09:43:34Z</time>
      </trkpt>
      <trkpt lat="45.10846" lon="6.07278">
        <ele>1971</ele>
        <time>2024-07-10T09:43:35Z</time>
      </trkpt>
      <trkpt lat="45.10845" lon="6.07278">
        <ele>1971</ele>
        <time>2024-07-10T09:43:36Z</time>
      </trkpt>
      <trkpt lat="45.10843" lon="6.07279">
        <ele>1971.1</ele>
        <time>2024-07-10T09:43:37Z</time>
      </trkpt>
      <trkpt lat="45.10842" lon="6.0728">
        <ele>1971.2</ele>
        <time>2024-07-10T09:43:38Z</time>
      </trkpt>
      <trkpt lat="45.10841" lon="6.0728">
        <ele>1971.2</ele>
        <time>2024-07-10T09:43:39Z</time>
      </trkpt>
      <trkpt lat="45.1084" lon="6.07281">
        <ele>1971.3</ele>
        <time>2024-07-10T09:43:40Z</time>
      </trkpt>
      <trkpt lat="45.10839" lon="6.07282">
        <ele>1971.4</ele>
        <time>2024-07-10T09:43:41Z</time>
      </trkpt>
      <trkpt lat="45.10838" lon="6.07283">
        <ele>1971.4</ele>
        <time>2024-07-10T09:43:42Z</time>
      </trkpt>
      <trkpt lat="45.10836" lon="6.07283">
        <ele>1971.5</ele>
        <time>2024-07-10T09:43:43Z</time>
      </trkpt>
      <trkpt lat="45.10835" lon="6.07284">
        <ele>1971.6</ele>
        <time>2024-07-10T09:43:44Z</time>
      </trkpt>
      <trkpt lat="45.10833" lon="6.07284">
        <ele>1971.7</ele>
        <time>2024-07-10T09:43:45Z</time>
      </trkpt>
      <trkpt lat="45.10832" lon="6.07284">
        <ele>1971.7</ele>
        <time>2024-07-10T09:43:46Z</time>
      </trkpt>
      <trkpt lat="45.10832" lon="6.07285">
        <ele>1971.8</ele>
        <time>2024-07-10T09:43:47Z</time>
      </trkpt>
      <trkpt lat="45.1083" lon="6.07285">
        <ele>1971.8</ele>
        <time>2024-07-10T09:43:48Z</time>
      </trkpt>
      <trkpt lat="45.1083" lon="6.07286">
        <ele>1971.9</ele>
        <time>2024-07-10T09:43:49Z</time>
      </trkpt>
      <trkpt lat="45.10828" lon="6.07286">
        <ele>1971.9</ele>
        <time>2024-07-10T09:43:50Z</time>
      </trkpt>
      <trkpt lat="45.10827" lon="6.07287">
        <ele>1972</ele>
        <time>2024-07-10T09:43:51Z</time>
      </trkpt>
      <trkpt lat="45.10826" lon="6.07287">
        <ele>1972.1</ele>
        <time>2024-07-10T09:43:52Z</time>
      </trkpt>
      <trkpt lat="45.10825" lon="6.07288">
        <ele>1972.1</ele>
        <time>2024-07-10T09:43:53Z</time>
      </trkpt>
      <trkpt lat="45.10824" lon="6.07289">
        <ele>1972.2</ele>
        <time>2024-07-10T09:43:54Z</time>
      </trkpt>
      <trkpt lat="45.10823" lon="6.07289">
        <ele>1972.3</ele>
        <time>2024-07-10T09:43:55Z</time>
      </trkpt>
      <trkpt lat="45.10822" lon="6.0729">
        <ele>1972.3</ele>
        <time>2024-07-10T09:43:56Z</time>
      </trkpt>
      <trkpt lat="45.10821" lon="6.07291">
        <ele>1972.4</ele>
        <time>2024-07-10T09:43:57Z</time>
      </trkpt>
      <trkpt lat="45.1082" lon="6.07292">
        <ele>1972.5</ele>
        <time>2024-07-10T09:43:58Z</time>
      </trkpt>
      <trkpt lat="45.10819" lon="6.07293">
        <ele>1972.5</ele>
        <time>2024-07-10T09:43:59Z</time>
      </trkpt>
      <trkpt lat="45.10818" lon="6.07294">
        <ele>1972.6</ele>
        <time>2024-07-10T09:44:00Z</time>
      </trkpt>
      <trkpt lat="45.10817" lon="6.07296">
        <ele>1972.7</ele>
        <time>2024-07-10T09:44:01Z</time>
      </trkpt>
      <trkpt lat="45.10816" lon="6.07296">
        <ele>1972.8</ele>
        <time>2024-07-10T09:44:02Z</time>
      </trkpt>
      <trkpt lat="45.10815" lon="6.07297">
        <ele>1972.8</ele>
        <time>2024-07-10T09:44:03Z</time>
      </trkpt>
      <trkpt lat="45.10814" lon="6.07298">
        <ele>1972.9</ele>
        <time>2024-07-10T09:44:04Z</time>
      </trkpt>
      <trkpt lat="45.10813" lon="6.073">
        <ele>1973</ele>
        <time>2024-07-10T09:44:05Z</time>
      </trkpt>
      <trkpt lat="45.10812" lon="6.07301">
        <ele>1973.1</ele>
        <time>2024-07-10T09:44:06Z</time>
      </trkpt>
      <trkpt lat="45.10811" lon="6.07302">
        <ele>1973.1</ele>
        <time>2024-07-10T09:44:07Z</time>
      </trkpt>
      <trkpt lat="45.1081" lon="6.07304">
        <ele>1973.2</ele>
        <time>2024-07-10T09:44:08Z</time>
      </trkpt>
      <trkpt lat="45.10809" lon="6.07305">
        <ele>1973.3</ele>
        <time>2024-07-10T09:44:09Z</time>
      </trkpt>
      <trkpt lat="45.10809" lon="6.07306">
        <ele>1973.3</ele>
        <time>2024-07-10T09:44:10Z</time>
      </trkpt>
      <trkpt lat="45.10808" lon="6.07308">
        <ele>1973.4</ele>
        <time>2024-07-10T09:44:11Z</time>
      </trkpt>
      <trkpt lat="45.10807" lon="6.07309">
        <ele>1973.5</ele>
        <time>2024-07-10T09:44:12Z</time>
      </trkpt>
      <trkpt lat="45.10806" lon="6.07311">
        <ele>1973.5</ele>
        <time>2024-07-10T09:44:13Z</time>
      </trkpt>
      <trkpt lat="45.10806" lon="6.07312">
        <ele>1973.6</ele>
        <time>2024-07-10T09:44:14Z</time>
      </trkpt>
      <trkpt lat="45.10805" lon="6.07315">
        <ele>1973.7</ele>
        <time>2024-07-10T09:44:15Z</time>
      </trkpt>
      <trkpt lat="45.10805" lon="6.07316">
        <ele>1973.7</ele>
        <time>2024-07-10T09:44:16Z</time>
      </trkpt>
      <trkpt lat="45.10805" lon="6.07317">
        <ele>1973.7</ele>
        <time>2024-07-10T09:44:17Z</time>
      </trkpt>
      <trkpt lat="45.10805" lon="6.07319">
        <ele>1973.8</ele>
        <time>2024-07-10T09:44:18Z</time>
      </trkpt>
      <trkpt lat="45.10805" lon="6.0732">
        <ele>1973.8</ele>
        <time>2024-07-10T09:44:19Z</time>
      </trkpt>
      <trkpt lat="45.10805" lon="6.07322">
        <ele>1973.9</ele>
        <time>2024-07-10T09:44:20Z</time>
      </trkpt>
      <trkpt lat="45.10805" lon="6.07325">
        <ele>1973.9</ele>
        <time>2024-07-10T09:44:21Z</time>
      </trkpt>
      <trkpt lat="45.10805" lon="6.07326">
        <ele>1974</ele>
        <time>2024-07-10T09:44:22Z</time>
      </trkpt>
      <trkpt lat="45.10805" lon="6.07329">
        <ele>1974</ele>
        <time>2024-07-10T09:44:23Z</time>
      </trkpt>
      <trkpt lat="45.10805" lon="6.0733">
        <ele>1974.1</ele>
        <time>2024-07-10T09:44:24Z</time>
      </trkpt>
      <trkpt lat="45.10805" lon="6.07331">
        <ele>1974.1</ele>
        <time>2024-07-10T09:44:25Z</time>
      </trkpt>
      <trkpt lat="45.10805" lon="6.07334">
        <ele>1974.2</ele>
        <time>2024-07-10T09:44:26Z</time>
      </trkpt>
      <trkpt lat="45.10805" lon="6.07335">
        <ele>1974.2</ele>
        <time>2024-07-10T09:44:27Z</time>
      </trkpt>
      <trkpt lat="45.10805" lon="6.07336">
        <ele>1974.3</ele>
        <time>2024-07-10T09:44:28Z</time>
      </trkpt>
      <trkpt lat="45.10805" lon="6.07339">
        <ele>1974.3</ele>
        <time>2024-07-10T09:44:29Z</time>
      </trkpt>
      <trkpt lat="45.10805" lon="6.07341">
        <ele>1974.4</ele>
        <time>2024-07-10T09:44:30Z</time>
      </trkpt>
      <trkpt lat="45.10806" lon="6.07342">
        <ele>1974.4</ele>
        <time>2024-07-10T09:44:31Z</time>
      </trkpt>
      <trkpt lat="45.10806" lon="6.07343">
        <ele>1974.5</ele>
        <time>2024-07-10T09:44:32Z</time>
      </trkpt>
      <trkpt lat="45.10806" lon="6.07345">
        <ele>1974.5</ele>
        <time>2024-07-10T09:44:33Z</time>
      </trkpt>
      <trkpt lat="45.10806" lon="6.07347">
        <ele>1974.6</ele>
        <time>2024-07-10T09:44:34Z</time>
      </trkpt>
      <trkpt lat="45.10806" lon="6.07348">
        <ele>1974.6</ele>
        <time>2024-07-10T09:44:35Z</time>
      </trkpt>
      <trkpt lat="45.10806" lon="6.0735">
        <ele>1974.7</ele>
        <time>2024-07-10T09:44:36Z</time>
      </trkpt>
      <trkpt lat="45.10806" lon="6.07352">
        <ele>1974.7</ele>
        <time>2024-07-10T09:44:37Z</time>
      </trkpt>
      <trkpt lat="45.10806" lon="6.07353">
        <ele>1974.8</ele>
        <time>2024-07-10T09:44:38Z</time>
      </trkpt>
      <trkpt lat="45.10806" lon="6.07355">
        <ele>1974.9</ele>
        <time>2024-07-10T09:44:39Z</time>
      </trkpt>
      <trkpt lat="45.10806" lon="6.07356">
        <ele>1974.9</ele>
        <time>2024-07-10T09:44:40Z</time>
      </trkpt>
      <trkpt lat="45.10806" lon="6.07358">
        <ele>1975</ele>
        <time>2024-07-10T09:44:41Z</time>
      </trkpt>
      <trkpt lat="45.10806" lon="6.07359">
        <ele>1975</ele>
        <time>2024-07-10T09:44:42Z</time>
      </trkpt>
      <trkpt lat="45.10806" lon="6.0736">
        <ele>1975.1</ele>
        <time>2024-07-10T09:44:43Z</time>
      </trkpt>
      <trkpt lat="45.10806" lon="6.07362">
        <ele>1975.1</ele>
        <time>2024-07-10T09:44:44Z</time>
      </trkpt>
      <trkpt lat="45.10806" lon="6.07363">
        <ele>1975.2</ele>
        <time>2024-07-10T09:44:45Z</time>
      </trkpt>
      <trkpt lat="45.10806" lon="6.07365">
        <ele>1975.3</ele>
        <time>2024-07-10T09:44:46Z</time>
      </trkpt>
      <trkpt lat="45.10806" lon="6.07367">
        <ele>1975.3</ele>
        <time>2024-07-10T09:44:47Z</time>
      </trkpt>
      <trkpt lat="45.10806" lon="6.07368">
        <ele>1975.4</ele>
        <time>2024-07-10T09:44:48Z</time>
      </trkpt>
      <trkpt lat="45.10806" lon="6.07371">
        <ele>1975.5</ele>
        <time>2024-07-10T09:44:49Z</time>
      </trkpt>
      <trkpt lat="45.10806" lon="6.07373">
        <ele>1975.5</ele>
        <time>2024-07-10T09:44:50Z</time>
      </trkpt>
      <trkpt lat="45.10806" lon="6.07374">
        <ele>1975.6</ele>
        <time>2024-07-10T09:44:51Z</time>
      </trkpt>
      <trkpt lat="45.10807" lon="6.07375">
        <ele>1975.7</ele>
        <time>2024-07-10T09:44:52Z</time>
      </trkpt>
      <trkpt lat="45.10807" lon="6.07377">
        <ele>1975.7</ele>
        <time>2024-07-10T09:44:53Z</time>
      </trkpt>
      <trkpt lat="45.10807" lon="6.07379">
        <ele>1975.8</ele>
        <time>2024-07-10T09:44:54Z</time>
      </trkpt>
      <trkpt lat="45.10808" lon="6.0738">
        <ele>1975.9</ele>
        <time>2024-07-10T09:44:55Z</time>
      </trkpt>
      <trkpt lat="45.10809" lon="6.07382">
        <ele>1976</ele>
        <time>2024-07-10T09:44:56Z</time>
      </trkpt>
      <trkpt lat="45.1081" lon="6.07384">
        <ele>1976.1</ele>
        <time>2024-07-10T09:44:57Z</time>
      </trkpt>
      <trkpt lat="45.1081" lon="6.07385">
        <ele>1976.1</ele>
        <time>2024-07-10T09:44:58Z</time>
      </trkpt>
      <trkpt lat="45.10811" lon="6.07386">
        <ele>1976.2</ele>
        <time>2024-07-10T09:44:59Z</time>
      </trkpt>
      <trkpt lat="45.10811" lon="6.07388">
        <ele>1976.3</ele>
        <time>2024-07-10T09:45:00Z</time>
      </trkpt>
      <trkpt lat="45.10812" lon="6.07389">
        <ele>1976.3</ele>
        <time>2024-07-10T09:45:01Z</time>
      </trkpt>
      <trkpt lat="45.10814" lon="6.07392">
        <ele>1976.4</ele>
        <time>2024-07-10T09:45:02Z</time>
      </trkpt>
      <trkpt lat="45.10814" lon="6.07392">
        <ele>1976.5</ele>
        <time>2024-07-10T09:45:03Z</time>
      </trkpt>
      <trkpt lat="45.10815" lon="6.07393">
        <ele>1976.5</ele>
        <time>2024-07-10T09:45:04Z</time>
      </trkpt>
      <trkpt lat="45.10816" lon="6.07394">
        <ele>1976.6</ele>
        <time>2024-07-10T09:45:05Z</time>
      </trkpt>
      <trkpt lat="45.10817" lon="6.07396">
        <ele>1976.7</ele>
        <time>2024-07-10T09:45:06Z</time>
      </trkpt>
      <trkpt lat="45.10818" lon="6.07397">
        <ele>1976.7</ele>
        <time>2024-07-10T09:45:07Z</time>
      </trkpt>
      <trkpt lat="45.10819" lon="6.07397">
        <ele>1976.8</ele>
        <time>2024-07-10T09:45:08Z</time>
      </trkpt>
      <trkpt lat="45.1082" lon="6.07398">
        <ele>1976.8</ele>
        <time>2024-07-10T09:45:09Z</time>
      </trkpt>
      <trkpt lat="45.10822" lon="6.074">
        <ele>1976.9</ele>
        <time>2024-07-10T09:45:10Z</time>
      </trkpt>
      <trkpt lat="45.10823" lon="6.074">
        <ele>1977</ele>
        <time>2024-07-10T09:45:11Z</time>
      </trkpt>
      <trkpt lat="45.10824" lon="6.074">
        <ele>1977</ele>
        <time>2024-07-10T09:45:12Z</time>
      </trkpt>
      <trkpt lat="45.10826" lon="6.07401">
        <ele>1977.1</ele>
        <time>2024-07-10T09:45:13Z</time>
      </trkpt>
      <trkpt lat="45.10827" lon="6.07402">
        <ele>1977.1</ele>
        <time>2024-07-10T09:45:14Z</time>
      </trkpt>
      <trkpt lat="45.10828" lon="6.07402">
        <ele>1977.1</ele>
        <time>2024-07-10T09:45:15Z</time>
      </trkpt>
      <trkpt lat="45.1083" lon="6.07402">
        <ele>1977.2</ele>
        <time>2024-07-10T09:45:16Z</time>
      </trkpt>
      <trkpt lat="45.1083" lon="6.07402">
        <ele>1977.2</ele>
        <time>2024-07-10T09:45:17Z</time>
      </trkpt>
      <trkpt lat="45.10833" lon="6.07402">
        <ele>1977.3</ele>
        <time>2024-07-10T09:45:18Z</time>
      </trkpt>
      <trkpt lat="45.10834" lon="6.07402">
        <ele>1977.3</ele>
        <time>2024-07-10T09:45:19Z</time>
      </trkpt>
      <trkpt lat="45.10834" lon="6.07402">
        <ele>1977.4</ele>
        <time>2024-07-10T09:45:20Z</time>
      </trkpt>
      <trkpt lat="45.10837" lon="6.07402">
        <ele>1977.5</ele>
        <time>2024-07-10T09:45:21Z</time>
      </trkpt>
      <trkpt lat="45.10838" lon="6.07402">
        <ele>1977.5</ele>
        <time>2024-07-10T09:45:22Z</time>
      </trkpt>
      <trkpt lat="45.10838" lon="6.07402">
        <ele>1977.5</ele>
        <time>2024-07-10T09:45:23Z</time>
      </trkpt>
      <trkpt lat="45.1084" lon="6.07402">
        <ele>1977.6</ele>
        <time>2024-07-10T09:45:24Z</time>
      </trkpt>
      <trkpt lat="45.10841" lon="6.07402">
        <ele>1977.6</ele>
        <time>2024-07-10T09:45:25Z</time>
      </trkpt>
      <trkpt lat="45.10844" lon="6.07402">
        <ele>1977.7</ele>
        <time>2024-07-10T09:45:26Z</time>
      </trkpt>
      <trkpt lat="45.10844" lon="6.07402">
        <ele>1977.7</ele>
        <time>2024-07-10T09:45:27Z</time>
      </trkpt>
      <trkpt lat="45.10845" lon="6.07402">
        <ele>1977.7</ele>
        <time>2024-07-10T09:45:28Z</time>
      </trkpt>
      <trkpt lat="45.10847" lon="6.07402">
        <ele>1977.8</ele>
        <time>2024-07-10T09:45:29Z</time>
      </trkpt>
      <trkpt lat="45.10849" lon="6.07402">
        <ele>1977.8</ele>
        <time>2024-07-10T09:45:30Z</time>
      </trkpt>
      <trkpt lat="45.1085" lon="6.07402">
        <ele>1977.9</ele>
        <time>2024-07-10T09:45:31Z</time>
      </trkpt>
      <trkpt lat="45.10851" lon="6.07402">
        <ele>1977.9</ele>
        <time>2024-07-10T09:45:32Z</time>
      </trkpt>
      <trkpt lat="45.10852" lon="6.07403">
        <ele>1978</ele>
        <time>2024-07-10T09:45:33Z</time>
      </trkpt>
      <trkpt lat="45.10853" lon="6.07403">
        <ele>1978</ele>
        <time>2024-07-10T09:45:34Z</time>
      </trkpt>
      <trkpt lat="45.10854" lon="6.07404">
        <ele>1978.1</ele>
        <time>2024-07-10T09:45:35Z</time>
      </trkpt>
      <trkpt lat="45.10856" lon="6.07404">
        <ele>1978.1</ele>
        <time>2024-07-10T09:45:36Z</time>
      </trkpt>
      <trkpt lat="45.10857" lon="6.07405">
        <ele>1978.2</ele>
        <time>2024-07-10T09:45:37Z</time>
      </trkpt>
      <trkpt lat="45.10858" lon="6.07406">
        <ele>1978.2</ele>
        <time>2024-07-10T09:45:38Z</time>
      </trkpt>
      <trkpt lat="45.10859" lon="6.07407">
        <ele>1978.3</ele>
        <time>2024-07-10T09:45:39Z</time>
      </trkpt>
      <trkpt lat="45.10859" lon="6.07408">
        <ele>1978.3</ele>
        <time>2024-07-10T09:45:40Z</time>
      </trkpt>
      <trkpt lat="45.10861" lon="6.0741">
        <ele>1978.4</ele>
        <time>2024-07-10T09:45:41Z</time>
      </trkpt>
      <trkpt lat="45.10861" lon="6.07411">
        <ele>1978.5</ele>
        <time>2024-07-10T09:45:42Z</time>
      </trkpt>
      <trkpt lat="45.10862" lon="6.07412">
        <ele>1978.5</ele>
        <time>2024-07-10T09:45:43Z</time>
      </trkpt>
      <trkpt lat="45.10862" lon="6.07413">
        <ele>1978.6</ele>
        <time>2024-07-10T09:45:44Z</time>
      </trkpt>
      <trkpt lat="45.10863" lon="6.07416">
        <ele>1978.7</ele>
        <time>2024-07-10T09:45:45Z</time>
      </trkpt>
      <trkpt lat="45.10863" lon="6.07417">
        <ele>1978.8</ele>
        <time>2024-07-10T09:45:46Z</time>
      </trkpt>
      <trkpt lat="45.10863" lon="6.07419">
        <ele>1978.8</ele>
        <time>2024-07-10T09:45:47Z</time>
      </trkpt>
      <trkpt lat="45.10863" lon="6.07422">
        <ele>1979</ele>
        <time>2024-07-10T09:45:48Z</time>
      </trkpt>
      <trkpt lat="45.10863" lon="6.07423">
        <ele>1979</ele>
        <time>2024-07-10T09:45:49Z</time>
      </trkpt>
      <trkpt lat="45.10863" lon="6.07424">
        <ele>1979.1</ele>
        <time>2024-07-10T09:45:50Z</time>
      </trkpt>
      <trkpt lat="45.10862" lon="6.07427">
        <ele>1979.2</ele>
        <time>2024-07-10T09:45:51Z</time>
      </trkpt>
      <trkpt lat="45.10862" lon="6.07428">
        <ele>1979.3</ele>
        <time>2024-07-10T09:45:52Z</time>
      </trkpt>
      <trkpt lat="45.10862" lon="6.0743">
        <ele>1979.4</ele>
        <time>2024-07-10T09:45:53Z</time>
      </trkpt>
      <trkpt lat="45.10861" lon="6.07432">
        <ele>1979.5</ele>
        <time>2024-07-10T09:45:54Z</time>
      </trkpt>
      <trkpt lat="45.1086" lon="6.07434">
        <ele>1979.7</ele>
        <time>2024-07-10T09:45:55Z</time>
      </trkpt>
      <trkpt lat="45.1086" lon="6.07435">
        <ele>1979.7</ele>
        <time>2024-07-10T09:45:56Z</time>
      </trkpt>
      <trkpt lat="45.10859" lon="6.07436">
        <ele>1979.8</ele>
        <time>2024-07-10T09:45:57Z</time>
      </trkpt>
      <trkpt lat="45.10858" lon="6.07439">
        <ele>1979.9</ele>
        <time>2024-07-10T09:45:58Z</time>
      </trkpt>
      <trkpt lat="45.10858" lon="6.0744">
        <ele>1980</ele>
        <time>2024-07-10T09:45:59Z</time>
      </trkpt>
      <trkpt lat="45.10858" lon="6.07441">
        <ele>1980.1</ele>
        <time>2024-07-10T09:46:00Z</time>
      </trkpt>
      <trkpt lat="45.10857" lon="6.07444">
        <ele>1980.2</ele>
        <time>2024-07-10T09:46:01Z</time>
      </trkpt>
      <trkpt lat="45.10857" lon="6.07445">
        <ele>1980.3</ele>
        <time>2024-07-10T09:46:02Z</time>
      </trkpt>
      <trkpt lat="45.10857" lon="6.07446">
        <ele>1980.4</ele>
        <time>2024-07-10T09:46:03Z</time>
      </trkpt>
      <trkpt lat="45.10856" lon="6.07449">
        <ele>1980.5</ele>
        <time>2024-07-10T09:46:04Z</time>
      </trkpt>
      <trkpt lat="45.10856" lon="6.07451">
        <ele>1980.6</ele>
        <time>2024-07-10T09:46:05Z</time>
      </trkpt>
      <trkpt lat="45.10856" lon="6.07452">
        <ele>1980.7</ele>
        <time>2024-07-10T09:46:06Z</time>
      </trkpt>
      <trkpt lat="45.10856" lon="6.07455">
        <ele>1980.8</ele>
        <time>2024-07-10T09:46:07Z</time>
      </trkpt>
      <trkpt lat="45.10855" lon="6.07456">
        <ele>1980.9</ele>
        <time>2024-07-10T09:46:08Z</time>
      </trkpt>
      <trkpt lat="45.10855" lon="6.07457">
        <ele>1981</ele>
        <time>2024-07-10T09:46:09Z</time>
      </trkpt>
      <trkpt lat="45.10855" lon="6.0746">
        <ele>1981.1</ele>
        <time>2024-07-10T09:46:10Z</time>
      </trkpt>
      <trkpt lat="45.10855" lon="6.07461">
        <ele>1981.2</ele>
        <time>2024-07-10T09:46:11Z</time>
      </trkpt>
      <trkpt lat="45.10854" lon="6.07462">
        <ele>1981.2</ele>
        <time>2024-07-10T09:46:12Z</time>
      </trkpt>
      <trkpt lat="45.10854" lon="6.07465">
        <ele>1981.4</ele>
        <time>2024-07-10T09:46:13Z</time>
      </trkpt>
      <trkpt lat="45.10854" lon="6.07466">
        <ele>1981.5</ele>
        <time>2024-07-10T09:46:14Z</time>
      </trkpt>
      <trkpt lat="45.10853" lon="6.07467">
        <ele>1981.5</ele>
        <time>2024-07-10T09:46:15Z</time>
      </trkpt>
      <trkpt lat="45.10853" lon="6.0747">
        <ele>1981.7</ele>
        <time>2024-07-10T09:46:16Z</time>
      </trkpt>
      <trkpt lat="45.10853" lon="6.07471">
        <ele>1981.7</ele>
        <time>2024-07-10T09:46:17Z</time>
      </trkpt>
      <trkpt lat="45.10853" lon="6.07472">
        <ele>1981.8</ele>
        <time>2024-07-10T09:46:18Z</time>
      </trkpt>
      <trkpt lat="45.10853" lon="6.07475">
        <ele>1982</ele>
        <time>2024-07-10T09:46:19Z</time>
      </trkpt>
      <trkpt lat="45.10853" lon="6.07477">
        <ele>1982</ele>
        <time>2024-07-10T09:46:20Z</time>
      </trkpt>
      <trkpt lat="45.10852" lon="6.07478">
        <ele>1982.1</ele>
        <time>2024-07-10T09:46:21Z</time>
      </trkpt>
      <trkpt lat="45.10852" lon="6.0748">
        <ele>1982.2</ele>
        <time>2024-07-10T09:46:22Z</time>
      </trkpt>
      <trkpt lat="45.10852" lon="6.07481">
        <ele>1982.2</ele>
        <time>2024-07-10T09:46:23Z</time>
      </trkpt>
      <trkpt lat="45.10852" lon="6.07483">
        <ele>1982.3</ele>
        <time>2024-07-10T09:46:24Z</time>
      </trkpt>
      <trkpt lat="45.10852" lon="6.07486">
        <ele>1982.5</ele>
        <time>2024-07-10T09:46:25Z</time>
      </trkpt>
      <trkpt lat="45.10852" lon="6.07487">
        <ele>1982.5</ele>
        <time>2024-07-10T09:46:26Z</time>
      </trkpt>
      <trkpt lat="45.10851" lon="6.07488">
        <ele>1982.6</ele>
        <time>2024-07-10T09:46:27Z</time>
      </trkpt>
      <trkpt lat="45.10851" lon="6.07491">
        <ele>1982.7</ele>
        <time>2024-07-10T09:46:28Z</time>
      </trkpt>
      <trkpt lat="45.10851" lon="6.07492">
        <ele>1982.8</ele>
        <time>2024-07-10T09:46:29Z</time>
      </trkpt>
      <trkpt lat="45.1085" lon="6.07493">
        <ele>1982.8</ele>
        <time>2024-07-10T09:46:30Z</time>
      </trkpt>
      <trkpt lat="45.1085" lon="6.07495">
        <ele>1982.9</ele>
        <time>2024-07-10T09:46:31Z</time>
      </trkpt>
      <trkpt lat="45.10849" lon="6.07497">
        <ele>1983</ele>
        <time>2024-07-10T09:46:32Z</time>
      </trkpt>
      <trkpt lat="45.10849" lon="6.07498">
        <ele>1983</ele>
        <time>2024-07-10T09:46:33Z</time>
      </trkpt>
      <trkpt lat="45.10848" lon="6.07501">
        <ele>1983.2</ele>
        <time>2024-07-10T09:46:34Z</time>
      </trkpt>
      <trkpt lat="45.10848" lon="6.07502">
        <ele>1983.2</ele>
        <time>2024-07-10T09:46:35Z</time>
      </trkpt>
      <trkpt lat="45.10848" lon="6.07503">
        <ele>1983.3</ele>
        <time>2024-07-10T09:46:36Z</time>
      </trkpt>
      <trkpt lat="45.10847" lon="6.07506">
        <ele>1983.4</ele>
        <time>2024-07-10T09:46:37Z</time>
      </trkpt>
      <trkpt lat="45.10847" lon="6.07507">
        <ele>1983.5</ele>
        <time>2024-07-10T09:46:38Z</time>
      </trkpt>
      <trkpt lat="45.10846" lon="6.07508">
        <ele>1983.5</ele>
        <time>2024-07-10T09:46:39Z</time>
      </trkpt>
      <trkpt lat="45.10846" lon="6.07509">
        <ele>1983.6</ele>
        <time>2024-07-10T09:46:40Z</time>
      </trkpt>
      <trkpt lat="45.10845" lon="6.07511">
        <ele>1983.7</ele>
        <time>2024-07-10T09:46:41Z</time>
      </trkpt>
      <trkpt lat="45.10845" lon="6.07513">
        <ele>1983.8</ele>
        <time>2024-07-10T09:46:42Z</time>
      </trkpt>
      <trkpt lat="45.10845" lon="6.07514">
        <ele>1983.8</ele>
        <time>2024-07-10T09:46:43Z</time>
      </trkpt>
      <trkpt lat="45.10844" lon="6.07515">
        <ele>1983.9</ele>
        <time>2024-07-10T09:46:44Z</time>
      </trkpt>
      <trkpt lat="45.10844" lon="6.07517">
        <ele>1984</ele>
        <time>2024-07-10T09:46:45Z</time>
      </trkpt>
      <trkpt lat="45.10844" lon="6.0752">
        <ele>1984.1</ele>
        <time>2024-07-10T09:46:46Z</time>
      </trkpt>
      <trkpt lat="45.10844" lon="6.07521">
        <ele>1984.2</ele>
        <time>2024-07-10T09:46:47Z</time>
      </trkpt>
      <trkpt lat="45.10844" lon="6.07522">
        <ele>1984.3</ele>
        <time>2024-07-10T09:46:48Z</time>
      </trkpt>
      <trkpt lat="45.10843" lon="6.07524">
        <ele>1984.3</ele>
        <time>2024-07-10T09:46:49Z</time>
      </trkpt>
      <trkpt lat="45.10843" lon="6.07526">
        <ele>1984.4</ele>
        <time>2024-07-10T09:46:50Z</time>
      </trkpt>
      <trkpt lat="45.10843" lon="6.07527">
        <ele>1984.5</ele>
        <time>2024-07-10T09:46:51Z</time>
      </trkpt>
      <trkpt lat="45.10842" lon="6.07529">
        <ele>1984.6</ele>
        <time>2024-07-10T09:46:52Z</time>
      </trkpt>
      <trkpt lat="45.10842" lon="6.0753">
        <ele>1984.7</ele>
        <time>2024-07-10T09:46:53Z</time>
      </trkpt>
      <trkpt lat="45.10842" lon="6.07532">
        <ele>1984.8</ele>
        <time>2024-07-10T09:46:54Z</time>
      </trkpt>
      <trkpt lat="45.10841" lon="6.07534">
        <ele>1984.9</ele>
        <time>2024-07-10T09:46:55Z</time>
      </trkpt>
      <trkpt lat="45.1084" lon="6.07535">
        <ele>1985</ele>
        <time>2024-07-10T09:46:56Z</time>
      </trkpt>
      <trkpt lat="45.1084" lon="6.07536">
        <ele>1985</ele>
        <time>2024-07-10T09:46:57Z</time>
      </trkpt>
      <trkpt lat="45.1084" lon="6.07538">
        <ele>1985.1</ele>
        <time>2024-07-10T09:46:58Z</time>
      </trkpt>
      <trkpt lat="45.1084" lon="6.07539">
        <ele>1985.2</ele>
        <time>2024-07-10T09:46:59Z</time>
      </trkpt>
      <trkpt lat="45.10839" lon="6.07541">
        <ele>1985.3</ele>
        <time>2024-07-10T09:47:00Z</time>
      </trkpt>
      <trkpt lat="45.10839" lon="6.07543">
        <ele>1985.4</ele>
        <time>2024-07-10T09:47:01Z</time>
      </trkpt>
      <trkpt lat="45.10839" lon="6.07545">
        <ele>1985.5</ele>
        <time>2024-07-10T09:47:02Z</time>
      </trkpt>
      <trkpt lat="45.10838" lon="6.07546">
        <ele>1985.6</ele>
        <time>2024-07-10T09:47:03Z</time>
      </trkpt>
      <trkpt lat="45.10838" lon="6.07549">
        <ele>1985.7</ele>
        <time>2024-07-10T09:47:04Z</time>
      </trkpt>
      <trkpt lat="45.10837" lon="6.0755">
        <ele>1985.8</ele>
        <time>2024-07-10T09:47:05Z</time>
      </trkpt>
      <trkpt lat="45.10837" lon="6.07551">
        <ele>1985.9</ele>
        <time>2024-07-10T09:47:06Z</time>
      </trkpt>
      <trkpt lat="45.10837" lon="6.07553">
        <ele>1986</ele>
        <time>2024-07-10T09:47:07Z</time>
      </trkpt>
      <trkpt lat="45.10836" lon="6.07555">
        <ele>1986.1</ele>
        <time>2024-07-10T09:47:08Z</time>
      </trkpt>
      <trkpt lat="45.10835" lon="6.07557">
        <ele>1986.2</ele>
        <time>2024-07-10T09:47:09Z</time>
      </trkpt>
      <trkpt lat="45.10834" lon="6.07558">
        <ele>1986.3</ele>
        <time>2024-07-10T09:47:10Z</time>
      </trkpt>
      <trkpt lat="45.10834" lon="6.0756">
        <ele>1986.4</ele>
        <time>2024-07-10T09:47:11Z</time>
      </trkpt>
      <trkpt lat="45.10833" lon="6.07562">
        <ele>1986.6</ele>
        <time>2024-07-10T09:47:12Z</time>
      </trkpt>
      <trkpt lat="45.10832" lon="6.07564">
        <ele>1986.7</ele>
        <time>2024-07-10T09:47:13Z</time>
      </trkpt>
      <trkpt lat="45.10832" lon="6.07566">
        <ele>1986.8</ele>
        <time>2024-07-10T09:47:14Z</time>
      </trkpt>
      <trkpt lat="45.10831" lon="6.07569">
        <ele>1987</ele>
        <time>2024-07-10T09:47:15Z</time>
      </trkpt>
      <trkpt lat="45.10831" lon="6.0757">
        <ele>1987.1</ele>
        <time>2024-07-10T09:47:16Z</time>
      </trkpt>
      <trkpt lat="45.1083" lon="6.07571">
        <ele>1987.2</ele>
        <time>2024-07-10T09:47:17Z</time>
      </trkpt>
      <trkpt lat="45.1083" lon="6.07573">
        <ele>1987.3</ele>
        <time>2024-07-10T09:47:18Z</time>
      </trkpt>
      <trkpt lat="45.10829" lon="6.07573">
        <ele>1987.3</ele>
        <time>2024-07-10T09:47:19Z</time>
      </trkpt>
      <trkpt lat="45.10829" lon="6.07574">
        <ele>1987.4</ele>
        <time>2024-07-10T09:47:20Z</time>
      </trkpt>
      <trkpt lat="45.10829" lon="6.07576">
        <ele>1987.5</ele>
        <time>2024-07-10T09:47:21Z</time>
      </trkpt>
      <trkpt lat="45.10828" lon="6.07577">
        <ele>1987.5</ele>
        <time>2024-07-10T09:47:22Z</time>
      </trkpt>
      <trkpt lat="45.10828" lon="6.07578">
        <ele>1987.6</ele>
        <time>2024-07-10T09:47:23Z</time>
      </trkpt>
      <trkpt lat="45.10828" lon="6.07579">
        <ele>1987.7</ele>
        <time>2024-07-10T09:47:24Z</time>
      </trkpt>
      <trkpt lat="45.10828" lon="6.0758">
        <ele>1987.8</ele>
        <time>2024-07-10T09:47:25Z</time>
      </trkpt>
      <trkpt lat="45.10827" lon="6.07581">
        <ele>1987.8</ele>
        <time>2024-07-10T09:47:26Z</time>
      </trkpt>
      <trkpt lat="45.10827" lon="6.07583">
        <ele>1987.9</ele>
        <time>2024-07-10T09:47:27Z</time>
      </trkpt>
      <trkpt lat="45.10825" lon="6.07585">
        <ele>1988.1</ele>
        <time>2024-07-10T09:47:28Z</time>
      </trkpt>
      <trkpt lat="45.10825" lon="6.07587">
        <ele>1988.2</ele>
        <time>2024-07-10T09:47:30Z</time>
      </trkpt>
      <trkpt lat="45.10824" lon="6.07588">
        <ele>1988.3</ele>
        <time>2024-07-10T09:47:31Z</time>
      </trkpt>
      <trkpt lat="45.10823" lon="6.0759">
        <ele>1988.5</ele>
        <time>2024-07-10T09:47:32Z</time>
      </trkpt>
      <trkpt lat="45.10822" lon="6.07592">
        <ele>1988.6</ele>
        <time>2024-07-10T09:47:33Z</time>
      </trkpt>
      <trkpt lat="45.10822" lon="6.07593">
        <ele>1988.7</ele>
        <time>2024-07-10T09:47:34Z</time>
      </trkpt>
      <trkpt lat="45.10821" lon="6.07595">
        <ele>1988.9</ele>
        <time>2024-07-10T09:47:35Z</time>
      </trkpt>
      <trkpt lat="45.1082" lon="6.07597">
        <ele>1989</ele>
        <time>2024-07-10T09:47:36Z</time>
      </trkpt>
      <trkpt lat="45.1082" lon="6.07599">
        <ele>1989.1</ele>
        <time>2024-07-10T09:47:37Z</time>
      </trkpt>
      <trkpt lat="45.10819" lon="6.07602">
        <ele>1989.3</ele>
        <time>2024-07-10T09:47:38Z</time>
      </trkpt>
      <trkpt lat="45.10818" lon="6.07603">
        <ele>1989.4</ele>
        <time>2024-07-10T09:47:39Z</time>
      </trkpt>
      <trkpt lat="45.10818" lon="6.07604">
        <ele>1989.5</ele>
        <time>2024-07-10T09:47:40Z</time>
      </trkpt>
      <trkpt lat="45.10817" lon="6.07607">
        <ele>1989.7</ele>
        <time>2024-07-10T09:47:41Z</time>
      </trkpt>
      <trkpt lat="45.10816" lon="6.07608">
        <ele>1989.7</ele>
        <time>2024-07-10T09:47:42Z</time>
      </trkpt>
      <trkpt lat="45.10816" lon="6.07609">
        <ele>1989.8</ele>
        <time>2024-07-10T09:47:43Z</time>
      </trkpt>
      <trkpt lat="45.10815" lon="6.07611">
        <ele>1990</ele>
        <time>2024-07-10T09:47:44Z</time>
      </trkpt>
      <trkpt lat="45.10814" lon="6.07612">
        <ele>1990</ele>
        <time>2024-07-10T09:47:45Z</time>
      </trkpt>
      <trkpt lat="45.10814" lon="6.07613">
        <ele>1990.1</ele>
        <time>2024-07-10T09:47:46Z</time>
      </trkpt>
      <trkpt lat="45.10813" lon="6.07615">
        <ele>1990.2</ele>
        <time>2024-07-10T09:47:47Z</time>
      </trkpt>
      <trkpt lat="45.10813" lon="6.07616">
        <ele>1990.3</ele>
        <time>2024-07-10T09:47:48Z</time>
      </trkpt>
      <trkpt lat="45.10812" lon="6.07617">
        <ele>1990.4</ele>
        <time>2024-07-10T09:47:49Z</time>
      </trkpt>
      <trkpt lat="45.1081" lon="6.07619">
        <ele>1990.6</ele>
        <time>2024-07-10T09:47:50Z</time>
      </trkpt>
      <trkpt lat="45.10809" lon="6.0762">
        <ele>1990.6</ele>
        <time>2024-07-10T09:47:51Z</time>
      </trkpt>
      <trkpt lat="45.10809" lon="6.07621">
        <ele>1990.7</ele>
        <time>2024-07-10T09:47:52Z</time>
      </trkpt>
      <trkpt lat="45.10808" lon="6.07622">
        <ele>1990.8</ele>
        <time>2024-07-10T09:47:53Z</time>
      </trkpt>
      <trkpt lat="45.10807" lon="6.07623">
        <ele>1990.9</ele>
        <time>2024-07-10T09:47:54Z</time>
      </trkpt>
      <trkpt lat="45.10806" lon="6.07624">
        <ele>1990.9</ele>
        <time>2024-07-10T09:47:55Z</time>
      </trkpt>
      <trkpt lat="45.10806" lon="6.07626">
        <ele>1991</ele>
        <time>2024-07-10T09:47:56Z</time>
      </trkpt>
      <trkpt lat="45.10805" lon="6.07627">
        <ele>1991.1</ele>
        <time>2024-07-10T09:47:57Z</time>
      </trkpt>
      <trkpt lat="45.10804" lon="6.07628">
        <ele>1991.2</ele>
        <time>2024-07-10T09:47:58Z</time>
      </trkpt>
      <trkpt lat="45.10803" lon="6.07629">
        <ele>1991.3</ele>
        <time>2024-07-10T09:47:59Z</time>
      </trkpt>
      <trkpt lat="45.10803" lon="6.0763">
        <ele>1991.3</ele>
        <time>2024-07-10T09:48:00Z</time>
      </trkpt>
      <trkpt lat="45.10802" lon="6.07631">
        <ele>1991.4</ele>
        <time>2024-07-10T09:48:01Z</time>
      </trkpt>
      <trkpt lat="45.10801" lon="6.07632">
        <ele>1991.4</ele>
        <time>2024-07-10T09:48:02Z</time>
      </trkpt>
      <trkpt lat="45.10801" lon="6.07633">
        <ele>1991.5</ele>
        <time>2024-07-10T09:48:03Z</time>
      </trkpt>
      <trkpt lat="45.108" lon="6.07634">
        <ele>1991.6</ele>
        <time>2024-07-10T09:48:04Z</time>
      </trkpt>
      <trkpt lat="45.10798" lon="6.07636">
        <ele>1991.7</ele>
        <time>2024-07-10T09:48:05Z</time>
      </trkpt>
      <trkpt lat="45.10798" lon="6.07637">
        <ele>1991.8</ele>
        <time>2024-07-10T09:48:06Z</time>
      </trkpt>
      <trkpt lat="45.10797" lon="6.07638">
        <ele>1991.8</ele>
        <time>2024-07-10T09:48:07Z</time>
      </trkpt>
      <trkpt lat="45.10797" lon="6.07639">
        <ele>1991.9</ele>
        <time>2024-07-10T09:48:08Z</time>
      </trkpt>
      <trkpt lat="45.10796" lon="6.07641">
        <ele>1991.9</ele>
        <time>2024-07-10T09:48:09Z</time>
      </trkpt>
      <trkpt lat="45.10795" lon="6.07642">
        <ele>1992</ele>
        <time>2024-07-10T09:48:10Z</time>
      </trkpt>
      <trkpt lat="45.10794" lon="6.07643">
        <ele>1992.1</ele>
        <time>2024-07-10T09:48:11Z</time>
      </trkpt>
      <trkpt lat="45.10793" lon="6.07645">
        <ele>1992.2</ele>
        <time>2024-07-10T09:48:12Z</time>
      </trkpt>
      <trkpt lat="45.10792" lon="6.07647">
        <ele>1992.3</ele>
        <time>2024-07-10T09:48:13Z</time>
      </trkpt>
      <trkpt lat="45.10792" lon="6.07648">
        <ele>1992.3</ele>
        <time>2024-07-10T09:48:14Z</time>
      </trkpt>
      <trkpt lat="45.10791" lon="6.07649">
        <ele>1992.3</ele>
        <time>2024-07-10T09:48:15Z</time>
      </trkpt>
      <trkpt lat="45.10791" lon="6.0765">
        <ele>1992.4</ele>
        <time>2024-07-10T09:48:16Z</time>
      </trkpt>
      <trkpt lat="45.1079" lon="6.07652">
        <ele>1992.4</ele>
        <time>2024-07-10T09:48:17Z</time>
      </trkpt>
      <trkpt lat="45.10789" lon="6.07653">
        <ele>1992.5</ele>
        <time>2024-07-10T09:48:18Z</time>
      </trkpt>
      <trkpt lat="45.10788" lon="6.07655">
        <ele>1992.6</ele>
        <time>2024-07-10T09:48:19Z</time>
      </trkpt>
      <trkpt lat="45.10787" lon="6.07656">
        <ele>1992.6</ele>
        <time>2024-07-10T09:48:20Z</time>
      </trkpt>
      <trkpt lat="45.10787" lon="6.07657">
        <ele>1992.7</ele>
        <time>2024-07-10T09:48:21Z</time>
      </trkpt>
      <trkpt lat="45.10785" lon="6.07659">
        <ele>1992.8</ele>
        <time>2024-07-10T09:48:22Z</time>
      </trkpt>
      <trkpt lat="45.10784" lon="6.07659">
        <ele>1992.8</ele>
        <time>2024-07-10T09:48:23Z</time>
      </trkpt>
      <trkpt lat="45.10784" lon="6.0766">
        <ele>1992.8</ele>
        <time>2024-07-10T09:48:24Z</time>
      </trkpt>
      <trkpt lat="45.10782" lon="6.07662">
        <ele>1992.9</ele>
        <time>2024-07-10T09:48:25Z</time>
      </trkpt>
      <trkpt lat="45.10781" lon="6.07663">
        <ele>1993</ele>
        <time>2024-07-10T09:48:26Z</time>
      </trkpt>
      <trkpt lat="45.10781" lon="6.07664">
        <ele>1993</ele>
        <time>2024-07-10T09:48:27Z</time>
      </trkpt>
      <trkpt lat="45.10779" lon="6.07666">
        <ele>1993.1</ele>
        <time>2024-07-10T09:48:28Z</time>
      </trkpt>
      <trkpt lat="45.10779" lon="6.07666">
        <ele>1993.1</ele>
        <time>2024-07-10T09:48:29Z</time>
      </trkpt>
      <trkpt lat="45.10778" lon="6.07667">
        <ele>1993.2</ele>
        <time>2024-07-10T09:48:30Z</time>
      </trkpt>
      <trkpt lat="45.10777" lon="6.07669">
        <ele>1993.2</ele>
        <time>2024-07-10T09:48:31Z</time>
      </trkpt>
      <trkpt lat="45.10776" lon="6.0767">
        <ele>1993.3</ele>
        <time>2024-07-10T09:48:32Z</time>
      </trkpt>
      <trkpt lat="45.10775" lon="6.07671">
        <ele>1993.3</ele>
        <time>2024-07-10T09:48:33Z</time>
      </trkpt>
      <trkpt lat="45.10774" lon="6.07672">
        <ele>1993.4</ele>
        <time>2024-07-10T09:48:34Z</time>
      </trkpt>
      <trkpt lat="45.10773" lon="6.07673">
        <ele>1993.4</ele>
        <time>2024-07-10T09:48:35Z</time>
      </trkpt>
      <trkpt lat="45.10772" lon="6.07674">
        <ele>1993.5</ele>
        <time>2024-07-10T09:48:36Z</time>
      </trkpt>
      <trkpt lat="45.10771" lon="6.07675">
        <ele>1993.6</ele>
        <time>2024-07-10T09:48:37Z</time>
      </trkpt>
      <trkpt lat="45.1077" lon="6.07677">
        <ele>1993.6</ele>
        <time>2024-07-10T09:48:38Z</time>
      </trkpt>
      <trkpt lat="45.10769" lon="6.07679">
        <ele>1993.7</ele>
        <time>2024-07-10T09:48:39Z</time>
      </trkpt>
      <trkpt lat="45.10768" lon="6.0768">
        <ele>1993.8</ele>
        <time>2024-07-10T09:48:40Z</time>
      </trkpt>
      <trkpt lat="45.10768" lon="6.07681">
        <ele>1993.8</ele>
        <time>2024-07-10T09:48:41Z</time>
      </trkpt>
      <trkpt lat="45.10767" lon="6.07682">
        <ele>1993.9</ele>
        <time>2024-07-10T09:48:42Z</time>
      </trkpt>
      <trkpt lat="45.10767" lon="6.07684">
        <ele>1993.9</ele>
        <time>2024-07-10T09:48:43Z</time>
      </trkpt>
      <trkpt lat="45.10767" lon="6.07685">
        <ele>1994</ele>
        <time>2024-07-10T09:48:44Z</time>
      </trkpt>
      <trkpt lat="45.10766" lon="6.07686">
        <ele>1994</ele>
        <time>2024-07-10T09:48:45Z</time>
      </trkpt>
      <trkpt lat="45.10765" lon="6.07688">
        <ele>1994.1</ele>
        <time>2024-07-10T09:48:46Z</time>
      </trkpt>
      <trkpt lat="45.10764" lon="6.07689">
        <ele>1994.2</ele>
        <time>2024-07-10T09:48:47Z</time>
      </trkpt>
      <trkpt lat="45.10764" lon="6.0769">
        <ele>1994.2</ele>
        <time>2024-07-10T09:48:48Z</time>
      </trkpt>
      <trkpt lat="45.10763" lon="6.07692">
        <ele>1994.3</ele>
        <time>2024-07-10T09:48:49Z</time>
      </trkpt>
      <trkpt lat="45.10762" lon="6.07693">
        <ele>1994.3</ele>
        <time>2024-07-10T09:48:50Z</time>
      </trkpt>
      <trkpt lat="45.10762" lon="6.07695">
        <ele>1994.4</ele>
        <time>2024-07-10T09:48:51Z</time>
      </trkpt>
      <trkpt lat="45.10761" lon="6.07698">
        <ele>1994.5</ele>
        <time>2024-07-10T09:48:52Z</time>
      </trkpt>
      <trkpt lat="45.10761" lon="6.07699">
        <ele>1994.5</ele>
        <time>2024-07-10T09:48:53Z</time>
      </trkpt>
      <trkpt lat="45.1076" lon="6.077">
        <ele>1994.6</ele>
        <time>2024-07-10T09:48:54Z</time>
      </trkpt>
      <trkpt lat="45.10759" lon="6.07702">
        <ele>1994.7</ele>
        <time>2024-07-10T09:48:55Z</time>
      </trkpt>
      <trkpt lat="45.10758" lon="6.07703">
        <ele>1994.7</ele>
        <time>2024-07-10T09:48:56Z</time>
      </trkpt>
      <trkpt lat="45.10758" lon="6.07704">
        <ele>1994.8</ele>
        <time>2024-07-10T09:48:57Z</time>
      </trkpt>
      <trkpt lat="45.10757" lon="6.07705">
        <ele>1994.9</ele>
        <time>2024-07-10T09:48:58Z</time>
      </trkpt>
      <trkpt lat="45.10756" lon="6.07706">
        <ele>1994.9</ele>
        <time>2024-07-10T09:48:59Z</time>
      </trkpt>
      <trkpt lat="45.10755" lon="6.07707">
        <ele>1995</ele>
        <time>2024-07-10T09:49:00Z</time>
      </trkpt>
      <trkpt lat="45.10754" lon="6.07707">
        <ele>1995.1</ele>
        <time>2024-07-10T09:49:01Z</time>
      </trkpt>
      <trkpt lat="45.10753" lon="6.07709">
        <ele>1995.1</ele>
        <time>2024-07-10T09:49:02Z</time>
      </trkpt>
      <trkpt lat="45.10752" lon="6.07709">
        <ele>1995.2</ele>
        <time>2024-07-10T09:49:03Z</time>
      </trkpt>
      <trkpt lat="45.10751" lon="6.0771">
        <ele>1995.3</ele>
        <time>2024-07-10T09:49:04Z</time>
      </trkpt>
      <trkpt lat="45.1075" lon="6.07712">
        <ele>1995.3</ele>
        <time>2024-07-10T09:49:05Z</time>
      </trkpt>
      <trkpt lat="45.10749" lon="6.07712">
        <ele>1995.4</ele>
        <time>2024-07-10T09:49:06Z</time>
      </trkpt>
      <trkpt lat="45.10748" lon="6.07713">
        <ele>1995.5</ele>
        <time>2024-07-10T09:49:07Z</time>
      </trkpt>
      <trkpt lat="45.10747" lon="6.07714">
        <ele>1995.5</ele>
        <time>2024-07-10T09:49:08Z</time>
      </trkpt>
      <trkpt lat="45.10746" lon="6.07716">
        <ele>1995.6</ele>
        <time>2024-07-10T09:49:09Z</time>
      </trkpt>
      <trkpt lat="45.10745" lon="6.07716">
        <ele>1995.7</ele>
        <time>2024-07-10T09:49:10Z</time>
      </trkpt>
      <trkpt lat="45.10744" lon="6.07717">
        <ele>1995.7</ele>
        <time>2024-07-10T09:49:11Z</time>
      </trkpt>
      <trkpt lat="45.10742" lon="6.07719">
        <ele>1995.8</ele>
        <time>2024-07-10T09:49:12Z</time>
      </trkpt>
      <trkpt lat="45.10742" lon="6.07719">
        <ele>1995.9</ele>
        <time>2024-07-10T09:49:13Z</time>
      </trkpt>
      <trkpt lat="45.10741" lon="6.0772">
        <ele>1995.9</ele>
        <time>2024-07-10T09:49:14Z</time>
      </trkpt>
      <trkpt lat="45.1074" lon="6.07722">
        <ele>1996</ele>
        <time>2024-07-10T09:49:15Z</time>
      </trkpt>
      <trkpt lat="45.10739" lon="6.07723">
        <ele>1996.1</ele>
        <time>2024-07-10T09:49:16Z</time>
      </trkpt>
      <trkpt lat="45.10738" lon="6.07723">
        <ele>1996.1</ele>
        <time>2024-07-10T09:49:17Z</time>
      </trkpt>
      <trkpt lat="45.10736" lon="6.07725">
        <ele>1996.2</ele>
        <time>2024-07-10T09:49:18Z</time>
      </trkpt>
      <trkpt lat="45.10736" lon="6.07726">
        <ele>1996.3</ele>
        <time>2024-07-10T09:49:19Z</time>
      </trkpt>
      <trkpt lat="45.10735" lon="6.07726">
        <ele>1996.3</ele>
        <time>2024-07-10T09:49:20Z</time>
      </trkpt>
      <trkpt lat="45.10734" lon="6.07727">
        <ele>1996.3</ele>
        <time>2024-07-10T09:49:21Z</time>
      </trkpt>
      <trkpt lat="45.10733" lon="6.07728">
        <ele>1996.4</ele>
        <time>2024-07-10T09:49:22Z</time>
      </trkpt>
      <trkpt lat="45.10732" lon="6.07729">
        <ele>1996.5</ele>
        <time>2024-07-10T09:49:23Z</time>
      </trkpt>
      <trkpt lat="45.10731" lon="6.0773">
        <ele>1996.5</ele>
        <time>2024-07-10T09:49:24Z</time>
      </trkpt>
      <trkpt lat="45.1073" lon="6.07731">
        <ele>1996.6</ele>
        <time>2024-07-10T09:49:25Z</time>
      </trkpt>
      <trkpt lat="45.10729" lon="6.07732">
        <ele>1996.7</ele>
        <time>2024-07-10T09:49:26Z</time>
      </trkpt>
      <trkpt lat="45.10728" lon="6.07733">
        <ele>1996.7</ele>
        <time>2024-07-10T09:49:27Z</time>
      </trkpt>
      <trkpt lat="45.10727" lon="6.07734">
        <ele>1996.8</ele>
        <time>2024-07-10T09:49:28Z</time>
      </trkpt>
      <trkpt lat="45.10726" lon="6.07735">
        <ele>1996.9</ele>
        <time>2024-07-10T09:49:29Z</time>
      </trkpt>
      <trkpt lat="45.10724" lon="6.07735">
        <ele>1997</ele>
        <time>2024-07-10T09:49:30Z</time>
      </trkpt>
      <trkpt lat="45.10723" lon="6.07737">
        <ele>1997.1</ele>
        <time>2024-07-10T09:49:31Z</time>
      </trkpt>
      <trkpt lat="45.10722" lon="6.07737">
        <ele>1997.1</ele>
        <time>2024-07-10T09:49:32Z</time>
      </trkpt>
      <trkpt lat="45.10721" lon="6.07737">
        <ele>1997.2</ele>
        <time>2024-07-10T09:49:33Z</time>
      </trkpt>
      <trkpt lat="45.1072" lon="6.07738">
        <ele>1997.2</ele>
        <time>2024-07-10T09:49:34Z</time>
      </trkpt>
      <trkpt lat="45.10719" lon="6.07739">
        <ele>1997.3</ele>
        <time>2024-07-10T09:49:35Z</time>
      </trkpt>
      <trkpt lat="45.10718" lon="6.07739">
        <ele>1997.4</ele>
        <time>2024-07-10T09:49:36Z</time>
      </trkpt>
      <trkpt lat="45.10717" lon="6.0774">
        <ele>1997.4</ele>
        <time>2024-07-10T09:49:37Z</time>
      </trkpt>
      <trkpt lat="45.10716" lon="6.0774">
        <ele>1997.5</ele>
        <time>2024-07-10T09:49:38Z</time>
      </trkpt>
      <trkpt lat="45.10715" lon="6.07741">
        <ele>1997.6</ele>
        <time>2024-07-10T09:49:39Z</time>
      </trkpt>
      <trkpt lat="45.10713" lon="6.07742">
        <ele>1997.7</ele>
        <time>2024-07-10T09:49:40Z</time>
      </trkpt>
      <trkpt lat="45.10712" lon="6.07742">
        <ele>1997.7</ele>
        <time>2024-07-10T09:49:41Z</time>
      </trkpt>
      <trkpt lat="45.10711" lon="6.07743">
        <ele>1997.8</ele>
        <time>2024-07-10T09:49:42Z</time>
      </trkpt>
      <trkpt lat="45.10709" lon="6.07744">
        <ele>1998</ele>
        <time>2024-07-10T09:49:43Z</time>
      </trkpt>
      <trkpt lat="45.10709" lon="6.07744">
        <ele>1998</ele>
        <time>2024-07-10T09:49:44Z</time>
      </trkpt>
      <trkpt lat="45.10708" lon="6.07744">
        <ele>1998.1</ele>
        <time>2024-07-10T09:49:45Z</time>
      </trkpt>
      <trkpt lat="45.10707" lon="6.07745">
        <ele>1998.1</ele>
        <time>2024-07-10T09:49:46Z</time>
      </trkpt>
      <trkpt lat="45.10706" lon="6.07745">
        <ele>1998.2</ele>
        <time>2024-07-10T09:49:47Z</time>
      </trkpt>
      <trkpt lat="45.10705" lon="6.07746">
        <ele>1998.3</ele>
        <time>2024-07-10T09:49:48Z</time>
      </trkpt>
      <trkpt lat="45.10704" lon="6.07746">
        <ele>1998.4</ele>
        <time>2024-07-10T09:49:49Z</time>
      </trkpt>
      <trkpt lat="45.10703" lon="6.07746">
        <ele>1998.4</ele>
        <time>2024-07-10T09:49:50Z</time>
      </trkpt>
      <trkpt lat="45.10702" lon="6.07747">
        <ele>1998.5</ele>
        <time>2024-07-10T09:49:51Z</time>
      </trkpt>
      <trkpt lat="45.10701" lon="6.07747">
        <ele>1998.6</ele>
        <time>2024-07-10T09:49:52Z</time>
      </trkpt>
      <trkpt lat="45.107" lon="6.07748">
        <ele>1998.6</ele>
        <time>2024-07-10T09:49:53Z</time>
      </trkpt>
      <trkpt lat="45.10699" lon="6.07749">
        <ele>1998.7</ele>
        <time>2024-07-10T09:49:54Z</time>
      </trkpt>
      <trkpt lat="45.10698" lon="6.07749">
        <ele>1998.8</ele>
        <time>2024-07-10T09:49:55Z</time>
      </trkpt>
      <trkpt lat="45.10697" lon="6.0775">
        <ele>1998.9</ele>
        <time>2024-07-10T09:49:56Z</time>
      </trkpt>
      <trkpt lat="45.10696" lon="6.0775">
        <ele>1999</ele>
        <time>2024-07-10T09:49:57Z</time>
      </trkpt>
      <trkpt lat="45.10694" lon="6.07751">
        <ele>1999.1</ele>
        <time>2024-07-10T09:49:58Z</time>
      </trkpt>
      <trkpt lat="45.10693" lon="6.07752">
        <ele>1999.2</ele>
        <time>2024-07-10T09:49:59Z</time>
      </trkpt>
      <trkpt lat="45.10692" lon="6.07752">
        <ele>1999.3</ele>
        <time>2024-07-10T09:50:00Z</time>
      </trkpt>
      <trkpt lat="45.10691" lon="6.07753">
        <ele>1999.4</ele>
        <time>2024-07-10T09:50:01Z</time>
      </trkpt>
      <trkpt lat="45.1069" lon="6.07754">
        <ele>1999.5</ele>
        <time>2024-07-10T09:50:02Z</time>
      </trkpt>
      <trkpt lat="45.1069" lon="6.07754">
        <ele>1999.6</ele>
        <time>2024-07-10T09:50:03Z</time>
      </trkpt>
      <trkpt lat="45.10689" lon="6.07755">
        <ele>1999.7</ele>
        <time>2024-07-10T09:50:04Z</time>
      </trkpt>
      <trkpt lat="45.10688" lon="6.07756">
        <ele>1999.8</ele>
        <time>2024-07-10T09:50:05Z</time>
      </trkpt>
      <trkpt lat="45.10688" lon="6.07757">
        <ele>1999.9</ele>
        <time>2024-07-10T09:50:06Z</time>
      </trkpt>
      <trkpt lat="45.10687" lon="6.07759">
        <ele>2000</ele>
        <time>2024-07-10T09:50:07Z</time>
      </trkpt>
      <trkpt lat="45.10687" lon="6.07761">
        <ele>2000.1</ele>
        <time>2024-07-10T09:50:08Z</time>
      </trkpt>
      <trkpt lat="45.10687" lon="6.07762">
        <ele>2000.2</ele>
        <time>2024-07-10T09:50:09Z</time>
      </trkpt>
      <trkpt lat="45.10687" lon="6.07763">
        <ele>2000.3</ele>
        <time>2024-07-10T09:50:10Z</time>
      </trkpt>
      <trkpt lat="45.10686" lon="6.07765">
        <ele>2000.4</ele>
        <time>2024-07-10T09:50:11Z</time>
      </trkpt>
      <trkpt lat="45.10686" lon="6.07766">
        <ele>2000.6</ele>
        <time>2024-07-10T09:50:12Z</time>
      </trkpt>
      <trkpt lat="45.10685" lon="6.07769">
        <ele>2000.8</ele>
        <time>2024-07-10T09:50:13Z</time>
      </trkpt>
      <trkpt lat="45.10685" lon="6.07769">
        <ele>2000.8</ele>
        <time>2024-07-10T09:50:14Z</time>
      </trkpt>
      <trkpt lat="45.10684" lon="6.07771">
        <ele>2000.9</ele>
        <time>2024-07-10T09:50:15Z</time>
      </trkpt>
      <trkpt lat="45.10684" lon="6.07772">
        <ele>2001.1</ele>
        <time>2024-07-10T09:50:16Z</time>
      </trkpt>
      <trkpt lat="45.10683" lon="6.07773">
        <ele>2001.1</ele>
        <time>2024-07-10T09:50:17Z</time>
      </trkpt>
      <trkpt lat="45.10682" lon="6.07774">
        <ele>2001.2</ele>
        <time>2024-07-10T09:50:18Z</time>
      </trkpt>
      <trkpt lat="45.10681" lon="6.07776">
        <ele>2001.9</ele>
        <time>2024-07-10T09:50:19Z</time>
      </trkpt>
      <trkpt lat="45.10681" lon="6.07777">
        <ele>2001.9</ele>
        <time>2024-07-10T09:50:20Z</time>
      </trkpt>
      <trkpt lat="45.1068" lon="6.07778">
        <ele>2002</ele>
        <time>2024-07-10T09:50:21Z</time>
      </trkpt>
      <trkpt lat="45.1068" lon="6.07778">
        <ele>2002</ele>
        <time>2024-07-10T09:50:22Z</time>
      </trkpt>
      <trkpt lat="45.10679" lon="6.0778">
        <ele>2002.2</ele>
        <time>2024-07-10T09:50:23Z</time>
      </trkpt>
      <trkpt lat="45.10678" lon="6.07781">
        <ele>2002.8</ele>
        <time>2024-07-10T09:50:24Z</time>
      </trkpt>
      <trkpt lat="45.10677" lon="6.07782">
        <ele>2002.8</ele>
        <time>2024-07-10T09:50:25Z</time>
      </trkpt>
      <trkpt lat="45.10676" lon="6.07784">
        <ele>2002.9</ele>
        <time>2024-07-10T09:50:26Z</time>
      </trkpt>
      <trkpt lat="45.10675" lon="6.07784">
        <ele>2003.5</ele>
        <time>2024-07-10T09:50:27Z</time>
      </trkpt>
      <trkpt lat="45.10675" lon="6.07785">
        <ele>2003.6</ele>
        <time>2024-07-10T09:50:28Z</time>
      </trkpt>
      <trkpt lat="45.10674" lon="6.07786">
        <ele>2003.6</ele>
        <time>2024-07-10T09:50:29Z</time>
      </trkpt>
      <trkpt lat="45.10673" lon="6.07787">
        <ele>2003.7</ele>
        <time>2024-07-10T09:50:30Z</time>
      </trkpt>
      <trkpt lat="45.10673" lon="6.07788">
        <ele>2003.8</ele>
        <time>2024-07-10T09:50:31Z</time>
      </trkpt>
      <trkpt lat="45.10672" lon="6.07789">
        <ele>2004.4</ele>
        <time>2024-07-10T09:50:32Z</time>
      </trkpt>
      <trkpt lat="45.10671" lon="6.07791">
        <ele>2004.4</ele>
        <time>2024-07-10T09:50:33Z</time>
      </trkpt>
      <trkpt lat="45.1067" lon="6.07792">
        <ele>2004.5</ele>
        <time>2024-07-10T09:50:34Z</time>
      </trkpt>
      <trkpt lat="45.10669" lon="6.07793">
        <ele>2005.1</ele>
        <time>2024-07-10T09:50:35Z</time>
      </trkpt>
      <trkpt lat="45.10669" lon="6.07794">
        <ele>2005.2</ele>
        <time>2024-07-10T09:50:36Z</time>
      </trkpt>
      <trkpt lat="45.10668" lon="6.07796">
        <ele>2005.2</ele>
        <time>2024-07-10T09:50:37Z</time>
      </trkpt>
      <trkpt lat="45.10667" lon="6.07798">
        <ele>2005.9</ele>
        <time>2024-07-10T09:50:38Z</time>
      </trkpt>
      <trkpt lat="45.10666" lon="6.07799">
        <ele>2005.9</ele>
        <time>2024-07-10T09:50:39Z</time>
      </trkpt>
      <trkpt lat="45.10666" lon="6.078">
        <ele>2006</ele>
        <time>2024-07-10T09:50:40Z</time>
      </trkpt>
      <trkpt lat="45.10665" lon="6.07802">
        <ele>2006.6</ele>
        <time>2024-07-10T09:50:41Z</time>
      </trkpt>
      <trkpt lat="45.10664" lon="6.07803">
        <ele>2006.7</ele>
        <time>2024-07-10T09:50:42Z</time>
      </trkpt>
      <trkpt lat="45.10663" lon="6.07804">
        <ele>2006.7</ele>
        <time>2024-07-10T09:50:43Z</time>
      </trkpt>
      <trkpt lat="45.10662" lon="6.07805">
        <ele>2006.8</ele>
        <time>2024-07-10T09:50:44Z</time>
      </trkpt>
      <trkpt lat="45.10662" lon="6.07806">
        <ele>2007.4</ele>
        <time>2024-07-10T09:50:45Z</time>
      </trkpt>
      <trkpt lat="45.10661" lon="6.07808">
        <ele>2007.5</ele>
        <time>2024-07-10T09:50:46Z</time>
      </trkpt>
      <trkpt lat="45.10659" lon="6.0781">
        <ele>2007.5</ele>
        <time>2024-07-10T09:50:47Z</time>
      </trkpt>
      <trkpt lat="45.10659" lon="6.07811">
        <ele>2008.2</ele>
        <time>2024-07-10T09:50:48Z</time>
      </trkpt>
      <trkpt lat="45.10658" lon="6.07812">
        <ele>2008.2</ele>
        <time>2024-07-10T09:50:49Z</time>
      </trkpt>
      <trkpt lat="45.10657" lon="6.07814">
        <ele>2008.3</ele>
        <time>2024-07-10T09:50:50Z</time>
      </trkpt>
      <trkpt lat="45.10656" lon="6.07815">
        <ele>2008.9</ele>
        <time>2024-07-10T09:50:51Z</time>
      </trkpt>
      <trkpt lat="45.10656" lon="6.07815">
        <ele>2008.9</ele>
        <time>2024-07-10T09:50:52Z</time>
      </trkpt>
      <trkpt lat="45.10654" lon="6.07817">
        <ele>2009</ele>
        <time>2024-07-10T09:50:53Z</time>
      </trkpt>
      <trkpt lat="45.10654" lon="6.07818">
        <ele>2009</ele>
        <time>2024-07-10T09:50:54Z</time>
      </trkpt>
      <trkpt lat="45.10653" lon="6.07819">
        <ele>2009.1</ele>
        <time>2024-07-10T09:50:55Z</time>
      </trkpt>
      <trkpt lat="45.10652" lon="6.0782">
        <ele>2009.7</ele>
        <time>2024-07-10T09:50:56Z</time>
      </trkpt>
      <trkpt lat="45.10652" lon="6.07821">
        <ele>2009.8</ele>
        <time>2024-07-10T09:50:57Z</time>
      </trkpt>
      <trkpt lat="45.10651" lon="6.07822">
        <ele>2009.8</ele>
        <time>2024-07-10T09:50:58Z</time>
      </trkpt>
      <trkpt lat="45.1065" lon="6.07823">
        <ele>2009.8</ele>
        <time>2024-07-10T09:50:59Z</time>
      </trkpt>
      <trkpt lat="45.10649" lon="6.07824">
        <ele>2010.4</ele>
        <time>2024-07-10T09:51:00Z</time>
      </trkpt>
      <trkpt lat="45.10649" lon="6.07825">
        <ele>2010.5</ele>
        <time>2024-07-10T09:51:01Z</time>
      </trkpt>
      <trkpt lat="45.10648" lon="6.07825">
        <ele>2010.5</ele>
        <time>2024-07-10T09:51:02Z</time>
      </trkpt>
      <trkpt lat="45.10647" lon="6.07827">
        <ele>2010.6</ele>
        <time>2024-07-10T09:51:03Z</time>
      </trkpt>
      <trkpt lat="45.10647" lon="6.07827">
        <ele>2010.6</ele>
        <time>2024-07-10T09:51:04Z</time>
      </trkpt>
      <trkpt lat="45.10646" lon="6.07828">
        <ele>2011.2</ele>
        <time>2024-07-10T09:51:05Z</time>
      </trkpt>
      <trkpt lat="45.10646" lon="6.07829">
        <ele>2011.3</ele>
        <time>2024-07-10T09:51:06Z</time>
      </trkpt>
      <trkpt lat="45.10645" lon="6.07829">
        <ele>2011.3</ele>
        <time>2024-07-10T09:51:07Z</time>
      </trkpt>
      <trkpt lat="45.10644" lon="6.0783">
        <ele>2011.4</ele>
        <time>2024-07-10T09:51:08Z</time>
      </trkpt>
      <trkpt lat="45.10644" lon="6.07831">
        <ele>2011.4</ele>
        <time>2024-07-10T09:51:09Z</time>
      </trkpt>
      <trkpt lat="45.10643" lon="6.07832">
        <ele>2012</ele>
        <time>2024-07-10T09:51:10Z</time>
      </trkpt>
      <trkpt lat="45.10642" lon="6.07832">
        <ele>2012.1</ele>
        <time>2024-07-10T09:51:11Z</time>
      </trkpt>
      <trkpt lat="45.10642" lon="6.07833">
        <ele>2012.1</ele>
        <time>2024-07-10T09:51:12Z</time>
      </trkpt>
      <trkpt lat="45.10641" lon="6.07833">
        <ele>2012.2</ele>
        <time>2024-07-10T09:51:13Z</time>
      </trkpt>
      <trkpt lat="45.1064" lon="6.07834">
        <ele>2012.2</ele>
        <time>2024-07-10T09:51:14Z</time>
      </trkpt>
      <trkpt lat="45.1064" lon="6.07834">
        <ele>2012.3</ele>
        <time>2024-07-10T09:51:15Z</time>
      </trkpt>
      <trkpt lat="45.10639" lon="6.07835">
        <ele>2012.3</ele>
        <time>2024-07-10T09:51:16Z</time>
      </trkpt>
      <trkpt lat="45.10638" lon="6.07836">
        <ele>2012.4</ele>
        <time>2024-07-10T09:51:17Z</time>
      </trkpt>
      <trkpt lat="45.10637" lon="6.07836">
        <ele>2013</ele>
        <time>2024-07-10T09:51:18Z</time>
      </trkpt>
      <trkpt lat="45.10636" lon="6.07837">
        <ele>2013.1</ele>
        <time>2024-07-10T09:51:19Z</time>
      </trkpt>
      <trkpt lat="45.10636" lon="6.07837">
        <ele>2013.1</ele>
        <time>2024-07-10T09:51:20Z</time>
      </trkpt>
      <trkpt lat="45.10635" lon="6.07838">
        <ele>2013.2</ele>
        <time>2024-07-10T09:51:21Z</time>
      </trkpt>
      <trkpt lat="45.10635" lon="6.07839">
        <ele>2013.2</ele>
        <time>2024-07-10T09:51:22Z</time>
      </trkpt>
      <trkpt lat="45.10634" lon="6.07839">
        <ele>2013.3</ele>
        <time>2024-07-10T09:51:23Z</time>
      </trkpt>
      <trkpt lat="45.10633" lon="6.0784">
        <ele>2013.9</ele>
        <time>2024-07-10T09:51:24Z</time>
      </trkpt>
      <trkpt lat="45.10633" lon="6.07841">
        <ele>2014</ele>
        <time>2024-07-10T09:51:25Z</time>
      </trkpt>
      <trkpt lat="45.10632" lon="6.07842">
        <ele>2014</ele>
        <time>2024-07-10T09:51:26Z</time>
      </trkpt>
      <trkpt lat="45.10632" lon="6.07842">
        <ele>2014.1</ele>
        <time>2024-07-10T09:51:27Z</time>
      </trkpt>
      <trkpt lat="45.10631" lon="6.07843">
        <ele>2014.2</ele>
        <time>2024-07-10T09:51:28Z</time>
      </trkpt>
      <trkpt lat="45.10631" lon="6.07844">
        <ele>2014.8</ele>
        <time>2024-07-10T09:51:29Z</time>
      </trkpt>
      <trkpt lat="45.1063" lon="6.07845">
        <ele>2014.8</ele>
        <time>2024-07-10T09:51:30Z</time>
      </trkpt>
      <trkpt lat="45.1063" lon="6.07846">
        <ele>2014.9</ele>
        <time>2024-07-10T09:51:31Z</time>
      </trkpt>
      <trkpt lat="45.10629" lon="6.07847">
        <ele>2015</ele>
        <time>2024-07-10T09:51:32Z</time>
      </trkpt>
      <trkpt lat="45.10629" lon="6.07848">
        <ele>2015</ele>
        <time>2024-07-10T09:51:33Z</time>
      </trkpt>
      <trkpt lat="45.10628" lon="6.07849">
        <ele>2015.6</ele>
        <time>2024-07-10T09:51:34Z</time>
      </trkpt>
      <trkpt lat="45.10628" lon="6.0785">
        <ele>2015.7</ele>
        <time>2024-07-10T09:51:35Z</time>
      </trkpt>
      <trkpt lat="45.10627" lon="6.0785">
        <ele>2015.8</ele>
        <time>2024-07-10T09:51:36Z</time>
      </trkpt>
      <trkpt lat="45.10626" lon="6.07851">
        <ele>2015.8</ele>
        <time>2024-07-10T09:51:37Z</time>
      </trkpt>
      <trkpt lat="45.10626" lon="6.07852">
        <ele>2015.9</ele>
        <time>2024-07-10T09:51:38Z</time>
      </trkpt>
      <trkpt lat="45.10625" lon="6.07853">
        <ele>2016.5</ele>
        <time>2024-07-10T09:51:39Z</time>
      </trkpt>
      <trkpt lat="45.10625" lon="6.07854">
        <ele>2016.5</ele>
        <time>2024-07-10T09:51:40Z</time>
      </trkpt>
      <trkpt lat="45.10624" lon="6.07854">
        <ele>2016.6</ele>
        <time>2024-07-10T09:51:41Z</time>
      </trkpt>
      <trkpt lat="45.10624" lon="6.07855">
        <ele>2016.7</ele>
        <time>2024-07-10T09:51:42Z</time>
      </trkpt>
      <trkpt lat="45.10623" lon="6.07856">
        <ele>2016.7</ele>
        <time>2024-07-10T09:51:43Z</time>
      </trkpt>
      <trkpt lat="45.10622" lon="6.07857">
        <ele>2016.8</ele>
        <time>2024-07-10T09:51:44Z</time>
      </trkpt>
      <trkpt lat="45.10622" lon="6.07857">
        <ele>2017.4</ele>
        <time>2024-07-10T09:51:45Z</time>
      </trkpt>
      <trkpt lat="45.10622" lon="6.07858">
        <ele>2017.4</ele>
        <time>2024-07-10T09:51:46Z</time>
      </trkpt>
      <trkpt lat="45.10621" lon="6.07859">
        <ele>2017.5</ele>
        <time>2024-07-10T09:51:47Z</time>
      </trkpt>
      <trkpt lat="45.1062" lon="6.0786">
        <ele>2017.6</ele>
        <time>2024-07-10T09:51:48Z</time>
      </trkpt>
      <trkpt lat="45.1062" lon="6.07861">
        <ele>2017.6</ele>
        <time>2024-07-10T09:51:49Z</time>
      </trkpt>
      <trkpt lat="45.10619" lon="6.07861">
        <ele>2017.7</ele>
        <time>2024-07-10T09:51:50Z</time>
      </trkpt>
      <trkpt lat="45.10619" lon="6.07862">
        <ele>2018.3</ele>
        <time>2024-07-10T09:51:51Z</time>
      </trkpt>
      <trkpt lat="45.10618" lon="6.07863">
        <ele>2018.3</ele>
        <time>2024-07-10T09:51:52Z</time>
      </trkpt>
      <trkpt lat="45.10618" lon="6.07864">
        <ele>2018.4</ele>
        <time>2024-07-10T09:51:53Z</time>
      </trkpt>
      <trkpt lat="45.10618" lon="6.07866">
        <ele>2018.5</ele>
        <time>2024-07-10T09:51:54Z</time>
      </trkpt>
      <trkpt lat="45.10618" lon="6.07866">
        <ele>2019.1</ele>
        <time>2024-07-10T09:51:55Z</time>
      </trkpt>
      <trkpt lat="45.10618" lon="6.07867">
        <ele>2019.1</ele>
        <time>2024-07-10T09:51:56Z</time>
      </trkpt>
      <trkpt lat="45.10618" lon="6.07869">
        <ele>2019.2</ele>
        <time>2024-07-10T09:51:57Z</time>
      </trkpt>
      <trkpt lat="45.10618" lon="6.0787">
        <ele>2019.3</ele>
        <time>2024-07-10T09:51:58Z</time>
      </trkpt>
      <trkpt lat="45.10618" lon="6.07871">
        <ele>2019.9</ele>
        <time>2024-07-10T09:51:59Z</time>
      </trkpt>
      <trkpt lat="45.10618" lon="6.07872">
        <ele>2020</ele>
        <time>2024-07-10T09:52:00Z</time>
      </trkpt>
      <trkpt lat="45.10618" lon="6.07873">
        <ele>2020.1</ele>
        <time>2024-07-10T09:52:01Z</time>
      </trkpt>
      <trkpt lat="45.10618" lon="6.07874">
        <ele>2020.1</ele>
        <time>2024-07-10T09:52:02Z</time>
      </trkpt>
      <trkpt lat="45.10619" lon="6.07875">
        <ele>2020.2</ele>
        <time>2024-07-10T09:52:03Z</time>
      </trkpt>
      <trkpt lat="45.1062" lon="6.07876">
        <ele>2020.3</ele>
        <time>2024-07-10T09:52:04Z</time>
      </trkpt>
      <trkpt lat="45.10621" lon="6.07877">
        <ele>2020.4</ele>
        <time>2024-07-10T09:52:05Z</time>
      </trkpt>
      <trkpt lat="45.10622" lon="6.07877">
        <ele>2020.4</ele>
        <time>2024-07-10T09:52:06Z</time>
      </trkpt>
      <trkpt lat="45.10623" lon="6.07878">
        <ele>2020.5</ele>
        <time>2024-07-10T09:52:07Z</time>
      </trkpt>
      <trkpt lat="45.10625" lon="6.07879">
        <ele>2020.7</ele>
        <time>2024-07-10T09:52:08Z</time>
      </trkpt>
      <trkpt lat="45.10625" lon="6.07879">
        <ele>2020.8</ele>
        <time>2024-07-10T09:52:09Z</time>
      </trkpt>
      <trkpt lat="45.10626" lon="6.0788">
        <ele>2020.8</ele>
        <time>2024-07-10T09:52:10Z</time>
      </trkpt>
      <trkpt lat="45.10628" lon="6.07881">
        <ele>2021</ele>
        <time>2024-07-10T09:52:11Z</time>
      </trkpt>
      <trkpt lat="45.10629" lon="6.07882">
        <ele>2021</ele>
        <time>2024-07-10T09:52:12Z</time>
      </trkpt>
      <trkpt lat="45.10629" lon="6.07883">
        <ele>2021.1</ele>
        <time>2024-07-10T09:52:13Z</time>
      </trkpt>
      <trkpt lat="45.10631" lon="6.07885">
        <ele>2021.2</ele>
        <time>2024-07-10T09:52:14Z</time>
      </trkpt>
      <trkpt lat="45.10631" lon="6.07885">
        <ele>2021.2</ele>
        <time>2024-07-10T09:52:15Z</time>
      </trkpt>
      <trkpt lat="45.10632" lon="6.07886">
        <ele>2021.3</ele>
        <time>2024-07-10T09:52:16Z</time>
      </trkpt>
      <trkpt lat="45.10633" lon="6.07888">
        <ele>2021.4</ele>
        <time>2024-07-10T09:52:17Z</time>
      </trkpt>
      <trkpt lat="45.10634" lon="6.07889">
        <ele>2021.5</ele>
        <time>2024-07-10T09:52:18Z</time>
      </trkpt>
      <trkpt lat="45.10634" lon="6.0789">
        <ele>2021.6</ele>
        <time>2024-07-10T09:52:19Z</time>
      </trkpt>
      <trkpt lat="45.10636" lon="6.07892">
        <ele>2021.7</ele>
        <time>2024-07-10T09:52:20Z</time>
      </trkpt>
      <trkpt lat="45.10636" lon="6.07893">
        <ele>2021.7</ele>
        <time>2024-07-10T09:52:21Z</time>
      </trkpt>
      <trkpt lat="45.10637" lon="6.07894">
        <ele>2021.8</ele>
        <time>2024-07-10T09:52:22Z</time>
      </trkpt>
      <trkpt lat="45.10638" lon="6.07896">
        <ele>2021.9</ele>
        <time>2024-07-10T09:52:23Z</time>
      </trkpt>
      <trkpt lat="45.10639" lon="6.07897">
        <ele>2022</ele>
        <time>2024-07-10T09:52:24Z</time>
      </trkpt>
      <trkpt lat="45.1064" lon="6.07899">
        <ele>2022.1</ele>
        <time>2024-07-10T09:52:25Z</time>
      </trkpt>
      <trkpt lat="45.1064" lon="6.079">
        <ele>2022.1</ele>
        <time>2024-07-10T09:52:26Z</time>
      </trkpt>
      <trkpt lat="45.10641" lon="6.07901">
        <ele>2022.2</ele>
        <time>2024-07-10T09:52:27Z</time>
      </trkpt>
      <trkpt lat="45.10642" lon="6.07903">
        <ele>2022.3</ele>
        <time>2024-07-10T09:52:28Z</time>
      </trkpt>
      <trkpt lat="45.10643" lon="6.07904">
        <ele>2022.4</ele>
        <time>2024-07-10T09:52:29Z</time>
      </trkpt>
      <trkpt lat="45.10643" lon="6.07905">
        <ele>2022.4</ele>
        <time>2024-07-10T09:52:30Z</time>
      </trkpt>
      <trkpt lat="45.10644" lon="6.07907">
        <ele>2022.5</ele>
        <time>2024-07-10T09:52:31Z</time>
      </trkpt>
      <trkpt lat="45.10645" lon="6.07908">
        <ele>2022.6</ele>
        <time>2024-07-10T09:52:32Z</time>
      </trkpt>
      <trkpt lat="45.10645" lon="6.07909">
        <ele>2022.7</ele>
        <time>2024-07-10T09:52:33Z</time>
      </trkpt>
      <trkpt lat="45.10646" lon="6.07911">
        <ele>2022.8</ele>
        <time>2024-07-10T09:52:34Z</time>
      </trkpt>
      <trkpt lat="45.10647" lon="6.07912">
        <ele>2022.9</ele>
        <time>2024-07-10T09:52:35Z</time>
      </trkpt>
      <trkpt lat="45.10648" lon="6.07913">
        <ele>2022.9</ele>
        <time>2024-07-10T09:52:36Z</time>
      </trkpt>
      <trkpt lat="45.10649" lon="6.07914">
        <ele>2023</ele>
        <time>2024-07-10T09:52:37Z</time>
      </trkpt>
      <trkpt lat="45.1065" lon="6.07915">
        <ele>2023.1</ele>
        <time>2024-07-10T09:52:38Z</time>
      </trkpt>
      <trkpt lat="45.10651" lon="6.07916">
        <ele>2023.2</ele>
        <time>2024-07-10T09:52:39Z</time>
      </trkpt>
      <trkpt lat="45.10652" lon="6.07916">
        <ele>2023.3</ele>
        <time>2024-07-10T09:52:40Z</time>
      </trkpt>
      <trkpt lat="45.10653" lon="6.07917">
        <ele>2023.4</ele>
        <time>2024-07-10T09:52:41Z</time>
      </trkpt>
      <trkpt lat="45.10654" lon="6.07918">
        <ele>2023.4</ele>
        <time>2024-07-10T09:52:42Z</time>
      </trkpt>
      <trkpt lat="45.10655" lon="6.0792">
        <ele>2023.5</ele>
        <time>2024-07-10T09:52:43Z</time>
      </trkpt>
      <trkpt lat="45.10656" lon="6.07921">
        <ele>2023.7</ele>
        <time>2024-07-10T09:52:44Z</time>
      </trkpt>
      <trkpt lat="45.10657" lon="6.07921">
        <ele>2023.7</ele>
        <time>2024-07-10T09:52:45Z</time>
      </trkpt>
      <trkpt lat="45.10658" lon="6.07922">
        <ele>2023.8</ele>
        <time>2024-07-10T09:52:46Z</time>
      </trkpt>
      <trkpt lat="45.10659" lon="6.07923">
        <ele>2023.9</ele>
        <time>2024-07-10T09:52:47Z</time>
      </trkpt>
      <trkpt lat="45.10661" lon="6.07924">
        <ele>2024.1</ele>
        <time>2024-07-10T09:52:48Z</time>
      </trkpt>
      <trkpt lat="45.10662" lon="6.07925">
        <ele>2024.2</ele>
        <time>2024-07-10T09:52:49Z</time>
      </trkpt>
      <trkpt lat="45.10663" lon="6.07925">
        <ele>2024.2</ele>
        <time>2024-07-10T09:52:50Z</time>
      </trkpt>
      <trkpt lat="45.10665" lon="6.07926">
        <ele>2024.4</ele>
        <time>2024-07-10T09:52:51Z</time>
      </trkpt>
      <trkpt lat="45.10665" lon="6.07927">
        <ele>2024.5</ele>
        <time>2024-07-10T09:52:52Z</time>
      </trkpt>
      <trkpt lat="45.10666" lon="6.07927">
        <ele>2024.6</ele>
        <time>2024-07-10T09:52:53Z</time>
      </trkpt>
      <trkpt lat="45.10667" lon="6.07928">
        <ele>2024.7</ele>
        <time>2024-07-10T09:52:54Z</time>
      </trkpt>
      <trkpt lat="45.10668" lon="6.07929">
        <ele>2024.7</ele>
        <time>2024-07-10T09:52:55Z</time>
      </trkpt>
      <trkpt lat="45.10669" lon="6.07929">
        <ele>2024.8</ele>
        <time>2024-07-10T09:52:56Z</time>
      </trkpt>
      <trkpt lat="45.1067" lon="6.0793">
        <ele>2024.9</ele>
        <time>2024-07-10T09:52:57Z</time>
      </trkpt>
      <trkpt lat="45.10671" lon="6.07931">
        <ele>2025</ele>
        <time>2024-07-10T09:52:58Z</time>
      </trkpt>
      <trkpt lat="45.10672" lon="6.07932">
        <ele>2025.1</ele>
        <time>2024-07-10T09:52:59Z</time>
      </trkpt>
      <trkpt lat="45.10673" lon="6.07933">
        <ele>2025.2</ele>
        <time>2024-07-10T09:53:00Z</time>
      </trkpt>
      <trkpt lat="45.10674" lon="6.07934">
        <ele>2025.3</ele>
        <time>2024-07-10T09:53:01Z</time>
      </trkpt>
      <trkpt lat="45.10675" lon="6.07935">
        <ele>2025.4</ele>
        <time>2024-07-10T09:53:02Z</time>
      </trkpt>
      <trkpt lat="45.10676" lon="6.07935">
        <ele>2025.5</ele>
        <time>2024-07-10T09:53:03Z</time>
      </trkpt>
      <trkpt lat="45.10677" lon="6.07936">
        <ele>2025.6</ele>
        <time>2024-07-10T09:53:04Z</time>
      </trkpt>
      <trkpt lat="45.10678" lon="6.07937">
        <ele>2025.7</ele>
        <time>2024-07-10T09:53:05Z</time>
      </trkpt>
      <trkpt lat="45.1068" lon="6.07938">
        <ele>2025.9</ele>
        <time>2024-07-10T09:53:06Z</time>
      </trkpt>
      <trkpt lat="45.10681" lon="6.07938">
        <ele>2026</ele>
        <time>2024-07-10T09:53:07Z</time>
      </trkpt>
      <trkpt lat="45.10681" lon="6.07939">
        <ele>2026</ele>
        <time>2024-07-10T09:53:08Z</time>
      </trkpt>
      <trkpt lat="45.10683" lon="6.0794">
        <ele>2026.2</ele>
        <time>2024-07-10T09:53:09Z</time>
      </trkpt>
      <trkpt lat="45.10684" lon="6.0794">
        <ele>2026.3</ele>
        <time>2024-07-10T09:53:10Z</time>
      </trkpt>
      <trkpt lat="45.10685" lon="6.07941">
        <ele>2026.3</ele>
        <time>2024-07-10T09:53:11Z</time>
      </trkpt>
      <trkpt lat="45.10687" lon="6.07942">
        <ele>2026.5</ele>
        <time>2024-07-10T09:53:12Z</time>
      </trkpt>
      <trkpt lat="45.10687" lon="6.07942">
        <ele>2026.6</ele>
        <time>2024-07-10T09:53:13Z</time>
      </trkpt>
      <trkpt lat="45.10688" lon="6.07942">
        <ele>2026.7</ele>
        <time>2024-07-10T09:53:14Z</time>
      </trkpt>
      <trkpt lat="45.1069" lon="6.07943">
        <ele>2026.8</ele>
        <time>2024-07-10T09:53:15Z</time>
      </trkpt>
      <trkpt lat="45.10691" lon="6.07943">
        <ele>2026.9</ele>
        <time>2024-07-10T09:53:16Z</time>
      </trkpt>
      <trkpt lat="45.10692" lon="6.07944">
        <ele>2027</ele>
        <time>2024-07-10T09:53:17Z</time>
      </trkpt>
      <trkpt lat="45.10693" lon="6.07944">
        <ele>2027.1</ele>
        <time>2024-07-10T09:53:18Z</time>
      </trkpt>
      <trkpt lat="45.10694" lon="6.07945">
        <ele>2027.2</ele>
        <time>2024-07-10T09:53:19Z</time>
      </trkpt>
      <trkpt lat="45.10695" lon="6.07946">
        <ele>2027.2</ele>
        <time>2024-07-10T09:53:20Z</time>
      </trkpt>
      <trkpt lat="45.10696" lon="6.07947">
        <ele>2027.3</ele>
        <time>2024-07-10T09:53:21Z</time>
      </trkpt>
      <trkpt lat="45.10697" lon="6.07948">
        <ele>2027.4</ele>
        <time>2024-07-10T09:53:22Z</time>
      </trkpt>
      <trkpt lat="45.10697" lon="6.07949">
        <ele>2027.5</ele>
        <time>2024-07-10T09:53:23Z</time>
      </trkpt>
      <trkpt lat="45.10698" lon="6.0795">
        <ele>2027.6</ele>
        <time>2024-07-10T09:53:24Z</time>
      </trkpt>
      <trkpt lat="45.10699" lon="6.07951">
        <ele>2027.7</ele>
        <time>2024-07-10T09:53:25Z</time>
      </trkpt>
      <trkpt lat="45.107" lon="6.07952">
        <ele>2027.8</ele>
        <time>2024-07-10T09:53:26Z</time>
      </trkpt>
      <trkpt lat="45.10701" lon="6.07955">
        <ele>2028</ele>
        <time>2024-07-10T09:53:27Z</time>
      </trkpt>
      <trkpt lat="45.10702" lon="6.07956">
        <ele>2028</ele>
        <time>2024-07-10T09:53:28Z</time>
      </trkpt>
      <trkpt lat="45.10702" lon="6.07957">
        <ele>2028.1</ele>
        <time>2024-07-10T09:53:29Z</time>
      </trkpt>
      <trkpt lat="45.10703" lon="6.07959">
        <ele>2028.3</ele>
        <time>2024-07-10T09:53:30Z</time>
      </trkpt>
      <trkpt lat="45.10704" lon="6.0796">
        <ele>2028.3</ele>
        <time>2024-07-10T09:53:31Z</time>
      </trkpt>
      <trkpt lat="45.10704" lon="6.07962">
        <ele>2028.4</ele>
        <time>2024-07-10T09:53:32Z</time>
      </trkpt>
      <trkpt lat="45.10704" lon="6.07962">
        <ele>2028.5</ele>
        <time>2024-07-10T09:53:33Z</time>
      </trkpt>
      <trkpt lat="45.10705" lon="6.07964">
        <ele>2028.6</ele>
        <time>2024-07-10T09:53:34Z</time>
      </trkpt>
      <trkpt lat="45.10705" lon="6.07965">
        <ele>2028.7</ele>
        <time>2024-07-10T09:53:35Z</time>
      </trkpt>
      <trkpt lat="45.10706" lon="6.07967">
        <ele>2028.7</ele>
        <time>2024-07-10T09:53:36Z</time>
      </trkpt>
      <trkpt lat="45.10707" lon="6.07969">
        <ele>2028.9</ele>
        <time>2024-07-10T09:53:37Z</time>
      </trkpt>
      <trkpt lat="45.10707" lon="6.0797">
        <ele>2028.9</ele>
        <time>2024-07-10T09:53:38Z</time>
      </trkpt>
      <trkpt lat="45.10708" lon="6.07971">
        <ele>2029</ele>
        <time>2024-07-10T09:53:39Z</time>
      </trkpt>
      <trkpt lat="45.10709" lon="6.07972">
        <ele>2029.1</ele>
        <time>2024-07-10T09:53:40Z</time>
      </trkpt>
      <trkpt lat="45.10709" lon="6.07974">
        <ele>2029.2</ele>
        <time>2024-07-10T09:53:41Z</time>
      </trkpt>
      <trkpt lat="45.1071" lon="6.07976">
        <ele>2029.3</ele>
        <time>2024-07-10T09:53:42Z</time>
      </trkpt>
      <trkpt lat="45.1071" lon="6.07977">
        <ele>2029.4</ele>
        <time>2024-07-10T09:53:43Z</time>
      </trkpt>
      <trkpt lat="45.10711" lon="6.07979">
        <ele>2029.5</ele>
        <time>2024-07-10T09:53:44Z</time>
      </trkpt>
      <trkpt lat="45.10712" lon="6.0798">
        <ele>2029.5</ele>
        <time>2024-07-10T09:53:45Z</time>
      </trkpt>
      <trkpt lat="45.10712" lon="6.07982">
        <ele>2029.6</ele>
        <time>2024-07-10T09:53:46Z</time>
      </trkpt>
      <trkpt lat="45.10713" lon="6.07984">
        <ele>2029.7</ele>
        <time>2024-07-10T09:53:47Z</time>
      </trkpt>
      <trkpt lat="45.10713" lon="6.07985">
        <ele>2029.8</ele>
        <time>2024-07-10T09:53:48Z</time>
      </trkpt>
      <trkpt lat="45.10713" lon="6.07987">
        <ele>2029.8</ele>
        <time>2024-07-10T09:53:49Z</time>
      </trkpt>
      <trkpt lat="45.10714" lon="6.07989">
        <ele>2029.9</ele>
        <time>2024-07-10T09:53:50Z</time>
      </trkpt>
      <trkpt lat="45.10714" lon="6.0799">
        <ele>2030</ele>
        <time>2024-07-10T09:53:51Z</time>
      </trkpt>
      <trkpt lat="45.10714" lon="6.07993">
        <ele>2030.1</ele>
        <time>2024-07-10T09:53:52Z</time>
      </trkpt>
      <trkpt lat="45.10714" lon="6.07994">
        <ele>2030.1</ele>
        <time>2024-07-10T09:53:53Z</time>
      </trkpt>
      <trkpt lat="45.10713" lon="6.07995">
        <ele>2030.2</ele>
        <time>2024-07-10T09:53:54Z</time>
      </trkpt>
      <trkpt lat="45.10713" lon="6.07997">
        <ele>2030.3</ele>
        <time>2024-07-10T09:53:55Z</time>
      </trkpt>
      <trkpt lat="45.10713" lon="6.07999">
        <ele>2030.4</ele>
        <time>2024-07-10T09:53:56Z</time>
      </trkpt>
      <trkpt lat="45.10713" lon="6.08001">
        <ele>2030.5</ele>
        <time>2024-07-10T09:53:57Z</time>
      </trkpt>
      <trkpt lat="45.10713" lon="6.08002">
        <ele>2030.5</ele>
        <time>2024-07-10T09:53:58Z</time>
      </trkpt>
      <trkpt lat="45.10713" lon="6.08004">
        <ele>2030.6</ele>
        <time>2024-07-10T09:53:59Z</time>
      </trkpt>
      <trkpt lat="45.10713" lon="6.08005">
        <ele>2030.7</ele>
        <time>2024-07-10T09:54:00Z</time>
      </trkpt>
      <trkpt lat="45.10714" lon="6.08007">
        <ele>2030.7</ele>
        <time>2024-07-10T09:54:01Z</time>
      </trkpt>
      <trkpt lat="45.10714" lon="6.08008">
        <ele>2030.8</ele>
        <time>2024-07-10T09:54:02Z</time>
      </trkpt>
      <trkpt lat="45.10714" lon="6.08009">
        <ele>2030.8</ele>
        <time>2024-07-10T09:54:03Z</time>
      </trkpt>
      <trkpt lat="45.10714" lon="6.08012">
        <ele>2030.9</ele>
        <time>2024-07-10T09:54:04Z</time>
      </trkpt>
      <trkpt lat="45.10714" lon="6.08014">
        <ele>2031</ele>
        <time>2024-07-10T09:54:05Z</time>
      </trkpt>
      <trkpt lat="45.10715" lon="6.08015">
        <ele>2031</ele>
        <time>2024-07-10T09:54:06Z</time>
      </trkpt>
      <trkpt lat="45.10715" lon="6.08017">
        <ele>2031.1</ele>
        <time>2024-07-10T09:54:07Z</time>
      </trkpt>
      <trkpt lat="45.10715" lon="6.08019">
        <ele>2031.2</ele>
        <time>2024-07-10T09:54:08Z</time>
      </trkpt>
      <trkpt lat="45.10715" lon="6.08022">
        <ele>2031.3</ele>
        <time>2024-07-10T09:54:09Z</time>
      </trkpt>
      <trkpt lat="45.10715" lon="6.08023">
        <ele>2031.3</ele>
        <time>2024-07-10T09:54:10Z</time>
      </trkpt>
      <trkpt lat="45.10715" lon="6.08024">
        <ele>2031.4</ele>
        <time>2024-07-10T09:54:11Z</time>
      </trkpt>
      <trkpt lat="45.10716" lon="6.08027">
        <ele>2031.5</ele>
        <time>2024-07-10T09:54:12Z</time>
      </trkpt>
      <trkpt lat="45.10716" lon="6.08028">
        <ele>2031.5</ele>
        <time>2024-07-10T09:54:13Z</time>
      </trkpt>
      <trkpt lat="45.10717" lon="6.08031">
        <ele>2031.7</ele>
        <time>2024-07-10T09:54:14Z</time>
      </trkpt>
      <trkpt lat="45.10717" lon="6.08033">
        <ele>2031.7</ele>
        <time>2024-07-10T09:54:15Z</time>
      </trkpt>
      <trkpt lat="45.10717" lon="6.08034">
        <ele>2031.8</ele>
        <time>2024-07-10T09:54:16Z</time>
      </trkpt>
      <trkpt lat="45.10718" lon="6.08036">
        <ele>2031.9</ele>
        <time>2024-07-10T09:54:17Z</time>
      </trkpt>
      <trkpt lat="45.10718" lon="6.08037">
        <ele>2031.9</ele>
        <time>2024-07-10T09:54:18Z</time>
      </trkpt>
      <trkpt lat="45.10719" lon="6.0804">
        <ele>2032</ele>
        <time>2024-07-10T09:54:19Z</time>
      </trkpt>
      <trkpt lat="45.10719" lon="6.08041">
        <ele>2032.1</ele>
        <time>2024-07-10T09:54:20Z</time>
      </trkpt>
      <trkpt lat="45.1072" lon="6.08042">
        <ele>2032.1</ele>
        <time>2024-07-10T09:54:21Z</time>
      </trkpt>
      <trkpt lat="45.1072" lon="6.08045">
        <ele>2032.2</ele>
        <time>2024-07-10T09:54:22Z</time>
      </trkpt>
      <trkpt lat="45.1072" lon="6.08046">
        <ele>2032.3</ele>
        <time>2024-07-10T09:54:23Z</time>
      </trkpt>
      <trkpt lat="45.10721" lon="6.08049">
        <ele>2032.4</ele>
        <time>2024-07-10T09:54:24Z</time>
      </trkpt>
      <trkpt lat="45.10722" lon="6.0805">
        <ele>2032.5</ele>
        <time>2024-07-10T09:54:25Z</time>
      </trkpt>
      <trkpt lat="45.10722" lon="6.08051">
        <ele>2032.5</ele>
        <time>2024-07-10T09:54:26Z</time>
      </trkpt>
      <trkpt lat="45.10722" lon="6.08053">
        <ele>2032.6</ele>
        <time>2024-07-10T09:54:27Z</time>
      </trkpt>
      <trkpt lat="45.10723" lon="6.08054">
        <ele>2032.7</ele>
        <time>2024-07-10T09:54:28Z</time>
      </trkpt>
      <trkpt lat="45.10723" lon="6.08056">
        <ele>2032.7</ele>
        <time>2024-07-10T09:54:29Z</time>
      </trkpt>
      <trkpt lat="45.10724" lon="6.08058">
        <ele>2032.9</ele>
        <time>2024-07-10T09:54:30Z</time>
      </trkpt>
      <trkpt lat="45.10724" lon="6.0806">
        <ele>2033</ele>
        <time>2024-07-10T09:54:31Z</time>
      </trkpt>
      <trkpt lat="45.10725" lon="6.08061">
        <ele>2033</ele>
        <time>2024-07-10T09:54:32Z</time>
      </trkpt>
      <trkpt lat="45.10725" lon="6.08064">
        <ele>2033.2</ele>
        <time>2024-07-10T09:54:33Z</time>
      </trkpt>
      <trkpt lat="45.10725" lon="6.08065">
        <ele>2033.2</ele>
        <time>2024-07-10T09:54:34Z</time>
      </trkpt>
      <trkpt lat="45.10725" lon="6.08066">
        <ele>2033.3</ele>
        <time>2024-07-10T09:54:35Z</time>
      </trkpt>
      <trkpt lat="45.10725" lon="6.08068">
        <ele>2033.4</ele>
        <time>2024-07-10T09:54:36Z</time>
      </trkpt>
      <trkpt lat="45.10725" lon="6.0807">
        <ele>2033.5</ele>
        <time>2024-07-10T09:54:37Z</time>
      </trkpt>
      <trkpt lat="45.10726" lon="6.08072">
        <ele>2033.6</ele>
        <time>2024-07-10T09:54:38Z</time>
      </trkpt>
      <trkpt lat="45.10726" lon="6.08073">
        <ele>2033.7</ele>
        <time>2024-07-10T09:54:39Z</time>
      </trkpt>
      <trkpt lat="45.10726" lon="6.08075">
        <ele>2033.8</ele>
        <time>2024-07-10T09:54:40Z</time>
      </trkpt>
      <trkpt lat="45.10726" lon="6.08077">
        <ele>2033.9</ele>
        <time>2024-07-10T09:54:41Z</time>
      </trkpt>
      <trkpt lat="45.10726" lon="6.08079">
        <ele>2034</ele>
        <time>2024-07-10T09:54:42Z</time>
      </trkpt>
      <trkpt lat="45.10726" lon="6.0808">
        <ele>2034.1</ele>
        <time>2024-07-10T09:54:43Z</time>
      </trkpt>
      <trkpt lat="45.10727" lon="6.08082">
        <ele>2034.2</ele>
        <time>2024-07-10T09:54:44Z</time>
      </trkpt>
      <trkpt lat="45.10727" lon="6.08084">
        <ele>2034.3</ele>
        <time>2024-07-10T09:54:45Z</time>
      </trkpt>
      <trkpt lat="45.10727" lon="6.08086">
        <ele>2034.4</ele>
        <time>2024-07-10T09:54:46Z</time>
      </trkpt>
      <trkpt lat="45.10727" lon="6.08088">
        <ele>2034.5</ele>
        <time>2024-07-10T09:54:47Z</time>
      </trkpt>
      <trkpt lat="45.10728" lon="6.08089">
        <ele>2034.6</ele>
        <time>2024-07-10T09:54:48Z</time>
      </trkpt>
      <trkpt lat="45.10728" lon="6.08091">
        <ele>2034.7</ele>
        <time>2024-07-10T09:54:49Z</time>
      </trkpt>
      <trkpt lat="45.10728" lon="6.08093">
        <ele>2034.8</ele>
        <time>2024-07-10T09:54:50Z</time>
      </trkpt>
      <trkpt lat="45.10728" lon="6.08094">
        <ele>2034.9</ele>
        <time>2024-07-10T09:54:51Z</time>
      </trkpt>
      <trkpt lat="45.10728" lon="6.08096">
        <ele>2035</ele>
        <time>2024-07-10T09:54:52Z</time>
      </trkpt>
      <trkpt lat="45.10728" lon="6.08098">
        <ele>2035.1</ele>
        <time>2024-07-10T09:54:53Z</time>
      </trkpt>
      <trkpt lat="45.10728" lon="6.081">
        <ele>2035.2</ele>
        <time>2024-07-10T09:54:54Z</time>
      </trkpt>
      <trkpt lat="45.10728" lon="6.08102">
        <ele>2035.3</ele>
        <time>2024-07-10T09:54:55Z</time>
      </trkpt>
      <trkpt lat="45.10728" lon="6.08103">
        <ele>2035.4</ele>
        <time>2024-07-10T09:54:56Z</time>
      </trkpt>
      <trkpt lat="45.10728" lon="6.08106">
        <ele>2035.5</ele>
        <time>2024-07-10T09:54:57Z</time>
      </trkpt>
      <trkpt lat="45.10728" lon="6.08108">
        <ele>2035.7</ele>
        <time>2024-07-10T09:54:58Z</time>
      </trkpt>
      <trkpt lat="45.10728" lon="6.08109">
        <ele>2035.7</ele>
        <time>2024-07-10T09:54:59Z</time>
      </trkpt>
      <trkpt lat="45.10728" lon="6.08111">
        <ele>2035.8</ele>
        <time>2024-07-10T09:55:00Z</time>
      </trkpt>
      <trkpt lat="45.10728" lon="6.08112">
        <ele>2035.9</ele>
        <time>2024-07-10T09:55:01Z</time>
      </trkpt>
      <trkpt lat="45.10729" lon="6.08114">
        <ele>2036</ele>
        <time>2024-07-10T09:55:02Z</time>
      </trkpt>
      <trkpt lat="45.10729" lon="6.08115">
        <ele>2036.1</ele>
        <time>2024-07-10T09:55:03Z</time>
      </trkpt>
      <trkpt lat="45.10729" lon="6.08117">
        <ele>2036.2</ele>
        <time>2024-07-10T09:55:04Z</time>
      </trkpt>
      <trkpt lat="45.10729" lon="6.08118">
        <ele>2036.3</ele>
        <time>2024-07-10T09:55:05Z</time>
      </trkpt>
      <trkpt lat="45.10729" lon="6.08119">
        <ele>2036.4</ele>
        <time>2024-07-10T09:55:06Z</time>
      </trkpt>
      <trkpt lat="45.10729" lon="6.08121">
        <ele>2036.5</ele>
        <time>2024-07-10T09:55:07Z</time>
      </trkpt>
      <trkpt lat="45.10729" lon="6.08123">
        <ele>2036.6</ele>
        <time>2024-07-10T09:55:08Z</time>
      </trkpt>
      <trkpt lat="45.10729" lon="6.08124">
        <ele>2036.7</ele>
        <time>2024-07-10T09:55:09Z</time>
      </trkpt>
      <trkpt lat="45.1073" lon="6.08126">
        <ele>2036.8</ele>
        <time>2024-07-10T09:55:10Z</time>
      </trkpt>
      <trkpt lat="45.1073" lon="6.08127">
        <ele>2036.8</ele>
        <time>2024-07-10T09:55:11Z</time>
      </trkpt>
      <trkpt lat="45.1073" lon="6.08129">
        <ele>2037</ele>
        <time>2024-07-10T09:55:12Z</time>
      </trkpt>
      <trkpt lat="45.1073" lon="6.08132">
        <ele>2037.2</ele>
        <time>2024-07-10T09:55:13Z</time>
      </trkpt>
      <trkpt lat="45.1073" lon="6.08133">
        <ele>2037.2</ele>
        <time>2024-07-10T09:55:14Z</time>
      </trkpt>
      <trkpt lat="45.1073" lon="6.08135">
        <ele>2037.3</ele>
        <time>2024-07-10T09:55:15Z</time>
      </trkpt>
      <trkpt lat="45.10731" lon="6.08136">
        <ele>2037.4</ele>
        <time>2024-07-10T09:55:16Z</time>
      </trkpt>
      <trkpt lat="45.10731" lon="6.08138">
        <ele>2037.5</ele>
        <time>2024-07-10T09:55:17Z</time>
      </trkpt>
      <trkpt lat="45.10731" lon="6.08139">
        <ele>2037.6</ele>
        <time>2024-07-10T09:55:18Z</time>
      </trkpt>
      <trkpt lat="45.10731" lon="6.08141">
        <ele>2037.7</ele>
        <time>2024-07-10T09:55:19Z</time>
      </trkpt>
      <trkpt lat="45.10731" lon="6.08143">
        <ele>2037.8</ele>
        <time>2024-07-10T09:55:20Z</time>
      </trkpt>
      <trkpt lat="45.10731" lon="6.08144">
        <ele>2037.9</ele>
        <time>2024-07-10T09:55:21Z</time>
      </trkpt>
      <trkpt lat="45.10731" lon="6.08146">
        <ele>2038</ele>
        <time>2024-07-10T09:55:22Z</time>
      </trkpt>
      <trkpt lat="45.10731" lon="6.08147">
        <ele>2038.1</ele>
        <time>2024-07-10T09:55:23Z</time>
      </trkpt>
      <trkpt lat="45.10731" lon="6.08149">
        <ele>2038.3</ele>
        <time>2024-07-10T09:55:24Z</time>
      </trkpt>
      <trkpt lat="45.10731" lon="6.08151">
        <ele>2038.3</ele>
        <time>2024-07-10T09:55:25Z</time>
      </trkpt>
      <trkpt lat="45.10731" lon="6.08153">
        <ele>2038.3</ele>
        <time>2024-07-10T09:55:26Z</time>
      </trkpt>
      <trkpt lat="45.10731" lon="6.08154">
        <ele>2038.2</ele>
        <time>2024-07-10T09:55:27Z</time>
      </trkpt>
      <trkpt lat="45.10731" lon="6.08156">
        <ele>2038.2</ele>
        <time>2024-07-10T09:55:28Z</time>
      </trkpt>
      <trkpt lat="45.10731" lon="6.08157">
        <ele>2038.2</ele>
        <time>2024-07-10T09:55:29Z</time>
      </trkpt>
      <trkpt lat="45.10731" lon="6.08159">
        <ele>2038.2</ele>
        <time>2024-07-10T09:55:30Z</time>
      </trkpt>
      <trkpt lat="45.10731" lon="6.0816">
        <ele>2038.2</ele>
        <time>2024-07-10T09:55:31Z</time>
      </trkpt>
      <trkpt lat="45.10731" lon="6.08161">
        <ele>2038.1</ele>
        <time>2024-07-10T09:55:32Z</time>
      </trkpt>
      <trkpt lat="45.10732" lon="6.08162">
        <ele>2038.1</ele>
        <time>2024-07-10T09:55:33Z</time>
      </trkpt>
      <trkpt lat="45.10733" lon="6.08163">
        <ele>2038.1</ele>
        <time>2024-07-10T09:55:34Z</time>
      </trkpt>
      <trkpt lat="45.10733" lon="6.08165">
        <ele>2038</ele>
        <time>2024-07-10T09:55:35Z</time>
      </trkpt>
      <trkpt lat="45.10733" lon="6.08167">
        <ele>2038</ele>
        <time>2024-07-10T09:55:36Z</time>
      </trkpt>
      <trkpt lat="45.10733" lon="6.08167">
        <ele>2038</ele>
        <time>2024-07-10T09:55:37Z</time>
      </trkpt>
      <trkpt lat="45.10734" lon="6.08169">
        <ele>2037.9</ele>
        <time>2024-07-10T09:55:38Z</time>
      </trkpt>
      <trkpt lat="45.10734" lon="6.0817">
        <ele>2037.9</ele>
        <time>2024-07-10T09:55:39Z</time>
      </trkpt>
      <trkpt lat="45.10734" lon="6.08171">
        <ele>2037.9</ele>
        <time>2024-07-10T09:55:40Z</time>
      </trkpt>
      <trkpt lat="45.10735" lon="6.08171">
        <ele>2037.8</ele>
        <time>2024-07-10T09:55:41Z</time>
      </trkpt>
      <trkpt lat="45.10735" lon="6.08172">
        <ele>2037.8</ele>
        <time>2024-07-10T09:55:42Z</time>
      </trkpt>
      <trkpt lat="45.10735" lon="6.08173">
        <ele>2037.8</ele>
        <time>2024-07-10T09:55:43Z</time>
      </trkpt>
      <trkpt lat="45.10735" lon="6.08175">
        <ele>2037.7</ele>
        <time>2024-07-10T09:55:44Z</time>
      </trkpt>
      <trkpt lat="45.10734" lon="6.08177">
        <ele>2037.6</ele>
        <time>2024-07-10T09:55:45Z</time>
      </trkpt>
      <trkpt lat="45.10734" lon="6.08178">
        <ele>2037.6</ele>
        <time>2024-07-10T09:55:46Z</time>
      </trkpt>
      <trkpt lat="45.10734" lon="6.08179">
        <ele>2037.5</ele>
        <time>2024-07-10T09:55:47Z</time>
      </trkpt>
      <trkpt lat="45.10733" lon="6.08181">
        <ele>2037.4</ele>
        <time>2024-07-10T09:55:48Z</time>
      </trkpt>
      <trkpt lat="45.10733" lon="6.08182">
        <ele>2037.3</ele>
        <time>2024-07-10T09:55:49Z</time>
      </trkpt>
      <trkpt lat="45.10732" lon="6.08184">
        <ele>2037.3</ele>
        <time>2024-07-10T09:55:50Z</time>
      </trkpt>
      <trkpt lat="45.10732" lon="6.08185">
        <ele>2037.2</ele>
        <time>2024-07-10T09:55:51Z</time>
      </trkpt>
      <trkpt lat="45.10731" lon="6.08186">
        <ele>2037.1</ele>
        <time>2024-07-10T09:55:52Z</time>
      </trkpt>
      <trkpt lat="45.10731" lon="6.08187">
        <ele>2037.1</ele>
        <time>2024-07-10T09:55:53Z</time>
      </trkpt>
      <trkpt lat="45.10731" lon="6.08189">
        <ele>2037</ele>
        <time>2024-07-10T09:55:54Z</time>
      </trkpt>
      <trkpt lat="45.1073" lon="6.08191">
        <ele>2036.9</ele>
        <time>2024-07-10T09:55:55Z</time>
      </trkpt>
      <trkpt lat="45.1073" lon="6.08192">
        <ele>2036.8</ele>
        <time>2024-07-10T09:55:56Z</time>
      </trkpt>
      <trkpt lat="45.1073" lon="6.08194">
        <ele>2036.7</ele>
        <time>2024-07-10T09:55:57Z</time>
      </trkpt>
      <trkpt lat="45.1073" lon="6.08195">
        <ele>2036.7</ele>
        <time>2024-07-10T09:55:58Z</time>
      </trkpt>
      <trkpt lat="45.10729" lon="6.08197">
        <ele>2036.6</ele>
        <time>2024-07-10T09:55:59Z</time>
      </trkpt>
      <trkpt lat="45.10729" lon="6.08199">
        <ele>2036.5</ele>
        <time>2024-07-10T09:56:00Z</time>
      </trkpt>
      <trkpt lat="45.10729" lon="6.082">
        <ele>2036.4</ele>
        <time>2024-07-10T09:56:01Z</time>
      </trkpt>
      <trkpt lat="45.10729" lon="6.08202">
        <ele>2036.3</ele>
        <time>2024-07-10T09:56:02Z</time>
      </trkpt>
      <trkpt lat="45.10728" lon="6.08204">
        <ele>2036.2</ele>
        <time>2024-07-10T09:56:03Z</time>
      </trkpt>
      <trkpt lat="45.10728" lon="6.08206">
        <ele>2036.1</ele>
        <time>2024-07-10T09:56:04Z</time>
      </trkpt>
      <trkpt lat="45.10728" lon="6.08207">
        <ele>2036</ele>
        <time>2024-07-10T09:56:05Z</time>
      </trkpt>
      <trkpt lat="45.10727" lon="6.08209">
        <ele>2035.9</ele>
        <time>2024-07-10T09:56:06Z</time>
      </trkpt>
      <trkpt lat="45.10727" lon="6.08211">
        <ele>2035.8</ele>
        <time>2024-07-10T09:56:07Z</time>
      </trkpt>
      <trkpt lat="45.10727" lon="6.08212">
        <ele>2035.8</ele>
        <time>2024-07-10T09:56:08Z</time>
      </trkpt>
      <trkpt lat="45.10727" lon="6.08214">
        <ele>2035.7</ele>
        <time>2024-07-10T09:56:09Z</time>
      </trkpt>
      <trkpt lat="45.10727" lon="6.08216">
        <ele>2035.6</ele>
        <time>2024-07-10T09:56:10Z</time>
      </trkpt>
      <trkpt lat="45.10726" lon="6.08219">
        <ele>2035.4</ele>
        <time>2024-07-10T09:56:11Z</time>
      </trkpt>
      <trkpt lat="45.10726" lon="6.0822">
        <ele>2035.3</ele>
        <time>2024-07-10T09:56:12Z</time>
      </trkpt>
      <trkpt lat="45.10726" lon="6.08221">
        <ele>2035.3</ele>
        <time>2024-07-10T09:56:13Z</time>
      </trkpt>
      <trkpt lat="45.10725" lon="6.08224">
        <ele>2035.1</ele>
        <time>2024-07-10T09:56:14Z</time>
      </trkpt>
      <trkpt lat="45.10725" lon="6.08225">
        <ele>2035</ele>
        <time>2024-07-10T09:56:15Z</time>
      </trkpt>
      <trkpt lat="45.10725" lon="6.08227">
        <ele>2035</ele>
        <time>2024-07-10T09:56:16Z</time>
      </trkpt>
      <trkpt lat="45.10725" lon="6.08229">
        <ele>2034.9</ele>
        <time>2024-07-10T09:56:17Z</time>
      </trkpt>
      <trkpt lat="45.10725" lon="6.08231">
        <ele>2034.7</ele>
        <time>2024-07-10T09:56:18Z</time>
      </trkpt>
      <trkpt lat="45.10724" lon="6.08234">
        <ele>2034.6</ele>
        <time>2024-07-10T09:56:19Z</time>
      </trkpt>
      <trkpt lat="45.10724" lon="6.08235">
        <ele>2034.5</ele>
        <time>2024-07-10T09:56:20Z</time>
      </trkpt>
      <trkpt lat="45.10724" lon="6.08236">
        <ele>2034.4</ele>
        <time>2024-07-10T09:56:21Z</time>
      </trkpt>
      <trkpt lat="45.10724" lon="6.08239">
        <ele>2034.2</ele>
        <time>2024-07-10T09:56:22Z</time>
      </trkpt>
      <trkpt lat="45.10723" lon="6.0824">
        <ele>2034.1</ele>
        <time>2024-07-10T09:56:23Z</time>
      </trkpt>
      <trkpt lat="45.10723" lon="6.08242">
        <ele>2034.1</ele>
        <time>2024-07-10T09:56:24Z</time>
      </trkpt>
      <trkpt lat="45.10723" lon="6.08245">
        <ele>2033.9</ele>
        <time>2024-07-10T09:56:25Z</time>
      </trkpt>
      <trkpt lat="45.10724" lon="6.08246">
        <ele>2033.8</ele>
        <time>2024-07-10T09:56:26Z</time>
      </trkpt>
      <trkpt lat="45.10724" lon="6.08247">
        <ele>2033.7</ele>
        <time>2024-07-10T09:56:27Z</time>
      </trkpt>
      <trkpt lat="45.10724" lon="6.0825">
        <ele>2033.5</ele>
        <time>2024-07-10T09:56:28Z</time>
      </trkpt>
      <trkpt lat="45.10724" lon="6.08251">
        <ele>2033.4</ele>
        <time>2024-07-10T09:56:29Z</time>
      </trkpt>
      <trkpt lat="45.10724" lon="6.08253">
        <ele>2033.3</ele>
        <time>2024-07-10T09:56:30Z</time>
      </trkpt>
      <trkpt lat="45.10725" lon="6.08254">
        <ele>2033.2</ele>
        <time>2024-07-10T09:56:31Z</time>
      </trkpt>
      <trkpt lat="45.10725" lon="6.08255">
        <ele>2033.1</ele>
        <time>2024-07-10T09:56:32Z</time>
      </trkpt>
      <trkpt lat="45.10726" lon="6.08257">
        <ele>2033</ele>
        <time>2024-07-10T09:56:33Z</time>
      </trkpt>
      <trkpt lat="45.10726" lon="6.08258">
        <ele>2032.8</ele>
        <time>2024-07-10T09:56:34Z</time>
      </trkpt>
      <trkpt lat="45.10727" lon="6.0826">
        <ele>2032.7</ele>
        <time>2024-07-10T09:56:35Z</time>
      </trkpt>
      <trkpt lat="45.10728" lon="6.08261">
        <ele>2032.5</ele>
        <time>2024-07-10T09:56:36Z</time>
      </trkpt>
      <trkpt lat="45.10729" lon="6.08262">
        <ele>2032.4</ele>
        <time>2024-07-10T09:56:37Z</time>
      </trkpt>
      <trkpt lat="45.10729" lon="6.08263">
        <ele>2032.3</ele>
        <time>2024-07-10T09:56:38Z</time>
      </trkpt>
      <trkpt lat="45.1073" lon="6.08264">
        <ele>2032.1</ele>
        <time>2024-07-10T09:56:39Z</time>
      </trkpt>
      <trkpt lat="45.10732" lon="6.08265">
        <ele>2031.9</ele>
        <time>2024-07-10T09:56:40Z</time>
      </trkpt>
      <trkpt lat="45.10733" lon="6.08266">
        <ele>2031.7</ele>
        <time>2024-07-10T09:56:41Z</time>
      </trkpt>
      <trkpt lat="45.10734" lon="6.08266">
        <ele>2031.7</ele>
        <time>2024-07-10T09:56:42Z</time>
      </trkpt>
      <trkpt lat="45.10735" lon="6.08264">
        <ele>2031.4</ele>
        <time>2024-07-10T09:56:43Z</time>
      </trkpt>
      <trkpt lat="45.10736" lon="6.08264">
        <ele>2031.3</ele>
        <time>2024-07-10T09:56:44Z</time>
      </trkpt>
      <trkpt lat="45.10737" lon="6.08263">
        <ele>2031.1</ele>
        <time>2024-07-10T09:56:45Z</time>
      </trkpt>
      <trkpt lat="45.10739" lon="6.08261">
        <ele>2030.9</ele>
        <time>2024-07-10T09:56:46Z</time>
      </trkpt>
      <trkpt lat="45.1074" lon="6.08261">
        <ele>2030.7</ele>
        <time>2024-07-10T09:56:47Z</time>
      </trkpt>
      <trkpt lat="45.1074" lon="6.0826">
        <ele>2030.6</ele>
        <time>2024-07-10T09:56:48Z</time>
      </trkpt>
      <trkpt lat="45.10742" lon="6.0826">
        <ele>2030.4</ele>
        <time>2024-07-10T09:56:49Z</time>
      </trkpt>
      <trkpt lat="45.10743" lon="6.08259">
        <ele>2030.3</ele>
        <time>2024-07-10T09:56:50Z</time>
      </trkpt>
      <trkpt lat="45.10745" lon="6.08258">
        <ele>2030</ele>
        <time>2024-07-10T09:56:51Z</time>
      </trkpt>
      <trkpt lat="45.10746" lon="6.08258">
        <ele>2029.9</ele>
        <time>2024-07-10T09:56:52Z</time>
      </trkpt>
      <trkpt lat="45.10747" lon="6.08257">
        <ele>2029.8</ele>
        <time>2024-07-10T09:56:53Z</time>
      </trkpt>
      <trkpt lat="45.10748" lon="6.08256">
        <ele>2029.6</ele>
        <time>2024-07-10T09:56:54Z</time>
      </trkpt>
      <trkpt lat="45.10749" lon="6.08255">
        <ele>2029.4</ele>
        <time>2024-07-10T09:56:55Z</time>
      </trkpt>
      <trkpt lat="45.10751" lon="6.08254">
        <ele>2029.2</ele>
        <time>2024-07-10T09:56:56Z</time>
      </trkpt>
      <trkpt lat="45.10752" lon="6.08254">
        <ele>2029.1</ele>
        <time>2024-07-10T09:56:57Z</time>
      </trkpt>
      <trkpt lat="45.10753" lon="6.08254">
        <ele>2029</ele>
        <time>2024-07-10T09:56:58Z</time>
      </trkpt>
      <trkpt lat="45.10755" lon="6.08253">
        <ele>2028.8</ele>
        <time>2024-07-10T09:56:59Z</time>
      </trkpt>
      <trkpt lat="45.10756" lon="6.08253">
        <ele>2028.7</ele>
        <time>2024-07-10T09:57:00Z</time>
      </trkpt>
      <trkpt lat="45.10756" lon="6.08253">
        <ele>2028.6</ele>
        <time>2024-07-10T09:57:01Z</time>
      </trkpt>
      <trkpt lat="45.10759" lon="6.08253">
        <ele>2028.4</ele>
        <time>2024-07-10T09:57:02Z</time>
      </trkpt>
      <trkpt lat="45.10759" lon="6.08253">
        <ele>2028.3</ele>
        <time>2024-07-10T09:57:03Z</time>
      </trkpt>
      <trkpt lat="45.1076" lon="6.08252">
        <ele>2028.3</ele>
        <time>2024-07-10T09:57:04Z</time>
      </trkpt>
      <trkpt lat="45.10762" lon="6.08252">
        <ele>2028.1</ele>
        <time>2024-07-10T09:57:05Z</time>
      </trkpt>
      <trkpt lat="45.10763" lon="6.08252">
        <ele>2028</ele>
        <time>2024-07-10T09:57:06Z</time>
      </trkpt>
      <trkpt lat="45.10764" lon="6.08252">
        <ele>2027.9</ele>
        <time>2024-07-10T09:57:07Z</time>
      </trkpt>
      <trkpt lat="45.10765" lon="6.08252">
        <ele>2027.9</ele>
        <time>2024-07-10T09:57:08Z</time>
      </trkpt>
      <trkpt lat="45.10766" lon="6.08252">
        <ele>2027.8</ele>
        <time>2024-07-10T09:57:09Z</time>
      </trkpt>
      <trkpt lat="45.10767" lon="6.08252">
        <ele>2027.7</ele>
        <time>2024-07-10T09:57:10Z</time>
      </trkpt>
      <trkpt lat="45.10768" lon="6.08253">
        <ele>2027.6</ele>
        <time>2024-07-10T09:57:11Z</time>
      </trkpt>
      <trkpt lat="45.1077" lon="6.08253">
        <ele>2027.5</ele>
        <time>2024-07-10T09:57:12Z</time>
      </trkpt>
      <trkpt lat="45.10771" lon="6.08253">
        <ele>2027.4</ele>
        <time>2024-07-10T09:57:13Z</time>
      </trkpt>
      <trkpt lat="45.10772" lon="6.08253">
        <ele>2027.4</ele>
        <time>2024-07-10T09:57:14Z</time>
      </trkpt>
      <trkpt lat="45.10773" lon="6.08253">
        <ele>2027.3</ele>
        <time>2024-07-10T09:57:15Z</time>
      </trkpt>
      <trkpt lat="45.10775" lon="6.08253">
        <ele>2027.2</ele>
        <time>2024-07-10T09:57:16Z</time>
      </trkpt>
      <trkpt lat="45.10776" lon="6.08253">
        <ele>2027.2</ele>
        <time>2024-07-10T09:57:17Z</time>
      </trkpt>
      <trkpt lat="45.10777" lon="6.08253">
        <ele>2027.1</ele>
        <time>2024-07-10T09:57:18Z</time>
      </trkpt>
      <trkpt lat="45.10778" lon="6.08253">
        <ele>2027.1</ele>
        <time>2024-07-10T09:57:19Z</time>
      </trkpt>
      <trkpt lat="45.10779" lon="6.08252">
        <ele>2027</ele>
        <time>2024-07-10T09:57:20Z</time>
      </trkpt>
      <trkpt lat="45.1078" lon="6.08252">
        <ele>2027</ele>
        <time>2024-07-10T09:57:21Z</time>
      </trkpt>
      <trkpt lat="45.10782" lon="6.08252">
        <ele>2026.9</ele>
        <time>2024-07-10T09:57:22Z</time>
      </trkpt>
      <trkpt lat="45.10783" lon="6.08252">
        <ele>2026.9</ele>
        <time>2024-07-10T09:57:23Z</time>
      </trkpt>
      <trkpt lat="45.10785" lon="6.08252">
        <ele>2026.8</ele>
        <time>2024-07-10T09:57:24Z</time>
      </trkpt>
      <trkpt lat="45.10786" lon="6.08252">
        <ele>2026.8</ele>
        <time>2024-07-10T09:57:25Z</time>
      </trkpt>
      <trkpt lat="45.10786" lon="6.08252">
        <ele>2026.8</ele>
        <time>2024-07-10T09:57:26Z</time>
      </trkpt>
      <trkpt lat="45.10789" lon="6.08252">
        <ele>2026.7</ele>
        <time>2024-07-10T09:57:27Z</time>
      </trkpt>
      <trkpt lat="45.10789" lon="6.08251">
        <ele>2026.7</ele>
        <time>2024-07-10T09:57:28Z</time>
      </trkpt>
      <trkpt lat="45.1079" lon="6.08251">
        <ele>2026.7</ele>
        <time>2024-07-10T09:57:29Z</time>
      </trkpt>
      <trkpt lat="45.10792" lon="6.08251">
        <ele>2026.7</ele>
        <time>2024-07-10T09:57:30Z</time>
      </trkpt>
      <trkpt lat="45.10793" lon="6.08251">
        <ele>2026.7</ele>
        <time>2024-07-10T09:57:31Z</time>
      </trkpt>
      <trkpt lat="45.10794" lon="6.08251">
        <ele>2026.7</ele>
        <time>2024-07-10T09:57:32Z</time>
      </trkpt>
      <trkpt lat="45.10795" lon="6.08251">
        <ele>2026.6</ele>
        <time>2024-07-10T09:57:33Z</time>
      </trkpt>
      <trkpt lat="45.10796" lon="6.0825">
        <ele>2026.6</ele>
        <time>2024-07-10T09:57:34Z</time>
      </trkpt>
      <trkpt lat="45.10797" lon="6.0825">
        <ele>2026.6</ele>
        <time>2024-07-10T09:57:35Z</time>
      </trkpt>
      <trkpt lat="45.10798" lon="6.0825">
        <ele>2026.6</ele>
        <time>2024-07-10T09:57:36Z</time>
      </trkpt>
      <trkpt lat="45.108" lon="6.08249">
        <ele>2026.6</ele>
        <time>2024-07-10T09:57:37Z</time>
      </trkpt>
      <trkpt lat="45.10801" lon="6.08249">
        <ele>2026.6</ele>
        <time>2024-07-10T09:57:38Z</time>
      </trkpt>
      <trkpt lat="45.10802" lon="6.08248">
        <ele>2026.6</ele>
        <time>2024-07-10T09:57:39Z</time>
      </trkpt>
      <trkpt lat="45.10803" lon="6.08248">
        <ele>2026.6</ele>
        <time>2024-07-10T09:57:40Z</time>
      </trkpt>
      <trkpt lat="45.10804" lon="6.08247">
        <ele>2026.5</ele>
        <time>2024-07-10T09:57:41Z</time>
      </trkpt>
      <trkpt lat="45.10806" lon="6.08246">
        <ele>2026.5</ele>
        <time>2024-07-10T09:57:42Z</time>
      </trkpt>
      <trkpt lat="45.10808" lon="6.08245">
        <ele>2026.5</ele>
        <time>2024-07-10T09:57:43Z</time>
      </trkpt>
      <trkpt lat="45.10808" lon="6.08245">
        <ele>2026.5</ele>
        <time>2024-07-10T09:57:44Z</time>
      </trkpt>
      <trkpt lat="45.10809" lon="6.08244">
        <ele>2026.5</ele>
        <time>2024-07-10T09:57:45Z</time>
      </trkpt>
      <trkpt lat="45.1081" lon="6.08243">
        <ele>2026.5</ele>
        <time>2024-07-10T09:57:46Z</time>
      </trkpt>
      <trkpt lat="45.10812" lon="6.08242">
        <ele>2026.4</ele>
        <time>2024-07-10T09:57:47Z</time>
      </trkpt>
      <trkpt lat="45.10813" lon="6.08241">
        <ele>2026.4</ele>
        <time>2024-07-10T09:57:48Z</time>
      </trkpt>
      <trkpt lat="45.10814" lon="6.0824">
        <ele>2026.4</ele>
        <time>2024-07-10T09:57:49Z</time>
      </trkpt>
      <trkpt lat="45.10815" lon="6.08239">
        <ele>2026.4</ele>
        <time>2024-07-10T09:57:50Z</time>
      </trkpt>
      <trkpt lat="45.10816" lon="6.08238">
        <ele>2026.4</ele>
        <time>2024-07-10T09:57:51Z</time>
      </trkpt>
      <trkpt lat="45.10817" lon="6.08236">
        <ele>2026.3</ele>
        <time>2024-07-10T09:57:52Z</time>
      </trkpt>
      <trkpt lat="45.10818" lon="6.08236">
        <ele>2026.3</ele>
        <time>2024-07-10T09:57:53Z</time>
      </trkpt>
      <trkpt lat="45.10819" lon="6.08235">
        <ele>2026.3</ele>
        <time>2024-07-10T09:57:54Z</time>
      </trkpt>
      <trkpt lat="45.1082" lon="6.08234">
        <ele>2026.3</ele>
        <time>2024-07-10T09:57:55Z</time>
      </trkpt>
      <trkpt lat="45.10821" lon="6.08232">
        <ele>2026.2</ele>
        <time>2024-07-10T09:57:56Z</time>
      </trkpt>
      <trkpt lat="45.10822" lon="6.08231">
        <ele>2026.2</ele>
        <time>2024-07-10T09:57:57Z</time>
      </trkpt>
      <trkpt lat="45.10823" lon="6.0823">
        <ele>2026.2</ele>
        <time>2024-07-10T09:57:58Z</time>
      </trkpt>
      <trkpt lat="45.10824" lon="6.08229">
        <ele>2026.1</ele>
        <time>2024-07-10T09:57:59Z</time>
      </trkpt>
      <trkpt lat="45.10825" lon="6.08228">
        <ele>2026.1</ele>
        <time>2024-07-10T09:58:00Z</time>
      </trkpt>
      <trkpt lat="45.10826" lon="6.08227">
        <ele>2026.1</ele>
        <time>2024-07-10T09:58:01Z</time>
      </trkpt>
      <trkpt lat="45.10827" lon="6.08226">
        <ele>2026</ele>
        <time>2024-07-10T09:58:02Z</time>
      </trkpt>
      <trkpt lat="45.10829" lon="6.08224">
        <ele>2026</ele>
        <time>2024-07-10T09:58:03Z</time>
      </trkpt>
      <trkpt lat="45.1083" lon="6.08223">
        <ele>2026</ele>
        <time>2024-07-10T09:58:04Z</time>
      </trkpt>
      <trkpt lat="45.10831" lon="6.08222">
        <ele>2025.9</ele>
        <time>2024-07-10T09:58:05Z</time>
      </trkpt>
      <trkpt lat="45.10832" lon="6.08221">
        <ele>2025.9</ele>
        <time>2024-07-10T09:58:06Z</time>
      </trkpt>
      <trkpt lat="45.10833" lon="6.08221">
        <ele>2025.9</ele>
        <time>2024-07-10T09:58:07Z</time>
      </trkpt>
      <trkpt lat="45.10834" lon="6.0822">
        <ele>2025.9</ele>
        <time>2024-07-10T09:58:08Z</time>
      </trkpt>
      <trkpt lat="45.10835" lon="6.0822">
        <ele>2025.8</ele>
        <time>2024-07-10T09:58:09Z</time>
      </trkpt>
      <trkpt lat="45.10837" lon="6.08219">
        <ele>2025.8</ele>
        <time>2024-07-10T09:58:10Z</time>
      </trkpt>
      <trkpt lat="45.10838" lon="6.08218">
        <ele>2025.8</ele>
        <time>2024-07-10T09:58:11Z</time>
      </trkpt>
      <trkpt lat="45.10839" lon="6.08218">
        <ele>2025.8</ele>
        <time>2024-07-10T09:58:12Z</time>
      </trkpt>
      <trkpt lat="45.1084" lon="6.08217">
        <ele>2025.8</ele>
        <time>2024-07-10T09:58:13Z</time>
      </trkpt>
      <trkpt lat="45.10841" lon="6.08217">
        <ele>2025.7</ele>
        <time>2024-07-10T09:58:14Z</time>
      </trkpt>
      <trkpt lat="45.10842" lon="6.08217">
        <ele>2025.7</ele>
        <time>2024-07-10T09:58:15Z</time>
      </trkpt>
      <trkpt lat="45.10843" lon="6.08216">
        <ele>2025.7</ele>
        <time>2024-07-10T09:58:16Z</time>
      </trkpt>
      <trkpt lat="45.10844" lon="6.08216">
        <ele>2025.7</ele>
        <time>2024-07-10T09:58:17Z</time>
      </trkpt>
      <trkpt lat="45.10846" lon="6.08216">
        <ele>2025.7</ele>
        <time>2024-07-10T09:58:18Z</time>
      </trkpt>
      <trkpt lat="45.10847" lon="6.08216">
        <ele>2025.7</ele>
        <time>2024-07-10T09:58:19Z</time>
      </trkpt>
      <trkpt lat="45.10848" lon="6.08216">
        <ele>2025.7</ele>
        <time>2024-07-10T09:58:20Z</time>
      </trkpt>
      <trkpt lat="45.10849" lon="6.08216">
        <ele>2025.7</ele>
        <time>2024-07-10T09:58:21Z</time>
      </trkpt>
      <trkpt lat="45.1085" lon="6.08215">
        <ele>2025.7</ele>
        <time>2024-07-10T09:58:22Z</time>
      </trkpt>
      <trkpt lat="45.10851" lon="6.08215">
        <ele>2025.6</ele>
        <time>2024-07-10T09:58:23Z</time>
      </trkpt>
      <trkpt lat="45.10852" lon="6.08214">
        <ele>2025.6</ele>
        <time>2024-07-10T09:58:24Z</time>
      </trkpt>
      <trkpt lat="45.10853" lon="6.08214">
        <ele>2025.6</ele>
        <time>2024-07-10T09:58:25Z</time>
      </trkpt>
      <trkpt lat="45.10855" lon="6.08215">
        <ele>2025.6</ele>
        <time>2024-07-10T09:58:26Z</time>
      </trkpt>
      <trkpt lat="45.10856" lon="6.08215">
        <ele>2025.6</ele>
        <time>2024-07-10T09:58:27Z</time>
      </trkpt>
      <trkpt lat="45.10857" lon="6.08215">
        <ele>2025.6</ele>
        <time>2024-07-10T09:58:28Z</time>
      </trkpt>
      <trkpt lat="45.10858" lon="6.08215">
        <ele>2025.6</ele>
        <time>2024-07-10T09:58:29Z</time>
      </trkpt>
      <trkpt lat="45.10859" lon="6.08215">
        <ele>2025.6</ele>
        <time>2024-07-10T09:58:30Z</time>
      </trkpt>
      <trkpt lat="45.1086" lon="6.08215">
        <ele>2025.6</ele>
        <time>2024-07-10T09:58:31Z</time>
      </trkpt>
      <trkpt lat="45.10861" lon="6.08215">
        <ele>2025.6</ele>
        <time>2024-07-10T09:58:32Z</time>
      </trkpt>
      <trkpt lat="45.10862" lon="6.08215">
        <ele>2025.6</ele>
        <time>2024-07-10T09:58:33Z</time>
      </trkpt>
      <trkpt lat="45.10865" lon="6.08215">
        <ele>2025.6</ele>
        <time>2024-07-10T09:58:34Z</time>
      </trkpt>
      <trkpt lat="45.10865" lon="6.08215">
        <ele>2025.6</ele>
        <time>2024-07-10T09:58:35Z</time>
      </trkpt>
      <trkpt lat="45.10866" lon="6.08215">
        <ele>2025.6</ele>
        <time>2024-07-10T09:58:36Z</time>
      </trkpt>
      <trkpt lat="45.10867" lon="6.08215">
        <ele>2025.6</ele>
        <time>2024-07-10T09:58:37Z</time>
      </trkpt>
      <trkpt lat="45.10868" lon="6.08215">
        <ele>2025.5</ele>
        <time>2024-07-10T09:58:38Z</time>
      </trkpt>
      <trkpt lat="45.10869" lon="6.08216">
        <ele>2025.5</ele>
        <time>2024-07-10T09:58:39Z</time>
      </trkpt>
      <trkpt lat="45.1087" lon="6.08216">
        <ele>2025.5</ele>
        <time>2024-07-10T09:58:40Z</time>
      </trkpt>
      <trkpt lat="45.10872" lon="6.08216">
        <ele>2025.5</ele>
        <time>2024-07-10T09:58:41Z</time>
      </trkpt>
      <trkpt lat="45.10873" lon="6.08216">
        <ele>2025.5</ele>
        <time>2024-07-10T09:58:42Z</time>
      </trkpt>
      <trkpt lat="45.10873" lon="6.08217">
        <ele>2025.5</ele>
        <time>2024-07-10T09:58:43Z</time>
      </trkpt>
      <trkpt lat="45.10874" lon="6.08218">
        <ele>2025.5</ele>
        <time>2024-07-10T09:58:44Z</time>
      </trkpt>
      <trkpt lat="45.10875" lon="6.08218">
        <ele>2025.5</ele>
        <time>2024-07-10T09:58:45Z</time>
      </trkpt>
      <trkpt lat="45.10876" lon="6.08219">
        <ele>2025.4</ele>
        <time>2024-07-10T09:58:46Z</time>
      </trkpt>
      <trkpt lat="45.10877" lon="6.08219">
        <ele>2025.4</ele>
        <time>2024-07-10T09:58:47Z</time>
      </trkpt>
      <trkpt lat="45.10878" lon="6.08219">
        <ele>2025.4</ele>
        <time>2024-07-10T09:58:48Z</time>
      </trkpt>
      <trkpt lat="45.10881" lon="6.08219">
        <ele>2025.4</ele>
        <time>2024-07-10T09:58:49Z</time>
      </trkpt>
      <trkpt lat="45.10881" lon="6.08218">
        <ele>2025.4</ele>
        <time>2024-07-10T09:58:50Z</time>
      </trkpt>
      <trkpt lat="45.10882" lon="6.08218">
        <ele>2025.4</ele>
        <time>2024-07-10T09:58:51Z</time>
      </trkpt>
      <trkpt lat="45.10884" lon="6.08218">
        <ele>2025.3</ele>
        <time>2024-07-10T09:58:52Z</time>
      </trkpt>
      <trkpt lat="45.10885" lon="6.08217">
        <ele>2025.3</ele>
        <time>2024-07-10T09:58:53Z</time>
      </trkpt>
      <trkpt lat="45.10886" lon="6.08217">
        <ele>2025.3</ele>
        <time>2024-07-10T09:58:54Z</time>
      </trkpt>
      <trkpt lat="45.10888" lon="6.08216">
        <ele>2025.3</ele>
        <time>2024-07-10T09:58:55Z</time>
      </trkpt>
      <trkpt lat="45.10889" lon="6.08216">
        <ele>2025.2</ele>
        <time>2024-07-10T09:58:56Z</time>
      </trkpt>
      <trkpt lat="45.10889" lon="6.08215">
        <ele>2025.2</ele>
        <time>2024-07-10T09:58:57Z</time>
      </trkpt>
      <trkpt lat="45.1089" lon="6.08214">
        <ele>2025.2</ele>
        <time>2024-07-10T09:58:58Z</time>
      </trkpt>
      <trkpt lat="45.10891" lon="6.08214">
        <ele>2025.2</ele>
        <time>2024-07-10T09:58:59Z</time>
      </trkpt>
      <trkpt lat="45.10893" lon="6.08213">
        <ele>2025.2</ele>
        <time>2024-07-10T09:59:00Z</time>
      </trkpt>
      <trkpt lat="45.10894" lon="6.08213">
        <ele>2025.2</ele>
        <time>2024-07-10T09:59:01Z</time>
      </trkpt>
      <trkpt lat="45.10895" lon="6.08212">
        <ele>2025.1</ele>
        <time>2024-07-10T09:59:02Z</time>
      </trkpt>
      <trkpt lat="45.10896" lon="6.08211">
        <ele>2025.1</ele>
        <time>2024-07-10T09:59:03Z</time>
      </trkpt>
      <trkpt lat="45.10898" lon="6.0821">
        <ele>2025.1</ele>
        <time>2024-07-10T09:59:04Z</time>
      </trkpt>
      <trkpt lat="45.10899" lon="6.0821">
        <ele>2025.1</ele>
        <time>2024-07-10T09:59:05Z</time>
      </trkpt>
      <trkpt lat="45.10899" lon="6.0821">
        <ele>2025.2</ele>
        <time>2024-07-10T09:59:06Z</time>
      </trkpt>
      <trkpt lat="45.10901" lon="6.08209">
        <ele>2025.2</ele>
        <time>2024-07-10T09:59:07Z</time>
      </trkpt>
      <trkpt lat="45.10902" lon="6.08209">
        <ele>2025.2</ele>
        <time>2024-07-10T09:59:08Z</time>
      </trkpt>
      <trkpt lat="45.10903" lon="6.08208">
        <ele>2025.2</ele>
        <time>2024-07-10T09:59:09Z</time>
      </trkpt>
      <trkpt lat="45.10904" lon="6.08208">
        <ele>2025.2</ele>
        <time>2024-07-10T09:59:10Z</time>
      </trkpt>
      <trkpt lat="45.10906" lon="6.08208">
        <ele>2025.3</ele>
        <time>2024-07-10T09:59:11Z</time>
      </trkpt>
      <trkpt lat="45.10907" lon="6.08208">
        <ele>2025.3</ele>
        <time>2024-07-10T09:59:12Z</time>
      </trkpt>
      <trkpt lat="45.10908" lon="6.08208">
        <ele>2025.3</ele>
        <time>2024-07-10T09:59:13Z</time>
      </trkpt>
      <trkpt lat="45.10909" lon="6.08209">
        <ele>2025.4</ele>
        <time>2024-07-10T09:59:14Z</time>
      </trkpt>
      <trkpt lat="45.1091" lon="6.08209">
        <ele>2025.4</ele>
        <time>2024-07-10T09:59:15Z</time>
      </trkpt>
      <trkpt lat="45.10912" lon="6.0821">
        <ele>2025.5</ele>
        <time>2024-07-10T09:59:16Z</time>
      </trkpt>
      <trkpt lat="45.10912" lon="6.0821">
        <ele>2025.5</ele>
        <time>2024-07-10T09:59:17Z</time>
      </trkpt>
      <trkpt lat="45.10914" lon="6.08212">
        <ele>2025.6</ele>
        <time>2024-07-10T09:59:18Z</time>
      </trkpt>
      <trkpt lat="45.10915" lon="6.08212">
        <ele>2025.6</ele>
        <time>2024-07-10T09:59:19Z</time>
      </trkpt>
      <trkpt lat="45.10916" lon="6.08213">
        <ele>2025.6</ele>
        <time>2024-07-10T09:59:20Z</time>
      </trkpt>
      <trkpt lat="45.10916" lon="6.08214">
        <ele>2025.7</ele>
        <time>2024-07-10T09:59:21Z</time>
      </trkpt>
      <trkpt lat="45.10917" lon="6.08215">
        <ele>2025.8</ele>
        <time>2024-07-10T09:59:22Z</time>
      </trkpt>
      <trkpt lat="45.10918" lon="6.08216">
        <ele>2025.8</ele>
        <time>2024-07-10T09:59:23Z</time>
      </trkpt>
      <trkpt lat="45.10919" lon="6.08219">
        <ele>2025.9</ele>
        <time>2024-07-10T09:59:24Z</time>
      </trkpt>
      <trkpt lat="45.1092" lon="6.0822">
        <ele>2025.9</ele>
        <time>2024-07-10T09:59:25Z</time>
      </trkpt>
      <trkpt lat="45.1092" lon="6.08221">
        <ele>2026</ele>
        <time>2024-07-10T09:59:26Z</time>
      </trkpt>
      <trkpt lat="45.10921" lon="6.08222">
        <ele>2026</ele>
        <time>2024-07-10T09:59:27Z</time>
      </trkpt>
      <trkpt lat="45.10922" lon="6.08223">
        <ele>2026.1</ele>
        <time>2024-07-10T09:59:28Z</time>
      </trkpt>
      <trkpt lat="45.10922" lon="6.08225">
        <ele>2026.1</ele>
        <time>2024-07-10T09:59:29Z</time>
      </trkpt>
      <trkpt lat="45.10923" lon="6.08226">
        <ele>2026.2</ele>
        <time>2024-07-10T09:59:30Z</time>
      </trkpt>
      <trkpt lat="45.10923" lon="6.08228">
        <ele>2026.2</ele>
        <time>2024-07-10T09:59:31Z</time>
      </trkpt>
      <trkpt lat="45.10923" lon="6.08229">
        <ele>2026.3</ele>
        <time>2024-07-10T09:59:32Z</time>
      </trkpt>
      <trkpt lat="45.10924" lon="6.08231">
        <ele>2026.3</ele>
        <time>2024-07-10T09:59:33Z</time>
      </trkpt>
      <trkpt lat="45.10924" lon="6.08233">
        <ele>2026.4</ele>
        <time>2024-07-10T09:59:34Z</time>
      </trkpt>
      <trkpt lat="45.10924" lon="6.08234">
        <ele>2026.4</ele>
        <time>2024-07-10T09:59:35Z</time>
      </trkpt>
      <trkpt lat="45.10925" lon="6.08237">
        <ele>2026.5</ele>
        <time>2024-07-10T09:59:36Z</time>
      </trkpt>
      <trkpt lat="45.10925" lon="6.08238">
        <ele>2026.5</ele>
        <time>2024-07-10T09:59:37Z</time>
      </trkpt>
      <trkpt lat="45.10925" lon="6.08239">
        <ele>2026.6</ele>
        <time>2024-07-10T09:59:38Z</time>
      </trkpt>
      <trkpt lat="45.10925" lon="6.08242">
        <ele>2026.7</ele>
        <time>2024-07-10T09:59:39Z</time>
      </trkpt>
      <trkpt lat="45.10925" lon="6.08243">
        <ele>2026.7</ele>
        <time>2024-07-10T09:59:40Z</time>
      </trkpt>
      <trkpt lat="45.10926" lon="6.08244">
        <ele>2026.7</ele>
        <time>2024-07-10T09:59:41Z</time>
      </trkpt>
      <trkpt lat="45.10926" lon="6.08245">
        <ele>2026.8</ele>
        <time>2024-07-10T09:59:42Z</time>
      </trkpt>
      <trkpt lat="45.10926" lon="6.08247">
        <ele>2026.8</ele>
        <time>2024-07-10T09:59:43Z</time>
      </trkpt>
      <trkpt lat="45.10927" lon="6.08248">
        <ele>2026.9</ele>
        <time>2024-07-10T09:59:44Z</time>
      </trkpt>
      <trkpt lat="45.10928" lon="6.08249">
        <ele>2026.9</ele>
        <time>2024-07-10T09:59:45Z</time>
      </trkpt>
      <trkpt lat="45.10928" lon="6.0825">
        <ele>2027</ele>
        <time>2024-07-10T09:59:46Z</time>
      </trkpt>
      <trkpt lat="45.10929" lon="6.08251">
        <ele>2027</ele>
        <time>2024-07-10T09:59:47Z</time>
      </trkpt>
      <trkpt lat="45.1093" lon="6.08254">
        <ele>2027.1</ele>
        <time>2024-07-10T09:59:48Z</time>
      </trkpt>
      <trkpt lat="45.1093" lon="6.08255">
        <ele>2027.1</ele>
        <time>2024-07-10T09:59:49Z</time>
      </trkpt>
      <trkpt lat="45.1093" lon="6.08256">
        <ele>2027.1</ele>
        <time>2024-07-10T09:59:50Z</time>
      </trkpt>
      <trkpt lat="45.10931" lon="6.08257">
        <ele>2027.2</ele>
        <time>2024-07-10T09:59:51Z</time>
      </trkpt>
      <trkpt lat="45.10932" lon="6.08259">
        <ele>2027.2</ele>
        <time>2024-07-10T09:59:52Z</time>
      </trkpt>
      <trkpt lat="45.10933" lon="6.08261">
        <ele>2027.3</ele>
        <time>2024-07-10T09:59:53Z</time>
      </trkpt>
      <trkpt lat="45.10934" lon="6.08262">
        <ele>2027.3</ele>
        <time>2024-07-10T09:59:54Z</time>
      </trkpt>
      <trkpt lat="45.10936" lon="6.08264">
        <ele>2027.4</ele>
        <time>2024-07-10T09:59:55Z</time>
      </trkpt>
      <trkpt lat="45.10937" lon="6.08264">
        <ele>2027.4</ele>
        <time>2024-07-10T09:59:56Z</time>
      </trkpt>
      <trkpt lat="45.10937" lon="6.08265">
        <ele>2027.4</ele>
        <time>2024-07-10T09:59:57Z</time>
      </trkpt>
      <trkpt lat="45.10939" lon="6.08266">
        <ele>2027.4</ele>
        <time>2024-07-10T09:59:58Z</time>
      </trkpt>
      <trkpt lat="45.1094" lon="6.08267">
        <ele>2027.5</ele>
        <time>2024-07-10T09:59:59Z</time>
      </trkpt>
      <trkpt lat="45.10942" lon="6.08268">
        <ele>2027.5</ele>
        <time>2024-07-10T10:00:00Z</time>
      </trkpt>
      <trkpt lat="45.10942" lon="6.08269">
        <ele>2027.5</ele>
        <time>2024-07-10T10:00:01Z</time>
      </trkpt>
      <trkpt lat="45.10943" lon="6.0827">
        <ele>2027.5</ele>
        <time>2024-07-10T10:00:02Z</time>
      </trkpt>
      <trkpt lat="45.10945" lon="6.0827">
        <ele>2027.5</ele>
        <time>2024-07-10T10:00:03Z</time>
      </trkpt>
      <trkpt lat="45.10946" lon="6.08271">
        <ele>2027.6</ele>
        <time>2024-07-10T10:00:04Z</time>
      </trkpt>
      <trkpt lat="45.10947" lon="6.08271">
        <ele>2027.6</ele>
        <time>2024-07-10T10:00:05Z</time>
      </trkpt>
      <trkpt lat="45.10948" lon="6.08271">
        <ele>2027.6</ele>
        <time>2024-07-10T10:00:06Z</time>
      </trkpt>
      <trkpt lat="45.1095" lon="6.08271">
        <ele>2027.6</ele>
        <time>2024-07-10T10:00:07Z</time>
      </trkpt>
      <trkpt lat="45.10951" lon="6.08271">
        <ele>2027.6</ele>
        <time>2024-07-10T10:00:08Z</time>
      </trkpt>
      <trkpt lat="45.10953" lon="6.08271">
        <ele>2027.7</ele>
        <time>2024-07-10T10:00:09Z</time>
      </trkpt>
      <trkpt lat="45.10954" lon="6.08272">
        <ele>2027.7</ele>
        <time>2024-07-10T10:00:10Z</time>
      </trkpt>
      <trkpt lat="45.10955" lon="6.08272">
        <ele>2027.7</ele>
        <time>2024-07-10T10:00:11Z</time>
      </trkpt>
      <trkpt lat="45.10956" lon="6.08273">
        <ele>2027.7</ele>
        <time>2024-07-10T10:00:12Z</time>
      </trkpt>
      <trkpt lat="45.10957" lon="6.08273">
        <ele>2027.8</ele>
        <time>2024-07-10T10:00:13Z</time>
      </trkpt>
      <trkpt lat="45.10958" lon="6.08274">
        <ele>2027.8</ele>
        <time>2024-07-10T10:00:14Z</time>
      </trkpt>
      <trkpt lat="45.10959" lon="6.08274">
        <ele>2027.8</ele>
        <time>2024-07-10T10:00:15Z</time>
      </trkpt>
      <trkpt lat="45.1096" lon="6.08275">
        <ele>2027.8</ele>
        <time>2024-07-10T10:00:16Z</time>
      </trkpt>
      <trkpt lat="45.10961" lon="6.08276">
        <ele>2027.9</ele>
        <time>2024-07-10T10:00:17Z</time>
      </trkpt>
      <trkpt lat="45.10962" lon="6.08276">
        <ele>2027.9</ele>
        <time>2024-07-10T10:00:18Z</time>
      </trkpt>
      <trkpt lat="45.10963" lon="6.08277">
        <ele>2027.9</ele>
        <time>2024-07-10T10:00:19Z</time>
      </trkpt>
      <trkpt lat="45.10965" lon="6.08278">
        <ele>2028</ele>
        <time>2024-07-10T10:00:20Z</time>
      </trkpt>
      <trkpt lat="45.10966" lon="6.08279">
        <ele>2028</ele>
        <time>2024-07-10T10:00:21Z</time>
      </trkpt>
      <trkpt lat="45.10967" lon="6.0828">
        <ele>2028</ele>
        <time>2024-07-10T10:00:22Z</time>
      </trkpt>
      <trkpt lat="45.10968" lon="6.0828">
        <ele>2028.1</ele>
        <time>2024-07-10T10:00:23Z</time>
      </trkpt>
      <trkpt lat="45.10968" lon="6.08281">
        <ele>2028.1</ele>
        <time>2024-07-10T10:00:24Z</time>
      </trkpt>
      <trkpt lat="45.1097" lon="6.08282">
        <ele>2028.1</ele>
        <time>2024-07-10T10:00:25Z</time>
      </trkpt>
      <trkpt lat="45.1097" lon="6.08283">
        <ele>2028.2</ele>
        <time>2024-07-10T10:00:26Z</time>
      </trkpt>
      <trkpt lat="45.10972" lon="6.08284">
        <ele>2028.2</ele>
        <time>2024-07-10T10:00:27Z</time>
      </trkpt>
      <trkpt lat="45.10972" lon="6.08285">
        <ele>2028.3</ele>
        <time>2024-07-10T10:00:28Z</time>
      </trkpt>
      <trkpt lat="45.10973" lon="6.08286">
        <ele>2028.3</ele>
        <time>2024-07-10T10:00:29Z</time>
      </trkpt>
      <trkpt lat="45.10974" lon="6.08287">
        <ele>2028.3</ele>
        <time>2024-07-10T10:00:30Z</time>
      </trkpt>
      <trkpt lat="45.10975" lon="6.08289">
        <ele>2028.4</ele>
        <time>2024-07-10T10:00:31Z</time>
      </trkpt>
      <trkpt lat="45.10976" lon="6.0829">
        <ele>2028.4</ele>
        <time>2024-07-10T10:00:32Z</time>
      </trkpt>
      <trkpt lat="45.10976" lon="6.08291">
        <ele>2028.5</ele>
        <time>2024-07-10T10:00:33Z</time>
      </trkpt>
      <trkpt lat="45.10977" lon="6.08293">
        <ele>2028.5</ele>
        <time>2024-07-10T10:00:34Z</time>
      </trkpt>
      <trkpt lat="45.10978" lon="6.08295">
        <ele>2028.6</ele>
        <time>2024-07-10T10:00:35Z</time>
      </trkpt>
      <trkpt lat="45.10978" lon="6.08296">
        <ele>2028.6</ele>
        <time>2024-07-10T10:00:36Z</time>
      </trkpt>
      <trkpt lat="45.10979" lon="6.08297">
        <ele>2028.6</ele>
        <time>2024-07-10T10:00:37Z</time>
      </trkpt>
      <trkpt lat="45.10979" lon="6.08298">
        <ele>2028.7</ele>
        <time>2024-07-10T10:00:38Z</time>
      </trkpt>
      <trkpt lat="45.1098" lon="6.08299">
        <ele>2028.7</ele>
        <time>2024-07-10T10:00:39Z</time>
      </trkpt>
      <trkpt lat="45.10981" lon="6.08301">
        <ele>2028.8</ele>
        <time>2024-07-10T10:00:40Z</time>
      </trkpt>
      <trkpt lat="45.10982" lon="6.08302">
        <ele>2028.8</ele>
        <time>2024-07-10T10:00:41Z</time>
      </trkpt>
      <trkpt lat="45.10983" lon="6.08304">
        <ele>2028.8</ele>
        <time>2024-07-10T10:00:42Z</time>
      </trkpt>
      <trkpt lat="45.10984" lon="6.08305">
        <ele>2028.9</ele>
        <time>2024-07-10T10:00:43Z</time>
      </trkpt>
      <trkpt lat="45.10984" lon="6.08306">
        <ele>2028.9</ele>
        <time>2024-07-10T10:00:44Z</time>
      </trkpt>
      <trkpt lat="45.10985" lon="6.08307">
        <ele>2029</ele>
        <time>2024-07-10T10:00:45Z</time>
      </trkpt>
      <trkpt lat="45.10987" lon="6.08308">
        <ele>2029</ele>
        <time>2024-07-10T10:00:46Z</time>
      </trkpt>
      <trkpt lat="45.10988" lon="6.08309">
        <ele>2029.1</ele>
        <time>2024-07-10T10:00:47Z</time>
      </trkpt>
      <trkpt lat="45.10989" lon="6.08309">
        <ele>2029.1</ele>
        <time>2024-07-10T10:00:48Z</time>
      </trkpt>
      <trkpt lat="45.1099" lon="6.0831">
        <ele>2029.1</ele>
        <time>2024-07-10T10:00:49Z</time>
      </trkpt>
      <trkpt lat="45.10992" lon="6.0831">
        <ele>2029.2</ele>
        <time>2024-07-10T10:00:50Z</time>
      </trkpt>
      <trkpt lat="45.10992" lon="6.08311">
        <ele>2029.2</ele>
        <time>2024-07-10T10:00:51Z</time>
      </trkpt>
      <trkpt lat="45.10994" lon="6.08312">
        <ele>2029.3</ele>
        <time>2024-07-10T10:00:52Z</time>
      </trkpt>
      <trkpt lat="45.10995" lon="6.08312">
        <ele>2029.3</ele>
        <time>2024-07-10T10:00:53Z</time>
      </trkpt>
      <trkpt lat="45.10996" lon="6.08313">
        <ele>2029.3</ele>
        <time>2024-07-10T10:00:54Z</time>
      </trkpt>
      <trkpt lat="45.10997" lon="6.08313">
        <ele>2029.4</ele>
        <time>2024-07-10T10:00:55Z</time>
      </trkpt>
      <trkpt lat="45.10998" lon="6.08313">
        <ele>2029.4</ele>
        <time>2024-07-10T10:00:56Z</time>
      </trkpt>
      <trkpt lat="45.10999" lon="6.08312">
        <ele>2029.5</ele>
        <time>2024-07-10T10:00:57Z</time>
      </trkpt>
      <trkpt lat="45.11" lon="6.08313">
        <ele>2029.5</ele>
        <time>2024-07-10T10:00:58Z</time>
      </trkpt>
      <trkpt lat="45.11" lon="6.08313">
        <ele>2029.5</ele>
        <time>2024-07-10T10:00:59Z</time>
      </trkpt>
      <trkpt lat="45.11001" lon="6.08314">
        <ele>2029.6</ele>
        <time>2024-07-10T10:01:00Z</time>
      </trkpt>
      <trkpt lat="45.11002" lon="6.08314">
        <ele>2029.6</ele>
        <time>2024-07-10T10:01:01Z</time>
      </trkpt>
      <trkpt lat="45.11002" lon="6.08315">
        <ele>2029.7</ele>
        <time>2024-07-10T10:01:02Z</time>
      </trkpt>
      <trkpt lat="45.11003" lon="6.08316">
        <ele>2029.7</ele>
        <time>2024-07-10T10:01:03Z</time>
      </trkpt>
      <trkpt lat="45.11004" lon="6.08316">
        <ele>2029.8</ele>
        <time>2024-07-10T10:01:04Z</time>
      </trkpt>
      <trkpt lat="45.11006" lon="6.08318">
        <ele>2029.9</ele>
        <time>2024-07-10T10:01:05Z</time>
      </trkpt>
      <trkpt lat="45.11006" lon="6.08319">
        <ele>2029.9</ele>
        <time>2024-07-10T10:01:06Z</time>
      </trkpt>
      <trkpt lat="45.11007" lon="6.0832">
        <ele>2030</ele>
        <time>2024-07-10T10:01:07Z</time>
      </trkpt>
      <trkpt lat="45.11008" lon="6.08321">
        <ele>2030</ele>
        <time>2024-07-10T10:01:08Z</time>
      </trkpt>
      <trkpt lat="45.11009" lon="6.08322">
        <ele>2030.1</ele>
        <time>2024-07-10T10:01:09Z</time>
      </trkpt>
      <trkpt lat="45.1101" lon="6.08323">
        <ele>2030.2</ele>
        <time>2024-07-10T10:01:10Z</time>
      </trkpt>
      <trkpt lat="45.11011" lon="6.08324">
        <ele>2030.3</ele>
        <time>2024-07-10T10:01:11Z</time>
      </trkpt>
      <trkpt lat="45.11012" lon="6.08325">
        <ele>2030.4</ele>
        <time>2024-07-10T10:01:12Z</time>
      </trkpt>
      <trkpt lat="45.11015" lon="6.08325">
        <ele>2030.7</ele>
        <time>2024-07-10T10:01:13Z</time>
      </trkpt>
      <trkpt lat="45.11016" lon="6.08326">
        <ele>2030.7</ele>
        <time>2024-07-10T10:01:14Z</time>
      </trkpt>
      <trkpt lat="45.11017" lon="6.08326">
        <ele>2030.9</ele>
        <time>2024-07-10T10:01:15Z</time>
      </trkpt>
      <trkpt lat="45.11019" lon="6.08327">
        <ele>2031</ele>
        <time>2024-07-10T10:01:16Z</time>
      </trkpt>
      <trkpt lat="45.1102" lon="6.08328">
        <ele>2031.1</ele>
        <time>2024-07-10T10:01:17Z</time>
      </trkpt>
      <trkpt lat="45.11021" lon="6.08328">
        <ele>2031.2</ele>
        <time>2024-07-10T10:01:18Z</time>
      </trkpt>
      <trkpt lat="45.11022" lon="6.08329">
        <ele>2031.3</ele>
        <time>2024-07-10T10:01:19Z</time>
      </trkpt>
      <trkpt lat="45.11023" lon="6.0833">
        <ele>2031.5</ele>
        <time>2024-07-10T10:01:20Z</time>
      </trkpt>
      <trkpt lat="45.11024" lon="6.08331">
        <ele>2031.6</ele>
        <time>2024-07-10T10:01:21Z</time>
      </trkpt>
      <trkpt lat="45.11025" lon="6.08332">
        <ele>2031.7</ele>
        <time>2024-07-10T10:01:22Z</time>
      </trkpt>
      <trkpt lat="45.11027" lon="6.08334">
        <ele>2031.9</ele>
        <time>2024-07-10T10:01:23Z</time>
      </trkpt>
      <trkpt lat="45.11027" lon="6.08334">
        <ele>2032</ele>
        <time>2024-07-10T10:01:24Z</time>
      </trkpt>
      <trkpt lat="45.11028" lon="6.08335">
        <ele>2032.1</ele>
        <time>2024-07-10T10:01:25Z</time>
      </trkpt>
      <trkpt lat="45.1103" lon="6.08337">
        <ele>2032.4</ele>
        <time>2024-07-10T10:01:26Z</time>
      </trkpt>
      <trkpt lat="45.1103" lon="6.08338">
        <ele>2032.5</ele>
        <time>2024-07-10T10:01:27Z</time>
      </trkpt>
      <trkpt lat="45.11031" lon="6.08339">
        <ele>2032.6</ele>
        <time>2024-07-10T10:01:28Z</time>
      </trkpt>
      <trkpt lat="45.11033" lon="6.0834">
        <ele>2032.9</ele>
        <time>2024-07-10T10:01:29Z</time>
      </trkpt>
      <trkpt lat="45.11034" lon="6.0834">
        <ele>2033</ele>
        <time>2024-07-10T10:01:30Z</time>
      </trkpt>
      <trkpt lat="45.11035" lon="6.0834">
        <ele>2033.1</ele>
        <time>2024-07-10T10:01:31Z</time>
      </trkpt>
      <trkpt lat="45.11036" lon="6.08341">
        <ele>2033.3</ele>
        <time>2024-07-10T10:01:32Z</time>
      </trkpt>
      <trkpt lat="45.11037" lon="6.08342">
        <ele>2033.5</ele>
        <time>2024-07-10T10:01:33Z</time>
      </trkpt>
      <trkpt lat="45.11038" lon="6.08342">
        <ele>2033.6</ele>
        <time>2024-07-10T10:01:34Z</time>
      </trkpt>
      <trkpt lat="45.1104" lon="6.08343">
        <ele>2033.8</ele>
        <time>2024-07-10T10:01:35Z</time>
      </trkpt>
      <trkpt lat="45.11041" lon="6.08343">
        <ele>2033.9</ele>
        <time>2024-07-10T10:01:36Z</time>
      </trkpt>
      <trkpt lat="45.11042" lon="6.08344">
        <ele>2034.1</ele>
        <time>2024-07-10T10:01:37Z</time>
      </trkpt>
      <trkpt lat="45.11043" lon="6.08345">
        <ele>2034.3</ele>
        <time>2024-07-10T10:01:38Z</time>
      </trkpt>
      <trkpt lat="45.11045" lon="6.08345">
        <ele>2034.5</ele>
        <time>2024-07-10T10:01:39Z</time>
      </trkpt>
      <trkpt lat="45.11046" lon="6.08345">
        <ele>2034.6</ele>
        <time>2024-07-10T10:01:40Z</time>
      </trkpt>
      <trkpt lat="45.11047" lon="6.08346">
        <ele>2034.7</ele>
        <time>2024-07-10T10:01:41Z</time>
      </trkpt>
      <trkpt lat="45.11048" lon="6.08346">
        <ele>2034.9</ele>
        <time>2024-07-10T10:01:42Z</time>
      </trkpt>
      <trkpt lat="45.11049" lon="6.08346">
        <ele>2035</ele>
        <time>2024-07-10T10:01:43Z</time>
      </trkpt>
      <trkpt lat="45.1105" lon="6.08347">
        <ele>2035.2</ele>
        <time>2024-07-10T10:01:44Z</time>
      </trkpt>
      <trkpt lat="45.11051" lon="6.08347">
        <ele>2035.3</ele>
        <time>2024-07-10T10:01:45Z</time>
      </trkpt>
      <trkpt lat="45.11052" lon="6.08348">
        <ele>2035.4</ele>
        <time>2024-07-10T10:01:46Z</time>
      </trkpt>
      <trkpt lat="45.11053" lon="6.08348">
        <ele>2035.6</ele>
        <time>2024-07-10T10:01:47Z</time>
      </trkpt>
      <trkpt lat="45.11055" lon="6.08348">
        <ele>2035.7</ele>
        <time>2024-07-10T10:01:48Z</time>
      </trkpt>
      <trkpt lat="45.11056" lon="6.08348">
        <ele>2035.9</ele>
        <time>2024-07-10T10:01:49Z</time>
      </trkpt>
      <trkpt lat="45.11057" lon="6.08348">
        <ele>2036</ele>
        <time>2024-07-10T10:01:50Z</time>
      </trkpt>
      <trkpt lat="45.11059" lon="6.08349">
        <ele>2036.3</ele>
        <time>2024-07-10T10:01:51Z</time>
      </trkpt>
      <trkpt lat="45.1106" lon="6.08349">
        <ele>2036.4</ele>
        <time>2024-07-10T10:01:52Z</time>
      </trkpt>
      <trkpt lat="45.1106" lon="6.08349">
        <ele>2036.5</ele>
        <time>2024-07-10T10:01:53Z</time>
      </trkpt>
      <trkpt lat="45.11061" lon="6.08348">
        <ele>2036.6</ele>
        <time>2024-07-10T10:01:54Z</time>
      </trkpt>
      <trkpt lat="45.11062" lon="6.08348">
        <ele>2036.8</ele>
        <time>2024-07-10T10:01:55Z</time>
      </trkpt>
      <trkpt lat="45.11064" lon="6.08348">
        <ele>2037</ele>
        <time>2024-07-10T10:01:56Z</time>
      </trkpt>
      <trkpt lat="45.11066" lon="6.08347">
        <ele>2037.2</ele>
        <time>2024-07-10T10:01:57Z</time>
      </trkpt>
      <trkpt lat="45.11067" lon="6.08347">
        <ele>2037.4</ele>
        <time>2024-07-10T10:01:58Z</time>
      </trkpt>
      <trkpt lat="45.11068" lon="6.08347">
        <ele>2037.5</ele>
        <time>2024-07-10T10:01:59Z</time>
      </trkpt>
      <trkpt lat="45.11069" lon="6.08347">
        <ele>2037.7</ele>
        <time>2024-07-10T10:02:00Z</time>
      </trkpt>
      <trkpt lat="45.1107" lon="6.08347">
        <ele>2037.8</ele>
        <time>2024-07-10T10:02:01Z</time>
      </trkpt>
      <trkpt lat="45.11072" lon="6.08346">
        <ele>2038</ele>
        <time>2024-07-10T10:02:02Z</time>
      </trkpt>
      <trkpt lat="45.11073" lon="6.08346">
        <ele>2038.2</ele>
        <time>2024-07-10T10:02:03Z</time>
      </trkpt>
      <trkpt lat="45.11074" lon="6.08346">
        <ele>2038.4</ele>
        <time>2024-07-10T10:02:04Z</time>
      </trkpt>
      <trkpt lat="45.11075" lon="6.08345">
        <ele>2038.5</ele>
        <time>2024-07-10T10:02:05Z</time>
      </trkpt>
      <trkpt lat="45.11077" lon="6.08345">
        <ele>2038.7</ele>
        <time>2024-07-10T10:02:06Z</time>
      </trkpt>
      <trkpt lat="45.11078" lon="6.08345">
        <ele>2038.9</ele>
        <time>2024-07-10T10:02:07Z</time>
      </trkpt>
      <trkpt lat="45.11079" lon="6.08345">
        <ele>2039.1</ele>
        <time>2024-07-10T10:02:08Z</time>
      </trkpt>
      <trkpt lat="45.1108" lon="6.08345">
        <ele>2039.2</ele>
        <time>2024-07-10T10:02:09Z</time>
      </trkpt>
      <trkpt lat="45.11081" lon="6.08345">
        <ele>2039.3</ele>
        <time>2024-07-10T10:02:10Z</time>
      </trkpt>
      <trkpt lat="45.11082" lon="6.08346">
        <ele>2039.5</ele>
        <time>2024-07-10T10:02:11Z</time>
      </trkpt>
      <trkpt lat="45.11083" lon="6.08346">
        <ele>2039.6</ele>
        <time>2024-07-10T10:02:12Z</time>
      </trkpt>
      <trkpt lat="45.11084" lon="6.08347">
        <ele>2039.8</ele>
        <time>2024-07-10T10:02:13Z</time>
      </trkpt>
      <trkpt lat="45.11085" lon="6.08347">
        <ele>2039.9</ele>
        <time>2024-07-10T10:02:14Z</time>
      </trkpt>
      <trkpt lat="45.11086" lon="6.08348">
        <ele>2040</ele>
        <time>2024-07-10T10:02:15Z</time>
      </trkpt>
      <trkpt lat="45.11087" lon="6.08349">
        <ele>2040.2</ele>
        <time>2024-07-10T10:02:16Z</time>
      </trkpt>
      <trkpt lat="45.11087" lon="6.0835">
        <ele>2040.3</ele>
        <time>2024-07-10T10:02:17Z</time>
      </trkpt>
      <trkpt lat="45.11088" lon="6.08351">
        <ele>2040.5</ele>
        <time>2024-07-10T10:02:18Z</time>
      </trkpt>
      <trkpt lat="45.11089" lon="6.08351">
        <ele>2040.6</ele>
        <time>2024-07-10T10:02:19Z</time>
      </trkpt>
      <trkpt lat="45.1109" lon="6.08351">
        <ele>2040.7</ele>
        <time>2024-07-10T10:02:20Z</time>
      </trkpt>
      <trkpt lat="45.11091" lon="6.08352">
        <ele>2040.8</ele>
        <time>2024-07-10T10:02:21Z</time>
      </trkpt>
      <trkpt lat="45.11092" lon="6.08352">
        <ele>2041</ele>
        <time>2024-07-10T10:02:22Z</time>
      </trkpt>
      <trkpt lat="45.11093" lon="6.08353">
        <ele>2041.2</ele>
        <time>2024-07-10T10:02:23Z</time>
      </trkpt>
      <trkpt lat="45.11094" lon="6.08353">
        <ele>2041.3</ele>
        <time>2024-07-10T10:02:24Z</time>
      </trkpt>
      <trkpt lat="45.11095" lon="6.08353">
        <ele>2041.4</ele>
        <time>2024-07-10T10:02:25Z</time>
      </trkpt>
      <trkpt lat="45.11096" lon="6.08353">
        <ele>2041.5</ele>
        <time>2024-07-10T10:02:26Z</time>
      </trkpt>
      <trkpt lat="45.11097" lon="6.08353">
        <ele>2041.7</ele>
        <time>2024-07-10T10:02:27Z</time>
      </trkpt>
      <trkpt lat="45.11098" lon="6.08353">
        <ele>2041.9</ele>
        <time>2024-07-10T10:02:28Z</time>
      </trkpt>
      <trkpt lat="45.11099" lon="6.08354">
        <ele>2042</ele>
        <time>2024-07-10T10:02:29Z</time>
      </trkpt>
      <trkpt lat="45.111" lon="6.08354">
        <ele>2042.1</ele>
        <time>2024-07-10T10:02:30Z</time>
      </trkpt>
      <trkpt lat="45.11101" lon="6.08355">
        <ele>2042.3</ele>
        <time>2024-07-10T10:02:31Z</time>
      </trkpt>
      <trkpt lat="45.11102" lon="6.08355">
        <ele>2042.4</ele>
        <time>2024-07-10T10:02:32Z</time>
      </trkpt>
      <trkpt lat="45.11103" lon="6.08356">
        <ele>2042.6</ele>
        <time>2024-07-10T10:02:33Z</time>
      </trkpt>
      <trkpt lat="45.11104" lon="6.08356">
        <ele>2042.7</ele>
        <time>2024-07-10T10:02:34Z</time>
      </trkpt>
      <trkpt lat="45.11105" lon="6.08356">
        <ele>2042.9</ele>
        <time>2024-07-10T10:02:35Z</time>
      </trkpt>
      <trkpt lat="45.11106" lon="6.08356">
        <ele>2043</ele>
        <time>2024-07-10T10:02:36Z</time>
      </trkpt>
      <trkpt lat="45.11107" lon="6.08357">
        <ele>2043.2</ele>
        <time>2024-07-10T10:02:37Z</time>
      </trkpt>
      <trkpt lat="45.11108" lon="6.08357">
        <ele>2043.3</ele>
        <time>2024-07-10T10:02:38Z</time>
      </trkpt>
      <trkpt lat="45.11109" lon="6.08357">
        <ele>2043.4</ele>
        <time>2024-07-10T10:02:39Z</time>
      </trkpt>
      <trkpt lat="45.1111" lon="6.08357">
        <ele>2043.5</ele>
        <time>2024-07-10T10:02:40Z</time>
      </trkpt>
      <trkpt lat="45.11112" lon="6.08358">
        <ele>2043.8</ele>
        <time>2024-07-10T10:02:41Z</time>
      </trkpt>
      <trkpt lat="45.11113" lon="6.08358">
        <ele>2043.9</ele>
        <time>2024-07-10T10:02:42Z</time>
      </trkpt>
      <trkpt lat="45.11114" lon="6.08358">
        <ele>2044</ele>
        <time>2024-07-10T10:02:43Z</time>
      </trkpt>
      <trkpt lat="45.11115" lon="6.08359">
        <ele>2044.2</ele>
        <time>2024-07-10T10:02:44Z</time>
      </trkpt>
      <trkpt lat="45.11116" lon="6.08358">
        <ele>2044.3</ele>
        <time>2024-07-10T10:02:45Z</time>
      </trkpt>
      <trkpt lat="45.11117" lon="6.08359">
        <ele>2044.5</ele>
        <time>2024-07-10T10:02:46Z</time>
      </trkpt>
      <trkpt lat="45.11118" lon="6.08359">
        <ele>2044.6</ele>
        <time>2024-07-10T10:02:47Z</time>
      </trkpt>
      <trkpt lat="45.1112" lon="6.08359">
        <ele>2044.8</ele>
        <time>2024-07-10T10:02:48Z</time>
      </trkpt>
      <trkpt lat="45.11121" lon="6.08359">
        <ele>2044.9</ele>
        <time>2024-07-10T10:02:49Z</time>
      </trkpt>
      <trkpt lat="45.11122" lon="6.0836">
        <ele>2045.1</ele>
        <time>2024-07-10T10:02:50Z</time>
      </trkpt>
      <trkpt lat="45.11123" lon="6.0836">
        <ele>2045.2</ele>
        <time>2024-07-10T10:02:51Z</time>
      </trkpt>
      <trkpt lat="45.11125" lon="6.08361">
        <ele>2045.5</ele>
        <time>2024-07-10T10:02:52Z</time>
      </trkpt>
      <trkpt lat="45.11126" lon="6.08362">
        <ele>2045.6</ele>
        <time>2024-07-10T10:02:53Z</time>
      </trkpt>
      <trkpt lat="45.11127" lon="6.08362">
        <ele>2045.6</ele>
        <time>2024-07-10T10:02:54Z</time>
      </trkpt>
      <trkpt lat="45.11128" lon="6.08363">
        <ele>2045.8</ele>
        <time>2024-07-10T10:02:55Z</time>
      </trkpt>
      <trkpt lat="45.11129" lon="6.08363">
        <ele>2045.9</ele>
        <time>2024-07-10T10:02:56Z</time>
      </trkpt>
      <trkpt lat="45.1113" lon="6.08364">
        <ele>2046</ele>
        <time>2024-07-10T10:02:57Z</time>
      </trkpt>
      <trkpt lat="45.11131" lon="6.08365">
        <ele>2046.2</ele>
        <time>2024-07-10T10:02:58Z</time>
      </trkpt>
      <trkpt lat="45.11132" lon="6.08365">
        <ele>2046.3</ele>
        <time>2024-07-10T10:02:59Z</time>
      </trkpt>
      <trkpt lat="45.11133" lon="6.08366">
        <ele>2046.4</ele>
        <time>2024-07-10T10:03:00Z</time>
      </trkpt>
      <trkpt lat="45.11134" lon="6.08367">
        <ele>2046.6</ele>
        <time>2024-07-10T10:03:01Z</time>
      </trkpt>
      <trkpt lat="45.11135" lon="6.08368">
        <ele>2046.7</ele>
        <time>2024-07-10T10:03:02Z</time>
      </trkpt>
      <trkpt lat="45.11136" lon="6.08368">
        <ele>2046.8</ele>
        <time>2024-07-10T10:03:03Z</time>
      </trkpt>
      <trkpt lat="45.11137" lon="6.08369">
        <ele>2046.9</ele>
        <time>2024-07-10T10:03:04Z</time>
      </trkpt>
      <trkpt lat="45.11138" lon="6.0837">
        <ele>2047</ele>
        <time>2024-07-10T10:03:05Z</time>
      </trkpt>
      <trkpt lat="45.1114" lon="6.08371">
        <ele>2047.2</ele>
        <time>2024-07-10T10:03:06Z</time>
      </trkpt>
      <trkpt lat="45.1114" lon="6.08372">
        <ele>2047.3</ele>
        <time>2024-07-10T10:03:07Z</time>
      </trkpt>
      <trkpt lat="45.11141" lon="6.08372">
        <ele>2047.4</ele>
        <time>2024-07-10T10:03:08Z</time>
      </trkpt>
      <trkpt lat="45.11142" lon="6.08373">
        <ele>2047.5</ele>
        <time>2024-07-10T10:03:09Z</time>
      </trkpt>
      <trkpt lat="45.11143" lon="6.08374">
        <ele>2047.6</ele>
        <time>2024-07-10T10:03:10Z</time>
      </trkpt>
      <trkpt lat="45.11144" lon="6.08374">
        <ele>2047.7</ele>
        <time>2024-07-10T10:03:11Z</time>
      </trkpt>
      <trkpt lat="45.11146" lon="6.08374">
        <ele>2047.8</ele>
        <time>2024-07-10T10:03:12Z</time>
      </trkpt>
      <trkpt lat="45.11147" lon="6.08375">
        <ele>2048</ele>
        <time>2024-07-10T10:03:13Z</time>
      </trkpt>
      <trkpt lat="45.11148" lon="6.08376">
        <ele>2048.1</ele>
        <time>2024-07-10T10:03:14Z</time>
      </trkpt>
      <trkpt lat="45.11149" lon="6.08377">
        <ele>2048.2</ele>
        <time>2024-07-10T10:03:15Z</time>
      </trkpt>
      <trkpt lat="45.11151" lon="6.08377">
        <ele>2048.3</ele>
        <time>2024-07-10T10:03:16Z</time>
      </trkpt>
      <trkpt lat="45.11152" lon="6.08378">
        <ele>2048.4</ele>
        <time>2024-07-10T10:03:17Z</time>
      </trkpt>
      <trkpt lat="45.11153" lon="6.08379">
        <ele>2048.5</ele>
        <time>2024-07-10T10:03:18Z</time>
      </trkpt>
      <trkpt lat="45.11154" lon="6.08379">
        <ele>2048.6</ele>
        <time>2024-07-10T10:03:19Z</time>
      </trkpt>
      <trkpt lat="45.11155" lon="6.0838">
        <ele>2048.7</ele>
        <time>2024-07-10T10:03:20Z</time>
      </trkpt>
      <trkpt lat="45.11156" lon="6.0838">
        <ele>2048.8</ele>
        <time>2024-07-10T10:03:21Z</time>
      </trkpt>
      <trkpt lat="45.11157" lon="6.0838">
        <ele>2048.9</ele>
        <time>2024-07-10T10:03:22Z</time>
      </trkpt>
      <trkpt lat="45.11159" lon="6.08382">
        <ele>2049.1</ele>
        <time>2024-07-10T10:03:23Z</time>
      </trkpt>
      <trkpt lat="45.1116" lon="6.08382">
        <ele>2049.1</ele>
        <time>2024-07-10T10:03:24Z</time>
      </trkpt>
      <trkpt lat="45.11161" lon="6.08382">
        <ele>2049.2</ele>
        <time>2024-07-10T10:03:25Z</time>
      </trkpt>
      <trkpt lat="45.11162" lon="6.08383">
        <ele>2049.3</ele>
        <time>2024-07-10T10:03:26Z</time>
      </trkpt>
      <trkpt lat="45.11163" lon="6.08384">
        <ele>2049.4</ele>
        <time>2024-07-10T10:03:27Z</time>
      </trkpt>
      <trkpt lat="45.11165" lon="6.08385">
        <ele>2049.6</ele>
        <time>2024-07-10T10:03:28Z</time>
      </trkpt>
      <trkpt lat="45.11166" lon="6.08385">
        <ele>2049.6</ele>
        <time>2024-07-10T10:03:29Z</time>
      </trkpt>
      <trkpt lat="45.11167" lon="6.08386">
        <ele>2049.7</ele>
        <time>2024-07-10T10:03:30Z</time>
      </trkpt>
      <trkpt lat="45.11168" lon="6.08387">
        <ele>2049.8</ele>
        <time>2024-07-10T10:03:31Z</time>
      </trkpt>
      <trkpt lat="45.11169" lon="6.08387">
        <ele>2049.9</ele>
        <time>2024-07-10T10:03:32Z</time>
      </trkpt>
      <trkpt lat="45.11171" lon="6.08388">
        <ele>2050.1</ele>
        <time>2024-07-10T10:03:33Z</time>
      </trkpt>
      <trkpt lat="45.11171" lon="6.08388">
        <ele>2050.1</ele>
        <time>2024-07-10T10:03:34Z</time>
      </trkpt>
      <trkpt lat="45.11173" lon="6.08389">
        <ele>2050.2</ele>
        <time>2024-07-10T10:03:35Z</time>
      </trkpt>
      <trkpt lat="45.11174" lon="6.0839">
        <ele>2050.3</ele>
        <time>2024-07-10T10:03:36Z</time>
      </trkpt>
      <trkpt lat="45.11175" lon="6.0839">
        <ele>2050.4</ele>
        <time>2024-07-10T10:03:37Z</time>
      </trkpt>
      <trkpt lat="45.11177" lon="6.08391">
        <ele>2050.5</ele>
        <time>2024-07-10T10:03:38Z</time>
      </trkpt>
      <trkpt lat="45.11177" lon="6.08392">
        <ele>2050.6</ele>
        <time>2024-07-10T10:03:39Z</time>
      </trkpt>
      <trkpt lat="45.11178" lon="6.08392">
        <ele>2050.7</ele>
        <time>2024-07-10T10:03:40Z</time>
      </trkpt>
      <trkpt lat="45.11179" lon="6.08393">
        <ele>2050.8</ele>
        <time>2024-07-10T10:03:41Z</time>
      </trkpt>
      <trkpt lat="45.1118" lon="6.08394">
        <ele>2050.9</ele>
        <time>2024-07-10T10:03:42Z</time>
      </trkpt>
      <trkpt lat="45.11182" lon="6.08395">
        <ele>2051</ele>
        <time>2024-07-10T10:03:43Z</time>
      </trkpt>
      <trkpt lat="45.11182" lon="6.08395">
        <ele>2051</ele>
        <time>2024-07-10T10:03:44Z</time>
      </trkpt>
      <trkpt lat="45.11183" lon="6.08396">
        <ele>2051.1</ele>
        <time>2024-07-10T10:03:45Z</time>
      </trkpt>
      <trkpt lat="45.11184" lon="6.08396">
        <ele>2051.2</ele>
        <time>2024-07-10T10:03:46Z</time>
      </trkpt>
      <trkpt lat="45.11185" lon="6.08397">
        <ele>2051.3</ele>
        <time>2024-07-10T10:03:47Z</time>
      </trkpt>
      <trkpt lat="45.11187" lon="6.08398">
        <ele>2051.4</ele>
        <time>2024-07-10T10:03:48Z</time>
      </trkpt>
      <trkpt lat="45.11187" lon="6.08399">
        <ele>2051.5</ele>
        <time>2024-07-10T10:03:49Z</time>
      </trkpt>
      <trkpt lat="45.11188" lon="6.084">
        <ele>2051.6</ele>
        <time>2024-07-10T10:03:50Z</time>
      </trkpt>
      <trkpt lat="45.1119" lon="6.08402">
        <ele>2051.7</ele>
        <time>2024-07-10T10:03:51Z</time>
      </trkpt>
      <trkpt lat="45.11191" lon="6.08403">
        <ele>2051.8</ele>
        <time>2024-07-10T10:03:52Z</time>
      </trkpt>
      <trkpt lat="45.11191" lon="6.08403">
        <ele>2051.9</ele>
        <time>2024-07-10T10:03:53Z</time>
      </trkpt>
      <trkpt lat="45.11192" lon="6.08405">
        <ele>2052</ele>
        <time>2024-07-10T10:03:54Z</time>
      </trkpt>
      <trkpt lat="45.11194" lon="6.08406">
        <ele>2052.1</ele>
        <time>2024-07-10T10:03:55Z</time>
      </trkpt>
      <trkpt lat="45.11195" lon="6.08408">
        <ele>2052.3</ele>
        <time>2024-07-10T10:03:56Z</time>
      </trkpt>
      <trkpt lat="45.11196" lon="6.08408">
        <ele>2052.4</ele>
        <time>2024-07-10T10:03:57Z</time>
      </trkpt>
      <trkpt lat="45.11197" lon="6.08409">
        <ele>2052.5</ele>
        <time>2024-07-10T10:03:58Z</time>
      </trkpt>
      <trkpt lat="45.11198" lon="6.0841">
        <ele>2052.6</ele>
        <time>2024-07-10T10:03:59Z</time>
      </trkpt>
      <trkpt lat="45.11199" lon="6.08411">
        <ele>2052.7</ele>
        <time>2024-07-10T10:04:00Z</time>
      </trkpt>
      <trkpt lat="45.112" lon="6.08412">
        <ele>2052.8</ele>
        <time>2024-07-10T10:04:01Z</time>
      </trkpt>
      <trkpt lat="45.11201" lon="6.08414">
        <ele>2053</ele>
        <time>2024-07-10T10:04:02Z</time>
      </trkpt>
      <trkpt lat="45.11202" lon="6.08415">
        <ele>2053.1</ele>
        <time>2024-07-10T10:04:03Z</time>
      </trkpt>
      <trkpt lat="45.11203" lon="6.08416">
        <ele>2053.2</ele>
        <time>2024-07-10T10:04:04Z</time>
      </trkpt>
      <trkpt lat="45.11204" lon="6.08417">
        <ele>2053.3</ele>
        <time>2024-07-10T10:04:05Z</time>
      </trkpt>
      <trkpt lat="45.11205" lon="6.08418">
        <ele>2053.5</ele>
        <time>2024-07-10T10:04:06Z</time>
      </trkpt>
      <trkpt lat="45.11207" lon="6.0842">
        <ele>2053.7</ele>
        <time>2024-07-10T10:04:07Z</time>
      </trkpt>
      <trkpt lat="45.11207" lon="6.08421">
        <ele>2053.8</ele>
        <time>2024-07-10T10:04:08Z</time>
      </trkpt>
      <trkpt lat="45.11208" lon="6.08421">
        <ele>2053.8</ele>
        <time>2024-07-10T10:04:09Z</time>
      </trkpt>
      <trkpt lat="45.11209" lon="6.08423">
        <ele>2054</ele>
        <time>2024-07-10T10:04:10Z</time>
      </trkpt>
      <trkpt lat="45.1121" lon="6.08424">
        <ele>2054.1</ele>
        <time>2024-07-10T10:04:11Z</time>
      </trkpt>
      <trkpt lat="45.1121" lon="6.08425">
        <ele>2054.2</ele>
        <time>2024-07-10T10:04:12Z</time>
      </trkpt>
      <trkpt lat="45.11212" lon="6.08427">
        <ele>2054.4</ele>
        <time>2024-07-10T10:04:13Z</time>
      </trkpt>
      <trkpt lat="45.11212" lon="6.08428">
        <ele>2054.5</ele>
        <time>2024-07-10T10:04:14Z</time>
      </trkpt>
      <trkpt lat="45.11213" lon="6.08429">
        <ele>2054.6</ele>
        <time>2024-07-10T10:04:15Z</time>
      </trkpt>
      <trkpt lat="45.11214" lon="6.08431">
        <ele>2054.7</ele>
        <time>2024-07-10T10:04:16Z</time>
      </trkpt>
      <trkpt lat="45.11214" lon="6.08433">
        <ele>2054.9</ele>
        <time>2024-07-10T10:04:17Z</time>
      </trkpt>
      <trkpt lat="45.11214" lon="6.08434">
        <ele>2054.9</ele>
        <time>2024-07-10T10:04:18Z</time>
      </trkpt>
      <trkpt lat="45.11214" lon="6.08435">
        <ele>2055.1</ele>
        <time>2024-07-10T10:04:19Z</time>
      </trkpt>
      <trkpt lat="45.11215" lon="6.08436">
        <ele>2055.2</ele>
        <time>2024-07-10T10:04:20Z</time>
      </trkpt>
      <trkpt lat="45.11216" lon="6.08437">
        <ele>2055.3</ele>
        <time>2024-07-10T10:04:21Z</time>
      </trkpt>
      <trkpt lat="45.11217" lon="6.08438">
        <ele>2055.4</ele>
        <time>2024-07-10T10:04:22Z</time>
      </trkpt>
      <trkpt lat="45.11218" lon="6.08439">
        <ele>2055.5</ele>
        <time>2024-07-10T10:04:23Z</time>
      </trkpt>
      <trkpt lat="45.11219" lon="6.0844">
        <ele>2055.7</ele>
        <time>2024-07-10T10:04:24Z</time>
      </trkpt>
      <trkpt lat="45.1122" lon="6.08441">
        <ele>2055.8</ele>
        <time>2024-07-10T10:04:25Z</time>
      </trkpt>
      <trkpt lat="45.11221" lon="6.08442">
        <ele>2055.9</ele>
        <time>2024-07-10T10:04:26Z</time>
      </trkpt>
      <trkpt lat="45.11222" lon="6.08443">
        <ele>2056</ele>
        <time>2024-07-10T10:04:27Z</time>
      </trkpt>
      <trkpt lat="45.11223" lon="6.08443">
        <ele>2056.1</ele>
        <time>2024-07-10T10:04:28Z</time>
      </trkpt>
      <trkpt lat="45.11224" lon="6.08444">
        <ele>2056.2</ele>
        <time>2024-07-10T10:04:29Z</time>
      </trkpt>
      <trkpt lat="45.11225" lon="6.08445">
        <ele>2056.3</ele>
        <time>2024-07-10T10:04:30Z</time>
      </trkpt>
      <trkpt lat="45.11226" lon="6.08446">
        <ele>2056.4</ele>
        <time>2024-07-10T10:04:31Z</time>
      </trkpt>
      <trkpt lat="45.11227" lon="6.08447">
        <ele>2056.6</ele>
        <time>2024-07-10T10:04:32Z</time>
      </trkpt>
      <trkpt lat="45.11228" lon="6.08447">
        <ele>2056.7</ele>
        <time>2024-07-10T10:04:33Z</time>
      </trkpt>
      <trkpt lat="45.11229" lon="6.08448">
        <ele>2056.8</ele>
        <time>2024-07-10T10:04:34Z</time>
      </trkpt>
      <trkpt lat="45.1123" lon="6.08449">
        <ele>2056.9</ele>
        <time>2024-07-10T10:04:35Z</time>
      </trkpt>
      <trkpt lat="45.11231" lon="6.08449">
        <ele>2057</ele>
        <time>2024-07-10T10:04:36Z</time>
      </trkpt>
      <trkpt lat="45.11232" lon="6.0845">
        <ele>2057.1</ele>
        <time>2024-07-10T10:04:37Z</time>
      </trkpt>
      <trkpt lat="45.11233" lon="6.08451">
        <ele>2057.2</ele>
        <time>2024-07-10T10:04:38Z</time>
      </trkpt>
      <trkpt lat="45.11234" lon="6.08451">
        <ele>2057.3</ele>
        <time>2024-07-10T10:04:39Z</time>
      </trkpt>
      <trkpt lat="45.11236" lon="6.08452">
        <ele>2057.5</ele>
        <time>2024-07-10T10:04:40Z</time>
      </trkpt>
      <trkpt lat="45.11236" lon="6.08453">
        <ele>2057.6</ele>
        <time>2024-07-10T10:04:41Z</time>
      </trkpt>
      <trkpt lat="45.11237" lon="6.08453">
        <ele>2057.7</ele>
        <time>2024-07-10T10:04:42Z</time>
      </trkpt>
      <trkpt lat="45.11238" lon="6.08454">
        <ele>2057.7</ele>
        <time>2024-07-10T10:04:43Z</time>
      </trkpt>
      <trkpt lat="45.11239" lon="6.08454">
        <ele>2057.9</ele>
        <time>2024-07-10T10:04:44Z</time>
      </trkpt>
      <trkpt lat="45.1124" lon="6.08455">
        <ele>2058</ele>
        <time>2024-07-10T10:04:45Z</time>
      </trkpt>
      <trkpt lat="45.11242" lon="6.08456">
        <ele>2058.1</ele>
        <time>2024-07-10T10:04:46Z</time>
      </trkpt>
      <trkpt lat="45.11243" lon="6.08456">
        <ele>2058.2</ele>
        <time>2024-07-10T10:04:47Z</time>
      </trkpt>
      <trkpt lat="45.11244" lon="6.08457">
        <ele>2058.3</ele>
        <time>2024-07-10T10:04:48Z</time>
      </trkpt>
      <trkpt lat="45.11245" lon="6.08458">
        <ele>2058.5</ele>
        <time>2024-07-10T10:04:49Z</time>
      </trkpt>
      <trkpt lat="45.11246" lon="6.08458">
        <ele>2058.6</ele>
        <time>2024-07-10T10:04:50Z</time>
      </trkpt>
      <trkpt lat="45.11247" lon="6.08459">
        <ele>2058.7</ele>
        <time>2024-07-10T10:04:51Z</time>
      </trkpt>
      <trkpt lat="45.11249" lon="6.08459">
        <ele>2058.8</ele>
        <time>2024-07-10T10:04:52Z</time>
      </trkpt>
      <trkpt lat="45.1125" lon="6.0846">
        <ele>2058.9</ele>
        <time>2024-07-10T10:04:53Z</time>
      </trkpt>
      <trkpt lat="45.11251" lon="6.0846">
        <ele>2059</ele>
        <time>2024-07-10T10:04:54Z</time>
      </trkpt>
      <trkpt lat="45.11252" lon="6.08461">
        <ele>2059.2</ele>
        <time>2024-07-10T10:04:55Z</time>
      </trkpt>
      <trkpt lat="45.11253" lon="6.08461">
        <ele>2059.3</ele>
        <time>2024-07-10T10:04:56Z</time>
      </trkpt>
      <trkpt lat="45.11255" lon="6.08462">
        <ele>2059.4</ele>
        <time>2024-07-10T10:04:57Z</time>
      </trkpt>
      <trkpt lat="45.11257" lon="6.08463">
        <ele>2059.6</ele>
        <time>2024-07-10T10:04:58Z</time>
      </trkpt>
      <trkpt lat="45.11257" lon="6.08463">
        <ele>2059.7</ele>
        <time>2024-07-10T10:04:59Z</time>
      </trkpt>
      <trkpt lat="45.11258" lon="6.08464">
        <ele>2059.8</ele>
        <time>2024-07-10T10:05:00Z</time>
      </trkpt>
      <trkpt lat="45.11259" lon="6.08464">
        <ele>2059.9</ele>
        <time>2024-07-10T10:05:01Z</time>
      </trkpt>
      <trkpt lat="45.11261" lon="6.08465">
        <ele>2060</ele>
        <time>2024-07-10T10:05:02Z</time>
      </trkpt>
      <trkpt lat="45.11263" lon="6.08466">
        <ele>2060.2</ele>
        <time>2024-07-10T10:05:03Z</time>
      </trkpt>
      <trkpt lat="45.11263" lon="6.08467">
        <ele>2060.3</ele>
        <time>2024-07-10T10:05:04Z</time>
      </trkpt>
      <trkpt lat="45.11264" lon="6.08467">
        <ele>2060.4</ele>
        <time>2024-07-10T10:05:05Z</time>
      </trkpt>
      <trkpt lat="45.11265" lon="6.08468">
        <ele>2060.5</ele>
        <time>2024-07-10T10:05:06Z</time>
      </trkpt>
      <trkpt lat="45.11267" lon="6.08469">
        <ele>2060.7</ele>
        <time>2024-07-10T10:05:07Z</time>
      </trkpt>
      <trkpt lat="45.11268" lon="6.0847">
        <ele>2060.8</ele>
        <time>2024-07-10T10:05:08Z</time>
      </trkpt>
      <trkpt lat="45.11269" lon="6.08471">
        <ele>2060.9</ele>
        <time>2024-07-10T10:05:09Z</time>
      </trkpt>
      <trkpt lat="45.1127" lon="6.08472">
        <ele>2061</ele>
        <time>2024-07-10T10:05:10Z</time>
      </trkpt>
      <trkpt lat="45.11271" lon="6.08473">
        <ele>2061.1</ele>
        <time>2024-07-10T10:05:11Z</time>
      </trkpt>
      <trkpt lat="45.11272" lon="6.08474">
        <ele>2061.3</ele>
        <time>2024-07-10T10:05:12Z</time>
      </trkpt>
      <trkpt lat="45.11274" lon="6.08475">
        <ele>2061.5</ele>
        <time>2024-07-10T10:05:13Z</time>
      </trkpt>
      <trkpt lat="45.11275" lon="6.08476">
        <ele>2061.5</ele>
        <time>2024-07-10T10:05:14Z</time>
      </trkpt>
      <trkpt lat="45.11275" lon="6.08476">
        <ele>2061.6</ele>
        <time>2024-07-10T10:05:15Z</time>
      </trkpt>
      <trkpt lat="45.11277" lon="6.08477">
        <ele>2061.7</ele>
        <time>2024-07-10T10:05:16Z</time>
      </trkpt>
      <trkpt lat="45.11278" lon="6.08478">
        <ele>2061.8</ele>
        <time>2024-07-10T10:05:17Z</time>
      </trkpt>
      <trkpt lat="45.11279" lon="6.08479">
        <ele>2061.9</ele>
        <time>2024-07-10T10:05:18Z</time>
      </trkpt>
      <trkpt lat="45.1128" lon="6.0848">
        <ele>2062</ele>
        <time>2024-07-10T10:05:19Z</time>
      </trkpt>
      <trkpt lat="45.11281" lon="6.08481">
        <ele>2062.1</ele>
        <time>2024-07-10T10:05:20Z</time>
      </trkpt>
      <trkpt lat="45.11282" lon="6.08482">
        <ele>2062.2</ele>
        <time>2024-07-10T10:05:21Z</time>
      </trkpt>
      <trkpt lat="45.11283" lon="6.08484">
        <ele>2062.3</ele>
        <time>2024-07-10T10:05:22Z</time>
      </trkpt>
      <trkpt lat="45.11284" lon="6.08486">
        <ele>2062.5</ele>
        <time>2024-07-10T10:05:23Z</time>
      </trkpt>
      <trkpt lat="45.11285" lon="6.08487">
        <ele>2062.5</ele>
        <time>2024-07-10T10:05:24Z</time>
      </trkpt>
      <trkpt lat="45.11285" lon="6.08488">
        <ele>2062.6</ele>
        <time>2024-07-10T10:05:25Z</time>
      </trkpt>
      <trkpt lat="45.11286" lon="6.08489">
        <ele>2062.7</ele>
        <time>2024-07-10T10:05:26Z</time>
      </trkpt>
      <trkpt lat="45.11287" lon="6.08491">
        <ele>2062.8</ele>
        <time>2024-07-10T10:05:27Z</time>
      </trkpt>
      <trkpt lat="45.11288" lon="6.08493">
        <ele>2062.9</ele>
        <time>2024-07-10T10:05:28Z</time>
      </trkpt>
      <trkpt lat="45.11289" lon="6.08494">
        <ele>2063</ele>
        <time>2024-07-10T10:05:29Z</time>
      </trkpt>
      <trkpt lat="45.11289" lon="6.08495">
        <ele>2063</ele>
        <time>2024-07-10T10:05:30Z</time>
      </trkpt>
      <trkpt lat="45.1129" lon="6.08496">
        <ele>2063.1</ele>
        <time>2024-07-10T10:05:31Z</time>
      </trkpt>
      <trkpt lat="45.11292" lon="6.08498">
        <ele>2063.2</ele>
        <time>2024-07-10T10:05:32Z</time>
      </trkpt>
      <trkpt lat="45.11292" lon="6.08499">
        <ele>2063.3</ele>
        <time>2024-07-10T10:05:33Z</time>
      </trkpt>
      <trkpt lat="45.11293" lon="6.085">
        <ele>2063.4</ele>
        <time>2024-07-10T10:05:34Z</time>
      </trkpt>
      <trkpt lat="45.11294" lon="6.08501">
        <ele>2063.4</ele>
        <time>2024-07-10T10:05:35Z</time>
      </trkpt>
      <trkpt lat="45.11295" lon="6.08502">
        <ele>2063.5</ele>
        <time>2024-07-10T10:05:36Z</time>
      </trkpt>
      <trkpt lat="45.11296" lon="6.08503">
        <ele>2063.6</ele>
        <time>2024-07-10T10:05:37Z</time>
      </trkpt>
      <trkpt lat="45.11298" lon="6.08505">
        <ele>2063.7</ele>
        <time>2024-07-10T10:05:38Z</time>
      </trkpt>
      <trkpt lat="45.11299" lon="6.08506">
        <ele>2063.8</ele>
        <time>2024-07-10T10:05:39Z</time>
      </trkpt>
      <trkpt lat="45.11299" lon="6.08507">
        <ele>2063.8</ele>
        <time>2024-07-10T10:05:40Z</time>
      </trkpt>
      <trkpt lat="45.113" lon="6.08508">
        <ele>2063.9</ele>
        <time>2024-07-10T10:05:41Z</time>
      </trkpt>
      <trkpt lat="45.11302" lon="6.08509">
        <ele>2064</ele>
        <time>2024-07-10T10:05:42Z</time>
      </trkpt>
      <trkpt lat="45.11302" lon="6.0851">
        <ele>2064.1</ele>
        <time>2024-07-10T10:05:43Z</time>
      </trkpt>
      <trkpt lat="45.11303" lon="6.08511">
        <ele>2064.1</ele>
        <time>2024-07-10T10:05:44Z</time>
      </trkpt>
      <trkpt lat="45.11304" lon="6.08512">
        <ele>2064.2</ele>
        <time>2024-07-10T10:05:45Z</time>
      </trkpt>
      <trkpt lat="45.11305" lon="6.08513">
        <ele>2064.3</ele>
        <time>2024-07-10T10:05:46Z</time>
      </trkpt>
      <trkpt lat="45.11307" lon="6.08515">
        <ele>2064.3</ele>
        <time>2024-07-10T10:05:47Z</time>
      </trkpt>
      <trkpt lat="45.11308" lon="6.08515">
        <ele>2064.4</ele>
        <time>2024-07-10T10:05:48Z</time>
      </trkpt>
      <trkpt lat="45.11309" lon="6.08516">
        <ele>2064.5</ele>
        <time>2024-07-10T10:05:49Z</time>
      </trkpt>
      <trkpt lat="45.1131" lon="6.08517">
        <ele>2064.5</ele>
        <time>2024-07-10T10:05:50Z</time>
      </trkpt>
      <trkpt lat="45.11311" lon="6.08518">
        <ele>2064.6</ele>
        <time>2024-07-10T10:05:51Z</time>
      </trkpt>
      <trkpt lat="45.11312" lon="6.08519">
        <ele>2064.6</ele>
        <time>2024-07-10T10:05:52Z</time>
      </trkpt>
      <trkpt lat="45.11313" lon="6.08519">
        <ele>2064.7</ele>
        <time>2024-07-10T10:05:53Z</time>
      </trkpt>
      <trkpt lat="45.11314" lon="6.0852">
        <ele>2064.7</ele>
        <time>2024-07-10T10:05:54Z</time>
      </trkpt>
      <trkpt lat="45.11315" lon="6.08521">
        <ele>2064.7</ele>
        <time>2024-07-10T10:05:55Z</time>
      </trkpt>
      <trkpt lat="45.11316" lon="6.08522">
        <ele>2064.8</ele>
        <time>2024-07-10T10:05:56Z</time>
      </trkpt>
      <trkpt lat="45.11317" lon="6.08523">
        <ele>2064.8</ele>
        <time>2024-07-10T10:05:57Z</time>
      </trkpt>
      <trkpt lat="45.11318" lon="6.08524">
        <ele>2064.9</ele>
        <time>2024-07-10T10:05:58Z</time>
      </trkpt>
      <trkpt lat="45.11319" lon="6.08525">
        <ele>2064.9</ele>
        <time>2024-07-10T10:05:59Z</time>
      </trkpt>
      <trkpt lat="45.1132" lon="6.08526">
        <ele>2064.9</ele>
        <time>2024-07-10T10:06:00Z</time>
      </trkpt>
      <trkpt lat="45.1132" lon="6.08527">
        <ele>2065</ele>
        <time>2024-07-10T10:06:01Z</time>
      </trkpt>
      <trkpt lat="45.11322" lon="6.08529">
        <ele>2065</ele>
        <time>2024-07-10T10:06:02Z</time>
      </trkpt>
      <trkpt lat="45.11323" lon="6.0853">
        <ele>2065</ele>
        <time>2024-07-10T10:06:03Z</time>
      </trkpt>
      <trkpt lat="45.11324" lon="6.08531">
        <ele>2065</ele>
        <time>2024-07-10T10:06:04Z</time>
      </trkpt>
      <trkpt lat="45.11325" lon="6.08532">
        <ele>2065.1</ele>
        <time>2024-07-10T10:06:05Z</time>
      </trkpt>
      <trkpt lat="45.11326" lon="6.08533">
        <ele>2065.1</ele>
        <time>2024-07-10T10:06:06Z</time>
      </trkpt>
      <trkpt lat="45.11327" lon="6.08534">
        <ele>2065.1</ele>
        <time>2024-07-10T10:06:07Z</time>
      </trkpt>
      <trkpt lat="45.11328" lon="6.08535">
        <ele>2065.1</ele>
        <time>2024-07-10T10:06:08Z</time>
      </trkpt>
      <trkpt lat="45.11329" lon="6.08535">
        <ele>2065.1</ele>
        <time>2024-07-10T10:06:09Z</time>
      </trkpt>
      <trkpt lat="45.1133" lon="6.08536">
        <ele>2065.1</ele>
        <time>2024-07-10T10:06:10Z</time>
      </trkpt>
      <trkpt lat="45.11331" lon="6.08537">
        <ele>2065.1</ele>
        <time>2024-07-10T10:06:11Z</time>
      </trkpt>
      <trkpt lat="45.11333" lon="6.08539">
        <ele>2065.2</ele>
        <time>2024-07-10T10:06:12Z</time>
      </trkpt>
      <trkpt lat="45.11333" lon="6.08539">
        <ele>2065.2</ele>
        <time>2024-07-10T10:06:13Z</time>
      </trkpt>
      <trkpt lat="45.11335" lon="6.0854">
        <ele>2065.2</ele>
        <time>2024-07-10T10:06:14Z</time>
      </trkpt>
      <trkpt lat="45.11336" lon="6.08541">
        <ele>2065.2</ele>
        <time>2024-07-10T10:06:15Z</time>
      </trkpt>
      <trkpt lat="45.11337" lon="6.08542">
        <ele>2065.2</ele>
        <time>2024-07-10T10:06:16Z</time>
      </trkpt>
      <trkpt lat="45.11338" lon="6.08543">
        <ele>2065.2</ele>
        <time>2024-07-10T10:06:17Z</time>
      </trkpt>
      <trkpt lat="45.11339" lon="6.08544">
        <ele>2065.2</ele>
        <time>2024-07-10T10:06:18Z</time>
      </trkpt>
      <trkpt lat="45.1134" lon="6.08545">
        <ele>2065.2</ele>
        <time>2024-07-10T10:06:19Z</time>
      </trkpt>
      <trkpt lat="45.11341" lon="6.08546">
        <ele>2065.2</ele>
        <time>2024-07-10T10:06:20Z</time>
      </trkpt>
      <trkpt lat="45.11342" lon="6.08547">
        <ele>2065.2</ele>
        <time>2024-07-10T10:06:21Z</time>
      </trkpt>
      <trkpt lat="45.11343" lon="6.08549">
        <ele>2065.2</ele>
        <time>2024-07-10T10:06:22Z</time>
      </trkpt>
      <trkpt lat="45.11345" lon="6.08549">
        <ele>2065.2</ele>
        <time>2024-07-10T10:06:23Z</time>
      </trkpt>
      <trkpt lat="45.11346" lon="6.08549">
        <ele>2065.2</ele>
        <time>2024-07-10T10:06:24Z</time>
      </trkpt>
      <trkpt lat="45.11347" lon="6.08549">
        <ele>2065.2</ele>
        <time>2024-07-10T10:06:25Z</time>
      </trkpt>
      <trkpt lat="45.11349" lon="6.0855">
        <ele>2065.2</ele>
        <time>2024-07-10T10:06:26Z</time>
      </trkpt>
      <trkpt lat="45.1135" lon="6.0855">
        <ele>2065.2</ele>
        <time>2024-07-10T10:06:27Z</time>
      </trkpt>
      <trkpt lat="45.11352" lon="6.0855">
        <ele>2065.2</ele>
        <time>2024-07-10T10:06:28Z</time>
      </trkpt>
      <trkpt lat="45.11353" lon="6.08551">
        <ele>2065.2</ele>
        <time>2024-07-10T10:06:29Z</time>
      </trkpt>
      <trkpt lat="45.11355" lon="6.08553">
        <ele>2065.3</ele>
        <time>2024-07-10T10:06:30Z</time>
      </trkpt>
      <trkpt lat="45.11355" lon="6.08553">
        <ele>2065.3</ele>
        <time>2024-07-10T10:06:31Z</time>
      </trkpt>
      <trkpt lat="45.11356" lon="6.08554">
        <ele>2065.3</ele>
        <time>2024-07-10T10:06:32Z</time>
      </trkpt>
      <trkpt lat="45.11358" lon="6.08555">
        <ele>2065.3</ele>
        <time>2024-07-10T10:06:33Z</time>
      </trkpt>
      <trkpt lat="45.11358" lon="6.08556">
        <ele>2065.3</ele>
        <time>2024-07-10T10:06:34Z</time>
      </trkpt>
      <trkpt lat="45.11359" lon="6.08557">
        <ele>2065.3</ele>
        <time>2024-07-10T10:06:35Z</time>
      </trkpt>
      <trkpt lat="45.1136" lon="6.08558">
        <ele>2065.3</ele>
        <time>2024-07-10T10:06:36Z</time>
      </trkpt>
      <trkpt lat="45.11361" lon="6.0856">
        <ele>2065.3</ele>
        <time>2024-07-10T10:06:37Z</time>
      </trkpt>
      <trkpt lat="45.11362" lon="6.08561">
        <ele>2065.3</ele>
        <time>2024-07-10T10:06:38Z</time>
      </trkpt>
      <trkpt lat="45.11363" lon="6.08562">
        <ele>2065.4</ele>
        <time>2024-07-10T10:06:39Z</time>
      </trkpt>
      <trkpt lat="45.11364" lon="6.08563">
        <ele>2065.4</ele>
        <time>2024-07-10T10:06:40Z</time>
      </trkpt>
      <trkpt lat="45.11365" lon="6.08563">
        <ele>2065.4</ele>
        <time>2024-07-10T10:06:41Z</time>
      </trkpt>
      <trkpt lat="45.11366" lon="6.08564">
        <ele>2065.4</ele>
        <time>2024-07-10T10:06:42Z</time>
      </trkpt>
      <trkpt lat="45.11367" lon="6.08565">
        <ele>2065.4</ele>
        <time>2024-07-10T10:06:43Z</time>
      </trkpt>
      <trkpt lat="45.11368" lon="6.08565">
        <ele>2065.4</ele>
        <time>2024-07-10T10:06:44Z</time>
      </trkpt>
      <trkpt lat="45.11369" lon="6.08566">
        <ele>2065.5</ele>
        <time>2024-07-10T10:06:45Z</time>
      </trkpt>
      <trkpt lat="45.11371" lon="6.08566">
        <ele>2065.5</ele>
        <time>2024-07-10T10:06:46Z</time>
      </trkpt>
      <trkpt lat="45.11372" lon="6.08566">
        <ele>2065.5</ele>
        <time>2024-07-10T10:06:47Z</time>
      </trkpt>
      <trkpt lat="45.11373" lon="6.08567">
        <ele>2065.5</ele>
        <time>2024-07-10T10:06:48Z</time>
      </trkpt>
      <trkpt lat="45.11374" lon="6.08567">
        <ele>2065.5</ele>
        <time>2024-07-10T10:06:49Z</time>
      </trkpt>
      <trkpt lat="45.11375" lon="6.08568">
        <ele>2065.6</ele>
        <time>2024-07-10T10:06:50Z</time>
      </trkpt>
      <trkpt lat="45.11376" lon="6.08568">
        <ele>2065.6</ele>
        <time>2024-07-10T10:06:51Z</time>
      </trkpt>
      <trkpt lat="45.11378" lon="6.08568">
        <ele>2065.6</ele>
        <time>2024-07-10T10:06:52Z</time>
      </trkpt>
      <trkpt lat="45.11379" lon="6.08568">
        <ele>2065.6</ele>
        <time>2024-07-10T10:06:53Z</time>
      </trkpt>
      <trkpt lat="45.11381" lon="6.08568">
        <ele>2065.7</ele>
        <time>2024-07-10T10:06:54Z</time>
      </trkpt>
      <trkpt lat="45.11382" lon="6.08569">
        <ele>2065.7</ele>
        <time>2024-07-10T10:06:55Z</time>
      </trkpt>
      <trkpt lat="45.11382" lon="6.08569">
        <ele>2065.7</ele>
        <time>2024-07-10T10:06:56Z</time>
      </trkpt>
      <trkpt lat="45.11384" lon="6.08569">
        <ele>2065.8</ele>
        <time>2024-07-10T10:06:57Z</time>
      </trkpt>
      <trkpt lat="45.11385" lon="6.08569">
        <ele>2065.8</ele>
        <time>2024-07-10T10:06:58Z</time>
      </trkpt>
      <trkpt lat="45.11386" lon="6.08569">
        <ele>2065.8</ele>
        <time>2024-07-10T10:06:59Z</time>
      </trkpt>
      <trkpt lat="45.11388" lon="6.0857">
        <ele>2065.9</ele>
        <time>2024-07-10T10:07:00Z</time>
      </trkpt>
      <trkpt lat="45.11389" lon="6.0857">
        <ele>2065.9</ele>
        <time>2024-07-10T10:07:01Z</time>
      </trkpt>
      <trkpt lat="45.1139" lon="6.0857">
        <ele>2065.9</ele>
        <time>2024-07-10T10:07:02Z</time>
      </trkpt>
      <trkpt lat="45.11391" lon="6.0857">
        <ele>2066</ele>
        <time>2024-07-10T10:07:03Z</time>
      </trkpt>
      <trkpt lat="45.11392" lon="6.08571">
        <ele>2066</ele>
        <time>2024-07-10T10:07:04Z</time>
      </trkpt>
      <trkpt lat="45.11393" lon="6.08571">
        <ele>2066.1</ele>
        <time>2024-07-10T10:07:05Z</time>
      </trkpt>
      <trkpt lat="45.11394" lon="6.08571">
        <ele>2066.1</ele>
        <time>2024-07-10T10:07:06Z</time>
      </trkpt>
      <trkpt lat="45.11396" lon="6.08572">
        <ele>2066.2</ele>
        <time>2024-07-10T10:07:07Z</time>
      </trkpt>
      <trkpt lat="45.11397" lon="6.08572">
        <ele>2066.3</ele>
        <time>2024-07-10T10:07:08Z</time>
      </trkpt>
      <trkpt lat="45.11398" lon="6.08573">
        <ele>2066.3</ele>
        <time>2024-07-10T10:07:09Z</time>
      </trkpt>
      <trkpt lat="45.11399" lon="6.08573">
        <ele>2066.4</ele>
        <time>2024-07-10T10:07:10Z</time>
      </trkpt>
      <trkpt lat="45.114" lon="6.08574">
        <ele>2066.4</ele>
        <time>2024-07-10T10:07:11Z</time>
      </trkpt>
      <trkpt lat="45.11401" lon="6.08575">
        <ele>2066.5</ele>
        <time>2024-07-10T10:07:12Z</time>
      </trkpt>
      <trkpt lat="45.11402" lon="6.08575">
        <ele>2066.6</ele>
        <time>2024-07-10T10:07:13Z</time>
      </trkpt>
      <trkpt lat="45.11403" lon="6.08576">
        <ele>2066.6</ele>
        <time>2024-07-10T10:07:14Z</time>
      </trkpt>
      <trkpt lat="45.11404" lon="6.08576">
        <ele>2066.7</ele>
        <time>2024-07-10T10:07:15Z</time>
      </trkpt>
      <trkpt lat="45.11405" lon="6.08576">
        <ele>2066.8</ele>
        <time>2024-07-10T10:07:16Z</time>
      </trkpt>
      <trkpt lat="45.11407" lon="6.08576">
        <ele>2066.9</ele>
        <time>2024-07-10T10:07:17Z</time>
      </trkpt>
      <trkpt lat="45.11407" lon="6.08577">
        <ele>2066.9</ele>
        <time>2024-07-10T10:07:18Z</time>
      </trkpt>
      <trkpt lat="45.11409" lon="6.08576">
        <ele>2067</ele>
        <time>2024-07-10T10:07:19Z</time>
      </trkpt>
      <trkpt lat="45.11411" lon="6.08577">
        <ele>2067.2</ele>
        <time>2024-07-10T10:07:20Z</time>
      </trkpt>
      <trkpt lat="45.11412" lon="6.08577">
        <ele>2067.3</ele>
        <time>2024-07-10T10:07:21Z</time>
      </trkpt>
      <trkpt lat="45.11412" lon="6.08577">
        <ele>2067.3</ele>
        <time>2024-07-10T10:07:22Z</time>
      </trkpt>
      <trkpt lat="45.11414" lon="6.08577">
        <ele>2067.5</ele>
        <time>2024-07-10T10:07:23Z</time>
      </trkpt>
      <trkpt lat="45.11415" lon="6.08577">
        <ele>2067.5</ele>
        <time>2024-07-10T10:07:24Z</time>
      </trkpt>
      <trkpt lat="45.11416" lon="6.08578">
        <ele>2067.6</ele>
        <time>2024-07-10T10:07:25Z</time>
      </trkpt>
      <trkpt lat="45.11417" lon="6.08578">
        <ele>2067.7</ele>
        <time>2024-07-10T10:07:26Z</time>
      </trkpt>
      <trkpt lat="45.11419" lon="6.08579">
        <ele>2067.9</ele>
        <time>2024-07-10T10:07:27Z</time>
      </trkpt>
      <trkpt lat="45.11421" lon="6.08579">
        <ele>2068</ele>
        <time>2024-07-10T10:07:28Z</time>
      </trkpt>
      <trkpt lat="45.11422" lon="6.0858">
        <ele>2068.1</ele>
        <time>2024-07-10T10:07:29Z</time>
      </trkpt>
      <trkpt lat="45.11423" lon="6.0858">
        <ele>2068.2</ele>
        <time>2024-07-10T10:07:30Z</time>
      </trkpt>
      <trkpt lat="45.11424" lon="6.08581">
        <ele>2068.3</ele>
        <time>2024-07-10T10:07:31Z</time>
      </trkpt>
      <trkpt lat="45.11425" lon="6.08582">
        <ele>2068.5</ele>
        <time>2024-07-10T10:07:32Z</time>
      </trkpt>
      <trkpt lat="45.11426" lon="6.08582">
        <ele>2068.5</ele>
        <time>2024-07-10T10:07:33Z</time>
      </trkpt>
      <trkpt lat="45.11427" lon="6.08583">
        <ele>2068.6</ele>
        <time>2024-07-10T10:07:34Z</time>
      </trkpt>
      <trkpt lat="45.11429" lon="6.08583">
        <ele>2068.8</ele>
        <time>2024-07-10T10:07:35Z</time>
      </trkpt>
      <trkpt lat="45.11431" lon="6.08584">
        <ele>2069</ele>
        <time>2024-07-10T10:07:36Z</time>
      </trkpt>
      <trkpt lat="45.11431" lon="6.08584">
        <ele>2069</ele>
        <time>2024-07-10T10:07:37Z</time>
      </trkpt>
      <trkpt lat="45.11432" lon="6.08584">
        <ele>2069.1</ele>
        <time>2024-07-10T10:07:38Z</time>
      </trkpt>
      <trkpt lat="45.11434" lon="6.08585">
        <ele>2069.3</ele>
        <time>2024-07-10T10:07:39Z</time>
      </trkpt>
      <trkpt lat="45.11435" lon="6.08585">
        <ele>2069.4</ele>
        <time>2024-07-10T10:07:40Z</time>
      </trkpt>
      <trkpt lat="45.11436" lon="6.08586">
        <ele>2069.5</ele>
        <time>2024-07-10T10:07:41Z</time>
      </trkpt>
      <trkpt lat="45.11438" lon="6.08587">
        <ele>2069.7</ele>
        <time>2024-07-10T10:07:42Z</time>
      </trkpt>
      <trkpt lat="45.11438" lon="6.08587">
        <ele>2069.8</ele>
        <time>2024-07-10T10:07:43Z</time>
      </trkpt>
      <trkpt lat="45.1144" lon="6.08587">
        <ele>2069.9</ele>
        <time>2024-07-10T10:07:44Z</time>
      </trkpt>
      <trkpt lat="45.11441" lon="6.08588">
        <ele>2070</ele>
        <time>2024-07-10T10:07:45Z</time>
      </trkpt>
      <trkpt lat="45.11442" lon="6.08588">
        <ele>2070.1</ele>
        <time>2024-07-10T10:07:46Z</time>
      </trkpt>
      <trkpt lat="45.11443" lon="6.08589">
        <ele>2070.3</ele>
        <time>2024-07-10T10:07:47Z</time>
      </trkpt>
      <trkpt lat="45.11444" lon="6.08589">
        <ele>2070.3</ele>
        <time>2024-07-10T10:07:48Z</time>
      </trkpt>
      <trkpt lat="45.11445" lon="6.0859">
        <ele>2070.4</ele>
        <time>2024-07-10T10:07:49Z</time>
      </trkpt>
      <trkpt lat="45.11447" lon="6.08591">
        <ele>2070.6</ele>
        <time>2024-07-10T10:07:50Z</time>
      </trkpt>
      <trkpt lat="45.11448" lon="6.08591">
        <ele>2070.7</ele>
        <time>2024-07-10T10:07:51Z</time>
      </trkpt>
      <trkpt lat="45.11448" lon="6.08592">
        <ele>2070.8</ele>
        <time>2024-07-10T10:07:52Z</time>
      </trkpt>
      <trkpt lat="45.11449" lon="6.08592">
        <ele>2070.9</ele>
        <time>2024-07-10T10:07:53Z</time>
      </trkpt>
      <trkpt lat="45.1145" lon="6.08592">
        <ele>2071</ele>
        <time>2024-07-10T10:07:54Z</time>
      </trkpt>
      <trkpt lat="45.11451" lon="6.08593">
        <ele>2071.1</ele>
        <time>2024-07-10T10:07:55Z</time>
      </trkpt>
      <trkpt lat="45.11452" lon="6.08593">
        <ele>2071.2</ele>
        <time>2024-07-10T10:07:56Z</time>
      </trkpt>
      <trkpt lat="45.11454" lon="6.08594">
        <ele>2071.4</ele>
        <time>2024-07-10T10:07:57Z</time>
      </trkpt>
      <trkpt lat="45.11455" lon="6.08594">
        <ele>2071.4</ele>
        <time>2024-07-10T10:07:58Z</time>
      </trkpt>
      <trkpt lat="45.11456" lon="6.08595">
        <ele>2071.5</ele>
        <time>2024-07-10T10:07:59Z</time>
      </trkpt>
      <trkpt lat="45.11457" lon="6.08595">
        <ele>2071.6</ele>
        <time>2024-07-10T10:08:00Z</time>
      </trkpt>
      <trkpt lat="45.11458" lon="6.08596">
        <ele>2071.7</ele>
        <time>2024-07-10T10:08:01Z</time>
      </trkpt>
      <trkpt lat="45.1146" lon="6.08597">
        <ele>2071.9</ele>
        <time>2024-07-10T10:08:02Z</time>
      </trkpt>
      <trkpt lat="45.11461" lon="6.08596">
        <ele>2071.9</ele>
        <time>2024-07-10T10:08:03Z</time>
      </trkpt>
      <trkpt lat="45.11462" lon="6.08597">
        <ele>2072</ele>
        <time>2024-07-10T10:08:04Z</time>
      </trkpt>
      <trkpt lat="45.11463" lon="6.08597">
        <ele>2072.1</ele>
        <time>2024-07-10T10:08:05Z</time>
      </trkpt>
      <trkpt lat="45.11464" lon="6.08596">
        <ele>2072.2</ele>
        <time>2024-07-10T10:08:06Z</time>
      </trkpt>
      <trkpt lat="45.11465" lon="6.08595">
        <ele>2072.3</ele>
        <time>2024-07-10T10:08:07Z</time>
      </trkpt>
      <trkpt lat="45.11466" lon="6.08594">
        <ele>2072.4</ele>
        <time>2024-07-10T10:08:08Z</time>
      </trkpt>
      <trkpt lat="45.11467" lon="6.08594">
        <ele>2072.4</ele>
        <time>2024-07-10T10:08:09Z</time>
      </trkpt>
      <trkpt lat="45.11469" lon="6.08594">
        <ele>2072.5</ele>
        <time>2024-07-10T10:08:10Z</time>
      </trkpt>
      <trkpt lat="45.1147" lon="6.08594">
        <ele>2072.6</ele>
        <time>2024-07-10T10:08:11Z</time>
      </trkpt>
      <trkpt lat="45.11471" lon="6.08594">
        <ele>2072.6</ele>
        <time>2024-07-10T10:08:12Z</time>
      </trkpt>
      <trkpt lat="45.11472" lon="6.08595">
        <ele>2072.6</ele>
        <time>2024-07-10T10:08:13Z</time>
      </trkpt>
      <trkpt lat="45.11473" lon="6.08595">
        <ele>2072.7</ele>
        <time>2024-07-10T10:08:14Z</time>
      </trkpt>
      <trkpt lat="45.11474" lon="6.08595">
        <ele>2072.7</ele>
        <time>2024-07-10T10:08:15Z</time>
      </trkpt>
      <trkpt lat="45.11475" lon="6.08596">
        <ele>2072.8</ele>
        <time>2024-07-10T10:08:16Z</time>
      </trkpt>
      <trkpt lat="45.11476" lon="6.08597">
        <ele>2072.8</ele>
        <time>2024-07-10T10:08:17Z</time>
      </trkpt>
      <trkpt lat="45.11477" lon="6.08597">
        <ele>2072.9</ele>
        <time>2024-07-10T10:08:18Z</time>
      </trkpt>
      <trkpt lat="45.11478" lon="6.08598">
        <ele>2072.9</ele>
        <time>2024-07-10T10:08:19Z</time>
      </trkpt>
      <trkpt lat="45.11479" lon="6.08599">
        <ele>2073</ele>
        <time>2024-07-10T10:08:20Z</time>
      </trkpt>
      <trkpt lat="45.1148" lon="6.086">
        <ele>2073</ele>
        <time>2024-07-10T10:08:21Z</time>
      </trkpt>
      <trkpt lat="45.11481" lon="6.086">
        <ele>2073</ele>
        <time>2024-07-10T10:08:22Z</time>
      </trkpt>
      <trkpt lat="45.11482" lon="6.086">
        <ele>2073.1</ele>
        <time>2024-07-10T10:08:23Z</time>
      </trkpt>
      <trkpt lat="45.11483" lon="6.086">
        <ele>2073.1</ele>
        <time>2024-07-10T10:08:24Z</time>
      </trkpt>
      <trkpt lat="45.11484" lon="6.086">
        <ele>2073.1</ele>
        <time>2024-07-10T10:08:25Z</time>
      </trkpt>
      <trkpt lat="45.11485" lon="6.086">
        <ele>2073.2</ele>
        <time>2024-07-10T10:08:26Z</time>
      </trkpt>
      <trkpt lat="45.11487" lon="6.08601">
        <ele>2073.2</ele>
        <time>2024-07-10T10:08:27Z</time>
      </trkpt>
      <trkpt lat="45.11487" lon="6.08601">
        <ele>2073.2</ele>
        <time>2024-07-10T10:08:28Z</time>
      </trkpt>
      <trkpt lat="45.11488" lon="6.08601">
        <ele>2073.3</ele>
        <time>2024-07-10T10:08:29Z</time>
      </trkpt>
      <trkpt lat="45.11489" lon="6.08602">
        <ele>2073.3</ele>
        <time>2024-07-10T10:08:30Z</time>
      </trkpt>
      <trkpt lat="45.1149" lon="6.08602">
        <ele>2073.3</ele>
        <time>2024-07-10T10:08:31Z</time>
      </trkpt>
      <trkpt lat="45.11491" lon="6.08603">
        <ele>2073.4</ele>
        <time>2024-07-10T10:08:32Z</time>
      </trkpt>
      <trkpt lat="45.11491" lon="6.08604">
        <ele>2073.4</ele>
        <time>2024-07-10T10:08:33Z</time>
      </trkpt>
      <trkpt lat="45.11491" lon="6.08604">
        <ele>2073.4</ele>
        <time>2024-07-10T10:08:34Z</time>
      </trkpt>
      <trkpt lat="45.11491" lon="6.08605">
        <ele>2073.4</ele>
        <time>2024-07-10T10:08:35Z</time>
      </trkpt>
      <trkpt lat="45.11492" lon="6.08605">
        <ele>2073.4</ele>
        <time>2024-07-10T10:08:36Z</time>
      </trkpt>
      <trkpt lat="45.11493" lon="6.08606">
        <ele>2073.5</ele>
        <time>2024-07-10T10:08:37Z</time>
      </trkpt>
      <trkpt lat="45.11494" lon="6.08607">
        <ele>2073.5</ele>
        <time>2024-07-10T10:08:38Z</time>
      </trkpt>
      <trkpt lat="45.11494" lon="6.08607">
        <ele>2073.5</ele>
        <time>2024-07-10T10:08:39Z</time>
      </trkpt>
      <trkpt lat="45.11495" lon="6.08608">
        <ele>2073.5</ele>
        <time>2024-07-10T10:08:40Z</time>
      </trkpt>
      <trkpt lat="45.11495" lon="6.08609">
        <ele>2073.6</ele>
        <time>2024-07-10T10:08:41Z</time>
      </trkpt>
      <trkpt lat="45.11497" lon="6.0861">
        <ele>2073.6</ele>
        <time>2024-07-10T10:08:42Z</time>
      </trkpt>
      <trkpt lat="45.11497" lon="6.08611">
        <ele>2073.6</ele>
        <time>2024-07-10T10:08:43Z</time>
      </trkpt>
      <trkpt lat="45.11498" lon="6.08611">
        <ele>2073.6</ele>
        <time>2024-07-10T10:08:44Z</time>
      </trkpt>
      <trkpt lat="45.11499" lon="6.08612">
        <ele>2073.7</ele>
        <time>2024-07-10T10:08:45Z</time>
      </trkpt>
      <trkpt lat="45.11499" lon="6.08613">
        <ele>2073.7</ele>
        <time>2024-07-10T10:08:46Z</time>
      </trkpt>
      <trkpt lat="45.115" lon="6.08613">
        <ele>2073.7</ele>
        <time>2024-07-10T10:08:47Z</time>
      </trkpt>
      <trkpt lat="45.115" lon="6.08614">
        <ele>2073.7</ele>
        <time>2024-07-10T10:08:48Z</time>
      </trkpt>
      <trkpt lat="45.11501" lon="6.08613">
        <ele>2073.7</ele>
        <time>2024-07-10T10:08:49Z</time>
      </trkpt>
      <trkpt lat="45.11501" lon="6.08612">
        <ele>2073.8</ele>
        <time>2024-07-10T10:08:50Z</time>
      </trkpt>
      <trkpt lat="45.11503" lon="6.08612">
        <ele>2073.8</ele>
        <time>2024-07-10T10:08:52Z</time>
      </trkpt>
    </trkseg>
  </trk>
</gpx>